<?xml version="1.0" encoding="UTF-8" standalone="no" ?>
<gpx xmlns="http://www.topografix.com/GPX/1/1" xmlns:xsi="http://www.w3.org/2001/XMLSchema-instance" xsi:schemaLocation="http://www.topografix.com/GPX/1/1 http://www.topografix.com/GPX/1/1/gpx.xsd" version="1.1" creator="VisuGPX - https://www.visugpx.com">
  <metadata>
    <name>Hostens Belin</name>
    <desc><![CDATA[Randonnée VTT]]></desc>
  </metadata>
  <trk>
    <name><![CDATA[Hostens belin]]></name>
    <trkseg>
      <trkpt lat="44.49692" lon="-0.6498">
        <ele>72</ele>
        <time>2014-05-25T11:15:31Z</time>
      </trkpt>
      <trkpt lat="44.49688" lon="-0.64991">
        <ele>72</ele>
        <time>2014-05-25T11:15:35Z</time>
      </trkpt>
      <trkpt lat="44.49689" lon="-0.65002">
        <ele>72</ele>
        <time>2014-05-25T11:15:39Z</time>
      </trkpt>
      <trkpt lat="44.49699" lon="-0.6502">
        <ele>72</ele>
        <time>2014-05-25T11:15:47Z</time>
      </trkpt>
      <trkpt lat="44.497" lon="-0.65023">
        <ele>72</ele>
        <time>2014-05-25T11:15:48Z</time>
      </trkpt>
      <trkpt lat="44.49713" lon="-0.65048">
        <ele>72</ele>
        <time>2014-05-25T11:15:55Z</time>
      </trkpt>
      <trkpt lat="44.49718" lon="-0.6507">
        <ele>72</ele>
        <time>2014-05-25T11:16:01Z</time>
      </trkpt>
      <trkpt lat="44.49724" lon="-0.651">
        <ele>72</ele>
        <time>2014-05-25T11:16:09Z</time>
      </trkpt>
      <trkpt lat="44.4973" lon="-0.65124">
        <ele>72</ele>
        <time>2014-05-25T11:16:14Z</time>
      </trkpt>
      <trkpt lat="44.49729" lon="-0.65147">
        <ele>72</ele>
        <time>2014-05-25T11:16:20Z</time>
      </trkpt>
      <trkpt lat="44.49721" lon="-0.65187">
        <ele>73</ele>
        <time>2014-05-25T11:16:27Z</time>
      </trkpt>
      <trkpt lat="44.49719" lon="-0.65221">
        <ele>73</ele>
        <time>2014-05-25T11:16:33Z</time>
      </trkpt>
      <trkpt lat="44.49718" lon="-0.65253">
        <ele>73</ele>
        <time>2014-05-25T11:16:40Z</time>
      </trkpt>
      <trkpt lat="44.49715" lon="-0.65268">
        <ele>73</ele>
        <time>2014-05-25T11:16:43Z</time>
      </trkpt>
      <trkpt lat="44.49714" lon="-0.65274">
        <ele>73</ele>
        <time>2014-05-25T11:16:44Z</time>
      </trkpt>
      <trkpt lat="44.49712" lon="-0.6528">
        <ele>73</ele>
        <time>2014-05-25T11:16:45Z</time>
      </trkpt>
      <trkpt lat="44.49708" lon="-0.65291">
        <ele>73</ele>
        <time>2014-05-25T11:16:47Z</time>
      </trkpt>
      <trkpt lat="44.49705" lon="-0.65296">
        <ele>73</ele>
        <time>2014-05-25T11:16:48Z</time>
      </trkpt>
      <trkpt lat="44.49703" lon="-0.65301">
        <ele>73</ele>
        <time>2014-05-25T11:16:49Z</time>
      </trkpt>
      <trkpt lat="44.49702" lon="-0.65306">
        <ele>73</ele>
        <time>2014-05-25T11:16:50Z</time>
      </trkpt>
      <trkpt lat="44.49701" lon="-0.6531">
        <ele>73</ele>
        <time>2014-05-25T11:16:51Z</time>
      </trkpt>
      <trkpt lat="44.49701" lon="-0.65314">
        <ele>73</ele>
        <time>2014-05-25T11:16:52Z</time>
      </trkpt>
      <trkpt lat="44.49693" lon="-0.65332">
        <ele>73</ele>
        <time>2014-05-25T11:16:57Z</time>
      </trkpt>
      <trkpt lat="44.49685" lon="-0.65356">
        <ele>73</ele>
        <time>2014-05-25T11:17:03Z</time>
      </trkpt>
      <trkpt lat="44.49684" lon="-0.65366">
        <ele>73</ele>
        <time>2014-05-25T11:17:06Z</time>
      </trkpt>
      <trkpt lat="44.49684" lon="-0.65396">
        <ele>73</ele>
        <time>2014-05-25T11:17:12Z</time>
      </trkpt>
      <trkpt lat="44.49674" lon="-0.65433">
        <ele>73</ele>
        <time>2014-05-25T11:17:19Z</time>
      </trkpt>
      <trkpt lat="44.49669" lon="-0.65467">
        <ele>73</ele>
        <time>2014-05-25T11:17:27Z</time>
      </trkpt>
      <trkpt lat="44.49669" lon="-0.65476">
        <ele>73</ele>
        <time>2014-05-25T11:17:30Z</time>
      </trkpt>
      <trkpt lat="44.49668" lon="-0.65478">
        <ele>73</ele>
        <time>2014-05-25T11:17:31Z</time>
      </trkpt>
      <trkpt lat="44.49666" lon="-0.65481">
        <ele>73</ele>
        <time>2014-05-25T11:17:32Z</time>
      </trkpt>
      <trkpt lat="44.49664" lon="-0.6549">
        <ele>73</ele>
        <time>2014-05-25T11:17:35Z</time>
      </trkpt>
      <trkpt lat="44.49663" lon="-0.65492">
        <ele>73</ele>
        <time>2014-05-25T11:17:36Z</time>
      </trkpt>
      <trkpt lat="44.49656" lon="-0.65519">
        <ele>73</ele>
        <time>2014-05-25T11:17:42Z</time>
      </trkpt>
      <trkpt lat="44.49653" lon="-0.65548">
        <ele>73</ele>
        <time>2014-05-25T11:17:48Z</time>
      </trkpt>
      <trkpt lat="44.49654" lon="-0.65575">
        <ele>73</ele>
        <time>2014-05-25T11:17:53Z</time>
      </trkpt>
      <trkpt lat="44.49654" lon="-0.65581">
        <ele>73</ele>
        <time>2014-05-25T11:17:54Z</time>
      </trkpt>
      <trkpt lat="44.49655" lon="-0.65587">
        <ele>73</ele>
        <time>2014-05-25T11:17:55Z</time>
      </trkpt>
      <trkpt lat="44.49656" lon="-0.65592">
        <ele>73</ele>
        <time>2014-05-25T11:17:56Z</time>
      </trkpt>
      <trkpt lat="44.49656" lon="-0.65599">
        <ele>73</ele>
        <time>2014-05-25T11:17:57Z</time>
      </trkpt>
      <trkpt lat="44.49657" lon="-0.65606">
        <ele>73</ele>
        <time>2014-05-25T11:17:58Z</time>
      </trkpt>
      <trkpt lat="44.49657" lon="-0.65613">
        <ele>73</ele>
        <time>2014-05-25T11:17:59Z</time>
      </trkpt>
      <trkpt lat="44.49657" lon="-0.6562">
        <ele>73</ele>
        <time>2014-05-25T11:18:00Z</time>
      </trkpt>
      <trkpt lat="44.49659" lon="-0.65657">
        <ele>73</ele>
        <time>2014-05-25T11:18:06Z</time>
      </trkpt>
      <trkpt lat="44.49663" lon="-0.65686">
        <ele>73</ele>
        <time>2014-05-25T11:18:11Z</time>
      </trkpt>
      <trkpt lat="44.49664" lon="-0.65692">
        <ele>73</ele>
        <time>2014-05-25T11:18:12Z</time>
      </trkpt>
      <trkpt lat="44.49665" lon="-0.65711">
        <ele>73</ele>
        <time>2014-05-25T11:18:15Z</time>
      </trkpt>
      <trkpt lat="44.49666" lon="-0.65718">
        <ele>73</ele>
        <time>2014-05-25T11:18:16Z</time>
      </trkpt>
      <trkpt lat="44.49666" lon="-0.65724">
        <ele>73</ele>
        <time>2014-05-25T11:18:17Z</time>
      </trkpt>
      <trkpt lat="44.49666" lon="-0.65731">
        <ele>73</ele>
        <time>2014-05-25T11:18:18Z</time>
      </trkpt>
      <trkpt lat="44.49666" lon="-0.65737">
        <ele>73</ele>
        <time>2014-05-25T11:18:19Z</time>
      </trkpt>
      <trkpt lat="44.49665" lon="-0.65743">
        <ele>73</ele>
        <time>2014-05-25T11:18:20Z</time>
      </trkpt>
      <trkpt lat="44.49664" lon="-0.65749">
        <ele>73</ele>
        <time>2014-05-25T11:18:21Z</time>
      </trkpt>
      <trkpt lat="44.49664" lon="-0.6578">
        <ele>73</ele>
        <time>2014-05-25T11:18:26Z</time>
      </trkpt>
      <trkpt lat="44.49664" lon="-0.65785">
        <ele>73</ele>
        <time>2014-05-25T11:18:27Z</time>
      </trkpt>
      <trkpt lat="44.49664" lon="-0.65808">
        <ele>73</ele>
        <time>2014-05-25T11:18:31Z</time>
      </trkpt>
      <trkpt lat="44.49663" lon="-0.65815">
        <ele>73</ele>
        <time>2014-05-25T11:18:32Z</time>
      </trkpt>
      <trkpt lat="44.49664" lon="-0.65821">
        <ele>73</ele>
        <time>2014-05-25T11:18:33Z</time>
      </trkpt>
      <trkpt lat="44.49664" lon="-0.65827">
        <ele>73</ele>
        <time>2014-05-25T11:18:34Z</time>
      </trkpt>
      <trkpt lat="44.49665" lon="-0.65833">
        <ele>73</ele>
        <time>2014-05-25T11:18:35Z</time>
      </trkpt>
      <trkpt lat="44.49666" lon="-0.65839">
        <ele>73</ele>
        <time>2014-05-25T11:18:36Z</time>
      </trkpt>
      <trkpt lat="44.49667" lon="-0.65845">
        <ele>73</ele>
        <time>2014-05-25T11:18:37Z</time>
      </trkpt>
      <trkpt lat="44.49669" lon="-0.65863">
        <ele>73</ele>
        <time>2014-05-25T11:18:40Z</time>
      </trkpt>
      <trkpt lat="44.49669" lon="-0.65888">
        <ele>73</ele>
        <time>2014-05-25T11:18:44Z</time>
      </trkpt>
      <trkpt lat="44.49667" lon="-0.65941">
        <ele>73</ele>
        <time>2014-05-25T11:18:52Z</time>
      </trkpt>
      <trkpt lat="44.49667" lon="-0.6596">
        <ele>73</ele>
        <time>2014-05-25T11:18:55Z</time>
      </trkpt>
      <trkpt lat="44.49669" lon="-0.65966">
        <ele>73</ele>
        <time>2014-05-25T11:18:56Z</time>
      </trkpt>
      <trkpt lat="44.49671" lon="-0.65971">
        <ele>73</ele>
        <time>2014-05-25T11:18:57Z</time>
      </trkpt>
      <trkpt lat="44.49689" lon="-0.66003">
        <ele>73</ele>
        <time>2014-05-25T11:19:04Z</time>
      </trkpt>
      <trkpt lat="44.49706" lon="-0.66027">
        <ele>73</ele>
        <time>2014-05-25T11:19:10Z</time>
      </trkpt>
      <trkpt lat="44.49721" lon="-0.66048">
        <ele>73</ele>
        <time>2014-05-25T11:19:15Z</time>
      </trkpt>
      <trkpt lat="44.49745" lon="-0.66085">
        <ele>73</ele>
        <time>2014-05-25T11:19:23Z</time>
      </trkpt>
      <trkpt lat="44.49752" lon="-0.66094">
        <ele>73</ele>
        <time>2014-05-25T11:19:25Z</time>
      </trkpt>
      <trkpt lat="44.49779" lon="-0.66115">
        <ele>72</ele>
        <time>2014-05-25T11:19:32Z</time>
      </trkpt>
      <trkpt lat="44.49783" lon="-0.66118">
        <ele>72</ele>
        <time>2014-05-25T11:19:33Z</time>
      </trkpt>
      <trkpt lat="44.49788" lon="-0.6612">
        <ele>72</ele>
        <time>2014-05-25T11:19:34Z</time>
      </trkpt>
      <trkpt lat="44.49793" lon="-0.6612">
        <ele>72</ele>
        <time>2014-05-25T11:19:35Z</time>
      </trkpt>
      <trkpt lat="44.49799" lon="-0.66121">
        <ele>72</ele>
        <time>2014-05-25T11:19:36Z</time>
      </trkpt>
      <trkpt lat="44.49837" lon="-0.66132">
        <ele>73</ele>
        <time>2014-05-25T11:19:43Z</time>
      </trkpt>
      <trkpt lat="44.49868" lon="-0.66145">
        <ele>73</ele>
        <time>2014-05-25T11:19:49Z</time>
      </trkpt>
      <trkpt lat="44.49873" lon="-0.66147">
        <ele>73</ele>
        <time>2014-05-25T11:19:50Z</time>
      </trkpt>
      <trkpt lat="44.49883" lon="-0.66149">
        <ele>73</ele>
        <time>2014-05-25T11:19:52Z</time>
      </trkpt>
      <trkpt lat="44.49888" lon="-0.66149">
        <ele>73</ele>
        <time>2014-05-25T11:19:53Z</time>
      </trkpt>
      <trkpt lat="44.49899" lon="-0.66148">
        <ele>73</ele>
        <time>2014-05-25T11:19:55Z</time>
      </trkpt>
      <trkpt lat="44.49904" lon="-0.66148">
        <ele>73</ele>
        <time>2014-05-25T11:19:56Z</time>
      </trkpt>
      <trkpt lat="44.49909" lon="-0.66148">
        <ele>73</ele>
        <time>2014-05-25T11:19:57Z</time>
      </trkpt>
      <trkpt lat="44.49919" lon="-0.66149">
        <ele>73</ele>
        <time>2014-05-25T11:19:59Z</time>
      </trkpt>
      <trkpt lat="44.49924" lon="-0.66148">
        <ele>73</ele>
        <time>2014-05-25T11:20:00Z</time>
      </trkpt>
      <trkpt lat="44.49928" lon="-0.66146">
        <ele>73</ele>
        <time>2014-05-25T11:20:01Z</time>
      </trkpt>
      <trkpt lat="44.49932" lon="-0.66144">
        <ele>73</ele>
        <time>2014-05-25T11:20:02Z</time>
      </trkpt>
      <trkpt lat="44.49936" lon="-0.66141">
        <ele>73</ele>
        <time>2014-05-25T11:20:03Z</time>
      </trkpt>
      <trkpt lat="44.49953" lon="-0.66129">
        <ele>73</ele>
        <time>2014-05-25T11:20:07Z</time>
      </trkpt>
      <trkpt lat="44.49957" lon="-0.66127">
        <ele>73</ele>
        <time>2014-05-25T11:20:08Z</time>
      </trkpt>
      <trkpt lat="44.49962" lon="-0.66124">
        <ele>73</ele>
        <time>2014-05-25T11:20:09Z</time>
      </trkpt>
      <trkpt lat="44.49966" lon="-0.66122">
        <ele>73</ele>
        <time>2014-05-25T11:20:10Z</time>
      </trkpt>
      <trkpt lat="44.49971" lon="-0.6612">
        <ele>73</ele>
        <time>2014-05-25T11:20:11Z</time>
      </trkpt>
      <trkpt lat="44.49976" lon="-0.66118">
        <ele>73</ele>
        <time>2014-05-25T11:20:12Z</time>
      </trkpt>
      <trkpt lat="44.4998" lon="-0.66116">
        <ele>73</ele>
        <time>2014-05-25T11:20:13Z</time>
      </trkpt>
      <trkpt lat="44.49985" lon="-0.66113">
        <ele>73</ele>
        <time>2014-05-25T11:20:14Z</time>
      </trkpt>
      <trkpt lat="44.49989" lon="-0.66109">
        <ele>73</ele>
        <time>2014-05-25T11:20:15Z</time>
      </trkpt>
      <trkpt lat="44.49993" lon="-0.66105">
        <ele>73</ele>
        <time>2014-05-25T11:20:16Z</time>
      </trkpt>
      <trkpt lat="44.49997" lon="-0.66101">
        <ele>73</ele>
        <time>2014-05-25T11:20:17Z</time>
      </trkpt>
      <trkpt lat="44.50006" lon="-0.66095">
        <ele>73</ele>
        <time>2014-05-25T11:20:19Z</time>
      </trkpt>
      <trkpt lat="44.50028" lon="-0.6608">
        <ele>73</ele>
        <time>2014-05-25T11:20:24Z</time>
      </trkpt>
      <trkpt lat="44.50032" lon="-0.66078">
        <ele>73</ele>
        <time>2014-05-25T11:20:25Z</time>
      </trkpt>
      <trkpt lat="44.50037" lon="-0.66078">
        <ele>73</ele>
        <time>2014-05-25T11:20:26Z</time>
      </trkpt>
      <trkpt lat="44.50052" lon="-0.66079">
        <ele>73</ele>
        <time>2014-05-25T11:20:29Z</time>
      </trkpt>
      <trkpt lat="44.50057" lon="-0.66081">
        <ele>73</ele>
        <time>2014-05-25T11:20:30Z</time>
      </trkpt>
      <trkpt lat="44.50062" lon="-0.66084">
        <ele>73</ele>
        <time>2014-05-25T11:20:31Z</time>
      </trkpt>
      <trkpt lat="44.50091" lon="-0.66106">
        <ele>73</ele>
        <time>2014-05-25T11:20:37Z</time>
      </trkpt>
      <trkpt lat="44.50096" lon="-0.66109">
        <ele>73</ele>
        <time>2014-05-25T11:20:38Z</time>
      </trkpt>
      <trkpt lat="44.50102" lon="-0.66113">
        <ele>73</ele>
        <time>2014-05-25T11:20:39Z</time>
      </trkpt>
      <trkpt lat="44.50107" lon="-0.66117">
        <ele>73</ele>
        <time>2014-05-25T11:20:40Z</time>
      </trkpt>
      <trkpt lat="44.50112" lon="-0.66121">
        <ele>73</ele>
        <time>2014-05-25T11:20:41Z</time>
      </trkpt>
      <trkpt lat="44.50116" lon="-0.66125">
        <ele>73</ele>
        <time>2014-05-25T11:20:42Z</time>
      </trkpt>
      <trkpt lat="44.50121" lon="-0.6613">
        <ele>73</ele>
        <time>2014-05-25T11:20:43Z</time>
      </trkpt>
      <trkpt lat="44.50162" lon="-0.66168">
        <ele>72</ele>
        <time>2014-05-25T11:20:51Z</time>
      </trkpt>
      <trkpt lat="44.5018" lon="-0.66179">
        <ele>72</ele>
        <time>2014-05-25T11:20:54Z</time>
      </trkpt>
      <trkpt lat="44.50186" lon="-0.6618">
        <ele>72</ele>
        <time>2014-05-25T11:20:55Z</time>
      </trkpt>
      <trkpt lat="44.50192" lon="-0.6618">
        <ele>72</ele>
        <time>2014-05-25T11:20:56Z</time>
      </trkpt>
      <trkpt lat="44.50198" lon="-0.66178">
        <ele>72</ele>
        <time>2014-05-25T11:20:57Z</time>
      </trkpt>
      <trkpt lat="44.50204" lon="-0.66174">
        <ele>72</ele>
        <time>2014-05-25T11:20:58Z</time>
      </trkpt>
      <trkpt lat="44.5021" lon="-0.66171">
        <ele>71</ele>
        <time>2014-05-25T11:20:59Z</time>
      </trkpt>
      <trkpt lat="44.5027" lon="-0.6614">
        <ele>70</ele>
        <time>2014-05-25T11:21:09Z</time>
      </trkpt>
      <trkpt lat="44.50311" lon="-0.66113">
        <ele>70</ele>
        <time>2014-05-25T11:21:17Z</time>
      </trkpt>
      <trkpt lat="44.50316" lon="-0.66111">
        <ele>70</ele>
        <time>2014-05-25T11:21:18Z</time>
      </trkpt>
      <trkpt lat="44.50321" lon="-0.6611">
        <ele>70</ele>
        <time>2014-05-25T11:21:19Z</time>
      </trkpt>
      <trkpt lat="44.50325" lon="-0.6611">
        <ele>70</ele>
        <time>2014-05-25T11:21:20Z</time>
      </trkpt>
      <trkpt lat="44.50329" lon="-0.66112">
        <ele>70</ele>
        <time>2014-05-25T11:21:21Z</time>
      </trkpt>
      <trkpt lat="44.50333" lon="-0.66113">
        <ele>70</ele>
        <time>2014-05-25T11:21:22Z</time>
      </trkpt>
      <trkpt lat="44.50344" lon="-0.66111">
        <ele>70</ele>
        <time>2014-05-25T11:21:27Z</time>
      </trkpt>
      <trkpt lat="44.50357" lon="-0.66107">
        <ele>70</ele>
        <time>2014-05-25T11:21:32Z</time>
      </trkpt>
      <trkpt lat="44.50374" lon="-0.66101">
        <ele>70</ele>
        <time>2014-05-25T11:21:38Z</time>
      </trkpt>
      <trkpt lat="44.50376" lon="-0.66102">
        <ele>70</ele>
        <time>2014-05-25T11:21:39Z</time>
      </trkpt>
      <trkpt lat="44.50376" lon="-0.66105">
        <ele>70</ele>
        <time>2014-05-25T11:21:40Z</time>
      </trkpt>
      <trkpt lat="44.50376" lon="-0.66109">
        <ele>70</ele>
        <time>2014-05-25T11:21:41Z</time>
      </trkpt>
      <trkpt lat="44.50374" lon="-0.66111">
        <ele>70</ele>
        <time>2014-05-25T11:21:42Z</time>
      </trkpt>
      <trkpt lat="44.50371" lon="-0.66114">
        <ele>70</ele>
        <time>2014-05-25T11:21:43Z</time>
      </trkpt>
      <trkpt lat="44.50356" lon="-0.66126">
        <ele>70</ele>
        <time>2014-05-25T11:21:49Z</time>
      </trkpt>
      <trkpt lat="44.50337" lon="-0.66141">
        <ele>70</ele>
        <time>2014-05-25T11:21:55Z</time>
      </trkpt>
      <trkpt lat="44.5031" lon="-0.66155">
        <ele>70</ele>
        <time>2014-05-25T11:22:02Z</time>
      </trkpt>
      <trkpt lat="44.50284" lon="-0.66173">
        <ele>70</ele>
        <time>2014-05-25T11:22:09Z</time>
      </trkpt>
      <trkpt lat="44.50255" lon="-0.66195">
        <ele>71</ele>
        <time>2014-05-25T11:22:17Z</time>
      </trkpt>
      <trkpt lat="44.50228" lon="-0.66212">
        <ele>71</ele>
        <time>2014-05-25T11:22:24Z</time>
      </trkpt>
      <trkpt lat="44.50213" lon="-0.66222">
        <ele>71</ele>
        <time>2014-05-25T11:22:28Z</time>
      </trkpt>
      <trkpt lat="44.50209" lon="-0.66225">
        <ele>72</ele>
        <time>2014-05-25T11:22:29Z</time>
      </trkpt>
      <trkpt lat="44.50176" lon="-0.66248">
        <ele>72</ele>
        <time>2014-05-25T11:22:38Z</time>
      </trkpt>
      <trkpt lat="44.50146" lon="-0.66269">
        <ele>72</ele>
        <time>2014-05-25T11:22:47Z</time>
      </trkpt>
      <trkpt lat="44.50145" lon="-0.66272">
        <ele>72</ele>
        <time>2014-05-25T11:22:48Z</time>
      </trkpt>
      <trkpt lat="44.50145" lon="-0.66276">
        <ele>72</ele>
        <time>2014-05-25T11:22:49Z</time>
      </trkpt>
      <trkpt lat="44.50146" lon="-0.6628">
        <ele>72</ele>
        <time>2014-05-25T11:22:50Z</time>
      </trkpt>
      <trkpt lat="44.50148" lon="-0.66283">
        <ele>72</ele>
        <time>2014-05-25T11:22:51Z</time>
      </trkpt>
      <trkpt lat="44.5015" lon="-0.66286">
        <ele>72</ele>
        <time>2014-05-25T11:22:52Z</time>
      </trkpt>
      <trkpt lat="44.50163" lon="-0.6632">
        <ele>72</ele>
        <time>2014-05-25T11:23:00Z</time>
      </trkpt>
      <trkpt lat="44.50178" lon="-0.66361">
        <ele>72</ele>
        <time>2014-05-25T11:23:09Z</time>
      </trkpt>
      <trkpt lat="44.50195" lon="-0.66403">
        <ele>72</ele>
        <time>2014-05-25T11:23:17Z</time>
      </trkpt>
      <trkpt lat="44.50197" lon="-0.66408">
        <ele>72</ele>
        <time>2014-05-25T11:23:18Z</time>
      </trkpt>
      <trkpt lat="44.502" lon="-0.66413">
        <ele>72</ele>
        <time>2014-05-25T11:23:19Z</time>
      </trkpt>
      <trkpt lat="44.50205" lon="-0.66422">
        <ele>72</ele>
        <time>2014-05-25T11:23:21Z</time>
      </trkpt>
      <trkpt lat="44.5021" lon="-0.66432">
        <ele>72</ele>
        <time>2014-05-25T11:23:23Z</time>
      </trkpt>
      <trkpt lat="44.50211" lon="-0.66438">
        <ele>72</ele>
        <time>2014-05-25T11:23:24Z</time>
      </trkpt>
      <trkpt lat="44.50213" lon="-0.66444">
        <ele>72</ele>
        <time>2014-05-25T11:23:25Z</time>
      </trkpt>
      <trkpt lat="44.50218" lon="-0.6646">
        <ele>72</ele>
        <time>2014-05-25T11:23:28Z</time>
      </trkpt>
      <trkpt lat="44.50228" lon="-0.66486">
        <ele>72</ele>
        <time>2014-05-25T11:23:33Z</time>
      </trkpt>
      <trkpt lat="44.5023" lon="-0.66491">
        <ele>72</ele>
        <time>2014-05-25T11:23:34Z</time>
      </trkpt>
      <trkpt lat="44.50245" lon="-0.66514">
        <ele>72</ele>
        <time>2014-05-25T11:23:39Z</time>
      </trkpt>
      <trkpt lat="44.50248" lon="-0.66518">
        <ele>72</ele>
        <time>2014-05-25T11:23:40Z</time>
      </trkpt>
      <trkpt lat="44.50263" lon="-0.6653">
        <ele>72</ele>
        <time>2014-05-25T11:23:44Z</time>
      </trkpt>
      <trkpt lat="44.50267" lon="-0.66533">
        <ele>72</ele>
        <time>2014-05-25T11:23:45Z</time>
      </trkpt>
      <trkpt lat="44.50298" lon="-0.66562">
        <ele>71</ele>
        <time>2014-05-25T11:23:53Z</time>
      </trkpt>
      <trkpt lat="44.50317" lon="-0.66581">
        <ele>71</ele>
        <time>2014-05-25T11:23:58Z</time>
      </trkpt>
      <trkpt lat="44.50321" lon="-0.66587">
        <ele>71</ele>
        <time>2014-05-25T11:23:59Z</time>
      </trkpt>
      <trkpt lat="44.50334" lon="-0.66627">
        <ele>71</ele>
        <time>2014-05-25T11:24:05Z</time>
      </trkpt>
      <trkpt lat="44.50335" lon="-0.66634">
        <ele>71</ele>
        <time>2014-05-25T11:24:06Z</time>
      </trkpt>
      <trkpt lat="44.50347" lon="-0.66687">
        <ele>71</ele>
        <time>2014-05-25T11:24:14Z</time>
      </trkpt>
      <trkpt lat="44.50352" lon="-0.66699">
        <ele>70</ele>
        <time>2014-05-25T11:24:16Z</time>
      </trkpt>
      <trkpt lat="44.50353" lon="-0.66706">
        <ele>70</ele>
        <time>2014-05-25T11:24:17Z</time>
      </trkpt>
      <trkpt lat="44.50354" lon="-0.66714">
        <ele>71</ele>
        <time>2014-05-25T11:24:18Z</time>
      </trkpt>
      <trkpt lat="44.50354" lon="-0.66721">
        <ele>71</ele>
        <time>2014-05-25T11:24:19Z</time>
      </trkpt>
      <trkpt lat="44.50353" lon="-0.66729">
        <ele>71</ele>
        <time>2014-05-25T11:24:20Z</time>
      </trkpt>
      <trkpt lat="44.50353" lon="-0.66736">
        <ele>71</ele>
        <time>2014-05-25T11:24:21Z</time>
      </trkpt>
      <trkpt lat="44.50355" lon="-0.66758">
        <ele>71</ele>
        <time>2014-05-25T11:24:24Z</time>
      </trkpt>
      <trkpt lat="44.50359" lon="-0.66814">
        <ele>71</ele>
        <time>2014-05-25T11:24:32Z</time>
      </trkpt>
      <trkpt lat="44.50362" lon="-0.66854">
        <ele>70</ele>
        <time>2014-05-25T11:24:38Z</time>
      </trkpt>
      <trkpt lat="44.50369" lon="-0.66907">
        <ele>70</ele>
        <time>2014-05-25T11:24:46Z</time>
      </trkpt>
      <trkpt lat="44.50373" lon="-0.6695">
        <ele>70</ele>
        <time>2014-05-25T11:24:53Z</time>
      </trkpt>
      <trkpt lat="44.50376" lon="-0.67006">
        <ele>70</ele>
        <time>2014-05-25T11:25:02Z</time>
      </trkpt>
      <trkpt lat="44.50381" lon="-0.67055">
        <ele>71</ele>
        <time>2014-05-25T11:25:10Z</time>
      </trkpt>
      <trkpt lat="44.50382" lon="-0.67061">
        <ele>71</ele>
        <time>2014-05-25T11:25:11Z</time>
      </trkpt>
      <trkpt lat="44.50383" lon="-0.67067">
        <ele>71</ele>
        <time>2014-05-25T11:25:12Z</time>
      </trkpt>
      <trkpt lat="44.50385" lon="-0.67073">
        <ele>71</ele>
        <time>2014-05-25T11:25:13Z</time>
      </trkpt>
      <trkpt lat="44.50395" lon="-0.67103">
        <ele>71</ele>
        <time>2014-05-25T11:25:18Z</time>
      </trkpt>
      <trkpt lat="44.50397" lon="-0.67109">
        <ele>71</ele>
        <time>2014-05-25T11:25:19Z</time>
      </trkpt>
      <trkpt lat="44.50398" lon="-0.67115">
        <ele>71</ele>
        <time>2014-05-25T11:25:20Z</time>
      </trkpt>
      <trkpt lat="44.50399" lon="-0.67121">
        <ele>71</ele>
        <time>2014-05-25T11:25:21Z</time>
      </trkpt>
      <trkpt lat="44.50401" lon="-0.67125">
        <ele>71</ele>
        <time>2014-05-25T11:25:22Z</time>
      </trkpt>
      <trkpt lat="44.5041" lon="-0.67154">
        <ele>71</ele>
        <time>2014-05-25T11:25:27Z</time>
      </trkpt>
      <trkpt lat="44.50412" lon="-0.67159">
        <ele>71</ele>
        <time>2014-05-25T11:25:28Z</time>
      </trkpt>
      <trkpt lat="44.50416" lon="-0.6717">
        <ele>70</ele>
        <time>2014-05-25T11:25:30Z</time>
      </trkpt>
      <trkpt lat="44.50418" lon="-0.67176">
        <ele>70</ele>
        <time>2014-05-25T11:25:31Z</time>
      </trkpt>
      <trkpt lat="44.50421" lon="-0.67186">
        <ele>70</ele>
        <time>2014-05-25T11:25:33Z</time>
      </trkpt>
      <trkpt lat="44.50422" lon="-0.67192">
        <ele>70</ele>
        <time>2014-05-25T11:25:34Z</time>
      </trkpt>
      <trkpt lat="44.50425" lon="-0.67205">
        <ele>70</ele>
        <time>2014-05-25T11:25:36Z</time>
      </trkpt>
      <trkpt lat="44.50426" lon="-0.6721">
        <ele>70</ele>
        <time>2014-05-25T11:25:37Z</time>
      </trkpt>
      <trkpt lat="44.50432" lon="-0.67246">
        <ele>70</ele>
        <time>2014-05-25T11:25:43Z</time>
      </trkpt>
      <trkpt lat="44.50434" lon="-0.67272">
        <ele>70</ele>
        <time>2014-05-25T11:25:48Z</time>
      </trkpt>
      <trkpt lat="44.50435" lon="-0.67286">
        <ele>70</ele>
        <time>2014-05-25T11:25:50Z</time>
      </trkpt>
      <trkpt lat="44.50443" lon="-0.67323">
        <ele>70</ele>
        <time>2014-05-25T11:25:56Z</time>
      </trkpt>
      <trkpt lat="44.5045" lon="-0.67349">
        <ele>70</ele>
        <time>2014-05-25T11:26:00Z</time>
      </trkpt>
      <trkpt lat="44.50458" lon="-0.67367">
        <ele>70</ele>
        <time>2014-05-25T11:26:03Z</time>
      </trkpt>
      <trkpt lat="44.50461" lon="-0.67372">
        <ele>70</ele>
        <time>2014-05-25T11:26:04Z</time>
      </trkpt>
      <trkpt lat="44.50464" lon="-0.67378">
        <ele>70</ele>
        <time>2014-05-25T11:26:05Z</time>
      </trkpt>
      <trkpt lat="44.50467" lon="-0.67383">
        <ele>69</ele>
        <time>2014-05-25T11:26:06Z</time>
      </trkpt>
      <trkpt lat="44.50469" lon="-0.67389">
        <ele>69</ele>
        <time>2014-05-25T11:26:07Z</time>
      </trkpt>
      <trkpt lat="44.50473" lon="-0.67394">
        <ele>69</ele>
        <time>2014-05-25T11:26:08Z</time>
      </trkpt>
      <trkpt lat="44.50479" lon="-0.67404">
        <ele>69</ele>
        <time>2014-05-25T11:26:10Z</time>
      </trkpt>
      <trkpt lat="44.50488" lon="-0.67423">
        <ele>70</ele>
        <time>2014-05-25T11:26:13Z</time>
      </trkpt>
      <trkpt lat="44.50491" lon="-0.67428">
        <ele>70</ele>
        <time>2014-05-25T11:26:14Z</time>
      </trkpt>
      <trkpt lat="44.50494" lon="-0.67433">
        <ele>70</ele>
        <time>2014-05-25T11:26:15Z</time>
      </trkpt>
      <trkpt lat="44.50498" lon="-0.67437">
        <ele>70</ele>
        <time>2014-05-25T11:26:16Z</time>
      </trkpt>
      <trkpt lat="44.50501" lon="-0.67442">
        <ele>70</ele>
        <time>2014-05-25T11:26:17Z</time>
      </trkpt>
      <trkpt lat="44.50507" lon="-0.67452">
        <ele>69</ele>
        <time>2014-05-25T11:26:19Z</time>
      </trkpt>
      <trkpt lat="44.50527" lon="-0.6749">
        <ele>70</ele>
        <time>2014-05-25T11:26:26Z</time>
      </trkpt>
      <trkpt lat="44.50535" lon="-0.67504">
        <ele>70</ele>
        <time>2014-05-25T11:26:29Z</time>
      </trkpt>
      <trkpt lat="44.50538" lon="-0.6751">
        <ele>70</ele>
        <time>2014-05-25T11:26:30Z</time>
      </trkpt>
      <trkpt lat="44.5054" lon="-0.67516">
        <ele>70</ele>
        <time>2014-05-25T11:26:31Z</time>
      </trkpt>
      <trkpt lat="44.50542" lon="-0.67522">
        <ele>70</ele>
        <time>2014-05-25T11:26:32Z</time>
      </trkpt>
      <trkpt lat="44.50543" lon="-0.67528">
        <ele>70</ele>
        <time>2014-05-25T11:26:33Z</time>
      </trkpt>
      <trkpt lat="44.50544" lon="-0.67533">
        <ele>71</ele>
        <time>2014-05-25T11:26:34Z</time>
      </trkpt>
      <trkpt lat="44.50545" lon="-0.67538">
        <ele>71</ele>
        <time>2014-05-25T11:26:35Z</time>
      </trkpt>
      <trkpt lat="44.50547" lon="-0.67543">
        <ele>70</ele>
        <time>2014-05-25T11:26:36Z</time>
      </trkpt>
      <trkpt lat="44.50549" lon="-0.67548">
        <ele>70</ele>
        <time>2014-05-25T11:26:37Z</time>
      </trkpt>
      <trkpt lat="44.50557" lon="-0.67569">
        <ele>70</ele>
        <time>2014-05-25T11:26:42Z</time>
      </trkpt>
      <trkpt lat="44.50569" lon="-0.67597">
        <ele>71</ele>
        <time>2014-05-25T11:26:49Z</time>
      </trkpt>
      <trkpt lat="44.50574" lon="-0.67605">
        <ele>71</ele>
        <time>2014-05-25T11:26:51Z</time>
      </trkpt>
      <trkpt lat="44.50577" lon="-0.67609">
        <ele>71</ele>
        <time>2014-05-25T11:26:52Z</time>
      </trkpt>
      <trkpt lat="44.50579" lon="-0.67613">
        <ele>71</ele>
        <time>2014-05-25T11:26:53Z</time>
      </trkpt>
      <trkpt lat="44.50582" lon="-0.67616">
        <ele>71</ele>
        <time>2014-05-25T11:26:54Z</time>
      </trkpt>
      <trkpt lat="44.50585" lon="-0.67619">
        <ele>71</ele>
        <time>2014-05-25T11:26:55Z</time>
      </trkpt>
      <trkpt lat="44.50595" lon="-0.67635">
        <ele>71</ele>
        <time>2014-05-25T11:26:59Z</time>
      </trkpt>
      <trkpt lat="44.50606" lon="-0.6766">
        <ele>71</ele>
        <time>2014-05-25T11:27:04Z</time>
      </trkpt>
      <trkpt lat="44.50611" lon="-0.67671">
        <ele>71</ele>
        <time>2014-05-25T11:27:06Z</time>
      </trkpt>
      <trkpt lat="44.50613" lon="-0.67677">
        <ele>71</ele>
        <time>2014-05-25T11:27:07Z</time>
      </trkpt>
      <trkpt lat="44.50616" lon="-0.67684">
        <ele>71</ele>
        <time>2014-05-25T11:27:08Z</time>
      </trkpt>
      <trkpt lat="44.5062" lon="-0.67696">
        <ele>71</ele>
        <time>2014-05-25T11:27:10Z</time>
      </trkpt>
      <trkpt lat="44.50632" lon="-0.67737">
        <ele>70</ele>
        <time>2014-05-25T11:27:17Z</time>
      </trkpt>
      <trkpt lat="44.50633" lon="-0.67744">
        <ele>70</ele>
        <time>2014-05-25T11:27:18Z</time>
      </trkpt>
      <trkpt lat="44.50634" lon="-0.6775">
        <ele>70</ele>
        <time>2014-05-25T11:27:19Z</time>
      </trkpt>
      <trkpt lat="44.50635" lon="-0.67756">
        <ele>70</ele>
        <time>2014-05-25T11:27:20Z</time>
      </trkpt>
      <trkpt lat="44.50636" lon="-0.67761">
        <ele>70</ele>
        <time>2014-05-25T11:27:21Z</time>
      </trkpt>
      <trkpt lat="44.50637" lon="-0.67772">
        <ele>70</ele>
        <time>2014-05-25T11:27:23Z</time>
      </trkpt>
      <trkpt lat="44.50638" lon="-0.6778">
        <ele>69</ele>
        <time>2014-05-25T11:27:25Z</time>
      </trkpt>
      <trkpt lat="44.5065" lon="-0.67804">
        <ele>68</ele>
        <time>2014-05-25T11:27:31Z</time>
      </trkpt>
      <trkpt lat="44.50651" lon="-0.67805">
        <ele>68</ele>
        <time>2014-05-25T11:27:32Z</time>
      </trkpt>
      <trkpt lat="44.50654" lon="-0.67805">
        <ele>68</ele>
        <time>2014-05-25T11:27:33Z</time>
      </trkpt>
      <trkpt lat="44.50658" lon="-0.67808">
        <ele>68</ele>
        <time>2014-05-25T11:27:34Z</time>
      </trkpt>
      <trkpt lat="44.5066" lon="-0.6781">
        <ele>68</ele>
        <time>2014-05-25T11:27:35Z</time>
      </trkpt>
      <trkpt lat="44.50663" lon="-0.67815">
        <ele>68</ele>
        <time>2014-05-25T11:27:36Z</time>
      </trkpt>
      <trkpt lat="44.50666" lon="-0.67818">
        <ele>68</ele>
        <time>2014-05-25T11:27:37Z</time>
      </trkpt>
      <trkpt lat="44.50668" lon="-0.67821">
        <ele>67</ele>
        <time>2014-05-25T11:27:38Z</time>
      </trkpt>
      <trkpt lat="44.50671" lon="-0.67824">
        <ele>67</ele>
        <time>2014-05-25T11:27:39Z</time>
      </trkpt>
      <trkpt lat="44.50688" lon="-0.67852">
        <ele>67</ele>
        <time>2014-05-25T11:27:45Z</time>
      </trkpt>
      <trkpt lat="44.50691" lon="-0.67857">
        <ele>67</ele>
        <time>2014-05-25T11:27:46Z</time>
      </trkpt>
      <trkpt lat="44.50693" lon="-0.67863">
        <ele>67</ele>
        <time>2014-05-25T11:27:47Z</time>
      </trkpt>
      <trkpt lat="44.50704" lon="-0.67898">
        <ele>68</ele>
        <time>2014-05-25T11:27:53Z</time>
      </trkpt>
      <trkpt lat="44.50715" lon="-0.67924">
        <ele>67</ele>
        <time>2014-05-25T11:27:58Z</time>
      </trkpt>
      <trkpt lat="44.5072" lon="-0.67935">
        <ele>67</ele>
        <time>2014-05-25T11:28:00Z</time>
      </trkpt>
      <trkpt lat="44.50726" lon="-0.67976">
        <ele>67</ele>
        <time>2014-05-25T11:28:06Z</time>
      </trkpt>
      <trkpt lat="44.50727" lon="-0.6799">
        <ele>68</ele>
        <time>2014-05-25T11:28:08Z</time>
      </trkpt>
      <trkpt lat="44.50728" lon="-0.67997">
        <ele>68</ele>
        <time>2014-05-25T11:28:09Z</time>
      </trkpt>
      <trkpt lat="44.5073" lon="-0.68003">
        <ele>68</ele>
        <time>2014-05-25T11:28:10Z</time>
      </trkpt>
      <trkpt lat="44.50737" lon="-0.68038">
        <ele>68</ele>
        <time>2014-05-25T11:28:16Z</time>
      </trkpt>
      <trkpt lat="44.50739" lon="-0.68044">
        <ele>68</ele>
        <time>2014-05-25T11:28:17Z</time>
      </trkpt>
      <trkpt lat="44.50745" lon="-0.68075">
        <ele>68</ele>
        <time>2014-05-25T11:28:22Z</time>
      </trkpt>
      <trkpt lat="44.50748" lon="-0.6808">
        <ele>68</ele>
        <time>2014-05-25T11:28:23Z</time>
      </trkpt>
      <trkpt lat="44.5075" lon="-0.68086">
        <ele>68</ele>
        <time>2014-05-25T11:28:24Z</time>
      </trkpt>
      <trkpt lat="44.50764" lon="-0.68112">
        <ele>67</ele>
        <time>2014-05-25T11:28:29Z</time>
      </trkpt>
      <trkpt lat="44.50767" lon="-0.68117">
        <ele>67</ele>
        <time>2014-05-25T11:28:30Z</time>
      </trkpt>
      <trkpt lat="44.50778" lon="-0.68137">
        <ele>67</ele>
        <time>2014-05-25T11:28:34Z</time>
      </trkpt>
      <trkpt lat="44.50781" lon="-0.68142">
        <ele>67</ele>
        <time>2014-05-25T11:28:35Z</time>
      </trkpt>
      <trkpt lat="44.50787" lon="-0.68157">
        <ele>67</ele>
        <time>2014-05-25T11:28:38Z</time>
      </trkpt>
      <trkpt lat="44.50799" lon="-0.682">
        <ele>67</ele>
        <time>2014-05-25T11:28:45Z</time>
      </trkpt>
      <trkpt lat="44.50801" lon="-0.68206">
        <ele>67</ele>
        <time>2014-05-25T11:28:46Z</time>
      </trkpt>
      <trkpt lat="44.50814" lon="-0.68242">
        <ele>66</ele>
        <time>2014-05-25T11:28:52Z</time>
      </trkpt>
      <trkpt lat="44.50815" lon="-0.68249">
        <ele>66</ele>
        <time>2014-05-25T11:28:53Z</time>
      </trkpt>
      <trkpt lat="44.50816" lon="-0.68255">
        <ele>66</ele>
        <time>2014-05-25T11:28:54Z</time>
      </trkpt>
      <trkpt lat="44.50816" lon="-0.68262">
        <ele>67</ele>
        <time>2014-05-25T11:28:55Z</time>
      </trkpt>
      <trkpt lat="44.50817" lon="-0.68268">
        <ele>67</ele>
        <time>2014-05-25T11:28:56Z</time>
      </trkpt>
      <trkpt lat="44.50819" lon="-0.68279">
        <ele>67</ele>
        <time>2014-05-25T11:28:58Z</time>
      </trkpt>
      <trkpt lat="44.50821" lon="-0.68285">
        <ele>67</ele>
        <time>2014-05-25T11:28:59Z</time>
      </trkpt>
      <trkpt lat="44.50824" lon="-0.6829">
        <ele>67</ele>
        <time>2014-05-25T11:29:00Z</time>
      </trkpt>
      <trkpt lat="44.50827" lon="-0.68295">
        <ele>67</ele>
        <time>2014-05-25T11:29:01Z</time>
      </trkpt>
      <trkpt lat="44.50829" lon="-0.68301">
        <ele>67</ele>
        <time>2014-05-25T11:29:02Z</time>
      </trkpt>
      <trkpt lat="44.50834" lon="-0.68312">
        <ele>66</ele>
        <time>2014-05-25T11:29:04Z</time>
      </trkpt>
      <trkpt lat="44.50836" lon="-0.68318">
        <ele>66</ele>
        <time>2014-05-25T11:29:05Z</time>
      </trkpt>
      <trkpt lat="44.50838" lon="-0.68325">
        <ele>66</ele>
        <time>2014-05-25T11:29:06Z</time>
      </trkpt>
      <trkpt lat="44.50855" lon="-0.68382">
        <ele>66</ele>
        <time>2014-05-25T11:29:15Z</time>
      </trkpt>
      <trkpt lat="44.5087" lon="-0.68418">
        <ele>67</ele>
        <time>2014-05-25T11:29:21Z</time>
      </trkpt>
      <trkpt lat="44.50893" lon="-0.68458">
        <ele>66</ele>
        <time>2014-05-25T11:29:28Z</time>
      </trkpt>
      <trkpt lat="44.50898" lon="-0.6847">
        <ele>66</ele>
        <time>2014-05-25T11:29:30Z</time>
      </trkpt>
      <trkpt lat="44.509" lon="-0.68476">
        <ele>66</ele>
        <time>2014-05-25T11:29:31Z</time>
      </trkpt>
      <trkpt lat="44.50902" lon="-0.68483">
        <ele>66</ele>
        <time>2014-05-25T11:29:32Z</time>
      </trkpt>
      <trkpt lat="44.50904" lon="-0.68498">
        <ele>66</ele>
        <time>2014-05-25T11:29:34Z</time>
      </trkpt>
      <trkpt lat="44.50906" lon="-0.68503">
        <ele>66</ele>
        <time>2014-05-25T11:29:35Z</time>
      </trkpt>
      <trkpt lat="44.50912" lon="-0.68521">
        <ele>66</ele>
        <time>2014-05-25T11:29:38Z</time>
      </trkpt>
      <trkpt lat="44.50913" lon="-0.68527">
        <ele>66</ele>
        <time>2014-05-25T11:29:39Z</time>
      </trkpt>
      <trkpt lat="44.50913" lon="-0.68534">
        <ele>66</ele>
        <time>2014-05-25T11:29:40Z</time>
      </trkpt>
      <trkpt lat="44.50912" lon="-0.68541">
        <ele>66</ele>
        <time>2014-05-25T11:29:41Z</time>
      </trkpt>
      <trkpt lat="44.50911" lon="-0.68547">
        <ele>66</ele>
        <time>2014-05-25T11:29:42Z</time>
      </trkpt>
      <trkpt lat="44.50911" lon="-0.68554">
        <ele>66</ele>
        <time>2014-05-25T11:29:43Z</time>
      </trkpt>
      <trkpt lat="44.50912" lon="-0.68559">
        <ele>66</ele>
        <time>2014-05-25T11:29:44Z</time>
      </trkpt>
      <trkpt lat="44.50912" lon="-0.68584">
        <ele>66</ele>
        <time>2014-05-25T11:29:50Z</time>
      </trkpt>
      <trkpt lat="44.5091" lon="-0.68599">
        <ele>66</ele>
        <time>2014-05-25T11:29:54Z</time>
      </trkpt>
      <trkpt lat="44.50909" lon="-0.68605">
        <ele>66</ele>
        <time>2014-05-25T11:29:59Z</time>
      </trkpt>
      <trkpt lat="44.5091" lon="-0.68607">
        <ele>66</ele>
        <time>2014-05-25T11:30:10Z</time>
      </trkpt>
      <trkpt lat="44.5091" lon="-0.68608">
        <ele>66</ele>
        <time>2014-05-25T11:30:24Z</time>
      </trkpt>
      <trkpt lat="44.5091" lon="-0.68609">
        <ele>66</ele>
        <time>2014-05-25T11:30:38Z</time>
      </trkpt>
      <trkpt lat="44.50912" lon="-0.6861">
        <ele>65</ele>
        <time>2014-05-25T11:30:54Z</time>
      </trkpt>
      <trkpt lat="44.50912" lon="-0.68609">
        <ele>65</ele>
        <time>2014-05-25T11:31:05Z</time>
      </trkpt>
      <trkpt lat="44.50913" lon="-0.68608">
        <ele>65</ele>
        <time>2014-05-25T11:31:18Z</time>
      </trkpt>
      <trkpt lat="44.50913" lon="-0.68608">
        <ele>65</ele>
        <time>2014-05-25T11:31:33Z</time>
      </trkpt>
      <trkpt lat="44.50914" lon="-0.68612">
        <ele>65</ele>
        <time>2014-05-25T11:31:38Z</time>
      </trkpt>
      <trkpt lat="44.50913" lon="-0.68615">
        <ele>65</ele>
        <time>2014-05-25T11:31:39Z</time>
      </trkpt>
      <trkpt lat="44.50913" lon="-0.68618">
        <ele>65</ele>
        <time>2014-05-25T11:31:40Z</time>
      </trkpt>
      <trkpt lat="44.50914" lon="-0.68621">
        <ele>65</ele>
        <time>2014-05-25T11:31:41Z</time>
      </trkpt>
      <trkpt lat="44.50915" lon="-0.68624">
        <ele>65</ele>
        <time>2014-05-25T11:31:42Z</time>
      </trkpt>
      <trkpt lat="44.50916" lon="-0.68627">
        <ele>65</ele>
        <time>2014-05-25T11:31:43Z</time>
      </trkpt>
      <trkpt lat="44.50918" lon="-0.68636">
        <ele>65</ele>
        <time>2014-05-25T11:31:45Z</time>
      </trkpt>
      <trkpt lat="44.50919" lon="-0.6864">
        <ele>65</ele>
        <time>2014-05-25T11:31:46Z</time>
      </trkpt>
      <trkpt lat="44.50919" lon="-0.68645">
        <ele>65</ele>
        <time>2014-05-25T11:31:47Z</time>
      </trkpt>
      <trkpt lat="44.5092" lon="-0.6865">
        <ele>65</ele>
        <time>2014-05-25T11:31:48Z</time>
      </trkpt>
      <trkpt lat="44.50922" lon="-0.68653">
        <ele>65</ele>
        <time>2014-05-25T11:31:49Z</time>
      </trkpt>
      <trkpt lat="44.50923" lon="-0.68657">
        <ele>65</ele>
        <time>2014-05-25T11:31:50Z</time>
      </trkpt>
      <trkpt lat="44.50925" lon="-0.68661">
        <ele>65</ele>
        <time>2014-05-25T11:31:51Z</time>
      </trkpt>
      <trkpt lat="44.50931" lon="-0.68678">
        <ele>65</ele>
        <time>2014-05-25T11:31:56Z</time>
      </trkpt>
      <trkpt lat="44.5094" lon="-0.68694">
        <ele>65</ele>
        <time>2014-05-25T11:32:01Z</time>
      </trkpt>
      <trkpt lat="44.5095" lon="-0.68711">
        <ele>65</ele>
        <time>2014-05-25T11:32:07Z</time>
      </trkpt>
      <trkpt lat="44.50957" lon="-0.68733">
        <ele>64</ele>
        <time>2014-05-25T11:32:12Z</time>
      </trkpt>
      <trkpt lat="44.50958" lon="-0.6876">
        <ele>64</ele>
        <time>2014-05-25T11:32:17Z</time>
      </trkpt>
      <trkpt lat="44.50958" lon="-0.68771">
        <ele>64</ele>
        <time>2014-05-25T11:32:19Z</time>
      </trkpt>
      <trkpt lat="44.50958" lon="-0.68776">
        <ele>64</ele>
        <time>2014-05-25T11:32:20Z</time>
      </trkpt>
      <trkpt lat="44.50958" lon="-0.68781">
        <ele>64</ele>
        <time>2014-05-25T11:32:21Z</time>
      </trkpt>
      <trkpt lat="44.50958" lon="-0.68785">
        <ele>64</ele>
        <time>2014-05-25T11:32:22Z</time>
      </trkpt>
      <trkpt lat="44.50959" lon="-0.68788">
        <ele>64</ele>
        <time>2014-05-25T11:32:23Z</time>
      </trkpt>
      <trkpt lat="44.50959" lon="-0.68791">
        <ele>64</ele>
        <time>2014-05-25T11:32:24Z</time>
      </trkpt>
      <trkpt lat="44.50959" lon="-0.68797">
        <ele>64</ele>
        <time>2014-05-25T11:32:25Z</time>
      </trkpt>
      <trkpt lat="44.50959" lon="-0.68803">
        <ele>64</ele>
        <time>2014-05-25T11:32:26Z</time>
      </trkpt>
      <trkpt lat="44.50958" lon="-0.68808">
        <ele>64</ele>
        <time>2014-05-25T11:32:27Z</time>
      </trkpt>
      <trkpt lat="44.50958" lon="-0.68814">
        <ele>64</ele>
        <time>2014-05-25T11:32:28Z</time>
      </trkpt>
      <trkpt lat="44.50952" lon="-0.68839">
        <ele>64</ele>
        <time>2014-05-25T11:32:33Z</time>
      </trkpt>
      <trkpt lat="44.50948" lon="-0.68872">
        <ele>64</ele>
        <time>2014-05-25T11:32:40Z</time>
      </trkpt>
      <trkpt lat="44.50948" lon="-0.68898">
        <ele>64</ele>
        <time>2014-05-25T11:32:45Z</time>
      </trkpt>
      <trkpt lat="44.50948" lon="-0.68918">
        <ele>64</ele>
        <time>2014-05-25T11:32:48Z</time>
      </trkpt>
      <trkpt lat="44.50946" lon="-0.68925">
        <ele>64</ele>
        <time>2014-05-25T11:32:49Z</time>
      </trkpt>
      <trkpt lat="44.50945" lon="-0.68931">
        <ele>64</ele>
        <time>2014-05-25T11:32:50Z</time>
      </trkpt>
      <trkpt lat="44.50942" lon="-0.68955">
        <ele>64</ele>
        <time>2014-05-25T11:32:54Z</time>
      </trkpt>
      <trkpt lat="44.50942" lon="-0.68962">
        <ele>64</ele>
        <time>2014-05-25T11:32:55Z</time>
      </trkpt>
      <trkpt lat="44.50941" lon="-0.68969">
        <ele>64</ele>
        <time>2014-05-25T11:32:56Z</time>
      </trkpt>
      <trkpt lat="44.50941" lon="-0.68976">
        <ele>64</ele>
        <time>2014-05-25T11:32:57Z</time>
      </trkpt>
      <trkpt lat="44.5094" lon="-0.68983">
        <ele>64</ele>
        <time>2014-05-25T11:32:58Z</time>
      </trkpt>
      <trkpt lat="44.5094" lon="-0.6899">
        <ele>64</ele>
        <time>2014-05-25T11:32:59Z</time>
      </trkpt>
      <trkpt lat="44.5094" lon="-0.68997">
        <ele>64</ele>
        <time>2014-05-25T11:33:00Z</time>
      </trkpt>
      <trkpt lat="44.50941" lon="-0.69032">
        <ele>64</ele>
        <time>2014-05-25T11:33:06Z</time>
      </trkpt>
      <trkpt lat="44.50947" lon="-0.6906">
        <ele>63</ele>
        <time>2014-05-25T11:33:11Z</time>
      </trkpt>
      <trkpt lat="44.50948" lon="-0.69065">
        <ele>63</ele>
        <time>2014-05-25T11:33:12Z</time>
      </trkpt>
      <trkpt lat="44.50948" lon="-0.6907">
        <ele>63</ele>
        <time>2014-05-25T11:33:13Z</time>
      </trkpt>
      <trkpt lat="44.50958" lon="-0.69096">
        <ele>63</ele>
        <time>2014-05-25T11:33:18Z</time>
      </trkpt>
      <trkpt lat="44.50962" lon="-0.69109">
        <ele>63</ele>
        <time>2014-05-25T11:33:20Z</time>
      </trkpt>
      <trkpt lat="44.50964" lon="-0.69115">
        <ele>63</ele>
        <time>2014-05-25T11:33:21Z</time>
      </trkpt>
      <trkpt lat="44.50966" lon="-0.69121">
        <ele>63</ele>
        <time>2014-05-25T11:33:22Z</time>
      </trkpt>
      <trkpt lat="44.50969" lon="-0.69133">
        <ele>63</ele>
        <time>2014-05-25T11:33:24Z</time>
      </trkpt>
      <trkpt lat="44.50974" lon="-0.69157">
        <ele>63</ele>
        <time>2014-05-25T11:33:28Z</time>
      </trkpt>
      <trkpt lat="44.5098" lon="-0.69187">
        <ele>63</ele>
        <time>2014-05-25T11:33:33Z</time>
      </trkpt>
      <trkpt lat="44.50982" lon="-0.69191">
        <ele>63</ele>
        <time>2014-05-25T11:33:34Z</time>
      </trkpt>
      <trkpt lat="44.50992" lon="-0.69208">
        <ele>63</ele>
        <time>2014-05-25T11:33:38Z</time>
      </trkpt>
      <trkpt lat="44.50997" lon="-0.69218">
        <ele>63</ele>
        <time>2014-05-25T11:33:40Z</time>
      </trkpt>
      <trkpt lat="44.50998" lon="-0.69244">
        <ele>63</ele>
        <time>2014-05-25T11:33:44Z</time>
      </trkpt>
      <trkpt lat="44.50998" lon="-0.69251">
        <ele>63</ele>
        <time>2014-05-25T11:33:45Z</time>
      </trkpt>
      <trkpt lat="44.50998" lon="-0.69258">
        <ele>63</ele>
        <time>2014-05-25T11:33:46Z</time>
      </trkpt>
      <trkpt lat="44.50997" lon="-0.69264">
        <ele>63</ele>
        <time>2014-05-25T11:33:47Z</time>
      </trkpt>
      <trkpt lat="44.50996" lon="-0.69271">
        <ele>63</ele>
        <time>2014-05-25T11:33:48Z</time>
      </trkpt>
      <trkpt lat="44.50997" lon="-0.69283">
        <ele>63</ele>
        <time>2014-05-25T11:33:50Z</time>
      </trkpt>
      <trkpt lat="44.50999" lon="-0.69289">
        <ele>63</ele>
        <time>2014-05-25T11:33:51Z</time>
      </trkpt>
      <trkpt lat="44.51001" lon="-0.69294">
        <ele>63</ele>
        <time>2014-05-25T11:33:52Z</time>
      </trkpt>
      <trkpt lat="44.51003" lon="-0.69298">
        <ele>63</ele>
        <time>2014-05-25T11:33:53Z</time>
      </trkpt>
      <trkpt lat="44.51006" lon="-0.69303">
        <ele>63</ele>
        <time>2014-05-25T11:33:54Z</time>
      </trkpt>
      <trkpt lat="44.51009" lon="-0.69306">
        <ele>63</ele>
        <time>2014-05-25T11:33:55Z</time>
      </trkpt>
      <trkpt lat="44.51012" lon="-0.69311">
        <ele>63</ele>
        <time>2014-05-25T11:33:56Z</time>
      </trkpt>
      <trkpt lat="44.51015" lon="-0.69316">
        <ele>63</ele>
        <time>2014-05-25T11:33:57Z</time>
      </trkpt>
      <trkpt lat="44.51027" lon="-0.69348">
        <ele>63</ele>
        <time>2014-05-25T11:34:03Z</time>
      </trkpt>
      <trkpt lat="44.51028" lon="-0.69354">
        <ele>63</ele>
        <time>2014-05-25T11:34:04Z</time>
      </trkpt>
      <trkpt lat="44.5103" lon="-0.6936">
        <ele>63</ele>
        <time>2014-05-25T11:34:05Z</time>
      </trkpt>
      <trkpt lat="44.51033" lon="-0.69371">
        <ele>63</ele>
        <time>2014-05-25T11:34:07Z</time>
      </trkpt>
      <trkpt lat="44.51034" lon="-0.69377">
        <ele>63</ele>
        <time>2014-05-25T11:34:08Z</time>
      </trkpt>
      <trkpt lat="44.51036" lon="-0.69383">
        <ele>63</ele>
        <time>2014-05-25T11:34:09Z</time>
      </trkpt>
      <trkpt lat="44.51037" lon="-0.69388">
        <ele>63</ele>
        <time>2014-05-25T11:34:10Z</time>
      </trkpt>
      <trkpt lat="44.51038" lon="-0.69394">
        <ele>63</ele>
        <time>2014-05-25T11:34:11Z</time>
      </trkpt>
      <trkpt lat="44.51039" lon="-0.694">
        <ele>63</ele>
        <time>2014-05-25T11:34:12Z</time>
      </trkpt>
      <trkpt lat="44.51048" lon="-0.69431">
        <ele>63</ele>
        <time>2014-05-25T11:34:17Z</time>
      </trkpt>
      <trkpt lat="44.51051" lon="-0.69437">
        <ele>63</ele>
        <time>2014-05-25T11:34:18Z</time>
      </trkpt>
      <trkpt lat="44.51055" lon="-0.69449">
        <ele>63</ele>
        <time>2014-05-25T11:34:20Z</time>
      </trkpt>
      <trkpt lat="44.51056" lon="-0.69456">
        <ele>63</ele>
        <time>2014-05-25T11:34:21Z</time>
      </trkpt>
      <trkpt lat="44.51059" lon="-0.69474">
        <ele>62</ele>
        <time>2014-05-25T11:34:24Z</time>
      </trkpt>
      <trkpt lat="44.51061" lon="-0.69479">
        <ele>62</ele>
        <time>2014-05-25T11:34:25Z</time>
      </trkpt>
      <trkpt lat="44.51062" lon="-0.69485">
        <ele>62</ele>
        <time>2014-05-25T11:34:26Z</time>
      </trkpt>
      <trkpt lat="44.51064" lon="-0.6949">
        <ele>62</ele>
        <time>2014-05-25T11:34:27Z</time>
      </trkpt>
      <trkpt lat="44.51065" lon="-0.69495">
        <ele>62</ele>
        <time>2014-05-25T11:34:28Z</time>
      </trkpt>
      <trkpt lat="44.51067" lon="-0.695">
        <ele>63</ele>
        <time>2014-05-25T11:34:29Z</time>
      </trkpt>
      <trkpt lat="44.51069" lon="-0.69505">
        <ele>63</ele>
        <time>2014-05-25T11:34:30Z</time>
      </trkpt>
      <trkpt lat="44.51071" lon="-0.6951">
        <ele>63</ele>
        <time>2014-05-25T11:34:31Z</time>
      </trkpt>
      <trkpt lat="44.51078" lon="-0.69533">
        <ele>63</ele>
        <time>2014-05-25T11:34:35Z</time>
      </trkpt>
      <trkpt lat="44.51082" lon="-0.69545">
        <ele>63</ele>
        <time>2014-05-25T11:34:37Z</time>
      </trkpt>
      <trkpt lat="44.51083" lon="-0.69551">
        <ele>63</ele>
        <time>2014-05-25T11:34:38Z</time>
      </trkpt>
      <trkpt lat="44.51085" lon="-0.69557">
        <ele>63</ele>
        <time>2014-05-25T11:34:39Z</time>
      </trkpt>
      <trkpt lat="44.51091" lon="-0.69577">
        <ele>63</ele>
        <time>2014-05-25T11:34:42Z</time>
      </trkpt>
      <trkpt lat="44.51093" lon="-0.69584">
        <ele>63</ele>
        <time>2014-05-25T11:34:43Z</time>
      </trkpt>
      <trkpt lat="44.51095" lon="-0.69589">
        <ele>62</ele>
        <time>2014-05-25T11:34:44Z</time>
      </trkpt>
      <trkpt lat="44.51097" lon="-0.69594">
        <ele>62</ele>
        <time>2014-05-25T11:34:45Z</time>
      </trkpt>
      <trkpt lat="44.511" lon="-0.69599">
        <ele>62</ele>
        <time>2014-05-25T11:34:46Z</time>
      </trkpt>
      <trkpt lat="44.51102" lon="-0.69604">
        <ele>62</ele>
        <time>2014-05-25T11:34:47Z</time>
      </trkpt>
      <trkpt lat="44.51104" lon="-0.6961">
        <ele>62</ele>
        <time>2014-05-25T11:34:48Z</time>
      </trkpt>
      <trkpt lat="44.51106" lon="-0.69616">
        <ele>62</ele>
        <time>2014-05-25T11:34:49Z</time>
      </trkpt>
      <trkpt lat="44.51108" lon="-0.6963">
        <ele>63</ele>
        <time>2014-05-25T11:34:51Z</time>
      </trkpt>
      <trkpt lat="44.5111" lon="-0.69636">
        <ele>63</ele>
        <time>2014-05-25T11:34:52Z</time>
      </trkpt>
      <trkpt lat="44.51116" lon="-0.69652">
        <ele>63</ele>
        <time>2014-05-25T11:34:55Z</time>
      </trkpt>
      <trkpt lat="44.51119" lon="-0.69658">
        <ele>63</ele>
        <time>2014-05-25T11:34:56Z</time>
      </trkpt>
      <trkpt lat="44.51121" lon="-0.69663">
        <ele>63</ele>
        <time>2014-05-25T11:34:57Z</time>
      </trkpt>
      <trkpt lat="44.51122" lon="-0.69669">
        <ele>63</ele>
        <time>2014-05-25T11:34:58Z</time>
      </trkpt>
      <trkpt lat="44.51122" lon="-0.69675">
        <ele>63</ele>
        <time>2014-05-25T11:34:59Z</time>
      </trkpt>
      <trkpt lat="44.51121" lon="-0.69682">
        <ele>63</ele>
        <time>2014-05-25T11:35:00Z</time>
      </trkpt>
      <trkpt lat="44.5112" lon="-0.69688">
        <ele>63</ele>
        <time>2014-05-25T11:35:01Z</time>
      </trkpt>
      <trkpt lat="44.51119" lon="-0.69695">
        <ele>63</ele>
        <time>2014-05-25T11:35:02Z</time>
      </trkpt>
      <trkpt lat="44.51119" lon="-0.69701">
        <ele>63</ele>
        <time>2014-05-25T11:35:03Z</time>
      </trkpt>
      <trkpt lat="44.51119" lon="-0.69707">
        <ele>63</ele>
        <time>2014-05-25T11:35:04Z</time>
      </trkpt>
      <trkpt lat="44.51116" lon="-0.69737">
        <ele>62</ele>
        <time>2014-05-25T11:35:09Z</time>
      </trkpt>
      <trkpt lat="44.51115" lon="-0.69745">
        <ele>62</ele>
        <time>2014-05-25T11:35:10Z</time>
      </trkpt>
      <trkpt lat="44.51115" lon="-0.69752">
        <ele>62</ele>
        <time>2014-05-25T11:35:11Z</time>
      </trkpt>
      <trkpt lat="44.51114" lon="-0.69758">
        <ele>62</ele>
        <time>2014-05-25T11:35:12Z</time>
      </trkpt>
      <trkpt lat="44.51113" lon="-0.69764">
        <ele>62</ele>
        <time>2014-05-25T11:35:13Z</time>
      </trkpt>
      <trkpt lat="44.51112" lon="-0.69771">
        <ele>62</ele>
        <time>2014-05-25T11:35:14Z</time>
      </trkpt>
      <trkpt lat="44.51112" lon="-0.69777">
        <ele>62</ele>
        <time>2014-05-25T11:35:15Z</time>
      </trkpt>
      <trkpt lat="44.51108" lon="-0.69823">
        <ele>62</ele>
        <time>2014-05-25T11:35:21Z</time>
      </trkpt>
      <trkpt lat="44.51107" lon="-0.69831">
        <ele>62</ele>
        <time>2014-05-25T11:35:22Z</time>
      </trkpt>
      <trkpt lat="44.51106" lon="-0.69838">
        <ele>62</ele>
        <time>2014-05-25T11:35:23Z</time>
      </trkpt>
      <trkpt lat="44.511" lon="-0.69867">
        <ele>63</ele>
        <time>2014-05-25T11:35:28Z</time>
      </trkpt>
      <trkpt lat="44.511" lon="-0.69873">
        <ele>63</ele>
        <time>2014-05-25T11:35:29Z</time>
      </trkpt>
      <trkpt lat="44.511" lon="-0.69879">
        <ele>63</ele>
        <time>2014-05-25T11:35:30Z</time>
      </trkpt>
      <trkpt lat="44.51101" lon="-0.69884">
        <ele>63</ele>
        <time>2014-05-25T11:35:31Z</time>
      </trkpt>
      <trkpt lat="44.51102" lon="-0.69894">
        <ele>62</ele>
        <time>2014-05-25T11:35:33Z</time>
      </trkpt>
      <trkpt lat="44.51102" lon="-0.699">
        <ele>62</ele>
        <time>2014-05-25T11:35:34Z</time>
      </trkpt>
      <trkpt lat="44.511" lon="-0.69934">
        <ele>62</ele>
        <time>2014-05-25T11:35:40Z</time>
      </trkpt>
      <trkpt lat="44.51087" lon="-0.69957">
        <ele>62</ele>
        <time>2014-05-25T11:35:45Z</time>
      </trkpt>
      <trkpt lat="44.51077" lon="-0.69968">
        <ele>62</ele>
        <time>2014-05-25T11:35:49Z</time>
      </trkpt>
      <trkpt lat="44.51074" lon="-0.69972">
        <ele>62</ele>
        <time>2014-05-25T11:35:50Z</time>
      </trkpt>
      <trkpt lat="44.51073" lon="-0.69976">
        <ele>62</ele>
        <time>2014-05-25T11:35:51Z</time>
      </trkpt>
      <trkpt lat="44.51071" lon="-0.69986">
        <ele>62</ele>
        <time>2014-05-25T11:35:54Z</time>
      </trkpt>
      <trkpt lat="44.51067" lon="-0.69992">
        <ele>62</ele>
        <time>2014-05-25T11:35:55Z</time>
      </trkpt>
      <trkpt lat="44.51047" lon="-0.70013">
        <ele>62</ele>
        <time>2014-05-25T11:36:00Z</time>
      </trkpt>
      <trkpt lat="44.51028" lon="-0.70022">
        <ele>62</ele>
        <time>2014-05-25T11:36:05Z</time>
      </trkpt>
      <trkpt lat="44.51017" lon="-0.7004">
        <ele>63</ele>
        <time>2014-05-25T11:36:09Z</time>
      </trkpt>
      <trkpt lat="44.51011" lon="-0.7005">
        <ele>63</ele>
        <time>2014-05-25T11:36:11Z</time>
      </trkpt>
      <trkpt lat="44.51009" lon="-0.70056">
        <ele>63</ele>
        <time>2014-05-25T11:36:12Z</time>
      </trkpt>
      <trkpt lat="44.51007" lon="-0.70067">
        <ele>63</ele>
        <time>2014-05-25T11:36:14Z</time>
      </trkpt>
      <trkpt lat="44.51006" lon="-0.70074">
        <ele>63</ele>
        <time>2014-05-25T11:36:15Z</time>
      </trkpt>
      <trkpt lat="44.51007" lon="-0.70099">
        <ele>63</ele>
        <time>2014-05-25T11:36:19Z</time>
      </trkpt>
      <trkpt lat="44.51007" lon="-0.70131">
        <ele>62</ele>
        <time>2014-05-25T11:36:25Z</time>
      </trkpt>
      <trkpt lat="44.5101" lon="-0.70149">
        <ele>62</ele>
        <time>2014-05-25T11:36:29Z</time>
      </trkpt>
      <trkpt lat="44.51013" lon="-0.70153">
        <ele>62</ele>
        <time>2014-05-25T11:36:31Z</time>
      </trkpt>
      <trkpt lat="44.51015" lon="-0.70154">
        <ele>62</ele>
        <time>2014-05-25T11:36:34Z</time>
      </trkpt>
      <trkpt lat="44.51023" lon="-0.7015">
        <ele>62</ele>
        <time>2014-05-25T11:36:39Z</time>
      </trkpt>
      <trkpt lat="44.51026" lon="-0.70147">
        <ele>62</ele>
        <time>2014-05-25T11:36:41Z</time>
      </trkpt>
      <trkpt lat="44.51028" lon="-0.70146">
        <ele>62</ele>
        <time>2014-05-25T11:36:42Z</time>
      </trkpt>
      <trkpt lat="44.51031" lon="-0.70145">
        <ele>62</ele>
        <time>2014-05-25T11:36:43Z</time>
      </trkpt>
      <trkpt lat="44.51034" lon="-0.70144">
        <ele>62</ele>
        <time>2014-05-25T11:36:44Z</time>
      </trkpt>
      <trkpt lat="44.51036" lon="-0.70143">
        <ele>63</ele>
        <time>2014-05-25T11:36:45Z</time>
      </trkpt>
      <trkpt lat="44.51038" lon="-0.70141">
        <ele>63</ele>
        <time>2014-05-25T11:36:46Z</time>
      </trkpt>
      <trkpt lat="44.51041" lon="-0.7014">
        <ele>63</ele>
        <time>2014-05-25T11:36:47Z</time>
      </trkpt>
      <trkpt lat="44.51044" lon="-0.70139">
        <ele>63</ele>
        <time>2014-05-25T11:36:48Z</time>
      </trkpt>
      <trkpt lat="44.51063" lon="-0.7013">
        <ele>64</ele>
        <time>2014-05-25T11:36:53Z</time>
      </trkpt>
      <trkpt lat="44.51083" lon="-0.70118">
        <ele>64</ele>
        <time>2014-05-25T11:36:59Z</time>
      </trkpt>
      <trkpt lat="44.51117" lon="-0.70117">
        <ele>63</ele>
        <time>2014-05-25T11:37:06Z</time>
      </trkpt>
      <trkpt lat="44.51134" lon="-0.70119">
        <ele>62</ele>
        <time>2014-05-25T11:37:10Z</time>
      </trkpt>
      <trkpt lat="44.51164" lon="-0.70123">
        <ele>60</ele>
        <time>2014-05-25T11:37:16Z</time>
      </trkpt>
      <trkpt lat="44.51168" lon="-0.70124">
        <ele>60</ele>
        <time>2014-05-25T11:37:17Z</time>
      </trkpt>
      <trkpt lat="44.51177" lon="-0.70126">
        <ele>61</ele>
        <time>2014-05-25T11:37:19Z</time>
      </trkpt>
      <trkpt lat="44.5119" lon="-0.70132">
        <ele>61</ele>
        <time>2014-05-25T11:37:22Z</time>
      </trkpt>
      <trkpt lat="44.512" lon="-0.70134">
        <ele>62</ele>
        <time>2014-05-25T11:37:24Z</time>
      </trkpt>
      <trkpt lat="44.51205" lon="-0.70134">
        <ele>62</ele>
        <time>2014-05-25T11:37:25Z</time>
      </trkpt>
      <trkpt lat="44.51249" lon="-0.70141">
        <ele>63</ele>
        <time>2014-05-25T11:37:34Z</time>
      </trkpt>
      <trkpt lat="44.51289" lon="-0.70143">
        <ele>64</ele>
        <time>2014-05-25T11:37:42Z</time>
      </trkpt>
      <trkpt lat="44.5134" lon="-0.70145">
        <ele>64</ele>
        <time>2014-05-25T11:37:52Z</time>
      </trkpt>
      <trkpt lat="44.51377" lon="-0.70154">
        <ele>64</ele>
        <time>2014-05-25T11:37:59Z</time>
      </trkpt>
      <trkpt lat="44.51437" lon="-0.70171">
        <ele>64</ele>
        <time>2014-05-25T11:38:09Z</time>
      </trkpt>
      <trkpt lat="44.51448" lon="-0.70173">
        <ele>64</ele>
        <time>2014-05-25T11:38:11Z</time>
      </trkpt>
      <trkpt lat="44.51491" lon="-0.70176">
        <ele>64</ele>
        <time>2014-05-25T11:40:13Z</time>
      </trkpt>
      <trkpt lat="44.51492" lon="-0.70179">
        <ele>64</ele>
        <time>2014-05-25T11:40:14Z</time>
      </trkpt>
      <trkpt lat="44.51494" lon="-0.70182">
        <ele>64</ele>
        <time>2014-05-25T11:40:15Z</time>
      </trkpt>
      <trkpt lat="44.51495" lon="-0.70186">
        <ele>64</ele>
        <time>2014-05-25T11:40:16Z</time>
      </trkpt>
      <trkpt lat="44.51507" lon="-0.70197">
        <ele>64</ele>
        <time>2014-05-25T11:40:21Z</time>
      </trkpt>
      <trkpt lat="44.51525" lon="-0.70204">
        <ele>64</ele>
        <time>2014-05-25T11:40:26Z</time>
      </trkpt>
      <trkpt lat="44.51528" lon="-0.70208">
        <ele>64</ele>
        <time>2014-05-25T11:40:27Z</time>
      </trkpt>
      <trkpt lat="44.5153" lon="-0.70213">
        <ele>64</ele>
        <time>2014-05-25T11:40:28Z</time>
      </trkpt>
      <trkpt lat="44.51532" lon="-0.70218">
        <ele>64</ele>
        <time>2014-05-25T11:40:29Z</time>
      </trkpt>
      <trkpt lat="44.51535" lon="-0.70228">
        <ele>64</ele>
        <time>2014-05-25T11:40:31Z</time>
      </trkpt>
      <trkpt lat="44.51544" lon="-0.70266">
        <ele>64</ele>
        <time>2014-05-25T11:40:38Z</time>
      </trkpt>
      <trkpt lat="44.5155" lon="-0.70294">
        <ele>64</ele>
        <time>2014-05-25T11:40:44Z</time>
      </trkpt>
      <trkpt lat="44.51557" lon="-0.70315">
        <ele>64</ele>
        <time>2014-05-25T11:40:50Z</time>
      </trkpt>
      <trkpt lat="44.51565" lon="-0.70339">
        <ele>64</ele>
        <time>2014-05-25T11:40:56Z</time>
      </trkpt>
      <trkpt lat="44.51575" lon="-0.70372">
        <ele>64</ele>
        <time>2014-05-25T11:41:03Z</time>
      </trkpt>
      <trkpt lat="44.51574" lon="-0.70396">
        <ele>64</ele>
        <time>2014-05-25T11:41:08Z</time>
      </trkpt>
      <trkpt lat="44.51565" lon="-0.7041">
        <ele>64</ele>
        <time>2014-05-25T11:41:12Z</time>
      </trkpt>
      <trkpt lat="44.51539" lon="-0.70431">
        <ele>64</ele>
        <time>2014-05-25T11:41:20Z</time>
      </trkpt>
      <trkpt lat="44.51534" lon="-0.70441">
        <ele>64</ele>
        <time>2014-05-25T11:41:22Z</time>
      </trkpt>
      <trkpt lat="44.51533" lon="-0.70446">
        <ele>64</ele>
        <time>2014-05-25T11:41:23Z</time>
      </trkpt>
      <trkpt lat="44.51516" lon="-0.70486">
        <ele>64</ele>
        <time>2014-05-25T11:41:30Z</time>
      </trkpt>
      <trkpt lat="44.51508" lon="-0.70502">
        <ele>63</ele>
        <time>2014-05-25T11:41:33Z</time>
      </trkpt>
      <trkpt lat="44.51506" lon="-0.70507">
        <ele>63</ele>
        <time>2014-05-25T11:41:34Z</time>
      </trkpt>
      <trkpt lat="44.51505" lon="-0.70512">
        <ele>63</ele>
        <time>2014-05-25T11:41:35Z</time>
      </trkpt>
      <trkpt lat="44.51489" lon="-0.70553">
        <ele>63</ele>
        <time>2014-05-25T11:41:43Z</time>
      </trkpt>
      <trkpt lat="44.51477" lon="-0.70582">
        <ele>63</ele>
        <time>2014-05-25T11:41:49Z</time>
      </trkpt>
      <trkpt lat="44.51463" lon="-0.70614">
        <ele>63</ele>
        <time>2014-05-25T11:41:55Z</time>
      </trkpt>
      <trkpt lat="44.51461" lon="-0.7062">
        <ele>63</ele>
        <time>2014-05-25T11:41:56Z</time>
      </trkpt>
      <trkpt lat="44.51449" lon="-0.70673">
        <ele>63</ele>
        <time>2014-05-25T11:42:05Z</time>
      </trkpt>
      <trkpt lat="44.51441" lon="-0.70714">
        <ele>64</ele>
        <time>2014-05-25T11:42:12Z</time>
      </trkpt>
      <trkpt lat="44.51433" lon="-0.70758">
        <ele>64</ele>
        <time>2014-05-25T11:42:19Z</time>
      </trkpt>
      <trkpt lat="44.51422" lon="-0.70812">
        <ele>65</ele>
        <time>2014-05-25T11:42:28Z</time>
      </trkpt>
      <trkpt lat="44.51419" lon="-0.70869">
        <ele>66</ele>
        <time>2014-05-25T11:42:38Z</time>
      </trkpt>
      <trkpt lat="44.51418" lon="-0.70896">
        <ele>67</ele>
        <time>2014-05-25T11:42:44Z</time>
      </trkpt>
      <trkpt lat="44.51415" lon="-0.70934">
        <ele>68</ele>
        <time>2014-05-25T11:42:52Z</time>
      </trkpt>
      <trkpt lat="44.51416" lon="-0.70961">
        <ele>68</ele>
        <time>2014-05-25T11:42:58Z</time>
      </trkpt>
      <trkpt lat="44.51416" lon="-0.70995">
        <ele>68</ele>
        <time>2014-05-25T11:43:06Z</time>
      </trkpt>
      <trkpt lat="44.51416" lon="-0.71021">
        <ele>68</ele>
        <time>2014-05-25T11:43:12Z</time>
      </trkpt>
      <trkpt lat="44.51413" lon="-0.7105">
        <ele>68</ele>
        <time>2014-05-25T11:43:20Z</time>
      </trkpt>
      <trkpt lat="44.51411" lon="-0.71051">
        <ele>68</ele>
        <time>2014-05-25T11:43:21Z</time>
      </trkpt>
      <trkpt lat="44.51409" lon="-0.71052">
        <ele>68</ele>
        <time>2014-05-25T11:43:22Z</time>
      </trkpt>
      <trkpt lat="44.51392" lon="-0.71056">
        <ele>68</ele>
        <time>2014-05-25T11:43:29Z</time>
      </trkpt>
      <trkpt lat="44.51365" lon="-0.71055">
        <ele>67</ele>
        <time>2014-05-25T11:43:38Z</time>
      </trkpt>
      <trkpt lat="44.51338" lon="-0.71052">
        <ele>67</ele>
        <time>2014-05-25T11:43:47Z</time>
      </trkpt>
      <trkpt lat="44.51336" lon="-0.71052">
        <ele>67</ele>
        <time>2014-05-25T11:43:48Z</time>
      </trkpt>
      <trkpt lat="44.51334" lon="-0.71055">
        <ele>67</ele>
        <time>2014-05-25T11:43:51Z</time>
      </trkpt>
      <trkpt lat="44.51334" lon="-0.71062">
        <ele>67</ele>
        <time>2014-05-25T11:43:54Z</time>
      </trkpt>
      <trkpt lat="44.51335" lon="-0.71096">
        <ele>67</ele>
        <time>2014-05-25T11:44:02Z</time>
      </trkpt>
      <trkpt lat="44.51338" lon="-0.71127">
        <ele>67</ele>
        <time>2014-05-25T11:44:08Z</time>
      </trkpt>
      <trkpt lat="44.51347" lon="-0.71147">
        <ele>67</ele>
        <time>2014-05-25T11:44:13Z</time>
      </trkpt>
      <trkpt lat="44.5135" lon="-0.71151">
        <ele>67</ele>
        <time>2014-05-25T11:44:14Z</time>
      </trkpt>
      <trkpt lat="44.51353" lon="-0.71155">
        <ele>67</ele>
        <time>2014-05-25T11:44:15Z</time>
      </trkpt>
      <trkpt lat="44.51372" lon="-0.71175">
        <ele>67</ele>
        <time>2014-05-25T11:44:22Z</time>
      </trkpt>
      <trkpt lat="44.51386" lon="-0.71192">
        <ele>67</ele>
        <time>2014-05-25T11:44:28Z</time>
      </trkpt>
      <trkpt lat="44.51392" lon="-0.71212">
        <ele>66</ele>
        <time>2014-05-25T11:44:34Z</time>
      </trkpt>
      <trkpt lat="44.51399" lon="-0.71227">
        <ele>65</ele>
        <time>2014-05-25T11:44:39Z</time>
      </trkpt>
      <trkpt lat="44.51413" lon="-0.71239">
        <ele>65</ele>
        <time>2014-05-25T11:44:45Z</time>
      </trkpt>
      <trkpt lat="44.51432" lon="-0.71251">
        <ele>65</ele>
        <time>2014-05-25T11:44:52Z</time>
      </trkpt>
      <trkpt lat="44.51444" lon="-0.71267">
        <ele>66</ele>
        <time>2014-05-25T11:44:58Z</time>
      </trkpt>
      <trkpt lat="44.51448" lon="-0.71277">
        <ele>66</ele>
        <time>2014-05-25T11:45:01Z</time>
      </trkpt>
      <trkpt lat="44.51451" lon="-0.7128">
        <ele>66</ele>
        <time>2014-05-25T11:45:02Z</time>
      </trkpt>
      <trkpt lat="44.51453" lon="-0.71284">
        <ele>66</ele>
        <time>2014-05-25T11:45:03Z</time>
      </trkpt>
      <trkpt lat="44.51467" lon="-0.7131">
        <ele>66</ele>
        <time>2014-05-25T11:45:10Z</time>
      </trkpt>
      <trkpt lat="44.51474" lon="-0.71338">
        <ele>66</ele>
        <time>2014-05-25T11:45:16Z</time>
      </trkpt>
      <trkpt lat="44.51479" lon="-0.71364">
        <ele>66</ele>
        <time>2014-05-25T11:45:21Z</time>
      </trkpt>
      <trkpt lat="44.5149" lon="-0.7139">
        <ele>67</ele>
        <time>2014-05-25T11:45:27Z</time>
      </trkpt>
      <trkpt lat="44.51496" lon="-0.71406">
        <ele>67</ele>
        <time>2014-05-25T11:45:32Z</time>
      </trkpt>
      <trkpt lat="44.51499" lon="-0.71408">
        <ele>66</ele>
        <time>2014-05-25T11:45:38Z</time>
      </trkpt>
      <trkpt lat="44.51497" lon="-0.71418">
        <ele>66</ele>
        <time>2014-05-25T11:48:07Z</time>
      </trkpt>
      <trkpt lat="44.51495" lon="-0.71419">
        <ele>66</ele>
        <time>2014-05-25T11:48:26Z</time>
      </trkpt>
      <trkpt lat="44.51493" lon="-0.71423">
        <ele>66</ele>
        <time>2014-05-25T11:48:37Z</time>
      </trkpt>
      <trkpt lat="44.51489" lon="-0.71432">
        <ele>66</ele>
        <time>2014-05-25T11:48:42Z</time>
      </trkpt>
      <trkpt lat="44.51486" lon="-0.7145">
        <ele>65</ele>
        <time>2014-05-25T11:48:48Z</time>
      </trkpt>
      <trkpt lat="44.51488" lon="-0.71456">
        <ele>65</ele>
        <time>2014-05-25T11:48:50Z</time>
      </trkpt>
      <trkpt lat="44.51494" lon="-0.71468">
        <ele>64</ele>
        <time>2014-05-25T11:48:56Z</time>
      </trkpt>
      <trkpt lat="44.51495" lon="-0.71472">
        <ele>63</ele>
        <time>2014-05-25T11:48:57Z</time>
      </trkpt>
      <trkpt lat="44.51505" lon="-0.71499">
        <ele>61</ele>
        <time>2014-05-25T11:49:03Z</time>
      </trkpt>
      <trkpt lat="44.51506" lon="-0.71503">
        <ele>61</ele>
        <time>2014-05-25T11:49:04Z</time>
      </trkpt>
      <trkpt lat="44.51512" lon="-0.71518">
        <ele>60</ele>
        <time>2014-05-25T11:49:07Z</time>
      </trkpt>
      <trkpt lat="44.51517" lon="-0.71523">
        <ele>59</ele>
        <time>2014-05-25T11:49:08Z</time>
      </trkpt>
      <trkpt lat="44.51521" lon="-0.71527">
        <ele>59</ele>
        <time>2014-05-25T11:49:09Z</time>
      </trkpt>
      <trkpt lat="44.51526" lon="-0.71531">
        <ele>59</ele>
        <time>2014-05-25T11:49:10Z</time>
      </trkpt>
      <trkpt lat="44.51528" lon="-0.71536">
        <ele>59</ele>
        <time>2014-05-25T11:49:11Z</time>
      </trkpt>
      <trkpt lat="44.5153" lon="-0.71541">
        <ele>59</ele>
        <time>2014-05-25T11:49:12Z</time>
      </trkpt>
      <trkpt lat="44.5153" lon="-0.71547">
        <ele>59</ele>
        <time>2014-05-25T11:49:13Z</time>
      </trkpt>
      <trkpt lat="44.51531" lon="-0.71551">
        <ele>60</ele>
        <time>2014-05-25T11:49:14Z</time>
      </trkpt>
      <trkpt lat="44.51532" lon="-0.71554">
        <ele>60</ele>
        <time>2014-05-25T11:49:15Z</time>
      </trkpt>
      <trkpt lat="44.51534" lon="-0.71557">
        <ele>60</ele>
        <time>2014-05-25T11:49:16Z</time>
      </trkpt>
      <trkpt lat="44.51535" lon="-0.71561">
        <ele>60</ele>
        <time>2014-05-25T11:49:17Z</time>
      </trkpt>
      <trkpt lat="44.51535" lon="-0.71565">
        <ele>60</ele>
        <time>2014-05-25T11:49:18Z</time>
      </trkpt>
      <trkpt lat="44.51534" lon="-0.7157">
        <ele>60</ele>
        <time>2014-05-25T11:49:19Z</time>
      </trkpt>
      <trkpt lat="44.51533" lon="-0.71573">
        <ele>60</ele>
        <time>2014-05-25T11:49:20Z</time>
      </trkpt>
      <trkpt lat="44.51523" lon="-0.71588">
        <ele>60</ele>
        <time>2014-05-25T11:49:25Z</time>
      </trkpt>
      <trkpt lat="44.51515" lon="-0.71593">
        <ele>59</ele>
        <time>2014-05-25T11:49:30Z</time>
      </trkpt>
      <trkpt lat="44.51512" lon="-0.71606">
        <ele>58</ele>
        <time>2014-05-25T11:49:35Z</time>
      </trkpt>
      <trkpt lat="44.51515" lon="-0.71609">
        <ele>59</ele>
        <time>2014-05-25T11:49:38Z</time>
      </trkpt>
      <trkpt lat="44.51519" lon="-0.7161">
        <ele>59</ele>
        <time>2014-05-25T11:49:40Z</time>
      </trkpt>
      <trkpt lat="44.51523" lon="-0.71629">
        <ele>59</ele>
        <time>2014-05-25T11:49:46Z</time>
      </trkpt>
      <trkpt lat="44.51522" lon="-0.7165">
        <ele>59</ele>
        <time>2014-05-25T11:49:52Z</time>
      </trkpt>
      <trkpt lat="44.51523" lon="-0.71669">
        <ele>60</ele>
        <time>2014-05-25T11:49:57Z</time>
      </trkpt>
      <trkpt lat="44.51517" lon="-0.71692">
        <ele>60</ele>
        <time>2014-05-25T11:50:02Z</time>
      </trkpt>
      <trkpt lat="44.51509" lon="-0.71706">
        <ele>59</ele>
        <time>2014-05-25T11:50:06Z</time>
      </trkpt>
      <trkpt lat="44.51494" lon="-0.71719">
        <ele>58</ele>
        <time>2014-05-25T11:50:12Z</time>
      </trkpt>
      <trkpt lat="44.51479" lon="-0.71734">
        <ele>56</ele>
        <time>2014-05-25T11:50:20Z</time>
      </trkpt>
      <trkpt lat="44.51476" lon="-0.71739">
        <ele>56</ele>
        <time>2014-05-25T11:50:22Z</time>
      </trkpt>
      <trkpt lat="44.51475" lon="-0.71745">
        <ele>57</ele>
        <time>2014-05-25T11:50:24Z</time>
      </trkpt>
      <trkpt lat="44.51465" lon="-0.71747">
        <ele>57</ele>
        <time>2014-05-25T11:50:30Z</time>
      </trkpt>
      <trkpt lat="44.51453" lon="-0.71757">
        <ele>56</ele>
        <time>2014-05-25T11:50:35Z</time>
      </trkpt>
      <trkpt lat="44.51451" lon="-0.71763">
        <ele>56</ele>
        <time>2014-05-25T11:50:37Z</time>
      </trkpt>
      <trkpt lat="44.51446" lon="-0.71771">
        <ele>56</ele>
        <time>2014-05-25T11:50:41Z</time>
      </trkpt>
      <trkpt lat="44.51435" lon="-0.71773">
        <ele>55</ele>
        <time>2014-05-25T11:50:46Z</time>
      </trkpt>
      <trkpt lat="44.51434" lon="-0.71779">
        <ele>55</ele>
        <time>2014-05-25T11:50:49Z</time>
      </trkpt>
      <trkpt lat="44.51435" lon="-0.71786">
        <ele>55</ele>
        <time>2014-05-25T11:50:53Z</time>
      </trkpt>
      <trkpt lat="44.51426" lon="-0.71798">
        <ele>55</ele>
        <time>2014-05-25T11:50:59Z</time>
      </trkpt>
      <trkpt lat="44.5142" lon="-0.71812">
        <ele>55</ele>
        <time>2014-05-25T11:51:05Z</time>
      </trkpt>
      <trkpt lat="44.51419" lon="-0.71814">
        <ele>55</ele>
        <time>2014-05-25T11:51:06Z</time>
      </trkpt>
      <trkpt lat="44.51413" lon="-0.71831">
        <ele>54</ele>
        <time>2014-05-25T11:51:13Z</time>
      </trkpt>
      <trkpt lat="44.51411" lon="-0.71845">
        <ele>54</ele>
        <time>2014-05-25T11:51:19Z</time>
      </trkpt>
      <trkpt lat="44.51408" lon="-0.71852">
        <ele>54</ele>
        <time>2014-05-25T11:51:22Z</time>
      </trkpt>
      <trkpt lat="44.51405" lon="-0.71856">
        <ele>54</ele>
        <time>2014-05-25T11:51:25Z</time>
      </trkpt>
      <trkpt lat="44.51395" lon="-0.71885">
        <ele>53</ele>
        <time>2014-05-25T11:51:33Z</time>
      </trkpt>
      <trkpt lat="44.5139" lon="-0.71898">
        <ele>53</ele>
        <time>2014-05-25T11:51:40Z</time>
      </trkpt>
      <trkpt lat="44.51388" lon="-0.71915">
        <ele>53</ele>
        <time>2014-05-25T11:51:46Z</time>
      </trkpt>
      <trkpt lat="44.51389" lon="-0.71931">
        <ele>53</ele>
        <time>2014-05-25T11:51:53Z</time>
      </trkpt>
      <trkpt lat="44.51388" lon="-0.71948">
        <ele>52</ele>
        <time>2014-05-25T11:52:00Z</time>
      </trkpt>
      <trkpt lat="44.51384" lon="-0.7196">
        <ele>52</ele>
        <time>2014-05-25T11:52:06Z</time>
      </trkpt>
      <trkpt lat="44.51382" lon="-0.71979">
        <ele>53</ele>
        <time>2014-05-25T11:52:13Z</time>
      </trkpt>
      <trkpt lat="44.51382" lon="-0.71993">
        <ele>53</ele>
        <time>2014-05-25T11:52:18Z</time>
      </trkpt>
      <trkpt lat="44.51377" lon="-0.72015">
        <ele>54</ele>
        <time>2014-05-25T11:52:25Z</time>
      </trkpt>
      <trkpt lat="44.5137" lon="-0.72034">
        <ele>54</ele>
        <time>2014-05-25T11:52:31Z</time>
      </trkpt>
      <trkpt lat="44.51367" lon="-0.7205">
        <ele>54</ele>
        <time>2014-05-25T11:52:37Z</time>
      </trkpt>
      <trkpt lat="44.51366" lon="-0.72052">
        <ele>54</ele>
        <time>2014-05-25T11:52:38Z</time>
      </trkpt>
      <trkpt lat="44.51366" lon="-0.72074">
        <ele>54</ele>
        <time>2014-05-25T11:52:45Z</time>
      </trkpt>
      <trkpt lat="44.51364" lon="-0.72094">
        <ele>54</ele>
        <time>2014-05-25T11:52:50Z</time>
      </trkpt>
      <trkpt lat="44.51371" lon="-0.72111">
        <ele>54</ele>
        <time>2014-05-25T11:52:57Z</time>
      </trkpt>
      <trkpt lat="44.51373" lon="-0.72115">
        <ele>54</ele>
        <time>2014-05-25T11:53:00Z</time>
      </trkpt>
      <trkpt lat="44.51379" lon="-0.72135">
        <ele>54</ele>
        <time>2014-05-25T11:53:06Z</time>
      </trkpt>
      <trkpt lat="44.51379" lon="-0.72148">
        <ele>54</ele>
        <time>2014-05-25T11:53:11Z</time>
      </trkpt>
      <trkpt lat="44.51382" lon="-0.72151">
        <ele>54</ele>
        <time>2014-05-25T11:53:15Z</time>
      </trkpt>
      <trkpt lat="44.51385" lon="-0.72167">
        <ele>54</ele>
        <time>2014-05-25T11:53:23Z</time>
      </trkpt>
      <trkpt lat="44.51385" lon="-0.72177">
        <ele>54</ele>
        <time>2014-05-25T11:53:28Z</time>
      </trkpt>
      <trkpt lat="44.51384" lon="-0.72179">
        <ele>54</ele>
        <time>2014-05-25T11:53:29Z</time>
      </trkpt>
      <trkpt lat="44.51379" lon="-0.72198">
        <ele>54</ele>
        <time>2014-05-25T11:53:33Z</time>
      </trkpt>
      <trkpt lat="44.51376" lon="-0.72214">
        <ele>54</ele>
        <time>2014-05-25T11:53:37Z</time>
      </trkpt>
      <trkpt lat="44.51364" lon="-0.72239">
        <ele>54</ele>
        <time>2014-05-25T11:53:44Z</time>
      </trkpt>
      <trkpt lat="44.51363" lon="-0.72258">
        <ele>54</ele>
        <time>2014-05-25T11:53:50Z</time>
      </trkpt>
      <trkpt lat="44.51365" lon="-0.72262">
        <ele>54</ele>
        <time>2014-05-25T11:53:53Z</time>
      </trkpt>
      <trkpt lat="44.5137" lon="-0.72271">
        <ele>55</ele>
        <time>2014-05-25T11:54:00Z</time>
      </trkpt>
      <trkpt lat="44.51372" lon="-0.72283">
        <ele>55</ele>
        <time>2014-05-25T11:54:06Z</time>
      </trkpt>
      <trkpt lat="44.5137" lon="-0.72291">
        <ele>55</ele>
        <time>2014-05-25T11:54:11Z</time>
      </trkpt>
      <trkpt lat="44.5136" lon="-0.72311">
        <ele>54</ele>
        <time>2014-05-25T11:54:18Z</time>
      </trkpt>
      <trkpt lat="44.51355" lon="-0.72321">
        <ele>53</ele>
        <time>2014-05-25T11:54:24Z</time>
      </trkpt>
      <trkpt lat="44.51353" lon="-0.72325">
        <ele>53</ele>
        <time>2014-05-25T11:54:27Z</time>
      </trkpt>
      <trkpt lat="44.51352" lon="-0.7234">
        <ele>53</ele>
        <time>2014-05-25T11:54:34Z</time>
      </trkpt>
      <trkpt lat="44.51352" lon="-0.72355">
        <ele>53</ele>
        <time>2014-05-25T11:54:41Z</time>
      </trkpt>
      <trkpt lat="44.51351" lon="-0.72357">
        <ele>53</ele>
        <time>2014-05-25T11:54:52Z</time>
      </trkpt>
      <trkpt lat="44.51351" lon="-0.72357">
        <ele>53</ele>
        <time>2014-05-25T11:55:08Z</time>
      </trkpt>
      <trkpt lat="44.51351" lon="-0.72358">
        <ele>53</ele>
        <time>2014-05-25T11:55:22Z</time>
      </trkpt>
      <trkpt lat="44.51351" lon="-0.72359">
        <ele>53</ele>
        <time>2014-05-25T11:55:35Z</time>
      </trkpt>
      <trkpt lat="44.51352" lon="-0.72363">
        <ele>53</ele>
        <time>2014-05-25T11:55:42Z</time>
      </trkpt>
      <trkpt lat="44.51354" lon="-0.72368">
        <ele>53</ele>
        <time>2014-05-25T11:55:44Z</time>
      </trkpt>
      <trkpt lat="44.51361" lon="-0.72376">
        <ele>54</ele>
        <time>2014-05-25T11:55:50Z</time>
      </trkpt>
      <trkpt lat="44.51362" lon="-0.72378">
        <ele>54</ele>
        <time>2014-05-25T11:55:51Z</time>
      </trkpt>
      <trkpt lat="44.51366" lon="-0.72391">
        <ele>54</ele>
        <time>2014-05-25T11:55:56Z</time>
      </trkpt>
      <trkpt lat="44.51369" lon="-0.72402">
        <ele>54</ele>
        <time>2014-05-25T11:56:02Z</time>
      </trkpt>
      <trkpt lat="44.5138" lon="-0.72415">
        <ele>54</ele>
        <time>2014-05-25T11:56:10Z</time>
      </trkpt>
      <trkpt lat="44.51385" lon="-0.72423">
        <ele>54</ele>
        <time>2014-05-25T11:56:16Z</time>
      </trkpt>
      <trkpt lat="44.51398" lon="-0.72439">
        <ele>55</ele>
        <time>2014-05-25T11:56:23Z</time>
      </trkpt>
      <trkpt lat="44.51405" lon="-0.72454">
        <ele>55</ele>
        <time>2014-05-25T11:56:31Z</time>
      </trkpt>
      <trkpt lat="44.51411" lon="-0.72464">
        <ele>56</ele>
        <time>2014-05-25T11:56:36Z</time>
      </trkpt>
      <trkpt lat="44.51415" lon="-0.72474">
        <ele>56</ele>
        <time>2014-05-25T11:56:39Z</time>
      </trkpt>
      <trkpt lat="44.51419" lon="-0.72492">
        <ele>56</ele>
        <time>2014-05-25T11:56:46Z</time>
      </trkpt>
      <trkpt lat="44.51418" lon="-0.7249">
        <ele>56</ele>
        <time>2014-05-25T11:56:54Z</time>
      </trkpt>
      <trkpt lat="44.51418" lon="-0.72489">
        <ele>56</ele>
        <time>2014-05-25T11:57:01Z</time>
      </trkpt>
      <trkpt lat="44.51415" lon="-0.72491">
        <ele>56</ele>
        <time>2014-05-25T11:57:09Z</time>
      </trkpt>
      <trkpt lat="44.51407" lon="-0.72497">
        <ele>55</ele>
        <time>2014-05-25T11:57:15Z</time>
      </trkpt>
      <trkpt lat="44.51401" lon="-0.72501">
        <ele>54</ele>
        <time>2014-05-25T11:57:17Z</time>
      </trkpt>
      <trkpt lat="44.51397" lon="-0.72513">
        <ele>54</ele>
        <time>2014-05-25T11:57:23Z</time>
      </trkpt>
      <trkpt lat="44.51398" lon="-0.72518">
        <ele>54</ele>
        <time>2014-05-25T11:57:26Z</time>
      </trkpt>
      <trkpt lat="44.51396" lon="-0.72542">
        <ele>53</ele>
        <time>2014-05-25T11:57:32Z</time>
      </trkpt>
      <trkpt lat="44.51397" lon="-0.72551">
        <ele>53</ele>
        <time>2014-05-25T11:57:37Z</time>
      </trkpt>
      <trkpt lat="44.51397" lon="-0.72553">
        <ele>53</ele>
        <time>2014-05-25T11:57:48Z</time>
      </trkpt>
      <trkpt lat="44.51397" lon="-0.72561">
        <ele>53</ele>
        <time>2014-05-25T11:57:52Z</time>
      </trkpt>
      <trkpt lat="44.51396" lon="-0.72568">
        <ele>53</ele>
        <time>2014-05-25T11:57:54Z</time>
      </trkpt>
      <trkpt lat="44.51396" lon="-0.72573">
        <ele>53</ele>
        <time>2014-05-25T11:57:56Z</time>
      </trkpt>
      <trkpt lat="44.51397" lon="-0.72592">
        <ele>53</ele>
        <time>2014-05-25T11:58:01Z</time>
      </trkpt>
      <trkpt lat="44.51396" lon="-0.72614">
        <ele>52</ele>
        <time>2014-05-25T11:58:07Z</time>
      </trkpt>
      <trkpt lat="44.51396" lon="-0.72625">
        <ele>52</ele>
        <time>2014-05-25T11:58:12Z</time>
      </trkpt>
      <trkpt lat="44.51396" lon="-0.72629">
        <ele>52</ele>
        <time>2014-05-25T11:58:14Z</time>
      </trkpt>
      <trkpt lat="44.51392" lon="-0.72638">
        <ele>51</ele>
        <time>2014-05-25T11:58:21Z</time>
      </trkpt>
      <trkpt lat="44.51398" lon="-0.72658">
        <ele>51</ele>
        <time>2014-05-25T11:58:27Z</time>
      </trkpt>
      <trkpt lat="44.51398" lon="-0.72668">
        <ele>51</ele>
        <time>2014-05-25T11:58:29Z</time>
      </trkpt>
      <trkpt lat="44.51402" lon="-0.72682">
        <ele>51</ele>
        <time>2014-05-25T11:58:31Z</time>
      </trkpt>
      <trkpt lat="44.51409" lon="-0.72702">
        <ele>51</ele>
        <time>2014-05-25T11:58:36Z</time>
      </trkpt>
      <trkpt lat="44.51415" lon="-0.72718">
        <ele>51</ele>
        <time>2014-05-25T11:58:41Z</time>
      </trkpt>
      <trkpt lat="44.51424" lon="-0.72739">
        <ele>52</ele>
        <time>2014-05-25T11:58:47Z</time>
      </trkpt>
      <trkpt lat="44.51429" lon="-0.72748">
        <ele>52</ele>
        <time>2014-05-25T11:58:51Z</time>
      </trkpt>
      <trkpt lat="44.51439" lon="-0.72772">
        <ele>52</ele>
        <time>2014-05-25T11:58:56Z</time>
      </trkpt>
      <trkpt lat="44.5144" lon="-0.72774">
        <ele>52</ele>
        <time>2014-05-25T11:58:57Z</time>
      </trkpt>
      <trkpt lat="44.51443" lon="-0.72777">
        <ele>52</ele>
        <time>2014-05-25T11:59:00Z</time>
      </trkpt>
      <trkpt lat="44.51447" lon="-0.72783">
        <ele>52</ele>
        <time>2014-05-25T11:59:03Z</time>
      </trkpt>
      <trkpt lat="44.51447" lon="-0.72771">
        <ele>52</ele>
        <time>2014-05-25T11:59:11Z</time>
      </trkpt>
      <trkpt lat="44.51448" lon="-0.72759">
        <ele>53</ele>
        <time>2014-05-25T11:59:16Z</time>
      </trkpt>
      <trkpt lat="44.5145" lon="-0.72756">
        <ele>53</ele>
        <time>2014-05-25T11:59:23Z</time>
      </trkpt>
      <trkpt lat="44.51454" lon="-0.72759">
        <ele>54</ele>
        <time>2014-05-25T11:59:31Z</time>
      </trkpt>
      <trkpt lat="44.51455" lon="-0.72763">
        <ele>53</ele>
        <time>2014-05-25T11:59:37Z</time>
      </trkpt>
      <trkpt lat="44.51458" lon="-0.72767">
        <ele>54</ele>
        <time>2014-05-25T11:59:44Z</time>
      </trkpt>
      <trkpt lat="44.51459" lon="-0.72773">
        <ele>53</ele>
        <time>2014-05-25T11:59:52Z</time>
      </trkpt>
      <trkpt lat="44.51462" lon="-0.72777">
        <ele>54</ele>
        <time>2014-05-25T11:59:58Z</time>
      </trkpt>
      <trkpt lat="44.51463" lon="-0.72779">
        <ele>53</ele>
        <time>2014-05-25T12:00:00Z</time>
      </trkpt>
      <trkpt lat="44.51467" lon="-0.72788">
        <ele>53</ele>
        <time>2014-05-25T12:00:07Z</time>
      </trkpt>
      <trkpt lat="44.51469" lon="-0.72795">
        <ele>53</ele>
        <time>2014-05-25T12:00:14Z</time>
      </trkpt>
      <trkpt lat="44.5147" lon="-0.72796">
        <ele>53</ele>
        <time>2014-05-25T12:00:27Z</time>
      </trkpt>
      <trkpt lat="44.5147" lon="-0.72796">
        <ele>53</ele>
        <time>2014-05-25T12:00:33Z</time>
      </trkpt>
      <trkpt lat="44.5147" lon="-0.72797">
        <ele>53</ele>
        <time>2014-05-25T12:00:43Z</time>
      </trkpt>
      <trkpt lat="44.5147" lon="-0.72797">
        <ele>53</ele>
        <time>2014-05-25T12:00:55Z</time>
      </trkpt>
      <trkpt lat="44.51471" lon="-0.72799">
        <ele>53</ele>
        <time>2014-05-25T12:01:00Z</time>
      </trkpt>
      <trkpt lat="44.51476" lon="-0.72808">
        <ele>53</ele>
        <time>2014-05-25T12:01:06Z</time>
      </trkpt>
      <trkpt lat="44.51481" lon="-0.72813">
        <ele>53</ele>
        <time>2014-05-25T12:01:12Z</time>
      </trkpt>
      <trkpt lat="44.51486" lon="-0.7282">
        <ele>53</ele>
        <time>2014-05-25T12:01:19Z</time>
      </trkpt>
      <trkpt lat="44.51497" lon="-0.72829">
        <ele>53</ele>
        <time>2014-05-25T12:01:24Z</time>
      </trkpt>
      <trkpt lat="44.51507" lon="-0.72843">
        <ele>53</ele>
        <time>2014-05-25T12:01:30Z</time>
      </trkpt>
      <trkpt lat="44.51515" lon="-0.72866">
        <ele>53</ele>
        <time>2014-05-25T12:01:36Z</time>
      </trkpt>
      <trkpt lat="44.51529" lon="-0.72877">
        <ele>55</ele>
        <time>2014-05-25T12:01:42Z</time>
      </trkpt>
      <trkpt lat="44.51538" lon="-0.72881">
        <ele>56</ele>
        <time>2014-05-25T12:01:47Z</time>
      </trkpt>
      <trkpt lat="44.51545" lon="-0.72889">
        <ele>56</ele>
        <time>2014-05-25T12:01:51Z</time>
      </trkpt>
      <trkpt lat="44.51555" lon="-0.72904">
        <ele>56</ele>
        <time>2014-05-25T12:01:58Z</time>
      </trkpt>
      <trkpt lat="44.51564" lon="-0.7292">
        <ele>57</ele>
        <time>2014-05-25T12:02:04Z</time>
      </trkpt>
      <trkpt lat="44.51567" lon="-0.72925">
        <ele>57</ele>
        <time>2014-05-25T12:02:06Z</time>
      </trkpt>
      <trkpt lat="44.51578" lon="-0.72935">
        <ele>58</ele>
        <time>2014-05-25T12:02:13Z</time>
      </trkpt>
      <trkpt lat="44.51582" lon="-0.72937">
        <ele>58</ele>
        <time>2014-05-25T12:02:14Z</time>
      </trkpt>
      <trkpt lat="44.51595" lon="-0.7295">
        <ele>58</ele>
        <time>2014-05-25T12:02:19Z</time>
      </trkpt>
      <trkpt lat="44.51603" lon="-0.72969">
        <ele>58</ele>
        <time>2014-05-25T12:02:26Z</time>
      </trkpt>
      <trkpt lat="44.51605" lon="-0.72972">
        <ele>58</ele>
        <time>2014-05-25T12:02:27Z</time>
      </trkpt>
      <trkpt lat="44.51617" lon="-0.72991">
        <ele>57</ele>
        <time>2014-05-25T12:02:34Z</time>
      </trkpt>
      <trkpt lat="44.51618" lon="-0.72993">
        <ele>57</ele>
        <time>2014-05-25T12:02:35Z</time>
      </trkpt>
      <trkpt lat="44.51622" lon="-0.72997">
        <ele>57</ele>
        <time>2014-05-25T12:02:38Z</time>
      </trkpt>
      <trkpt lat="44.51635" lon="-0.73004">
        <ele>57</ele>
        <time>2014-05-25T12:02:46Z</time>
      </trkpt>
      <trkpt lat="44.51647" lon="-0.73014">
        <ele>57</ele>
        <time>2014-05-25T12:02:53Z</time>
      </trkpt>
      <trkpt lat="44.51655" lon="-0.73029">
        <ele>57</ele>
        <time>2014-05-25T12:03:00Z</time>
      </trkpt>
      <trkpt lat="44.51659" lon="-0.73042">
        <ele>56</ele>
        <time>2014-05-25T12:03:05Z</time>
      </trkpt>
      <trkpt lat="44.51657" lon="-0.73066">
        <ele>55</ele>
        <time>2014-05-25T12:03:11Z</time>
      </trkpt>
      <trkpt lat="44.51654" lon="-0.73073">
        <ele>54</ele>
        <time>2014-05-25T12:03:13Z</time>
      </trkpt>
      <trkpt lat="44.51648" lon="-0.731">
        <ele>52</ele>
        <time>2014-05-25T12:03:21Z</time>
      </trkpt>
      <trkpt lat="44.51649" lon="-0.73105">
        <ele>52</ele>
        <time>2014-05-25T12:03:24Z</time>
      </trkpt>
      <trkpt lat="44.5165" lon="-0.73111">
        <ele>52</ele>
        <time>2014-05-25T12:03:27Z</time>
      </trkpt>
      <trkpt lat="44.5166" lon="-0.73118">
        <ele>53</ele>
        <time>2014-05-25T12:03:31Z</time>
      </trkpt>
      <trkpt lat="44.5167" lon="-0.73122">
        <ele>54</ele>
        <time>2014-05-25T12:03:35Z</time>
      </trkpt>
      <trkpt lat="44.51674" lon="-0.73125">
        <ele>54</ele>
        <time>2014-05-25T12:03:40Z</time>
      </trkpt>
      <trkpt lat="44.51682" lon="-0.73131">
        <ele>55</ele>
        <time>2014-05-25T12:03:48Z</time>
      </trkpt>
      <trkpt lat="44.51686" lon="-0.73136">
        <ele>56</ele>
        <time>2014-05-25T12:03:56Z</time>
      </trkpt>
      <trkpt lat="44.51687" lon="-0.73139">
        <ele>56</ele>
        <time>2014-05-25T12:04:03Z</time>
      </trkpt>
      <trkpt lat="44.51688" lon="-0.73139">
        <ele>56</ele>
        <time>2014-05-25T12:04:06Z</time>
      </trkpt>
      <trkpt lat="44.51688" lon="-0.73136">
        <ele>56</ele>
        <time>2014-05-25T12:04:12Z</time>
      </trkpt>
      <trkpt lat="44.51688" lon="-0.73135">
        <ele>56</ele>
        <time>2014-05-25T12:04:18Z</time>
      </trkpt>
      <trkpt lat="44.51689" lon="-0.73134">
        <ele>56</ele>
        <time>2014-05-25T12:04:26Z</time>
      </trkpt>
      <trkpt lat="44.51689" lon="-0.73134">
        <ele>56</ele>
        <time>2014-05-25T12:04:38Z</time>
      </trkpt>
      <trkpt lat="44.51689" lon="-0.73135">
        <ele>56</ele>
        <time>2014-05-25T12:04:44Z</time>
      </trkpt>
      <trkpt lat="44.51689" lon="-0.73135">
        <ele>56</ele>
        <time>2014-05-25T12:04:56Z</time>
      </trkpt>
      <trkpt lat="44.51688" lon="-0.73135">
        <ele>56</ele>
        <time>2014-05-25T12:05:11Z</time>
      </trkpt>
      <trkpt lat="44.51689" lon="-0.73136">
        <ele>56</ele>
        <time>2014-05-25T12:05:26Z</time>
      </trkpt>
      <trkpt lat="44.51689" lon="-0.73136">
        <ele>56</ele>
        <time>2014-05-25T12:05:38Z</time>
      </trkpt>
      <trkpt lat="44.51689" lon="-0.73136">
        <ele>56</ele>
        <time>2014-05-25T12:05:53Z</time>
      </trkpt>
      <trkpt lat="44.51689" lon="-0.73136">
        <ele>56</ele>
        <time>2014-05-25T12:06:11Z</time>
      </trkpt>
      <trkpt lat="44.51689" lon="-0.73136">
        <ele>56</ele>
        <time>2014-05-25T12:06:26Z</time>
      </trkpt>
      <trkpt lat="44.51689" lon="-0.73137">
        <ele>56</ele>
        <time>2014-05-25T12:06:39Z</time>
      </trkpt>
      <trkpt lat="44.51689" lon="-0.73138">
        <ele>56</ele>
        <time>2014-05-25T12:06:47Z</time>
      </trkpt>
      <trkpt lat="44.51689" lon="-0.73139">
        <ele>56</ele>
        <time>2014-05-25T12:06:58Z</time>
      </trkpt>
      <trkpt lat="44.51689" lon="-0.73139">
        <ele>56</ele>
        <time>2014-05-25T12:07:14Z</time>
      </trkpt>
      <trkpt lat="44.51689" lon="-0.7314">
        <ele>56</ele>
        <time>2014-05-25T12:07:31Z</time>
      </trkpt>
      <trkpt lat="44.51689" lon="-0.7314">
        <ele>56</ele>
        <time>2014-05-25T12:07:46Z</time>
      </trkpt>
      <trkpt lat="44.51689" lon="-0.73141">
        <ele>56</ele>
        <time>2014-05-25T12:07:57Z</time>
      </trkpt>
      <trkpt lat="44.51689" lon="-0.73144">
        <ele>56</ele>
        <time>2014-05-25T12:08:05Z</time>
      </trkpt>
      <trkpt lat="44.51689" lon="-0.73145">
        <ele>56</ele>
        <time>2014-05-25T12:08:06Z</time>
      </trkpt>
      <trkpt lat="44.51692" lon="-0.7316">
        <ele>57</ele>
        <time>2014-05-25T12:08:14Z</time>
      </trkpt>
      <trkpt lat="44.51695" lon="-0.73184">
        <ele>57</ele>
        <time>2014-05-25T12:08:21Z</time>
      </trkpt>
      <trkpt lat="44.51703" lon="-0.7321">
        <ele>58</ele>
        <time>2014-05-25T12:08:27Z</time>
      </trkpt>
      <trkpt lat="44.51709" lon="-0.73238">
        <ele>58</ele>
        <time>2014-05-25T12:08:33Z</time>
      </trkpt>
      <trkpt lat="44.51703" lon="-0.73254">
        <ele>58</ele>
        <time>2014-05-25T12:08:37Z</time>
      </trkpt>
      <trkpt lat="44.51708" lon="-0.73268">
        <ele>58</ele>
        <time>2014-05-25T12:08:41Z</time>
      </trkpt>
      <trkpt lat="44.5172" lon="-0.73282">
        <ele>59</ele>
        <time>2014-05-25T12:08:46Z</time>
      </trkpt>
      <trkpt lat="44.51722" lon="-0.73312">
        <ele>59</ele>
        <time>2014-05-25T12:08:53Z</time>
      </trkpt>
      <trkpt lat="44.51733" lon="-0.73329">
        <ele>59</ele>
        <time>2014-05-25T12:08:58Z</time>
      </trkpt>
      <trkpt lat="44.51741" lon="-0.73347">
        <ele>60</ele>
        <time>2014-05-25T12:09:03Z</time>
      </trkpt>
      <trkpt lat="44.51742" lon="-0.73372">
        <ele>60</ele>
        <time>2014-05-25T12:09:08Z</time>
      </trkpt>
      <trkpt lat="44.51751" lon="-0.73398">
        <ele>60</ele>
        <time>2014-05-25T12:09:14Z</time>
      </trkpt>
      <trkpt lat="44.51754" lon="-0.73401">
        <ele>60</ele>
        <time>2014-05-25T12:09:15Z</time>
      </trkpt>
      <trkpt lat="44.51755" lon="-0.73418">
        <ele>59</ele>
        <time>2014-05-25T12:09:22Z</time>
      </trkpt>
      <trkpt lat="44.51745" lon="-0.73422">
        <ele>59</ele>
        <time>2014-05-25T12:09:26Z</time>
      </trkpt>
      <trkpt lat="44.51734" lon="-0.73435">
        <ele>58</ele>
        <time>2014-05-25T12:09:31Z</time>
      </trkpt>
      <trkpt lat="44.51731" lon="-0.73444">
        <ele>57</ele>
        <time>2014-05-25T12:09:34Z</time>
      </trkpt>
      <trkpt lat="44.51732" lon="-0.73455">
        <ele>56</ele>
        <time>2014-05-25T12:09:38Z</time>
      </trkpt>
      <trkpt lat="44.51728" lon="-0.73472">
        <ele>55</ele>
        <time>2014-05-25T12:09:42Z</time>
      </trkpt>
      <trkpt lat="44.51727" lon="-0.73477">
        <ele>55</ele>
        <time>2014-05-25T12:09:43Z</time>
      </trkpt>
      <trkpt lat="44.51725" lon="-0.73481">
        <ele>54</ele>
        <time>2014-05-25T12:09:44Z</time>
      </trkpt>
      <trkpt lat="44.51701" lon="-0.7351">
        <ele>50</ele>
        <time>2014-05-25T12:09:51Z</time>
      </trkpt>
      <trkpt lat="44.51674" lon="-0.73541">
        <ele>48</ele>
        <time>2014-05-25T12:09:56Z</time>
      </trkpt>
      <trkpt lat="44.51671" lon="-0.73547">
        <ele>47</ele>
        <time>2014-05-25T12:09:57Z</time>
      </trkpt>
      <trkpt lat="44.51661" lon="-0.73563">
        <ele>46</ele>
        <time>2014-05-25T12:10:00Z</time>
      </trkpt>
      <trkpt lat="44.51659" lon="-0.73565">
        <ele>46</ele>
        <time>2014-05-25T12:10:01Z</time>
      </trkpt>
      <trkpt lat="44.51656" lon="-0.73568">
        <ele>45</ele>
        <time>2014-05-25T12:10:02Z</time>
      </trkpt>
      <trkpt lat="44.51653" lon="-0.7357">
        <ele>45</ele>
        <time>2014-05-25T12:10:03Z</time>
      </trkpt>
      <trkpt lat="44.5165" lon="-0.73573">
        <ele>45</ele>
        <time>2014-05-25T12:10:04Z</time>
      </trkpt>
      <trkpt lat="44.51648" lon="-0.73576">
        <ele>45</ele>
        <time>2014-05-25T12:10:05Z</time>
      </trkpt>
      <trkpt lat="44.51643" lon="-0.73587">
        <ele>45</ele>
        <time>2014-05-25T12:10:08Z</time>
      </trkpt>
      <trkpt lat="44.51636" lon="-0.73622">
        <ele>44</ele>
        <time>2014-05-25T12:10:14Z</time>
      </trkpt>
      <trkpt lat="44.51635" lon="-0.73628">
        <ele>44</ele>
        <time>2014-05-25T12:10:15Z</time>
      </trkpt>
      <trkpt lat="44.51633" lon="-0.73647">
        <ele>44</ele>
        <time>2014-05-25T12:10:18Z</time>
      </trkpt>
      <trkpt lat="44.51633" lon="-0.73653">
        <ele>44</ele>
        <time>2014-05-25T12:10:19Z</time>
      </trkpt>
      <trkpt lat="44.51633" lon="-0.73665">
        <ele>44</ele>
        <time>2014-05-25T12:10:21Z</time>
      </trkpt>
      <trkpt lat="44.51632" lon="-0.73698">
        <ele>44</ele>
        <time>2014-05-25T12:10:26Z</time>
      </trkpt>
      <trkpt lat="44.51634" lon="-0.73735">
        <ele>43</ele>
        <time>2014-05-25T12:10:32Z</time>
      </trkpt>
      <trkpt lat="44.51637" lon="-0.73772">
        <ele>44</ele>
        <time>2014-05-25T12:10:38Z</time>
      </trkpt>
      <trkpt lat="44.51637" lon="-0.73798">
        <ele>44</ele>
        <time>2014-05-25T12:10:44Z</time>
      </trkpt>
      <trkpt lat="44.51633" lon="-0.73823">
        <ele>45</ele>
        <time>2014-05-25T12:10:49Z</time>
      </trkpt>
      <trkpt lat="44.51631" lon="-0.73835">
        <ele>45</ele>
        <time>2014-05-25T12:10:51Z</time>
      </trkpt>
      <trkpt lat="44.51625" lon="-0.73862">
        <ele>45</ele>
        <time>2014-05-25T12:10:57Z</time>
      </trkpt>
      <trkpt lat="44.51623" lon="-0.73868">
        <ele>45</ele>
        <time>2014-05-25T12:10:59Z</time>
      </trkpt>
      <trkpt lat="44.51621" lon="-0.73891">
        <ele>44</ele>
        <time>2014-05-25T12:11:05Z</time>
      </trkpt>
      <trkpt lat="44.51621" lon="-0.73897">
        <ele>44</ele>
        <time>2014-05-25T12:11:07Z</time>
      </trkpt>
      <trkpt lat="44.5162" lon="-0.73905">
        <ele>43</ele>
        <time>2014-05-25T12:11:09Z</time>
      </trkpt>
      <trkpt lat="44.51625" lon="-0.73919">
        <ele>43</ele>
        <time>2014-05-25T12:11:16Z</time>
      </trkpt>
      <trkpt lat="44.51628" lon="-0.73923">
        <ele>43</ele>
        <time>2014-05-25T12:11:18Z</time>
      </trkpt>
      <trkpt lat="44.51624" lon="-0.73948">
        <ele>42</ele>
        <time>2014-05-25T12:11:25Z</time>
      </trkpt>
      <trkpt lat="44.51623" lon="-0.73959">
        <ele>41</ele>
        <time>2014-05-25T12:11:29Z</time>
      </trkpt>
      <trkpt lat="44.5163" lon="-0.73974">
        <ele>40</ele>
        <time>2014-05-25T12:11:33Z</time>
      </trkpt>
      <trkpt lat="44.51645" lon="-0.74003">
        <ele>40</ele>
        <time>2014-05-25T12:11:41Z</time>
      </trkpt>
      <trkpt lat="44.51652" lon="-0.74015">
        <ele>41</ele>
        <time>2014-05-25T12:11:45Z</time>
      </trkpt>
      <trkpt lat="44.51654" lon="-0.74019">
        <ele>42</ele>
        <time>2014-05-25T12:11:48Z</time>
      </trkpt>
      <trkpt lat="44.51657" lon="-0.74028">
        <ele>42</ele>
        <time>2014-05-25T12:11:53Z</time>
      </trkpt>
      <trkpt lat="44.51659" lon="-0.74051">
        <ele>41</ele>
        <time>2014-05-25T12:11:58Z</time>
      </trkpt>
      <trkpt lat="44.51653" lon="-0.74076">
        <ele>41</ele>
        <time>2014-05-25T12:12:03Z</time>
      </trkpt>
      <trkpt lat="44.51648" lon="-0.74085">
        <ele>40</ele>
        <time>2014-05-25T12:12:06Z</time>
      </trkpt>
      <trkpt lat="44.51644" lon="-0.74114">
        <ele>40</ele>
        <time>2014-05-25T12:12:14Z</time>
      </trkpt>
      <trkpt lat="44.51642" lon="-0.74121">
        <ele>40</ele>
        <time>2014-05-25T12:12:16Z</time>
      </trkpt>
      <trkpt lat="44.51638" lon="-0.7413">
        <ele>40</ele>
        <time>2014-05-25T12:12:21Z</time>
      </trkpt>
      <trkpt lat="44.51651" lon="-0.74155">
        <ele>42</ele>
        <time>2014-05-25T12:12:28Z</time>
      </trkpt>
      <trkpt lat="44.51665" lon="-0.74177">
        <ele>43</ele>
        <time>2014-05-25T12:12:35Z</time>
      </trkpt>
      <trkpt lat="44.51674" lon="-0.74184">
        <ele>43</ele>
        <time>2014-05-25T12:12:40Z</time>
      </trkpt>
      <trkpt lat="44.51679" lon="-0.74186">
        <ele>44</ele>
        <time>2014-05-25T12:12:44Z</time>
      </trkpt>
      <trkpt lat="44.51678" lon="-0.74204">
        <ele>42</ele>
        <time>2014-05-25T12:12:49Z</time>
      </trkpt>
      <trkpt lat="44.51677" lon="-0.74209">
        <ele>42</ele>
        <time>2014-05-25T12:12:50Z</time>
      </trkpt>
      <trkpt lat="44.51681" lon="-0.74236">
        <ele>41</ele>
        <time>2014-05-25T12:12:53Z</time>
      </trkpt>
      <trkpt lat="44.51689" lon="-0.74268">
        <ele>41</ele>
        <time>2014-05-25T12:12:57Z</time>
      </trkpt>
      <trkpt lat="44.51709" lon="-0.74294">
        <ele>42</ele>
        <time>2014-05-25T12:13:03Z</time>
      </trkpt>
      <trkpt lat="44.51712" lon="-0.74297">
        <ele>42</ele>
        <time>2014-05-25T12:13:04Z</time>
      </trkpt>
      <trkpt lat="44.51729" lon="-0.74312">
        <ele>42</ele>
        <time>2014-05-25T12:13:12Z</time>
      </trkpt>
      <trkpt lat="44.51738" lon="-0.74325">
        <ele>42</ele>
        <time>2014-05-25T12:13:18Z</time>
      </trkpt>
      <trkpt lat="44.51739" lon="-0.74327">
        <ele>43</ele>
        <time>2014-05-25T12:13:19Z</time>
      </trkpt>
      <trkpt lat="44.51743" lon="-0.74334">
        <ele>43</ele>
        <time>2014-05-25T12:13:23Z</time>
      </trkpt>
      <trkpt lat="44.5175" lon="-0.74351">
        <ele>43</ele>
        <time>2014-05-25T12:13:31Z</time>
      </trkpt>
      <trkpt lat="44.51756" lon="-0.74361">
        <ele>43</ele>
        <time>2014-05-25T12:13:38Z</time>
      </trkpt>
      <trkpt lat="44.51763" lon="-0.74373">
        <ele>43</ele>
        <time>2014-05-25T12:13:44Z</time>
      </trkpt>
      <trkpt lat="44.51774" lon="-0.74387">
        <ele>43</ele>
        <time>2014-05-25T12:13:52Z</time>
      </trkpt>
      <trkpt lat="44.51778" lon="-0.74389">
        <ele>44</ele>
        <time>2014-05-25T12:13:54Z</time>
      </trkpt>
      <trkpt lat="44.51785" lon="-0.74413">
        <ele>44</ele>
        <time>2014-05-25T12:14:00Z</time>
      </trkpt>
      <trkpt lat="44.5179" lon="-0.74438">
        <ele>44</ele>
        <time>2014-05-25T12:14:07Z</time>
      </trkpt>
      <trkpt lat="44.51798" lon="-0.74461">
        <ele>44</ele>
        <time>2014-05-25T12:14:13Z</time>
      </trkpt>
      <trkpt lat="44.51808" lon="-0.74475">
        <ele>45</ele>
        <time>2014-05-25T12:14:19Z</time>
      </trkpt>
      <trkpt lat="44.51813" lon="-0.74483">
        <ele>45</ele>
        <time>2014-05-25T12:14:22Z</time>
      </trkpt>
      <trkpt lat="44.51824" lon="-0.74484">
        <ele>46</ele>
        <time>2014-05-25T12:14:26Z</time>
      </trkpt>
      <trkpt lat="44.51831" lon="-0.74483">
        <ele>46</ele>
        <time>2014-05-25T12:14:29Z</time>
      </trkpt>
      <trkpt lat="44.51835" lon="-0.745">
        <ele>46</ele>
        <time>2014-05-25T12:14:35Z</time>
      </trkpt>
      <trkpt lat="44.51842" lon="-0.74504">
        <ele>46</ele>
        <time>2014-05-25T12:14:39Z</time>
      </trkpt>
      <trkpt lat="44.51862" lon="-0.74492">
        <ele>48</ele>
        <time>2014-05-25T12:14:47Z</time>
      </trkpt>
      <trkpt lat="44.51886" lon="-0.74485">
        <ele>49</ele>
        <time>2014-05-25T12:14:54Z</time>
      </trkpt>
      <trkpt lat="44.51899" lon="-0.74482">
        <ele>50</ele>
        <time>2014-05-25T12:14:57Z</time>
      </trkpt>
      <trkpt lat="44.51925" lon="-0.74478">
        <ele>51</ele>
        <time>2014-05-25T12:15:04Z</time>
      </trkpt>
      <trkpt lat="44.51938" lon="-0.74475">
        <ele>51</ele>
        <time>2014-05-25T12:15:09Z</time>
      </trkpt>
      <trkpt lat="44.51946" lon="-0.74466">
        <ele>52</ele>
        <time>2014-05-25T12:15:17Z</time>
      </trkpt>
      <trkpt lat="44.51949" lon="-0.74465">
        <ele>52</ele>
        <time>2014-05-25T12:15:28Z</time>
      </trkpt>
      <trkpt lat="44.51951" lon="-0.74466">
        <ele>52</ele>
        <time>2014-05-25T12:15:37Z</time>
      </trkpt>
      <trkpt lat="44.51951" lon="-0.74467">
        <ele>52</ele>
        <time>2014-05-25T12:15:48Z</time>
      </trkpt>
      <trkpt lat="44.51951" lon="-0.74467">
        <ele>52</ele>
        <time>2014-05-25T12:15:57Z</time>
      </trkpt>
      <trkpt lat="44.51951" lon="-0.74466">
        <ele>52</ele>
        <time>2014-05-25T12:16:08Z</time>
      </trkpt>
      <trkpt lat="44.51951" lon="-0.74466">
        <ele>52</ele>
        <time>2014-05-25T12:16:18Z</time>
      </trkpt>
      <trkpt lat="44.51948" lon="-0.74452">
        <ele>52</ele>
        <time>2014-05-25T12:16:26Z</time>
      </trkpt>
      <trkpt lat="44.51946" lon="-0.74441">
        <ele>52</ele>
        <time>2014-05-25T12:16:31Z</time>
      </trkpt>
      <trkpt lat="44.51943" lon="-0.74422">
        <ele>52</ele>
        <time>2014-05-25T12:16:38Z</time>
      </trkpt>
      <trkpt lat="44.51935" lon="-0.74388">
        <ele>52</ele>
        <time>2014-05-25T12:16:46Z</time>
      </trkpt>
      <trkpt lat="44.51929" lon="-0.74356">
        <ele>52</ele>
        <time>2014-05-25T12:16:53Z</time>
      </trkpt>
      <trkpt lat="44.51922" lon="-0.74328">
        <ele>53</ele>
        <time>2014-05-25T12:16:59Z</time>
      </trkpt>
      <trkpt lat="44.51917" lon="-0.74305">
        <ele>53</ele>
        <time>2014-05-25T12:17:05Z</time>
      </trkpt>
      <trkpt lat="44.51927" lon="-0.74298">
        <ele>53</ele>
        <time>2014-05-25T12:17:11Z</time>
      </trkpt>
      <trkpt lat="44.51932" lon="-0.74299">
        <ele>53</ele>
        <time>2014-05-25T12:17:13Z</time>
      </trkpt>
      <trkpt lat="44.5196" lon="-0.74302">
        <ele>54</ele>
        <time>2014-05-25T12:17:21Z</time>
      </trkpt>
      <trkpt lat="44.51981" lon="-0.74304">
        <ele>54</ele>
        <time>2014-05-25T12:17:27Z</time>
      </trkpt>
      <trkpt lat="44.52007" lon="-0.74306">
        <ele>55</ele>
        <time>2014-05-25T12:17:35Z</time>
      </trkpt>
      <trkpt lat="44.52025" lon="-0.7431">
        <ele>55</ele>
        <time>2014-05-25T12:17:41Z</time>
      </trkpt>
      <trkpt lat="44.5205" lon="-0.74313">
        <ele>55</ele>
        <time>2014-05-25T12:17:49Z</time>
      </trkpt>
      <trkpt lat="44.52068" lon="-0.74316">
        <ele>55</ele>
        <time>2014-05-25T12:17:55Z</time>
      </trkpt>
      <trkpt lat="44.52086" lon="-0.74316">
        <ele>55</ele>
        <time>2014-05-25T12:18:01Z</time>
      </trkpt>
      <trkpt lat="44.521" lon="-0.74301">
        <ele>55</ele>
        <time>2014-05-25T12:18:07Z</time>
      </trkpt>
      <trkpt lat="44.52119" lon="-0.74293">
        <ele>56</ele>
        <time>2014-05-25T12:18:13Z</time>
      </trkpt>
      <trkpt lat="44.52145" lon="-0.74284">
        <ele>56</ele>
        <time>2014-05-25T12:18:21Z</time>
      </trkpt>
      <trkpt lat="44.52162" lon="-0.74283">
        <ele>56</ele>
        <time>2014-05-25T12:18:27Z</time>
      </trkpt>
      <trkpt lat="44.52183" lon="-0.74278">
        <ele>56</ele>
        <time>2014-05-25T12:18:35Z</time>
      </trkpt>
      <trkpt lat="44.52196" lon="-0.74278">
        <ele>55</ele>
        <time>2014-05-25T12:18:40Z</time>
      </trkpt>
      <trkpt lat="44.52206" lon="-0.74276">
        <ele>55</ele>
        <time>2014-05-25T12:18:46Z</time>
      </trkpt>
      <trkpt lat="44.52207" lon="-0.74275">
        <ele>55</ele>
        <time>2014-05-25T12:18:47Z</time>
      </trkpt>
      <trkpt lat="44.52212" lon="-0.74274">
        <ele>55</ele>
        <time>2014-05-25T12:18:50Z</time>
      </trkpt>
      <trkpt lat="44.52222" lon="-0.74277">
        <ele>54</ele>
        <time>2014-05-25T12:18:56Z</time>
      </trkpt>
      <trkpt lat="44.52228" lon="-0.74277">
        <ele>54</ele>
        <time>2014-05-25T12:19:00Z</time>
      </trkpt>
      <trkpt lat="44.52242" lon="-0.74269">
        <ele>53</ele>
        <time>2014-05-25T12:19:06Z</time>
      </trkpt>
      <trkpt lat="44.52248" lon="-0.74252">
        <ele>54</ele>
        <time>2014-05-25T12:19:12Z</time>
      </trkpt>
      <trkpt lat="44.52252" lon="-0.74242">
        <ele>54</ele>
        <time>2014-05-25T12:19:15Z</time>
      </trkpt>
      <trkpt lat="44.52263" lon="-0.74254">
        <ele>53</ele>
        <time>2014-05-25T12:19:20Z</time>
      </trkpt>
      <trkpt lat="44.52276" lon="-0.7428">
        <ele>50</ele>
        <time>2014-05-25T12:19:26Z</time>
      </trkpt>
      <trkpt lat="44.52283" lon="-0.74293">
        <ele>48</ele>
        <time>2014-05-25T12:19:29Z</time>
      </trkpt>
      <trkpt lat="44.52298" lon="-0.74306">
        <ele>44</ele>
        <time>2014-05-25T12:19:33Z</time>
      </trkpt>
      <trkpt lat="44.52314" lon="-0.74304">
        <ele>43</ele>
        <time>2014-05-25T12:19:38Z</time>
      </trkpt>
      <trkpt lat="44.52329" lon="-0.74288">
        <ele>43</ele>
        <time>2014-05-25T12:19:44Z</time>
      </trkpt>
      <trkpt lat="44.52346" lon="-0.74281">
        <ele>42</ele>
        <time>2014-05-25T12:19:49Z</time>
      </trkpt>
      <trkpt lat="44.5236" lon="-0.74265">
        <ele>43</ele>
        <time>2014-05-25T12:19:55Z</time>
      </trkpt>
      <trkpt lat="44.52366" lon="-0.74258">
        <ele>43</ele>
        <time>2014-05-25T12:19:58Z</time>
      </trkpt>
      <trkpt lat="44.52375" lon="-0.74243">
        <ele>43</ele>
        <time>2014-05-25T12:20:04Z</time>
      </trkpt>
      <trkpt lat="44.52383" lon="-0.74218">
        <ele>43</ele>
        <time>2014-05-25T12:20:11Z</time>
      </trkpt>
      <trkpt lat="44.52388" lon="-0.74207">
        <ele>43</ele>
        <time>2014-05-25T12:20:18Z</time>
      </trkpt>
      <trkpt lat="44.52391" lon="-0.74203">
        <ele>42</ele>
        <time>2014-05-25T12:20:20Z</time>
      </trkpt>
      <trkpt lat="44.52397" lon="-0.74197">
        <ele>42</ele>
        <time>2014-05-25T12:20:24Z</time>
      </trkpt>
      <trkpt lat="44.52403" lon="-0.74198">
        <ele>41</ele>
        <time>2014-05-25T12:20:30Z</time>
      </trkpt>
      <trkpt lat="44.52414" lon="-0.7421">
        <ele>40</ele>
        <time>2014-05-25T12:21:24Z</time>
      </trkpt>
      <trkpt lat="44.52418" lon="-0.74246">
        <ele>39</ele>
        <time>2014-05-25T12:21:30Z</time>
      </trkpt>
      <trkpt lat="44.5242" lon="-0.74249">
        <ele>39</ele>
        <time>2014-05-25T12:21:38Z</time>
      </trkpt>
      <trkpt lat="44.5242" lon="-0.7425">
        <ele>39</ele>
        <time>2014-05-25T12:21:45Z</time>
      </trkpt>
      <trkpt lat="44.52421" lon="-0.74251">
        <ele>39</ele>
        <time>2014-05-25T12:21:53Z</time>
      </trkpt>
      <trkpt lat="44.52421" lon="-0.74252">
        <ele>39</ele>
        <time>2014-05-25T12:22:03Z</time>
      </trkpt>
      <trkpt lat="44.52422" lon="-0.74252">
        <ele>39</ele>
        <time>2014-05-25T12:22:15Z</time>
      </trkpt>
      <trkpt lat="44.52422" lon="-0.74252">
        <ele>39</ele>
        <time>2014-05-25T12:22:28Z</time>
      </trkpt>
      <trkpt lat="44.52423" lon="-0.74253">
        <ele>39</ele>
        <time>2014-05-25T12:22:44Z</time>
      </trkpt>
      <trkpt lat="44.52423" lon="-0.74253">
        <ele>39</ele>
        <time>2014-05-25T12:22:58Z</time>
      </trkpt>
      <trkpt lat="44.52423" lon="-0.74254">
        <ele>39</ele>
        <time>2014-05-25T12:23:00Z</time>
      </trkpt>
      <trkpt lat="44.52424" lon="-0.74257">
        <ele>39</ele>
        <time>2014-05-25T12:23:02Z</time>
      </trkpt>
      <trkpt lat="44.52425" lon="-0.74263">
        <ele>39</ele>
        <time>2014-05-25T12:23:05Z</time>
      </trkpt>
      <trkpt lat="44.52432" lon="-0.74275">
        <ele>38</ele>
        <time>2014-05-25T12:23:13Z</time>
      </trkpt>
      <trkpt lat="44.52433" lon="-0.74277">
        <ele>38</ele>
        <time>2014-05-25T12:23:14Z</time>
      </trkpt>
      <trkpt lat="44.52437" lon="-0.74287">
        <ele>38</ele>
        <time>2014-05-25T12:23:20Z</time>
      </trkpt>
      <trkpt lat="44.52443" lon="-0.74313">
        <ele>41</ele>
        <time>2014-05-25T12:23:27Z</time>
      </trkpt>
      <trkpt lat="44.52439" lon="-0.74333">
        <ele>42</ele>
        <time>2014-05-25T12:23:33Z</time>
      </trkpt>
      <trkpt lat="44.52429" lon="-0.74351">
        <ele>42</ele>
        <time>2014-05-25T12:23:39Z</time>
      </trkpt>
      <trkpt lat="44.52422" lon="-0.74362">
        <ele>42</ele>
        <time>2014-05-25T12:23:43Z</time>
      </trkpt>
      <trkpt lat="44.52416" lon="-0.74375">
        <ele>42</ele>
        <time>2014-05-25T12:23:47Z</time>
      </trkpt>
      <trkpt lat="44.52402" lon="-0.74391">
        <ele>41</ele>
        <time>2014-05-25T12:23:53Z</time>
      </trkpt>
      <trkpt lat="44.52398" lon="-0.74393">
        <ele>41</ele>
        <time>2014-05-25T12:23:55Z</time>
      </trkpt>
      <trkpt lat="44.52385" lon="-0.74403">
        <ele>40</ele>
        <time>2014-05-25T12:24:00Z</time>
      </trkpt>
      <trkpt lat="44.52383" lon="-0.74405">
        <ele>40</ele>
        <time>2014-05-25T12:24:01Z</time>
      </trkpt>
      <trkpt lat="44.52363" lon="-0.74422">
        <ele>39</ele>
        <time>2014-05-25T12:24:09Z</time>
      </trkpt>
      <trkpt lat="44.52349" lon="-0.74443">
        <ele>38</ele>
        <time>2014-05-25T12:24:16Z</time>
      </trkpt>
      <trkpt lat="44.52351" lon="-0.74456">
        <ele>39</ele>
        <time>2014-05-25T12:24:21Z</time>
      </trkpt>
      <trkpt lat="44.52358" lon="-0.74458">
        <ele>40</ele>
        <time>2014-05-25T12:24:26Z</time>
      </trkpt>
      <trkpt lat="44.52365" lon="-0.74465">
        <ele>41</ele>
        <time>2014-05-25T12:24:32Z</time>
      </trkpt>
      <trkpt lat="44.52368" lon="-0.74483">
        <ele>41</ele>
        <time>2014-05-25T12:24:38Z</time>
      </trkpt>
      <trkpt lat="44.52369" lon="-0.74485">
        <ele>41</ele>
        <time>2014-05-25T12:24:39Z</time>
      </trkpt>
      <trkpt lat="44.52373" lon="-0.74503">
        <ele>41</ele>
        <time>2014-05-25T12:24:46Z</time>
      </trkpt>
      <trkpt lat="44.52369" lon="-0.74519">
        <ele>40</ele>
        <time>2014-05-25T12:24:51Z</time>
      </trkpt>
      <trkpt lat="44.52366" lon="-0.74536">
        <ele>40</ele>
        <time>2014-05-25T12:24:56Z</time>
      </trkpt>
      <trkpt lat="44.52361" lon="-0.74558">
        <ele>40</ele>
        <time>2014-05-25T12:25:02Z</time>
      </trkpt>
      <trkpt lat="44.52353" lon="-0.74577">
        <ele>40</ele>
        <time>2014-05-25T12:25:08Z</time>
      </trkpt>
      <trkpt lat="44.52336" lon="-0.74593">
        <ele>39</ele>
        <time>2014-05-25T12:25:15Z</time>
      </trkpt>
      <trkpt lat="44.52328" lon="-0.74595">
        <ele>38</ele>
        <time>2014-05-25T12:25:18Z</time>
      </trkpt>
      <trkpt lat="44.5232" lon="-0.74601">
        <ele>38</ele>
        <time>2014-05-25T12:25:22Z</time>
      </trkpt>
      <trkpt lat="44.52309" lon="-0.74612">
        <ele>38</ele>
        <time>2014-05-25T12:25:27Z</time>
      </trkpt>
      <trkpt lat="44.523" lon="-0.74635">
        <ele>39</ele>
        <time>2014-05-25T12:25:33Z</time>
      </trkpt>
      <trkpt lat="44.52296" lon="-0.74644">
        <ele>39</ele>
        <time>2014-05-25T12:25:36Z</time>
      </trkpt>
      <trkpt lat="44.52283" lon="-0.74657">
        <ele>39</ele>
        <time>2014-05-25T12:25:42Z</time>
      </trkpt>
      <trkpt lat="44.52271" lon="-0.74672">
        <ele>39</ele>
        <time>2014-05-25T12:25:47Z</time>
      </trkpt>
      <trkpt lat="44.52257" lon="-0.74687">
        <ele>38</ele>
        <time>2014-05-25T12:25:51Z</time>
      </trkpt>
      <trkpt lat="44.52247" lon="-0.74703">
        <ele>38</ele>
        <time>2014-05-25T12:25:56Z</time>
      </trkpt>
      <trkpt lat="44.52237" lon="-0.7472">
        <ele>38</ele>
        <time>2014-05-25T12:26:01Z</time>
      </trkpt>
      <trkpt lat="44.52234" lon="-0.74728">
        <ele>38</ele>
        <time>2014-05-25T12:26:03Z</time>
      </trkpt>
      <trkpt lat="44.5223" lon="-0.74742">
        <ele>38</ele>
        <time>2014-05-25T12:26:09Z</time>
      </trkpt>
      <trkpt lat="44.52229" lon="-0.74746">
        <ele>38</ele>
        <time>2014-05-25T12:26:17Z</time>
      </trkpt>
      <trkpt lat="44.52227" lon="-0.7475">
        <ele>38</ele>
        <time>2014-05-25T12:26:24Z</time>
      </trkpt>
      <trkpt lat="44.52226" lon="-0.7475">
        <ele>38</ele>
        <time>2014-05-25T12:26:33Z</time>
      </trkpt>
      <trkpt lat="44.52226" lon="-0.74759">
        <ele>39</ele>
        <time>2014-05-25T12:26:41Z</time>
      </trkpt>
      <trkpt lat="44.52225" lon="-0.74765">
        <ele>39</ele>
        <time>2014-05-25T12:26:49Z</time>
      </trkpt>
      <trkpt lat="44.52224" lon="-0.74772">
        <ele>39</ele>
        <time>2014-05-25T12:26:57Z</time>
      </trkpt>
      <trkpt lat="44.52222" lon="-0.74782">
        <ele>39</ele>
        <time>2014-05-25T12:27:05Z</time>
      </trkpt>
      <trkpt lat="44.52221" lon="-0.74789">
        <ele>39</ele>
        <time>2014-05-25T12:27:11Z</time>
      </trkpt>
      <trkpt lat="44.5222" lon="-0.74793">
        <ele>39</ele>
        <time>2014-05-25T12:27:19Z</time>
      </trkpt>
      <trkpt lat="44.52219" lon="-0.74793">
        <ele>39</ele>
        <time>2014-05-25T12:27:29Z</time>
      </trkpt>
      <trkpt lat="44.52219" lon="-0.74794">
        <ele>39</ele>
        <time>2014-05-25T12:27:39Z</time>
      </trkpt>
      <trkpt lat="44.52216" lon="-0.748">
        <ele>39</ele>
        <time>2014-05-25T12:27:46Z</time>
      </trkpt>
      <trkpt lat="44.52215" lon="-0.74807">
        <ele>39</ele>
        <time>2014-05-25T12:27:51Z</time>
      </trkpt>
      <trkpt lat="44.5221" lon="-0.74811">
        <ele>39</ele>
        <time>2014-05-25T12:27:57Z</time>
      </trkpt>
      <trkpt lat="44.5221" lon="-0.74812">
        <ele>39</ele>
        <time>2014-05-25T12:27:58Z</time>
      </trkpt>
      <trkpt lat="44.52215" lon="-0.74827">
        <ele>41</ele>
        <time>2014-05-25T12:28:05Z</time>
      </trkpt>
      <trkpt lat="44.52217" lon="-0.74831">
        <ele>41</ele>
        <time>2014-05-25T12:28:07Z</time>
      </trkpt>
      <trkpt lat="44.52219" lon="-0.74837">
        <ele>42</ele>
        <time>2014-05-25T12:28:12Z</time>
      </trkpt>
      <trkpt lat="44.52218" lon="-0.74841">
        <ele>42</ele>
        <time>2014-05-25T12:28:14Z</time>
      </trkpt>
      <trkpt lat="44.52217" lon="-0.74844">
        <ele>42</ele>
        <time>2014-05-25T12:28:16Z</time>
      </trkpt>
      <trkpt lat="44.52214" lon="-0.7485">
        <ele>42</ele>
        <time>2014-05-25T12:28:19Z</time>
      </trkpt>
      <trkpt lat="44.52208" lon="-0.74863">
        <ele>42</ele>
        <time>2014-05-25T12:28:27Z</time>
      </trkpt>
      <trkpt lat="44.52205" lon="-0.74869">
        <ele>43</ele>
        <time>2014-05-25T12:28:31Z</time>
      </trkpt>
      <trkpt lat="44.52202" lon="-0.74878">
        <ele>43</ele>
        <time>2014-05-25T12:28:36Z</time>
      </trkpt>
      <trkpt lat="44.522" lon="-0.74881">
        <ele>43</ele>
        <time>2014-05-25T12:28:38Z</time>
      </trkpt>
      <trkpt lat="44.52191" lon="-0.74892">
        <ele>42</ele>
        <time>2014-05-25T12:28:46Z</time>
      </trkpt>
      <trkpt lat="44.52188" lon="-0.74898">
        <ele>42</ele>
        <time>2014-05-25T12:28:49Z</time>
      </trkpt>
      <trkpt lat="44.52184" lon="-0.74905">
        <ele>42</ele>
        <time>2014-05-25T12:28:53Z</time>
      </trkpt>
      <trkpt lat="44.52173" lon="-0.74921">
        <ele>42</ele>
        <time>2014-05-25T12:29:02Z</time>
      </trkpt>
      <trkpt lat="44.52165" lon="-0.74932">
        <ele>42</ele>
        <time>2014-05-25T12:29:09Z</time>
      </trkpt>
      <trkpt lat="44.52166" lon="-0.74946">
        <ele>43</ele>
        <time>2014-05-25T12:29:16Z</time>
      </trkpt>
      <trkpt lat="44.5217" lon="-0.74952">
        <ele>44</ele>
        <time>2014-05-25T12:29:21Z</time>
      </trkpt>
      <trkpt lat="44.52175" lon="-0.7496">
        <ele>44</ele>
        <time>2014-05-25T12:29:29Z</time>
      </trkpt>
      <trkpt lat="44.52177" lon="-0.74965">
        <ele>45</ele>
        <time>2014-05-25T12:29:35Z</time>
      </trkpt>
      <trkpt lat="44.52179" lon="-0.74967">
        <ele>45</ele>
        <time>2014-05-25T12:29:42Z</time>
      </trkpt>
      <trkpt lat="44.52184" lon="-0.74972">
        <ele>45</ele>
        <time>2014-05-25T12:29:46Z</time>
      </trkpt>
      <trkpt lat="44.52189" lon="-0.74978">
        <ele>46</ele>
        <time>2014-05-25T12:29:50Z</time>
      </trkpt>
      <trkpt lat="44.52197" lon="-0.74985">
        <ele>46</ele>
        <time>2014-05-25T12:29:58Z</time>
      </trkpt>
      <trkpt lat="44.52204" lon="-0.74994">
        <ele>47</ele>
        <time>2014-05-25T12:30:04Z</time>
      </trkpt>
      <trkpt lat="44.52207" lon="-0.75001">
        <ele>47</ele>
        <time>2014-05-25T12:30:10Z</time>
      </trkpt>
      <trkpt lat="44.52214" lon="-0.75014">
        <ele>47</ele>
        <time>2014-05-25T12:30:16Z</time>
      </trkpt>
      <trkpt lat="44.52219" lon="-0.7502">
        <ele>47</ele>
        <time>2014-05-25T12:30:20Z</time>
      </trkpt>
      <trkpt lat="44.52233" lon="-0.75031">
        <ele>48</ele>
        <time>2014-05-25T12:30:28Z</time>
      </trkpt>
      <trkpt lat="44.52242" lon="-0.75038">
        <ele>48</ele>
        <time>2014-05-25T12:30:35Z</time>
      </trkpt>
      <trkpt lat="44.52244" lon="-0.7504">
        <ele>48</ele>
        <time>2014-05-25T12:30:36Z</time>
      </trkpt>
      <trkpt lat="44.5226" lon="-0.75053">
        <ele>48</ele>
        <time>2014-05-25T12:30:45Z</time>
      </trkpt>
      <trkpt lat="44.52275" lon="-0.75066">
        <ele>49</ele>
        <time>2014-05-25T12:30:52Z</time>
      </trkpt>
      <trkpt lat="44.52293" lon="-0.75082">
        <ele>49</ele>
        <time>2014-05-25T12:30:59Z</time>
      </trkpt>
      <trkpt lat="44.52314" lon="-0.75103">
        <ele>50</ele>
        <time>2014-05-25T12:31:09Z</time>
      </trkpt>
      <trkpt lat="44.52315" lon="-0.7512">
        <ele>50</ele>
        <time>2014-05-25T12:31:14Z</time>
      </trkpt>
      <trkpt lat="44.52305" lon="-0.75143">
        <ele>50</ele>
        <time>2014-05-25T12:31:21Z</time>
      </trkpt>
      <trkpt lat="44.52295" lon="-0.75169">
        <ele>49</ele>
        <time>2014-05-25T12:31:29Z</time>
      </trkpt>
      <trkpt lat="44.52287" lon="-0.7519">
        <ele>49</ele>
        <time>2014-05-25T12:31:35Z</time>
      </trkpt>
      <trkpt lat="44.52277" lon="-0.75219">
        <ele>49</ele>
        <time>2014-05-25T12:31:42Z</time>
      </trkpt>
      <trkpt lat="44.52265" lon="-0.75254">
        <ele>49</ele>
        <time>2014-05-25T12:31:49Z</time>
      </trkpt>
      <trkpt lat="44.52247" lon="-0.753">
        <ele>48</ele>
        <time>2014-05-25T12:31:58Z</time>
      </trkpt>
      <trkpt lat="44.52233" lon="-0.75341">
        <ele>48</ele>
        <time>2014-05-25T12:32:05Z</time>
      </trkpt>
      <trkpt lat="44.52221" lon="-0.75379">
        <ele>48</ele>
        <time>2014-05-25T12:32:12Z</time>
      </trkpt>
      <trkpt lat="44.52212" lon="-0.754">
        <ele>48</ele>
        <time>2014-05-25T12:32:16Z</time>
      </trkpt>
      <trkpt lat="44.522" lon="-0.75436">
        <ele>47</ele>
        <time>2014-05-25T12:32:23Z</time>
      </trkpt>
      <trkpt lat="44.52188" lon="-0.75476">
        <ele>47</ele>
        <time>2014-05-25T12:32:31Z</time>
      </trkpt>
      <trkpt lat="44.52181" lon="-0.75504">
        <ele>47</ele>
        <time>2014-05-25T12:32:37Z</time>
      </trkpt>
      <trkpt lat="44.52176" lon="-0.75519">
        <ele>47</ele>
        <time>2014-05-25T12:32:42Z</time>
      </trkpt>
      <trkpt lat="44.52167" lon="-0.75546">
        <ele>47</ele>
        <time>2014-05-25T12:33:23Z</time>
      </trkpt>
      <trkpt lat="44.52166" lon="-0.75546">
        <ele>47</ele>
        <time>2014-05-25T12:33:24Z</time>
      </trkpt>
      <trkpt lat="44.52164" lon="-0.75545">
        <ele>47</ele>
        <time>2014-05-25T12:33:25Z</time>
      </trkpt>
      <trkpt lat="44.52162" lon="-0.75545">
        <ele>47</ele>
        <time>2014-05-25T12:33:26Z</time>
      </trkpt>
      <trkpt lat="44.5216" lon="-0.75544">
        <ele>47</ele>
        <time>2014-05-25T12:33:27Z</time>
      </trkpt>
      <trkpt lat="44.52147" lon="-0.75548">
        <ele>47</ele>
        <time>2014-05-25T12:33:34Z</time>
      </trkpt>
      <trkpt lat="44.52127" lon="-0.75555">
        <ele>48</ele>
        <time>2014-05-25T12:33:41Z</time>
      </trkpt>
      <trkpt lat="44.52107" lon="-0.75563">
        <ele>48</ele>
        <time>2014-05-25T12:33:47Z</time>
      </trkpt>
      <trkpt lat="44.52083" lon="-0.75572">
        <ele>48</ele>
        <time>2014-05-25T12:33:54Z</time>
      </trkpt>
      <trkpt lat="44.52061" lon="-0.75577">
        <ele>48</ele>
        <time>2014-05-25T12:34:00Z</time>
      </trkpt>
      <trkpt lat="44.52048" lon="-0.75562">
        <ele>48</ele>
        <time>2014-05-25T12:34:05Z</time>
      </trkpt>
      <trkpt lat="44.52027" lon="-0.75561">
        <ele>47</ele>
        <time>2014-05-25T12:34:11Z</time>
      </trkpt>
      <trkpt lat="44.52009" lon="-0.75563">
        <ele>46</ele>
        <time>2014-05-25T12:34:15Z</time>
      </trkpt>
      <trkpt lat="44.52004" lon="-0.75562">
        <ele>45</ele>
        <time>2014-05-25T12:34:16Z</time>
      </trkpt>
      <trkpt lat="44.52001" lon="-0.75559">
        <ele>45</ele>
        <time>2014-05-25T12:34:17Z</time>
      </trkpt>
      <trkpt lat="44.51998" lon="-0.75556">
        <ele>44</ele>
        <time>2014-05-25T12:34:18Z</time>
      </trkpt>
      <trkpt lat="44.51996" lon="-0.75553">
        <ele>44</ele>
        <time>2014-05-25T12:34:19Z</time>
      </trkpt>
      <trkpt lat="44.51993" lon="-0.75552">
        <ele>43</ele>
        <time>2014-05-25T12:34:20Z</time>
      </trkpt>
      <trkpt lat="44.5199" lon="-0.75551">
        <ele>42</ele>
        <time>2014-05-25T12:34:21Z</time>
      </trkpt>
      <trkpt lat="44.51986" lon="-0.75551">
        <ele>41</ele>
        <time>2014-05-25T12:34:22Z</time>
      </trkpt>
      <trkpt lat="44.51981" lon="-0.75552">
        <ele>40</ele>
        <time>2014-05-25T12:34:23Z</time>
      </trkpt>
      <trkpt lat="44.51976" lon="-0.75553">
        <ele>38</ele>
        <time>2014-05-25T12:34:24Z</time>
      </trkpt>
      <trkpt lat="44.51963" lon="-0.75556">
        <ele>35</ele>
        <time>2014-05-25T12:34:28Z</time>
      </trkpt>
      <trkpt lat="44.51964" lon="-0.75558">
        <ele>35</ele>
        <time>2014-05-25T12:34:33Z</time>
      </trkpt>
      <trkpt lat="44.51965" lon="-0.75559">
        <ele>36</ele>
        <time>2014-05-25T12:34:34Z</time>
      </trkpt>
      <trkpt lat="44.51967" lon="-0.75574">
        <ele>36</ele>
        <time>2014-05-25T12:34:40Z</time>
      </trkpt>
      <trkpt lat="44.51961" lon="-0.75597">
        <ele>35</ele>
        <time>2014-05-25T12:34:47Z</time>
      </trkpt>
      <trkpt lat="44.51967" lon="-0.75615">
        <ele>37</ele>
        <time>2014-05-25T12:34:53Z</time>
      </trkpt>
      <trkpt lat="44.51969" lon="-0.75629">
        <ele>37</ele>
        <time>2014-05-25T12:34:58Z</time>
      </trkpt>
      <trkpt lat="44.51971" lon="-0.75644">
        <ele>38</ele>
        <time>2014-05-25T12:35:03Z</time>
      </trkpt>
      <trkpt lat="44.51972" lon="-0.75663">
        <ele>39</ele>
        <time>2014-05-25T12:35:10Z</time>
      </trkpt>
      <trkpt lat="44.51975" lon="-0.75678">
        <ele>39</ele>
        <time>2014-05-25T12:35:15Z</time>
      </trkpt>
      <trkpt lat="44.51975" lon="-0.75699">
        <ele>40</ele>
        <time>2014-05-25T12:35:21Z</time>
      </trkpt>
      <trkpt lat="44.5198" lon="-0.75721">
        <ele>40</ele>
        <time>2014-05-25T12:35:27Z</time>
      </trkpt>
      <trkpt lat="44.51983" lon="-0.75741">
        <ele>40</ele>
        <time>2014-05-25T12:35:33Z</time>
      </trkpt>
      <trkpt lat="44.51983" lon="-0.75748">
        <ele>40</ele>
        <time>2014-05-25T12:35:35Z</time>
      </trkpt>
      <trkpt lat="44.51981" lon="-0.75759">
        <ele>40</ele>
        <time>2014-05-25T12:35:38Z</time>
      </trkpt>
      <trkpt lat="44.51978" lon="-0.75778">
        <ele>39</ele>
        <time>2014-05-25T12:35:45Z</time>
      </trkpt>
      <trkpt lat="44.51976" lon="-0.75799">
        <ele>38</ele>
        <time>2014-05-25T12:35:52Z</time>
      </trkpt>
      <trkpt lat="44.51973" lon="-0.75812">
        <ele>37</ele>
        <time>2014-05-25T12:35:59Z</time>
      </trkpt>
      <trkpt lat="44.51972" lon="-0.75818">
        <ele>37</ele>
        <time>2014-05-25T12:36:03Z</time>
      </trkpt>
      <trkpt lat="44.51972" lon="-0.7582">
        <ele>37</ele>
        <time>2014-05-25T12:36:09Z</time>
      </trkpt>
      <trkpt lat="44.51975" lon="-0.75827">
        <ele>37</ele>
        <time>2014-05-25T12:36:16Z</time>
      </trkpt>
      <trkpt lat="44.51975" lon="-0.75832">
        <ele>37</ele>
        <time>2014-05-25T12:36:22Z</time>
      </trkpt>
      <trkpt lat="44.51975" lon="-0.75837">
        <ele>37</ele>
        <time>2014-05-25T12:36:25Z</time>
      </trkpt>
      <trkpt lat="44.51975" lon="-0.75852">
        <ele>37</ele>
        <time>2014-05-25T12:36:30Z</time>
      </trkpt>
      <trkpt lat="44.51974" lon="-0.75864">
        <ele>36</ele>
        <time>2014-05-25T12:36:34Z</time>
      </trkpt>
      <trkpt lat="44.51974" lon="-0.75868">
        <ele>36</ele>
        <time>2014-05-25T12:36:35Z</time>
      </trkpt>
      <trkpt lat="44.51973" lon="-0.75876">
        <ele>36</ele>
        <time>2014-05-25T12:36:39Z</time>
      </trkpt>
      <trkpt lat="44.51978" lon="-0.75892">
        <ele>36</ele>
        <time>2014-05-25T12:36:45Z</time>
      </trkpt>
      <trkpt lat="44.51979" lon="-0.75901">
        <ele>36</ele>
        <time>2014-05-25T12:36:50Z</time>
      </trkpt>
      <trkpt lat="44.51979" lon="-0.75901">
        <ele>36</ele>
        <time>2014-05-25T12:36:58Z</time>
      </trkpt>
      <trkpt lat="44.51979" lon="-0.75902">
        <ele>36</ele>
        <time>2014-05-25T12:37:05Z</time>
      </trkpt>
      <trkpt lat="44.5198" lon="-0.75902">
        <ele>36</ele>
        <time>2014-05-25T12:37:11Z</time>
      </trkpt>
      <trkpt lat="44.51981" lon="-0.75904">
        <ele>36</ele>
        <time>2014-05-25T12:37:25Z</time>
      </trkpt>
      <trkpt lat="44.51981" lon="-0.75903">
        <ele>36</ele>
        <time>2014-05-25T12:37:40Z</time>
      </trkpt>
      <trkpt lat="44.51981" lon="-0.75904">
        <ele>36</ele>
        <time>2014-05-25T12:37:50Z</time>
      </trkpt>
      <trkpt lat="44.51981" lon="-0.75904">
        <ele>36</ele>
        <time>2014-05-25T12:38:00Z</time>
      </trkpt>
      <trkpt lat="44.51981" lon="-0.75904">
        <ele>36</ele>
        <time>2014-05-25T12:38:10Z</time>
      </trkpt>
      <trkpt lat="44.51981" lon="-0.75905">
        <ele>36</ele>
        <time>2014-05-25T12:38:21Z</time>
      </trkpt>
      <trkpt lat="44.51981" lon="-0.75904">
        <ele>36</ele>
        <time>2014-05-25T12:38:31Z</time>
      </trkpt>
      <trkpt lat="44.5198" lon="-0.75905">
        <ele>36</ele>
        <time>2014-05-25T12:38:46Z</time>
      </trkpt>
      <trkpt lat="44.5198" lon="-0.75905">
        <ele>36</ele>
        <time>2014-05-25T12:38:59Z</time>
      </trkpt>
      <trkpt lat="44.5198" lon="-0.75907">
        <ele>36</ele>
        <time>2014-05-25T12:39:11Z</time>
      </trkpt>
      <trkpt lat="44.51984" lon="-0.75907">
        <ele>36</ele>
        <time>2014-05-25T12:39:19Z</time>
      </trkpt>
      <trkpt lat="44.51985" lon="-0.75907">
        <ele>36</ele>
        <time>2014-05-25T12:39:27Z</time>
      </trkpt>
      <trkpt lat="44.5199" lon="-0.75908">
        <ele>37</ele>
        <time>2014-05-25T12:39:32Z</time>
      </trkpt>
      <trkpt lat="44.52001" lon="-0.75915">
        <ele>38</ele>
        <time>2014-05-25T12:39:38Z</time>
      </trkpt>
      <trkpt lat="44.52009" lon="-0.75919">
        <ele>40</ele>
        <time>2014-05-25T12:39:42Z</time>
      </trkpt>
      <trkpt lat="44.52024" lon="-0.75925">
        <ele>41</ele>
        <time>2014-05-25T12:39:51Z</time>
      </trkpt>
      <trkpt lat="44.52028" lon="-0.75926">
        <ele>42</ele>
        <time>2014-05-25T12:39:54Z</time>
      </trkpt>
      <trkpt lat="44.5203" lon="-0.75927">
        <ele>42</ele>
        <time>2014-05-25T12:39:56Z</time>
      </trkpt>
      <trkpt lat="44.52044" lon="-0.75932">
        <ele>43</ele>
        <time>2014-05-25T12:40:04Z</time>
      </trkpt>
      <trkpt lat="44.52045" lon="-0.75933">
        <ele>43</ele>
        <time>2014-05-25T12:40:05Z</time>
      </trkpt>
      <trkpt lat="44.52052" lon="-0.75935">
        <ele>44</ele>
        <time>2014-05-25T12:40:09Z</time>
      </trkpt>
      <trkpt lat="44.52057" lon="-0.75936">
        <ele>44</ele>
        <time>2014-05-25T12:40:11Z</time>
      </trkpt>
      <trkpt lat="44.5206" lon="-0.7593">
        <ele>45</ele>
        <time>2014-05-25T12:40:16Z</time>
      </trkpt>
      <trkpt lat="44.52065" lon="-0.75928">
        <ele>45</ele>
        <time>2014-05-25T12:40:20Z</time>
      </trkpt>
      <trkpt lat="44.52078" lon="-0.75933">
        <ele>46</ele>
        <time>2014-05-25T12:40:24Z</time>
      </trkpt>
      <trkpt lat="44.52104" lon="-0.75945">
        <ele>47</ele>
        <time>2014-05-25T12:40:32Z</time>
      </trkpt>
      <trkpt lat="44.52127" lon="-0.7595">
        <ele>47</ele>
        <time>2014-05-25T12:40:39Z</time>
      </trkpt>
      <trkpt lat="44.52143" lon="-0.7595">
        <ele>47</ele>
        <time>2014-05-25T12:40:46Z</time>
      </trkpt>
      <trkpt lat="44.52169" lon="-0.7595">
        <ele>47</ele>
        <time>2014-05-25T12:40:56Z</time>
      </trkpt>
      <trkpt lat="44.52189" lon="-0.75949">
        <ele>47</ele>
        <time>2014-05-25T12:41:03Z</time>
      </trkpt>
      <trkpt lat="44.52214" lon="-0.7595">
        <ele>47</ele>
        <time>2014-05-25T12:41:10Z</time>
      </trkpt>
      <trkpt lat="44.52222" lon="-0.75949">
        <ele>47</ele>
        <time>2014-05-25T12:41:12Z</time>
      </trkpt>
      <trkpt lat="44.52247" lon="-0.75949">
        <ele>47</ele>
        <time>2014-05-25T12:41:19Z</time>
      </trkpt>
      <trkpt lat="44.52279" lon="-0.75948">
        <ele>47</ele>
        <time>2014-05-25T12:41:28Z</time>
      </trkpt>
      <trkpt lat="44.52298" lon="-0.75944">
        <ele>47</ele>
        <time>2014-05-25T12:41:35Z</time>
      </trkpt>
      <trkpt lat="44.52304" lon="-0.75947">
        <ele>47</ele>
        <time>2014-05-25T12:41:37Z</time>
      </trkpt>
      <trkpt lat="44.52307" lon="-0.7595">
        <ele>47</ele>
        <time>2014-05-25T12:41:38Z</time>
      </trkpt>
      <trkpt lat="44.52317" lon="-0.75971">
        <ele>47</ele>
        <time>2014-05-25T12:41:44Z</time>
      </trkpt>
      <trkpt lat="44.52319" lon="-0.75984">
        <ele>47</ele>
        <time>2014-05-25T12:41:48Z</time>
      </trkpt>
      <trkpt lat="44.52315" lon="-0.76011">
        <ele>47</ele>
        <time>2014-05-25T12:41:54Z</time>
      </trkpt>
      <trkpt lat="44.52312" lon="-0.76056">
        <ele>47</ele>
        <time>2014-05-25T12:42:01Z</time>
      </trkpt>
      <trkpt lat="44.52309" lon="-0.76089">
        <ele>46</ele>
        <time>2014-05-25T12:42:06Z</time>
      </trkpt>
      <trkpt lat="44.5231" lon="-0.76097">
        <ele>46</ele>
        <time>2014-05-25T12:42:07Z</time>
      </trkpt>
      <trkpt lat="44.5231" lon="-0.76117">
        <ele>46</ele>
        <time>2014-05-25T12:42:10Z</time>
      </trkpt>
      <trkpt lat="44.52311" lon="-0.76124">
        <ele>46</ele>
        <time>2014-05-25T12:42:11Z</time>
      </trkpt>
      <trkpt lat="44.52312" lon="-0.7613">
        <ele>46</ele>
        <time>2014-05-25T12:42:12Z</time>
      </trkpt>
      <trkpt lat="44.52313" lon="-0.76135">
        <ele>46</ele>
        <time>2014-05-25T12:42:13Z</time>
      </trkpt>
      <trkpt lat="44.52314" lon="-0.76141">
        <ele>46</ele>
        <time>2014-05-25T12:42:14Z</time>
      </trkpt>
      <trkpt lat="44.52315" lon="-0.76148">
        <ele>46</ele>
        <time>2014-05-25T12:42:15Z</time>
      </trkpt>
      <trkpt lat="44.52317" lon="-0.76154">
        <ele>46</ele>
        <time>2014-05-25T12:42:16Z</time>
      </trkpt>
      <trkpt lat="44.52318" lon="-0.76161">
        <ele>46</ele>
        <time>2014-05-25T12:42:17Z</time>
      </trkpt>
      <trkpt lat="44.5232" lon="-0.76176">
        <ele>46</ele>
        <time>2014-05-25T12:42:19Z</time>
      </trkpt>
      <trkpt lat="44.5232" lon="-0.76183">
        <ele>46</ele>
        <time>2014-05-25T12:42:20Z</time>
      </trkpt>
      <trkpt lat="44.52321" lon="-0.76222">
        <ele>46</ele>
        <time>2014-05-25T12:42:25Z</time>
      </trkpt>
      <trkpt lat="44.52328" lon="-0.76269">
        <ele>46</ele>
        <time>2014-05-25T12:42:31Z</time>
      </trkpt>
      <trkpt lat="44.52335" lon="-0.76306">
        <ele>46</ele>
        <time>2014-05-25T12:42:36Z</time>
      </trkpt>
      <trkpt lat="44.5234" lon="-0.76336">
        <ele>45</ele>
        <time>2014-05-25T12:42:40Z</time>
      </trkpt>
      <trkpt lat="44.52342" lon="-0.76363">
        <ele>45</ele>
        <time>2014-05-25T12:42:45Z</time>
      </trkpt>
      <trkpt lat="44.52343" lon="-0.76373">
        <ele>45</ele>
        <time>2014-05-25T12:42:47Z</time>
      </trkpt>
      <trkpt lat="44.52343" lon="-0.76379">
        <ele>45</ele>
        <time>2014-05-25T12:42:48Z</time>
      </trkpt>
      <trkpt lat="44.52342" lon="-0.76387">
        <ele>45</ele>
        <time>2014-05-25T12:42:49Z</time>
      </trkpt>
      <trkpt lat="44.52341" lon="-0.76394">
        <ele>45</ele>
        <time>2014-05-25T12:42:50Z</time>
      </trkpt>
      <trkpt lat="44.5234" lon="-0.76401">
        <ele>45</ele>
        <time>2014-05-25T12:42:51Z</time>
      </trkpt>
      <trkpt lat="44.52341" lon="-0.76408">
        <ele>45</ele>
        <time>2014-05-25T12:42:52Z</time>
      </trkpt>
      <trkpt lat="44.52342" lon="-0.76414">
        <ele>45</ele>
        <time>2014-05-25T12:42:53Z</time>
      </trkpt>
      <trkpt lat="44.52351" lon="-0.76438">
        <ele>46</ele>
        <time>2014-05-25T12:42:58Z</time>
      </trkpt>
      <trkpt lat="44.52355" lon="-0.76449">
        <ele>46</ele>
        <time>2014-05-25T12:43:02Z</time>
      </trkpt>
      <trkpt lat="44.5235" lon="-0.76452">
        <ele>46</ele>
        <time>2014-05-25T12:43:05Z</time>
      </trkpt>
      <trkpt lat="44.52349" lon="-0.76454">
        <ele>46</ele>
        <time>2014-05-25T12:43:06Z</time>
      </trkpt>
      <trkpt lat="44.52348" lon="-0.76457">
        <ele>46</ele>
        <time>2014-05-25T12:43:07Z</time>
      </trkpt>
      <trkpt lat="44.52342" lon="-0.76477">
        <ele>46</ele>
        <time>2014-05-25T12:43:14Z</time>
      </trkpt>
      <trkpt lat="44.52333" lon="-0.76494">
        <ele>46</ele>
        <time>2014-05-25T12:43:20Z</time>
      </trkpt>
      <trkpt lat="44.5232" lon="-0.76514">
        <ele>46</ele>
        <time>2014-05-25T12:43:26Z</time>
      </trkpt>
      <trkpt lat="44.52309" lon="-0.76528">
        <ele>45</ele>
        <time>2014-05-25T12:43:29Z</time>
      </trkpt>
      <trkpt lat="44.52306" lon="-0.76533">
        <ele>45</ele>
        <time>2014-05-25T12:43:30Z</time>
      </trkpt>
      <trkpt lat="44.52301" lon="-0.76543">
        <ele>45</ele>
        <time>2014-05-25T12:43:32Z</time>
      </trkpt>
      <trkpt lat="44.52298" lon="-0.76547">
        <ele>44</ele>
        <time>2014-05-25T12:43:33Z</time>
      </trkpt>
      <trkpt lat="44.52294" lon="-0.76551">
        <ele>44</ele>
        <time>2014-05-25T12:43:34Z</time>
      </trkpt>
      <trkpt lat="44.52291" lon="-0.76556">
        <ele>44</ele>
        <time>2014-05-25T12:43:35Z</time>
      </trkpt>
      <trkpt lat="44.52287" lon="-0.76561">
        <ele>44</ele>
        <time>2014-05-25T12:43:36Z</time>
      </trkpt>
      <trkpt lat="44.52284" lon="-0.76565">
        <ele>44</ele>
        <time>2014-05-25T12:43:37Z</time>
      </trkpt>
      <trkpt lat="44.52281" lon="-0.7657">
        <ele>44</ele>
        <time>2014-05-25T12:43:38Z</time>
      </trkpt>
      <trkpt lat="44.52278" lon="-0.76575">
        <ele>44</ele>
        <time>2014-05-25T12:43:39Z</time>
      </trkpt>
      <trkpt lat="44.52275" lon="-0.76579">
        <ele>44</ele>
        <time>2014-05-25T12:43:40Z</time>
      </trkpt>
      <trkpt lat="44.52272" lon="-0.76585">
        <ele>43</ele>
        <time>2014-05-25T12:43:41Z</time>
      </trkpt>
      <trkpt lat="44.5227" lon="-0.7659">
        <ele>43</ele>
        <time>2014-05-25T12:43:42Z</time>
      </trkpt>
      <trkpt lat="44.52267" lon="-0.76596">
        <ele>43</ele>
        <time>2014-05-25T12:43:43Z</time>
      </trkpt>
      <trkpt lat="44.52264" lon="-0.76601">
        <ele>43</ele>
        <time>2014-05-25T12:43:44Z</time>
      </trkpt>
      <trkpt lat="44.52252" lon="-0.76621">
        <ele>42</ele>
        <time>2014-05-25T12:43:48Z</time>
      </trkpt>
      <trkpt lat="44.52249" lon="-0.76626">
        <ele>42</ele>
        <time>2014-05-25T12:43:49Z</time>
      </trkpt>
      <trkpt lat="44.52246" lon="-0.76631">
        <ele>41</ele>
        <time>2014-05-25T12:43:50Z</time>
      </trkpt>
      <trkpt lat="44.52239" lon="-0.76639">
        <ele>41</ele>
        <time>2014-05-25T12:43:52Z</time>
      </trkpt>
      <trkpt lat="44.52236" lon="-0.76643">
        <ele>41</ele>
        <time>2014-05-25T12:43:53Z</time>
      </trkpt>
      <trkpt lat="44.52233" lon="-0.76648">
        <ele>41</ele>
        <time>2014-05-25T12:43:54Z</time>
      </trkpt>
      <trkpt lat="44.5223" lon="-0.76653">
        <ele>41</ele>
        <time>2014-05-25T12:43:55Z</time>
      </trkpt>
      <trkpt lat="44.52227" lon="-0.76658">
        <ele>40</ele>
        <time>2014-05-25T12:43:56Z</time>
      </trkpt>
      <trkpt lat="44.52224" lon="-0.76663">
        <ele>40</ele>
        <time>2014-05-25T12:43:57Z</time>
      </trkpt>
      <trkpt lat="44.52221" lon="-0.76667">
        <ele>40</ele>
        <time>2014-05-25T12:43:58Z</time>
      </trkpt>
      <trkpt lat="44.52219" lon="-0.76672">
        <ele>40</ele>
        <time>2014-05-25T12:43:59Z</time>
      </trkpt>
      <trkpt lat="44.52217" lon="-0.76677">
        <ele>40</ele>
        <time>2014-05-25T12:44:00Z</time>
      </trkpt>
      <trkpt lat="44.52216" lon="-0.76683">
        <ele>40</ele>
        <time>2014-05-25T12:44:01Z</time>
      </trkpt>
      <trkpt lat="44.52215" lon="-0.76688">
        <ele>40</ele>
        <time>2014-05-25T12:44:02Z</time>
      </trkpt>
      <trkpt lat="44.52215" lon="-0.76722">
        <ele>39</ele>
        <time>2014-05-25T12:44:08Z</time>
      </trkpt>
      <trkpt lat="44.52219" lon="-0.76743">
        <ele>38</ele>
        <time>2014-05-25T12:44:13Z</time>
      </trkpt>
      <trkpt lat="44.52218" lon="-0.76748">
        <ele>38</ele>
        <time>2014-05-25T12:44:14Z</time>
      </trkpt>
      <trkpt lat="44.52217" lon="-0.76752">
        <ele>37</ele>
        <time>2014-05-25T12:44:15Z</time>
      </trkpt>
      <trkpt lat="44.52215" lon="-0.76757">
        <ele>37</ele>
        <time>2014-05-25T12:44:16Z</time>
      </trkpt>
      <trkpt lat="44.52212" lon="-0.7676">
        <ele>37</ele>
        <time>2014-05-25T12:44:17Z</time>
      </trkpt>
      <trkpt lat="44.52209" lon="-0.76761">
        <ele>36</ele>
        <time>2014-05-25T12:44:18Z</time>
      </trkpt>
      <trkpt lat="44.52205" lon="-0.76761">
        <ele>36</ele>
        <time>2014-05-25T12:44:19Z</time>
      </trkpt>
      <trkpt lat="44.52201" lon="-0.76759">
        <ele>36</ele>
        <time>2014-05-25T12:44:20Z</time>
      </trkpt>
      <trkpt lat="44.52196" lon="-0.76758">
        <ele>36</ele>
        <time>2014-05-25T12:44:21Z</time>
      </trkpt>
      <trkpt lat="44.52191" lon="-0.76757">
        <ele>36</ele>
        <time>2014-05-25T12:44:22Z</time>
      </trkpt>
      <trkpt lat="44.52187" lon="-0.76757">
        <ele>36</ele>
        <time>2014-05-25T12:44:23Z</time>
      </trkpt>
      <trkpt lat="44.52154" lon="-0.76759">
        <ele>36</ele>
        <time>2014-05-25T12:44:30Z</time>
      </trkpt>
      <trkpt lat="44.52145" lon="-0.76758">
        <ele>36</ele>
        <time>2014-05-25T12:44:32Z</time>
      </trkpt>
      <trkpt lat="44.52141" lon="-0.76757">
        <ele>36</ele>
        <time>2014-05-25T12:44:33Z</time>
      </trkpt>
      <trkpt lat="44.52103" lon="-0.76754">
        <ele>36</ele>
        <time>2014-05-25T12:44:40Z</time>
      </trkpt>
      <trkpt lat="44.52098" lon="-0.76755">
        <ele>36</ele>
        <time>2014-05-25T12:44:41Z</time>
      </trkpt>
      <trkpt lat="44.52093" lon="-0.76758">
        <ele>36</ele>
        <time>2014-05-25T12:44:42Z</time>
      </trkpt>
      <trkpt lat="44.52089" lon="-0.76761">
        <ele>36</ele>
        <time>2014-05-25T12:44:43Z</time>
      </trkpt>
      <trkpt lat="44.52086" lon="-0.76765">
        <ele>35</ele>
        <time>2014-05-25T12:44:44Z</time>
      </trkpt>
      <trkpt lat="44.52082" lon="-0.76768">
        <ele>35</ele>
        <time>2014-05-25T12:44:45Z</time>
      </trkpt>
      <trkpt lat="44.52079" lon="-0.76772">
        <ele>35</ele>
        <time>2014-05-25T12:44:46Z</time>
      </trkpt>
      <trkpt lat="44.52077" lon="-0.76777">
        <ele>35</ele>
        <time>2014-05-25T12:44:47Z</time>
      </trkpt>
      <trkpt lat="44.52076" lon="-0.76782">
        <ele>35</ele>
        <time>2014-05-25T12:44:48Z</time>
      </trkpt>
      <trkpt lat="44.52077" lon="-0.76785">
        <ele>35</ele>
        <time>2014-05-25T12:44:49Z</time>
      </trkpt>
      <trkpt lat="44.52079" lon="-0.76787">
        <ele>35</ele>
        <time>2014-05-25T12:44:50Z</time>
      </trkpt>
      <trkpt lat="44.52082" lon="-0.76789">
        <ele>35</ele>
        <time>2014-05-25T12:44:51Z</time>
      </trkpt>
      <trkpt lat="44.52085" lon="-0.7679">
        <ele>35</ele>
        <time>2014-05-25T12:44:52Z</time>
      </trkpt>
      <trkpt lat="44.521" lon="-0.76792">
        <ele>36</ele>
        <time>2014-05-25T12:44:58Z</time>
      </trkpt>
      <trkpt lat="44.52118" lon="-0.76811">
        <ele>37</ele>
        <time>2014-05-25T12:45:05Z</time>
      </trkpt>
      <trkpt lat="44.52124" lon="-0.7683">
        <ele>37</ele>
        <time>2014-05-25T12:45:10Z</time>
      </trkpt>
      <trkpt lat="44.52138" lon="-0.76856">
        <ele>38</ele>
        <time>2014-05-25T12:45:18Z</time>
      </trkpt>
      <trkpt lat="44.52153" lon="-0.76878">
        <ele>39</ele>
        <time>2014-05-25T12:45:26Z</time>
      </trkpt>
      <trkpt lat="44.52161" lon="-0.76901">
        <ele>41</ele>
        <time>2014-05-25T12:45:33Z</time>
      </trkpt>
      <trkpt lat="44.52158" lon="-0.76924">
        <ele>42</ele>
        <time>2014-05-25T12:45:40Z</time>
      </trkpt>
      <trkpt lat="44.52148" lon="-0.76944">
        <ele>43</ele>
        <time>2014-05-25T12:45:47Z</time>
      </trkpt>
      <trkpt lat="44.52136" lon="-0.76972">
        <ele>44</ele>
        <time>2014-05-25T12:45:55Z</time>
      </trkpt>
      <trkpt lat="44.52133" lon="-0.7699">
        <ele>44</ele>
        <time>2014-05-25T12:46:00Z</time>
      </trkpt>
      <trkpt lat="44.52135" lon="-0.77013">
        <ele>45</ele>
        <time>2014-05-25T12:46:06Z</time>
      </trkpt>
      <trkpt lat="44.52141" lon="-0.77038">
        <ele>45</ele>
        <time>2014-05-25T12:46:13Z</time>
      </trkpt>
      <trkpt lat="44.52148" lon="-0.77066">
        <ele>45</ele>
        <time>2014-05-25T12:46:20Z</time>
      </trkpt>
      <trkpt lat="44.52156" lon="-0.77093">
        <ele>45</ele>
        <time>2014-05-25T12:46:27Z</time>
      </trkpt>
      <trkpt lat="44.52162" lon="-0.77119">
        <ele>46</ele>
        <time>2014-05-25T12:46:33Z</time>
      </trkpt>
      <trkpt lat="44.52169" lon="-0.77151">
        <ele>46</ele>
        <time>2014-05-25T12:46:40Z</time>
      </trkpt>
      <trkpt lat="44.52183" lon="-0.77188">
        <ele>46</ele>
        <time>2014-05-25T12:46:48Z</time>
      </trkpt>
      <trkpt lat="44.52191" lon="-0.77221">
        <ele>47</ele>
        <time>2014-05-25T12:46:55Z</time>
      </trkpt>
      <trkpt lat="44.52197" lon="-0.77254">
        <ele>47</ele>
        <time>2014-05-25T12:47:02Z</time>
      </trkpt>
      <trkpt lat="44.52206" lon="-0.77293">
        <ele>47</ele>
        <time>2014-05-25T12:47:10Z</time>
      </trkpt>
      <trkpt lat="44.52211" lon="-0.77336">
        <ele>47</ele>
        <time>2014-05-25T12:47:18Z</time>
      </trkpt>
      <trkpt lat="44.52219" lon="-0.77374">
        <ele>47</ele>
        <time>2014-05-25T12:47:25Z</time>
      </trkpt>
      <trkpt lat="44.52221" lon="-0.77386">
        <ele>47</ele>
        <time>2014-05-25T12:47:27Z</time>
      </trkpt>
      <trkpt lat="44.52224" lon="-0.7742">
        <ele>47</ele>
        <time>2014-05-25T12:47:33Z</time>
      </trkpt>
      <trkpt lat="44.52227" lon="-0.77455">
        <ele>47</ele>
        <time>2014-05-25T12:47:39Z</time>
      </trkpt>
      <trkpt lat="44.52233" lon="-0.77484">
        <ele>47</ele>
        <time>2014-05-25T12:47:45Z</time>
      </trkpt>
      <trkpt lat="44.52244" lon="-0.77512">
        <ele>48</ele>
        <time>2014-05-25T12:47:51Z</time>
      </trkpt>
      <trkpt lat="44.52272" lon="-0.77543">
        <ele>48</ele>
        <time>2014-05-25T12:47:58Z</time>
      </trkpt>
      <trkpt lat="44.52292" lon="-0.77563">
        <ele>48</ele>
        <time>2014-05-25T12:48:04Z</time>
      </trkpt>
      <trkpt lat="44.52301" lon="-0.77585">
        <ele>49</ele>
        <time>2014-05-25T12:48:09Z</time>
      </trkpt>
      <trkpt lat="44.52305" lon="-0.77599">
        <ele>49</ele>
        <time>2014-05-25T12:48:13Z</time>
      </trkpt>
      <trkpt lat="44.52304" lon="-0.77603">
        <ele>49</ele>
        <time>2014-05-25T12:48:14Z</time>
      </trkpt>
      <trkpt lat="44.52304" lon="-0.77605">
        <ele>49</ele>
        <time>2014-05-25T12:48:15Z</time>
      </trkpt>
      <trkpt lat="44.52304" lon="-0.77609">
        <ele>49</ele>
        <time>2014-05-25T12:48:16Z</time>
      </trkpt>
      <trkpt lat="44.52303" lon="-0.77612">
        <ele>49</ele>
        <time>2014-05-25T12:48:17Z</time>
      </trkpt>
      <trkpt lat="44.52302" lon="-0.77617">
        <ele>49</ele>
        <time>2014-05-25T12:48:19Z</time>
      </trkpt>
      <trkpt lat="44.52302" lon="-0.7762">
        <ele>49</ele>
        <time>2014-05-25T12:48:20Z</time>
      </trkpt>
      <trkpt lat="44.52302" lon="-0.77623">
        <ele>49</ele>
        <time>2014-05-25T12:48:21Z</time>
      </trkpt>
      <trkpt lat="44.52301" lon="-0.77625">
        <ele>49</ele>
        <time>2014-05-25T12:48:22Z</time>
      </trkpt>
      <trkpt lat="44.52301" lon="-0.77627">
        <ele>49</ele>
        <time>2014-05-25T12:48:23Z</time>
      </trkpt>
      <trkpt lat="44.523" lon="-0.7763">
        <ele>49</ele>
        <time>2014-05-25T12:48:24Z</time>
      </trkpt>
      <trkpt lat="44.523" lon="-0.77633">
        <ele>49</ele>
        <time>2014-05-25T12:48:25Z</time>
      </trkpt>
      <trkpt lat="44.52298" lon="-0.77657">
        <ele>49</ele>
        <time>2014-05-25T12:48:33Z</time>
      </trkpt>
      <trkpt lat="44.52299" lon="-0.77681">
        <ele>49</ele>
        <time>2014-05-25T12:48:40Z</time>
      </trkpt>
      <trkpt lat="44.52299" lon="-0.77703">
        <ele>49</ele>
        <time>2014-05-25T12:48:47Z</time>
      </trkpt>
      <trkpt lat="44.52301" lon="-0.77721">
        <ele>50</ele>
        <time>2014-05-25T12:48:52Z</time>
      </trkpt>
      <trkpt lat="44.52303" lon="-0.77732">
        <ele>50</ele>
        <time>2014-05-25T12:48:56Z</time>
      </trkpt>
      <trkpt lat="44.52309" lon="-0.77756">
        <ele>50</ele>
        <time>2014-05-25T12:49:03Z</time>
      </trkpt>
      <trkpt lat="44.52318" lon="-0.77789">
        <ele>50</ele>
        <time>2014-05-25T12:49:11Z</time>
      </trkpt>
      <trkpt lat="44.52323" lon="-0.77819">
        <ele>50</ele>
        <time>2014-05-25T12:49:18Z</time>
      </trkpt>
      <trkpt lat="44.52329" lon="-0.77859">
        <ele>51</ele>
        <time>2014-05-25T12:49:26Z</time>
      </trkpt>
      <trkpt lat="44.52336" lon="-0.77898">
        <ele>51</ele>
        <time>2014-05-25T12:49:34Z</time>
      </trkpt>
      <trkpt lat="44.52339" lon="-0.77913">
        <ele>51</ele>
        <time>2014-05-25T12:49:37Z</time>
      </trkpt>
      <trkpt lat="44.52342" lon="-0.77942">
        <ele>51</ele>
        <time>2014-05-25T12:49:44Z</time>
      </trkpt>
      <trkpt lat="44.52345" lon="-0.77967">
        <ele>51</ele>
        <time>2014-05-25T12:49:52Z</time>
      </trkpt>
      <trkpt lat="44.52348" lon="-0.77979">
        <ele>51</ele>
        <time>2014-05-25T12:49:59Z</time>
      </trkpt>
      <trkpt lat="44.52348" lon="-0.77987">
        <ele>51</ele>
        <time>2014-05-25T12:50:02Z</time>
      </trkpt>
      <trkpt lat="44.52352" lon="-0.77998">
        <ele>51</ele>
        <time>2014-05-25T12:50:06Z</time>
      </trkpt>
      <trkpt lat="44.52363" lon="-0.78025">
        <ele>51</ele>
        <time>2014-05-25T12:50:15Z</time>
      </trkpt>
      <trkpt lat="44.52371" lon="-0.78043">
        <ele>51</ele>
        <time>2014-05-25T12:50:21Z</time>
      </trkpt>
      <trkpt lat="44.52382" lon="-0.78072">
        <ele>51</ele>
        <time>2014-05-25T12:50:29Z</time>
      </trkpt>
      <trkpt lat="44.5239" lon="-0.78097">
        <ele>52</ele>
        <time>2014-05-25T12:50:36Z</time>
      </trkpt>
      <trkpt lat="44.52395" lon="-0.78118">
        <ele>52</ele>
        <time>2014-05-25T12:50:43Z</time>
      </trkpt>
      <trkpt lat="44.524" lon="-0.78132">
        <ele>52</ele>
        <time>2014-05-25T12:50:48Z</time>
      </trkpt>
      <trkpt lat="44.52401" lon="-0.78151">
        <ele>52</ele>
        <time>2014-05-25T12:50:55Z</time>
      </trkpt>
      <trkpt lat="44.524" lon="-0.7816">
        <ele>52</ele>
        <time>2014-05-25T12:50:58Z</time>
      </trkpt>
      <trkpt lat="44.52403" lon="-0.78185">
        <ele>52</ele>
        <time>2014-05-25T12:51:06Z</time>
      </trkpt>
      <trkpt lat="44.52411" lon="-0.78213">
        <ele>52</ele>
        <time>2014-05-25T12:51:13Z</time>
      </trkpt>
      <trkpt lat="44.52414" lon="-0.78235">
        <ele>52</ele>
        <time>2014-05-25T12:51:19Z</time>
      </trkpt>
      <trkpt lat="44.52417" lon="-0.78259">
        <ele>52</ele>
        <time>2014-05-25T12:51:26Z</time>
      </trkpt>
      <trkpt lat="44.52428" lon="-0.78301">
        <ele>52</ele>
        <time>2014-05-25T12:51:32Z</time>
      </trkpt>
      <trkpt lat="44.52434" lon="-0.78332">
        <ele>52</ele>
        <time>2014-05-25T12:51:38Z</time>
      </trkpt>
      <trkpt lat="44.52438" lon="-0.78355">
        <ele>52</ele>
        <time>2014-05-25T12:51:42Z</time>
      </trkpt>
      <trkpt lat="44.52439" lon="-0.78359">
        <ele>52</ele>
        <time>2014-05-25T12:51:43Z</time>
      </trkpt>
      <trkpt lat="44.52439" lon="-0.78371">
        <ele>52</ele>
        <time>2014-05-25T12:51:48Z</time>
      </trkpt>
      <trkpt lat="44.5248" lon="-0.7843">
        <ele>52</ele>
        <time>2014-05-25T12:51:54Z</time>
      </trkpt>
      <trkpt lat="44.52483" lon="-0.78444">
        <ele>52</ele>
        <time>2014-05-25T12:51:57Z</time>
      </trkpt>
      <trkpt lat="44.52482" lon="-0.78449">
        <ele>52</ele>
        <time>2014-05-25T12:51:58Z</time>
      </trkpt>
      <trkpt lat="44.52482" lon="-0.78452">
        <ele>52</ele>
        <time>2014-05-25T12:51:59Z</time>
      </trkpt>
      <trkpt lat="44.52481" lon="-0.78454">
        <ele>52</ele>
        <time>2014-05-25T12:52:00Z</time>
      </trkpt>
      <trkpt lat="44.52482" lon="-0.78457">
        <ele>52</ele>
        <time>2014-05-25T12:52:01Z</time>
      </trkpt>
      <trkpt lat="44.52483" lon="-0.78459">
        <ele>52</ele>
        <time>2014-05-25T12:52:02Z</time>
      </trkpt>
      <trkpt lat="44.52485" lon="-0.7846">
        <ele>52</ele>
        <time>2014-05-25T12:52:03Z</time>
      </trkpt>
      <trkpt lat="44.52486" lon="-0.78462">
        <ele>52</ele>
        <time>2014-05-25T12:52:04Z</time>
      </trkpt>
      <trkpt lat="44.52487" lon="-0.78465">
        <ele>52</ele>
        <time>2014-05-25T12:52:05Z</time>
      </trkpt>
      <trkpt lat="44.52488" lon="-0.78468">
        <ele>52</ele>
        <time>2014-05-25T12:52:06Z</time>
      </trkpt>
      <trkpt lat="44.5249" lon="-0.78471">
        <ele>52</ele>
        <time>2014-05-25T12:52:07Z</time>
      </trkpt>
      <trkpt lat="44.52492" lon="-0.78474">
        <ele>52</ele>
        <time>2014-05-25T12:52:08Z</time>
      </trkpt>
      <trkpt lat="44.52493" lon="-0.78477">
        <ele>52</ele>
        <time>2014-05-25T12:52:09Z</time>
      </trkpt>
      <trkpt lat="44.52495" lon="-0.78479">
        <ele>52</ele>
        <time>2014-05-25T12:52:10Z</time>
      </trkpt>
      <trkpt lat="44.52497" lon="-0.78482">
        <ele>52</ele>
        <time>2014-05-25T12:52:11Z</time>
      </trkpt>
      <trkpt lat="44.52498" lon="-0.78484">
        <ele>52</ele>
        <time>2014-05-25T12:52:12Z</time>
      </trkpt>
      <trkpt lat="44.52499" lon="-0.78486">
        <ele>52</ele>
        <time>2014-05-25T12:52:13Z</time>
      </trkpt>
      <trkpt lat="44.52513" lon="-0.78516">
        <ele>52</ele>
        <time>2014-05-25T12:52:21Z</time>
      </trkpt>
      <trkpt lat="44.52519" lon="-0.78542">
        <ele>52</ele>
        <time>2014-05-25T12:52:27Z</time>
      </trkpt>
      <trkpt lat="44.5253" lon="-0.78579">
        <ele>52</ele>
        <time>2014-05-25T12:52:35Z</time>
      </trkpt>
      <trkpt lat="44.52536" lon="-0.78606">
        <ele>52</ele>
        <time>2014-05-25T12:52:41Z</time>
      </trkpt>
      <trkpt lat="44.52545" lon="-0.78632">
        <ele>52</ele>
        <time>2014-05-25T12:52:47Z</time>
      </trkpt>
      <trkpt lat="44.52556" lon="-0.78669">
        <ele>52</ele>
        <time>2014-05-25T12:52:54Z</time>
      </trkpt>
      <trkpt lat="44.52565" lon="-0.78697">
        <ele>52</ele>
        <time>2014-05-25T12:53:00Z</time>
      </trkpt>
      <trkpt lat="44.52567" lon="-0.78703">
        <ele>52</ele>
        <time>2014-05-25T12:53:01Z</time>
      </trkpt>
      <trkpt lat="44.5258" lon="-0.78738">
        <ele>52</ele>
        <time>2014-05-25T12:53:08Z</time>
      </trkpt>
      <trkpt lat="44.52581" lon="-0.78744">
        <ele>52</ele>
        <time>2014-05-25T12:53:09Z</time>
      </trkpt>
      <trkpt lat="44.52583" lon="-0.78749">
        <ele>52</ele>
        <time>2014-05-25T12:53:10Z</time>
      </trkpt>
      <trkpt lat="44.52584" lon="-0.78755">
        <ele>52</ele>
        <time>2014-05-25T12:53:11Z</time>
      </trkpt>
      <trkpt lat="44.52586" lon="-0.78761">
        <ele>52</ele>
        <time>2014-05-25T12:53:12Z</time>
      </trkpt>
      <trkpt lat="44.52587" lon="-0.78767">
        <ele>52</ele>
        <time>2014-05-25T12:53:13Z</time>
      </trkpt>
      <trkpt lat="44.52587" lon="-0.78774">
        <ele>52</ele>
        <time>2014-05-25T12:53:14Z</time>
      </trkpt>
      <trkpt lat="44.52588" lon="-0.7878">
        <ele>52</ele>
        <time>2014-05-25T12:53:15Z</time>
      </trkpt>
      <trkpt lat="44.52589" lon="-0.78786">
        <ele>52</ele>
        <time>2014-05-25T12:53:16Z</time>
      </trkpt>
      <trkpt lat="44.52589" lon="-0.78792">
        <ele>52</ele>
        <time>2014-05-25T12:53:17Z</time>
      </trkpt>
      <trkpt lat="44.52593" lon="-0.78826">
        <ele>51</ele>
        <time>2014-05-25T12:53:23Z</time>
      </trkpt>
      <trkpt lat="44.52595" lon="-0.78837">
        <ele>51</ele>
        <time>2014-05-25T12:53:25Z</time>
      </trkpt>
      <trkpt lat="44.52595" lon="-0.78843">
        <ele>51</ele>
        <time>2014-05-25T12:53:26Z</time>
      </trkpt>
      <trkpt lat="44.52598" lon="-0.78867">
        <ele>51</ele>
        <time>2014-05-25T12:53:30Z</time>
      </trkpt>
      <trkpt lat="44.52599" lon="-0.78873">
        <ele>51</ele>
        <time>2014-05-25T12:53:31Z</time>
      </trkpt>
      <trkpt lat="44.526" lon="-0.78879">
        <ele>51</ele>
        <time>2014-05-25T12:53:32Z</time>
      </trkpt>
      <trkpt lat="44.52601" lon="-0.78885">
        <ele>51</ele>
        <time>2014-05-25T12:53:33Z</time>
      </trkpt>
      <trkpt lat="44.52602" lon="-0.78891">
        <ele>51</ele>
        <time>2014-05-25T12:53:34Z</time>
      </trkpt>
      <trkpt lat="44.52606" lon="-0.78916">
        <ele>51</ele>
        <time>2014-05-25T12:53:38Z</time>
      </trkpt>
      <trkpt lat="44.52608" lon="-0.78922">
        <ele>51</ele>
        <time>2014-05-25T12:53:39Z</time>
      </trkpt>
      <trkpt lat="44.52618" lon="-0.78958">
        <ele>51</ele>
        <time>2014-05-25T12:53:45Z</time>
      </trkpt>
      <trkpt lat="44.52623" lon="-0.78994">
        <ele>51</ele>
        <time>2014-05-25T12:53:51Z</time>
      </trkpt>
      <trkpt lat="44.52628" lon="-0.79035">
        <ele>51</ele>
        <time>2014-05-25T12:53:58Z</time>
      </trkpt>
      <trkpt lat="44.52629" lon="-0.79076">
        <ele>51</ele>
        <time>2014-05-25T12:54:05Z</time>
      </trkpt>
      <trkpt lat="44.52629" lon="-0.79082">
        <ele>51</ele>
        <time>2014-05-25T12:54:06Z</time>
      </trkpt>
      <trkpt lat="44.5263" lon="-0.79088">
        <ele>51</ele>
        <time>2014-05-25T12:54:07Z</time>
      </trkpt>
      <trkpt lat="44.52631" lon="-0.79101">
        <ele>51</ele>
        <time>2014-05-25T12:54:09Z</time>
      </trkpt>
      <trkpt lat="44.52633" lon="-0.79107">
        <ele>51</ele>
        <time>2014-05-25T12:54:10Z</time>
      </trkpt>
      <trkpt lat="44.52638" lon="-0.79127">
        <ele>51</ele>
        <time>2014-05-25T12:54:13Z</time>
      </trkpt>
      <trkpt lat="44.52639" lon="-0.79133">
        <ele>51</ele>
        <time>2014-05-25T12:54:14Z</time>
      </trkpt>
      <trkpt lat="44.52644" lon="-0.79169">
        <ele>51</ele>
        <time>2014-05-25T12:54:20Z</time>
      </trkpt>
      <trkpt lat="44.52648" lon="-0.79206">
        <ele>51</ele>
        <time>2014-05-25T12:54:26Z</time>
      </trkpt>
      <trkpt lat="44.52648" lon="-0.79213">
        <ele>51</ele>
        <time>2014-05-25T12:54:27Z</time>
      </trkpt>
      <trkpt lat="44.52656" lon="-0.79248">
        <ele>51</ele>
        <time>2014-05-25T12:54:32Z</time>
      </trkpt>
      <trkpt lat="44.52658" lon="-0.79254">
        <ele>51</ele>
        <time>2014-05-25T12:54:33Z</time>
      </trkpt>
      <trkpt lat="44.5266" lon="-0.79267">
        <ele>51</ele>
        <time>2014-05-25T12:54:35Z</time>
      </trkpt>
      <trkpt lat="44.52662" lon="-0.79286">
        <ele>51</ele>
        <time>2014-05-25T12:54:38Z</time>
      </trkpt>
      <trkpt lat="44.52664" lon="-0.79291">
        <ele>51</ele>
        <time>2014-05-25T12:54:39Z</time>
      </trkpt>
      <trkpt lat="44.52666" lon="-0.79295">
        <ele>51</ele>
        <time>2014-05-25T12:54:40Z</time>
      </trkpt>
      <trkpt lat="44.5267" lon="-0.79308">
        <ele>51</ele>
        <time>2014-05-25T12:54:44Z</time>
      </trkpt>
      <trkpt lat="44.52678" lon="-0.79354">
        <ele>51</ele>
        <time>2014-05-25T12:54:51Z</time>
      </trkpt>
      <trkpt lat="44.52611" lon="-0.7937">
        <ele>51</ele>
        <time>2014-05-25T12:58:32Z</time>
      </trkpt>
      <trkpt lat="44.52611" lon="-0.79389">
        <ele>51</ele>
        <time>2014-05-25T12:58:38Z</time>
      </trkpt>
      <trkpt lat="44.52612" lon="-0.79393">
        <ele>51</ele>
        <time>2014-05-25T12:58:39Z</time>
      </trkpt>
      <trkpt lat="44.52614" lon="-0.79416">
        <ele>51</ele>
        <time>2014-05-25T12:58:47Z</time>
      </trkpt>
      <trkpt lat="44.5261" lon="-0.79436">
        <ele>51</ele>
        <time>2014-05-25T12:58:54Z</time>
      </trkpt>
      <trkpt lat="44.52608" lon="-0.79449">
        <ele>51</ele>
        <time>2014-05-25T12:58:58Z</time>
      </trkpt>
      <trkpt lat="44.52612" lon="-0.79471">
        <ele>51</ele>
        <time>2014-05-25T12:59:05Z</time>
      </trkpt>
      <trkpt lat="44.52623" lon="-0.79501">
        <ele>51</ele>
        <time>2014-05-25T12:59:11Z</time>
      </trkpt>
      <trkpt lat="44.52625" lon="-0.79505">
        <ele>51</ele>
        <time>2014-05-25T12:59:12Z</time>
      </trkpt>
      <trkpt lat="44.52629" lon="-0.79528">
        <ele>51</ele>
        <time>2014-05-25T12:59:18Z</time>
      </trkpt>
      <trkpt lat="44.52636" lon="-0.79551">
        <ele>51</ele>
        <time>2014-05-25T12:59:25Z</time>
      </trkpt>
      <trkpt lat="44.52647" lon="-0.79573">
        <ele>51</ele>
        <time>2014-05-25T12:59:30Z</time>
      </trkpt>
      <trkpt lat="44.52654" lon="-0.79611">
        <ele>51</ele>
        <time>2014-05-25T12:59:37Z</time>
      </trkpt>
      <trkpt lat="44.52665" lon="-0.79641">
        <ele>51</ele>
        <time>2014-05-25T12:59:42Z</time>
      </trkpt>
      <trkpt lat="44.52669" lon="-0.79661">
        <ele>51</ele>
        <time>2014-05-25T12:59:49Z</time>
      </trkpt>
      <trkpt lat="44.52681" lon="-0.79672">
        <ele>51</ele>
        <time>2014-05-25T12:59:55Z</time>
      </trkpt>
      <trkpt lat="44.52689" lon="-0.79666">
        <ele>51</ele>
        <time>2014-05-25T12:59:58Z</time>
      </trkpt>
      <trkpt lat="44.52708" lon="-0.79658">
        <ele>51</ele>
        <time>2014-05-25T13:00:05Z</time>
      </trkpt>
      <trkpt lat="44.52714" lon="-0.79655">
        <ele>51</ele>
        <time>2014-05-25T13:00:07Z</time>
      </trkpt>
      <trkpt lat="44.52732" lon="-0.79646">
        <ele>51</ele>
        <time>2014-05-25T13:00:15Z</time>
      </trkpt>
      <trkpt lat="44.52735" lon="-0.79644">
        <ele>51</ele>
        <time>2014-05-25T13:00:16Z</time>
      </trkpt>
      <trkpt lat="44.52755" lon="-0.79631">
        <ele>51</ele>
        <time>2014-05-25T13:00:23Z</time>
      </trkpt>
      <trkpt lat="44.52772" lon="-0.79631">
        <ele>51</ele>
        <time>2014-05-25T13:00:28Z</time>
      </trkpt>
      <trkpt lat="44.52783" lon="-0.79651">
        <ele>51</ele>
        <time>2014-05-25T13:00:34Z</time>
      </trkpt>
      <trkpt lat="44.52789" lon="-0.79664">
        <ele>51</ele>
        <time>2014-05-25T13:00:38Z</time>
      </trkpt>
      <trkpt lat="44.52792" lon="-0.79679">
        <ele>51</ele>
        <time>2014-05-25T13:00:43Z</time>
      </trkpt>
      <trkpt lat="44.52799" lon="-0.79696">
        <ele>51</ele>
        <time>2014-05-25T13:00:49Z</time>
      </trkpt>
      <trkpt lat="44.52805" lon="-0.79724">
        <ele>51</ele>
        <time>2014-05-25T13:00:56Z</time>
      </trkpt>
      <trkpt lat="44.52811" lon="-0.7975">
        <ele>51</ele>
        <time>2014-05-25T13:01:03Z</time>
      </trkpt>
      <trkpt lat="44.52815" lon="-0.79774">
        <ele>51</ele>
        <time>2014-05-25T13:01:09Z</time>
      </trkpt>
      <trkpt lat="44.52824" lon="-0.79808">
        <ele>51</ele>
        <time>2014-05-25T13:01:16Z</time>
      </trkpt>
      <trkpt lat="44.52833" lon="-0.79836">
        <ele>51</ele>
        <time>2014-05-25T13:01:22Z</time>
      </trkpt>
      <trkpt lat="44.52841" lon="-0.79859">
        <ele>51</ele>
        <time>2014-05-25T13:01:27Z</time>
      </trkpt>
      <trkpt lat="44.52836" lon="-0.79884">
        <ele>50</ele>
        <time>2014-05-25T13:01:33Z</time>
      </trkpt>
      <trkpt lat="44.52826" lon="-0.79895">
        <ele>50</ele>
        <time>2014-05-25T13:01:36Z</time>
      </trkpt>
      <trkpt lat="44.52811" lon="-0.79908">
        <ele>50</ele>
        <time>2014-05-25T13:01:40Z</time>
      </trkpt>
      <trkpt lat="44.52782" lon="-0.79942">
        <ele>49</ele>
        <time>2014-05-25T13:01:48Z</time>
      </trkpt>
      <trkpt lat="44.52777" lon="-0.79946">
        <ele>49</ele>
        <time>2014-05-25T13:01:49Z</time>
      </trkpt>
      <trkpt lat="44.52774" lon="-0.7995">
        <ele>49</ele>
        <time>2014-05-25T13:01:50Z</time>
      </trkpt>
      <trkpt lat="44.52771" lon="-0.79955">
        <ele>49</ele>
        <time>2014-05-25T13:01:51Z</time>
      </trkpt>
      <trkpt lat="44.52768" lon="-0.79961">
        <ele>49</ele>
        <time>2014-05-25T13:01:52Z</time>
      </trkpt>
      <trkpt lat="44.52765" lon="-0.79966">
        <ele>49</ele>
        <time>2014-05-25T13:01:53Z</time>
      </trkpt>
      <trkpt lat="44.52761" lon="-0.7997">
        <ele>49</ele>
        <time>2014-05-25T13:01:54Z</time>
      </trkpt>
      <trkpt lat="44.52751" lon="-0.79981">
        <ele>49</ele>
        <time>2014-05-25T13:01:57Z</time>
      </trkpt>
      <trkpt lat="44.52738" lon="-0.79995">
        <ele>49</ele>
        <time>2014-05-25T13:02:02Z</time>
      </trkpt>
      <trkpt lat="44.52719" lon="-0.80006">
        <ele>50</ele>
        <time>2014-05-25T13:02:08Z</time>
      </trkpt>
      <trkpt lat="44.527" lon="-0.8002">
        <ele>50</ele>
        <time>2014-05-25T13:02:14Z</time>
      </trkpt>
      <trkpt lat="44.52685" lon="-0.80026">
        <ele>50</ele>
        <time>2014-05-25T13:02:17Z</time>
      </trkpt>
      <trkpt lat="44.52646" lon="-0.80038">
        <ele>49</ele>
        <time>2014-05-25T13:02:24Z</time>
      </trkpt>
      <trkpt lat="44.52623" lon="-0.80052">
        <ele>49</ele>
        <time>2014-05-25T13:02:29Z</time>
      </trkpt>
      <trkpt lat="44.52614" lon="-0.8006">
        <ele>49</ele>
        <time>2014-05-25T13:02:31Z</time>
      </trkpt>
      <trkpt lat="44.5261" lon="-0.80064">
        <ele>49</ele>
        <time>2014-05-25T13:02:32Z</time>
      </trkpt>
      <trkpt lat="44.52605" lon="-0.80066">
        <ele>48</ele>
        <time>2014-05-25T13:02:33Z</time>
      </trkpt>
      <trkpt lat="44.526" lon="-0.80069">
        <ele>48</ele>
        <time>2014-05-25T13:02:34Z</time>
      </trkpt>
      <trkpt lat="44.52595" lon="-0.80072">
        <ele>48</ele>
        <time>2014-05-25T13:02:35Z</time>
      </trkpt>
      <trkpt lat="44.5257" lon="-0.80085">
        <ele>48</ele>
        <time>2014-05-25T13:02:40Z</time>
      </trkpt>
      <trkpt lat="44.52565" lon="-0.80088">
        <ele>48</ele>
        <time>2014-05-25T13:02:41Z</time>
      </trkpt>
      <trkpt lat="44.52522" lon="-0.80107">
        <ele>48</ele>
        <time>2014-05-25T13:02:49Z</time>
      </trkpt>
      <trkpt lat="44.52505" lon="-0.80113">
        <ele>47</ele>
        <time>2014-05-25T13:02:52Z</time>
      </trkpt>
      <trkpt lat="44.525" lon="-0.80115">
        <ele>47</ele>
        <time>2014-05-25T13:02:53Z</time>
      </trkpt>
      <trkpt lat="44.52495" lon="-0.80117">
        <ele>47</ele>
        <time>2014-05-25T13:02:54Z</time>
      </trkpt>
      <trkpt lat="44.52477" lon="-0.80125">
        <ele>48</ele>
        <time>2014-05-25T13:02:58Z</time>
      </trkpt>
      <trkpt lat="44.52452" lon="-0.80138">
        <ele>48</ele>
        <time>2014-05-25T13:03:04Z</time>
      </trkpt>
      <trkpt lat="44.52448" lon="-0.80141">
        <ele>48</ele>
        <time>2014-05-25T13:03:05Z</time>
      </trkpt>
      <trkpt lat="44.5242" lon="-0.80155">
        <ele>48</ele>
        <time>2014-05-25T13:03:11Z</time>
      </trkpt>
      <trkpt lat="44.52403" lon="-0.80163">
        <ele>48</ele>
        <time>2014-05-25T13:03:15Z</time>
      </trkpt>
      <trkpt lat="44.52381" lon="-0.80172">
        <ele>48</ele>
        <time>2014-05-25T13:03:20Z</time>
      </trkpt>
      <trkpt lat="44.52377" lon="-0.80174">
        <ele>48</ele>
        <time>2014-05-25T13:03:21Z</time>
      </trkpt>
      <trkpt lat="44.52373" lon="-0.80175">
        <ele>48</ele>
        <time>2014-05-25T13:03:22Z</time>
      </trkpt>
      <trkpt lat="44.52358" lon="-0.8018">
        <ele>48</ele>
        <time>2014-05-25T13:03:28Z</time>
      </trkpt>
      <trkpt lat="44.52354" lon="-0.80183">
        <ele>48</ele>
        <time>2014-05-25T13:03:30Z</time>
      </trkpt>
      <trkpt lat="44.52351" lon="-0.80184">
        <ele>48</ele>
        <time>2014-05-25T13:03:31Z</time>
      </trkpt>
      <trkpt lat="44.52349" lon="-0.80186">
        <ele>48</ele>
        <time>2014-05-25T13:03:32Z</time>
      </trkpt>
      <trkpt lat="44.52346" lon="-0.80187">
        <ele>48</ele>
        <time>2014-05-25T13:03:33Z</time>
      </trkpt>
      <trkpt lat="44.52343" lon="-0.80189">
        <ele>48</ele>
        <time>2014-05-25T13:03:34Z</time>
      </trkpt>
      <trkpt lat="44.5234" lon="-0.80191">
        <ele>47</ele>
        <time>2014-05-25T13:03:35Z</time>
      </trkpt>
      <trkpt lat="44.52326" lon="-0.80197">
        <ele>47</ele>
        <time>2014-05-25T13:03:41Z</time>
      </trkpt>
      <trkpt lat="44.52311" lon="-0.80206">
        <ele>47</ele>
        <time>2014-05-25T13:03:47Z</time>
      </trkpt>
      <trkpt lat="44.52296" lon="-0.80215">
        <ele>46</ele>
        <time>2014-05-25T13:03:53Z</time>
      </trkpt>
      <trkpt lat="44.52275" lon="-0.80226">
        <ele>46</ele>
        <time>2014-05-25T13:04:00Z</time>
      </trkpt>
      <trkpt lat="44.52254" lon="-0.80237">
        <ele>46</ele>
        <time>2014-05-25T13:04:07Z</time>
      </trkpt>
      <trkpt lat="44.5223" lon="-0.80247">
        <ele>45</ele>
        <time>2014-05-25T13:04:14Z</time>
      </trkpt>
      <trkpt lat="44.52209" lon="-0.8026">
        <ele>45</ele>
        <time>2014-05-25T13:04:20Z</time>
      </trkpt>
      <trkpt lat="44.52197" lon="-0.80282">
        <ele>45</ele>
        <time>2014-05-25T13:04:25Z</time>
      </trkpt>
      <trkpt lat="44.52189" lon="-0.80306">
        <ele>45</ele>
        <time>2014-05-25T13:04:31Z</time>
      </trkpt>
      <trkpt lat="44.52179" lon="-0.80327">
        <ele>45</ele>
        <time>2014-05-25T13:04:37Z</time>
      </trkpt>
      <trkpt lat="44.52167" lon="-0.80356">
        <ele>45</ele>
        <time>2014-05-25T13:04:43Z</time>
      </trkpt>
      <trkpt lat="44.52153" lon="-0.80375">
        <ele>45</ele>
        <time>2014-05-25T13:04:48Z</time>
      </trkpt>
      <trkpt lat="44.52136" lon="-0.80391">
        <ele>45</ele>
        <time>2014-05-25T13:04:54Z</time>
      </trkpt>
      <trkpt lat="44.52122" lon="-0.80414">
        <ele>45</ele>
        <time>2014-05-25T13:05:00Z</time>
      </trkpt>
      <trkpt lat="44.52119" lon="-0.80418">
        <ele>45</ele>
        <time>2014-05-25T13:05:01Z</time>
      </trkpt>
      <trkpt lat="44.52115" lon="-0.80421">
        <ele>45</ele>
        <time>2014-05-25T13:05:02Z</time>
      </trkpt>
      <trkpt lat="44.52091" lon="-0.80439">
        <ele>44</ele>
        <time>2014-05-25T13:05:09Z</time>
      </trkpt>
      <trkpt lat="44.52067" lon="-0.80448">
        <ele>44</ele>
        <time>2014-05-25T13:05:15Z</time>
      </trkpt>
      <trkpt lat="44.52044" lon="-0.8046">
        <ele>45</ele>
        <time>2014-05-25T13:05:21Z</time>
      </trkpt>
      <trkpt lat="44.52024" lon="-0.80459">
        <ele>44</ele>
        <time>2014-05-25T13:05:26Z</time>
      </trkpt>
      <trkpt lat="44.52007" lon="-0.80457">
        <ele>44</ele>
        <time>2014-05-25T13:05:31Z</time>
      </trkpt>
      <trkpt lat="44.51989" lon="-0.80457">
        <ele>44</ele>
        <time>2014-05-25T13:05:35Z</time>
      </trkpt>
      <trkpt lat="44.51984" lon="-0.80456">
        <ele>44</ele>
        <time>2014-05-25T13:05:36Z</time>
      </trkpt>
      <trkpt lat="44.51967" lon="-0.80454">
        <ele>43</ele>
        <time>2014-05-25T13:05:39Z</time>
      </trkpt>
      <trkpt lat="44.51962" lon="-0.80454">
        <ele>43</ele>
        <time>2014-05-25T13:05:40Z</time>
      </trkpt>
      <trkpt lat="44.51958" lon="-0.80455">
        <ele>43</ele>
        <time>2014-05-25T13:05:41Z</time>
      </trkpt>
      <trkpt lat="44.51953" lon="-0.80457">
        <ele>43</ele>
        <time>2014-05-25T13:05:42Z</time>
      </trkpt>
      <trkpt lat="44.51949" lon="-0.80458">
        <ele>43</ele>
        <time>2014-05-25T13:05:43Z</time>
      </trkpt>
      <trkpt lat="44.51939" lon="-0.80462">
        <ele>43</ele>
        <time>2014-05-25T13:05:45Z</time>
      </trkpt>
      <trkpt lat="44.51919" lon="-0.80468">
        <ele>43</ele>
        <time>2014-05-25T13:05:50Z</time>
      </trkpt>
      <trkpt lat="44.51898" lon="-0.80466">
        <ele>42</ele>
        <time>2014-05-25T13:05:56Z</time>
      </trkpt>
      <trkpt lat="44.51891" lon="-0.80463">
        <ele>42</ele>
        <time>2014-05-25T13:05:58Z</time>
      </trkpt>
      <trkpt lat="44.51887" lon="-0.80463">
        <ele>42</ele>
        <time>2014-05-25T13:05:59Z</time>
      </trkpt>
      <trkpt lat="44.51883" lon="-0.80463">
        <ele>42</ele>
        <time>2014-05-25T13:06:00Z</time>
      </trkpt>
      <trkpt lat="44.5188" lon="-0.80464">
        <ele>42</ele>
        <time>2014-05-25T13:06:01Z</time>
      </trkpt>
      <trkpt lat="44.51876" lon="-0.80465">
        <ele>42</ele>
        <time>2014-05-25T13:06:02Z</time>
      </trkpt>
      <trkpt lat="44.51855" lon="-0.80475">
        <ele>42</ele>
        <time>2014-05-25T13:06:08Z</time>
      </trkpt>
      <trkpt lat="44.51843" lon="-0.80482">
        <ele>42</ele>
        <time>2014-05-25T13:06:11Z</time>
      </trkpt>
      <trkpt lat="44.51818" lon="-0.80491">
        <ele>41</ele>
        <time>2014-05-25T13:06:18Z</time>
      </trkpt>
      <trkpt lat="44.51801" lon="-0.80495">
        <ele>41</ele>
        <time>2014-05-25T13:06:24Z</time>
      </trkpt>
      <trkpt lat="44.51785" lon="-0.80501">
        <ele>41</ele>
        <time>2014-05-25T13:06:30Z</time>
      </trkpt>
      <trkpt lat="44.51784" lon="-0.80502">
        <ele>41</ele>
        <time>2014-05-25T13:06:31Z</time>
      </trkpt>
      <trkpt lat="44.51781" lon="-0.80503">
        <ele>41</ele>
        <time>2014-05-25T13:06:32Z</time>
      </trkpt>
      <trkpt lat="44.51767" lon="-0.80503">
        <ele>41</ele>
        <time>2014-05-25T13:06:39Z</time>
      </trkpt>
      <trkpt lat="44.51765" lon="-0.80503">
        <ele>40</ele>
        <time>2014-05-25T13:06:40Z</time>
      </trkpt>
      <trkpt lat="44.51762" lon="-0.80503">
        <ele>40</ele>
        <time>2014-05-25T13:06:41Z</time>
      </trkpt>
      <trkpt lat="44.51751" lon="-0.80501">
        <ele>40</ele>
        <time>2014-05-25T13:06:46Z</time>
      </trkpt>
      <trkpt lat="44.5175" lon="-0.805">
        <ele>40</ele>
        <time>2014-05-25T13:06:47Z</time>
      </trkpt>
      <trkpt lat="44.51749" lon="-0.80499">
        <ele>40</ele>
        <time>2014-05-25T13:06:48Z</time>
      </trkpt>
      <trkpt lat="44.51741" lon="-0.80497">
        <ele>40</ele>
        <time>2014-05-25T13:06:55Z</time>
      </trkpt>
      <trkpt lat="44.5174" lon="-0.80497">
        <ele>40</ele>
        <time>2014-05-25T13:06:56Z</time>
      </trkpt>
      <trkpt lat="44.51738" lon="-0.80495">
        <ele>40</ele>
        <time>2014-05-25T13:06:57Z</time>
      </trkpt>
      <trkpt lat="44.51736" lon="-0.80491">
        <ele>40</ele>
        <time>2014-05-25T13:07:00Z</time>
      </trkpt>
      <trkpt lat="44.51736" lon="-0.80489">
        <ele>41</ele>
        <time>2014-05-25T13:07:01Z</time>
      </trkpt>
      <trkpt lat="44.51736" lon="-0.80487">
        <ele>41</ele>
        <time>2014-05-25T13:07:02Z</time>
      </trkpt>
      <trkpt lat="44.51735" lon="-0.80484">
        <ele>41</ele>
        <time>2014-05-25T13:07:03Z</time>
      </trkpt>
      <trkpt lat="44.51734" lon="-0.80481">
        <ele>41</ele>
        <time>2014-05-25T13:07:04Z</time>
      </trkpt>
      <trkpt lat="44.51733" lon="-0.80478">
        <ele>41</ele>
        <time>2014-05-25T13:07:05Z</time>
      </trkpt>
      <trkpt lat="44.51723" lon="-0.80457">
        <ele>41</ele>
        <time>2014-05-25T13:07:12Z</time>
      </trkpt>
      <trkpt lat="44.51716" lon="-0.80439">
        <ele>42</ele>
        <time>2014-05-25T13:07:18Z</time>
      </trkpt>
      <trkpt lat="44.51707" lon="-0.8042">
        <ele>42</ele>
        <time>2014-05-25T13:07:24Z</time>
      </trkpt>
      <trkpt lat="44.51698" lon="-0.80391">
        <ele>42</ele>
        <time>2014-05-25T13:07:31Z</time>
      </trkpt>
      <trkpt lat="44.51689" lon="-0.80357">
        <ele>43</ele>
        <time>2014-05-25T13:07:39Z</time>
      </trkpt>
      <trkpt lat="44.51679" lon="-0.80334">
        <ele>43</ele>
        <time>2014-05-25T13:07:45Z</time>
      </trkpt>
      <trkpt lat="44.51666" lon="-0.8031">
        <ele>43</ele>
        <time>2014-05-25T13:07:51Z</time>
      </trkpt>
      <trkpt lat="44.5166" lon="-0.80301">
        <ele>43</ele>
        <time>2014-05-25T13:07:53Z</time>
      </trkpt>
      <trkpt lat="44.51657" lon="-0.80296">
        <ele>43</ele>
        <time>2014-05-25T13:07:54Z</time>
      </trkpt>
      <trkpt lat="44.51654" lon="-0.80291">
        <ele>43</ele>
        <time>2014-05-25T13:07:55Z</time>
      </trkpt>
      <trkpt lat="44.51652" lon="-0.80286">
        <ele>43</ele>
        <time>2014-05-25T13:07:56Z</time>
      </trkpt>
      <trkpt lat="44.51649" lon="-0.80281">
        <ele>43</ele>
        <time>2014-05-25T13:07:57Z</time>
      </trkpt>
      <trkpt lat="44.51646" lon="-0.80276">
        <ele>43</ele>
        <time>2014-05-25T13:07:58Z</time>
      </trkpt>
      <trkpt lat="44.51638" lon="-0.80258">
        <ele>43</ele>
        <time>2014-05-25T13:08:01Z</time>
      </trkpt>
      <trkpt lat="44.5163" lon="-0.80243">
        <ele>42</ele>
        <time>2014-05-25T13:08:04Z</time>
      </trkpt>
      <trkpt lat="44.51627" lon="-0.80238">
        <ele>42</ele>
        <time>2014-05-25T13:08:05Z</time>
      </trkpt>
      <trkpt lat="44.51624" lon="-0.80232">
        <ele>42</ele>
        <time>2014-05-25T13:08:06Z</time>
      </trkpt>
      <trkpt lat="44.5162" lon="-0.8022">
        <ele>42</ele>
        <time>2014-05-25T13:08:08Z</time>
      </trkpt>
      <trkpt lat="44.51617" lon="-0.80207">
        <ele>41</ele>
        <time>2014-05-25T13:08:10Z</time>
      </trkpt>
      <trkpt lat="44.51616" lon="-0.80201">
        <ele>41</ele>
        <time>2014-05-25T13:08:11Z</time>
      </trkpt>
      <trkpt lat="44.51615" lon="-0.80195">
        <ele>41</ele>
        <time>2014-05-25T13:08:12Z</time>
      </trkpt>
      <trkpt lat="44.51615" lon="-0.8019">
        <ele>41</ele>
        <time>2014-05-25T13:08:13Z</time>
      </trkpt>
      <trkpt lat="44.51614" lon="-0.80186">
        <ele>41</ele>
        <time>2014-05-25T13:08:14Z</time>
      </trkpt>
      <trkpt lat="44.51613" lon="-0.80181">
        <ele>41</ele>
        <time>2014-05-25T13:08:15Z</time>
      </trkpt>
      <trkpt lat="44.51611" lon="-0.80177">
        <ele>41</ele>
        <time>2014-05-25T13:08:16Z</time>
      </trkpt>
      <trkpt lat="44.51609" lon="-0.80173">
        <ele>41</ele>
        <time>2014-05-25T13:08:17Z</time>
      </trkpt>
      <trkpt lat="44.51607" lon="-0.80169">
        <ele>40</ele>
        <time>2014-05-25T13:08:18Z</time>
      </trkpt>
      <trkpt lat="44.516" lon="-0.80151">
        <ele>40</ele>
        <time>2014-05-25T13:08:24Z</time>
      </trkpt>
      <trkpt lat="44.51595" lon="-0.80134">
        <ele>40</ele>
        <time>2014-05-25T13:08:29Z</time>
      </trkpt>
      <trkpt lat="44.51584" lon="-0.80104">
        <ele>40</ele>
        <time>2014-05-25T13:08:36Z</time>
      </trkpt>
      <trkpt lat="44.51583" lon="-0.80098">
        <ele>40</ele>
        <time>2014-05-25T13:08:37Z</time>
      </trkpt>
      <trkpt lat="44.51575" lon="-0.80062">
        <ele>40</ele>
        <time>2014-05-25T13:08:43Z</time>
      </trkpt>
      <trkpt lat="44.51574" lon="-0.80054">
        <ele>40</ele>
        <time>2014-05-25T13:08:44Z</time>
      </trkpt>
      <trkpt lat="44.51571" lon="-0.8004">
        <ele>40</ele>
        <time>2014-05-25T13:08:46Z</time>
      </trkpt>
      <trkpt lat="44.51569" lon="-0.80035">
        <ele>40</ele>
        <time>2014-05-25T13:08:47Z</time>
      </trkpt>
      <trkpt lat="44.51561" lon="-0.80005">
        <ele>40</ele>
        <time>2014-05-25T13:08:53Z</time>
      </trkpt>
      <trkpt lat="44.51554" lon="-0.79973">
        <ele>40</ele>
        <time>2014-05-25T13:09:00Z</time>
      </trkpt>
      <trkpt lat="44.51548" lon="-0.79945">
        <ele>40</ele>
        <time>2014-05-25T13:09:07Z</time>
      </trkpt>
      <trkpt lat="44.51547" lon="-0.79917">
        <ele>40</ele>
        <time>2014-05-25T13:09:13Z</time>
      </trkpt>
      <trkpt lat="44.51551" lon="-0.79883">
        <ele>40</ele>
        <time>2014-05-25T13:09:20Z</time>
      </trkpt>
      <trkpt lat="44.5155" lon="-0.79879">
        <ele>39</ele>
        <time>2014-05-25T13:09:21Z</time>
      </trkpt>
      <trkpt lat="44.51543" lon="-0.79881">
        <ele>39</ele>
        <time>2014-05-25T13:09:25Z</time>
      </trkpt>
      <trkpt lat="44.51531" lon="-0.79915">
        <ele>39</ele>
        <time>2014-05-25T13:09:34Z</time>
      </trkpt>
      <trkpt lat="44.51518" lon="-0.79947">
        <ele>39</ele>
        <time>2014-05-25T13:09:41Z</time>
      </trkpt>
      <trkpt lat="44.51506" lon="-0.79981">
        <ele>39</ele>
        <time>2014-05-25T13:09:47Z</time>
      </trkpt>
      <trkpt lat="44.51504" lon="-0.79988">
        <ele>39</ele>
        <time>2014-05-25T13:09:48Z</time>
      </trkpt>
      <trkpt lat="44.51501" lon="-0.8">
        <ele>39</ele>
        <time>2014-05-25T13:09:50Z</time>
      </trkpt>
      <trkpt lat="44.5149" lon="-0.8005">
        <ele>39</ele>
        <time>2014-05-25T13:09:58Z</time>
      </trkpt>
      <trkpt lat="44.51469" lon="-0.80115">
        <ele>39</ele>
        <time>2014-05-25T13:10:09Z</time>
      </trkpt>
      <trkpt lat="44.51448" lon="-0.80171">
        <ele>39</ele>
        <time>2014-05-25T13:10:18Z</time>
      </trkpt>
      <trkpt lat="44.51426" lon="-0.80232">
        <ele>39</ele>
        <time>2014-05-25T13:10:27Z</time>
      </trkpt>
      <trkpt lat="44.51421" lon="-0.80244">
        <ele>40</ele>
        <time>2014-05-25T13:10:29Z</time>
      </trkpt>
      <trkpt lat="44.51401" lon="-0.80294">
        <ele>40</ele>
        <time>2014-05-25T13:10:38Z</time>
      </trkpt>
      <trkpt lat="44.51385" lon="-0.8034">
        <ele>40</ele>
        <time>2014-05-25T13:10:46Z</time>
      </trkpt>
      <trkpt lat="44.51368" lon="-0.80381">
        <ele>40</ele>
        <time>2014-05-25T13:10:53Z</time>
      </trkpt>
      <trkpt lat="44.51345" lon="-0.80443">
        <ele>40</ele>
        <time>2014-05-25T13:11:03Z</time>
      </trkpt>
      <trkpt lat="44.51317" lon="-0.80521">
        <ele>38</ele>
        <time>2014-05-25T13:11:14Z</time>
      </trkpt>
      <trkpt lat="44.51294" lon="-0.80585">
        <ele>37</ele>
        <time>2014-05-25T13:11:22Z</time>
      </trkpt>
      <trkpt lat="44.51268" lon="-0.80654">
        <ele>36</ele>
        <time>2014-05-25T13:11:31Z</time>
      </trkpt>
      <trkpt lat="44.51243" lon="-0.80721">
        <ele>35</ele>
        <time>2014-05-25T13:11:40Z</time>
      </trkpt>
      <trkpt lat="44.51229" lon="-0.80761">
        <ele>35</ele>
        <time>2014-05-25T13:11:45Z</time>
      </trkpt>
      <trkpt lat="44.51209" lon="-0.80816">
        <ele>35</ele>
        <time>2014-05-25T13:11:51Z</time>
      </trkpt>
      <trkpt lat="44.51202" lon="-0.80834">
        <ele>34</ele>
        <time>2014-05-25T13:11:54Z</time>
      </trkpt>
      <trkpt lat="44.51202" lon="-0.80833">
        <ele>34</ele>
        <time>2014-05-25T13:11:58Z</time>
      </trkpt>
      <trkpt lat="44.51202" lon="-0.80832">
        <ele>34</ele>
        <time>2014-05-25T13:11:59Z</time>
      </trkpt>
      <trkpt lat="44.51202" lon="-0.8083">
        <ele>34</ele>
        <time>2014-05-25T13:12:00Z</time>
      </trkpt>
      <trkpt lat="44.51203" lon="-0.80828">
        <ele>35</ele>
        <time>2014-05-25T13:12:01Z</time>
      </trkpt>
      <trkpt lat="44.51204" lon="-0.80824">
        <ele>35</ele>
        <time>2014-05-25T13:12:03Z</time>
      </trkpt>
      <trkpt lat="44.51204" lon="-0.80821">
        <ele>35</ele>
        <time>2014-05-25T13:12:04Z</time>
      </trkpt>
      <trkpt lat="44.51205" lon="-0.80819">
        <ele>35</ele>
        <time>2014-05-25T13:12:05Z</time>
      </trkpt>
      <trkpt lat="44.51205" lon="-0.80816">
        <ele>35</ele>
        <time>2014-05-25T13:12:06Z</time>
      </trkpt>
      <trkpt lat="44.51205" lon="-0.80813">
        <ele>35</ele>
        <time>2014-05-25T13:12:07Z</time>
      </trkpt>
      <trkpt lat="44.51205" lon="-0.8081">
        <ele>35</ele>
        <time>2014-05-25T13:12:08Z</time>
      </trkpt>
      <trkpt lat="44.51206" lon="-0.80808">
        <ele>35</ele>
        <time>2014-05-25T13:12:09Z</time>
      </trkpt>
      <trkpt lat="44.51206" lon="-0.80805">
        <ele>35</ele>
        <time>2014-05-25T13:12:10Z</time>
      </trkpt>
      <trkpt lat="44.51206" lon="-0.80803">
        <ele>35</ele>
        <time>2014-05-25T13:12:11Z</time>
      </trkpt>
      <trkpt lat="44.51203" lon="-0.80779">
        <ele>35</ele>
        <time>2014-05-25T13:12:19Z</time>
      </trkpt>
      <trkpt lat="44.512" lon="-0.80754">
        <ele>34</ele>
        <time>2014-05-25T13:12:26Z</time>
      </trkpt>
      <trkpt lat="44.51196" lon="-0.80734">
        <ele>34</ele>
        <time>2014-05-25T13:12:32Z</time>
      </trkpt>
      <trkpt lat="44.51193" lon="-0.80713">
        <ele>34</ele>
        <time>2014-05-25T13:12:37Z</time>
      </trkpt>
      <trkpt lat="44.5119" lon="-0.80687">
        <ele>34</ele>
        <time>2014-05-25T13:12:43Z</time>
      </trkpt>
      <trkpt lat="44.51188" lon="-0.80673">
        <ele>34</ele>
        <time>2014-05-25T13:12:47Z</time>
      </trkpt>
      <trkpt lat="44.51189" lon="-0.80644">
        <ele>34</ele>
        <time>2014-05-25T13:12:52Z</time>
      </trkpt>
      <trkpt lat="44.51186" lon="-0.80607">
        <ele>34</ele>
        <time>2014-05-25T13:12:58Z</time>
      </trkpt>
      <trkpt lat="44.51185" lon="-0.8057">
        <ele>34</ele>
        <time>2014-05-25T13:13:04Z</time>
      </trkpt>
      <trkpt lat="44.51181" lon="-0.80534">
        <ele>34</ele>
        <time>2014-05-25T13:13:10Z</time>
      </trkpt>
      <trkpt lat="44.51177" lon="-0.80493">
        <ele>34</ele>
        <time>2014-05-25T13:13:18Z</time>
      </trkpt>
      <trkpt lat="44.51173" lon="-0.8047">
        <ele>34</ele>
        <time>2014-05-25T13:13:23Z</time>
      </trkpt>
      <trkpt lat="44.51176" lon="-0.8046">
        <ele>35</ele>
        <time>2014-05-25T13:13:28Z</time>
      </trkpt>
      <trkpt lat="44.51174" lon="-0.80443">
        <ele>35</ele>
        <time>2014-05-25T13:13:34Z</time>
      </trkpt>
      <trkpt lat="44.51164" lon="-0.8041">
        <ele>35</ele>
        <time>2014-05-25T13:13:41Z</time>
      </trkpt>
      <trkpt lat="44.51163" lon="-0.80404">
        <ele>35</ele>
        <time>2014-05-25T13:13:42Z</time>
      </trkpt>
      <trkpt lat="44.51162" lon="-0.80398">
        <ele>35</ele>
        <time>2014-05-25T13:13:43Z</time>
      </trkpt>
      <trkpt lat="44.51151" lon="-0.80361">
        <ele>35</ele>
        <time>2014-05-25T13:13:50Z</time>
      </trkpt>
      <trkpt lat="44.51143" lon="-0.80326">
        <ele>36</ele>
        <time>2014-05-25T13:13:56Z</time>
      </trkpt>
      <trkpt lat="44.51142" lon="-0.8032">
        <ele>36</ele>
        <time>2014-05-25T13:13:57Z</time>
      </trkpt>
      <trkpt lat="44.51136" lon="-0.80275">
        <ele>36</ele>
        <time>2014-05-25T13:14:05Z</time>
      </trkpt>
      <trkpt lat="44.51131" lon="-0.80231">
        <ele>37</ele>
        <time>2014-05-25T13:14:13Z</time>
      </trkpt>
      <trkpt lat="44.51125" lon="-0.80195">
        <ele>37</ele>
        <time>2014-05-25T13:14:20Z</time>
      </trkpt>
      <trkpt lat="44.5112" lon="-0.80153">
        <ele>37</ele>
        <time>2014-05-25T13:14:28Z</time>
      </trkpt>
      <trkpt lat="44.51118" lon="-0.80118">
        <ele>37</ele>
        <time>2014-05-25T13:14:35Z</time>
      </trkpt>
      <trkpt lat="44.51118" lon="-0.80112">
        <ele>37</ele>
        <time>2014-05-25T13:14:36Z</time>
      </trkpt>
      <trkpt lat="44.51119" lon="-0.80106">
        <ele>38</ele>
        <time>2014-05-25T13:14:37Z</time>
      </trkpt>
      <trkpt lat="44.51119" lon="-0.80101">
        <ele>38</ele>
        <time>2014-05-25T13:14:38Z</time>
      </trkpt>
      <trkpt lat="44.51121" lon="-0.80069">
        <ele>38</ele>
        <time>2014-05-25T13:14:44Z</time>
      </trkpt>
      <trkpt lat="44.51117" lon="-0.80032">
        <ele>38</ele>
        <time>2014-05-25T13:14:51Z</time>
      </trkpt>
      <trkpt lat="44.51116" lon="-0.80011">
        <ele>38</ele>
        <time>2014-05-25T13:14:57Z</time>
      </trkpt>
      <trkpt lat="44.51114" lon="-0.80001">
        <ele>38</ele>
        <time>2014-05-25T13:14:59Z</time>
      </trkpt>
      <trkpt lat="44.51115" lon="-0.79995">
        <ele>38</ele>
        <time>2014-05-25T13:15:00Z</time>
      </trkpt>
      <trkpt lat="44.51116" lon="-0.79959">
        <ele>38</ele>
        <time>2014-05-25T13:15:06Z</time>
      </trkpt>
      <trkpt lat="44.51117" lon="-0.79917">
        <ele>37</ele>
        <time>2014-05-25T13:15:13Z</time>
      </trkpt>
      <trkpt lat="44.51116" lon="-0.79911">
        <ele>38</ele>
        <time>2014-05-25T13:15:14Z</time>
      </trkpt>
      <trkpt lat="44.51114" lon="-0.79893">
        <ele>38</ele>
        <time>2014-05-25T13:15:17Z</time>
      </trkpt>
      <trkpt lat="44.51112" lon="-0.79869">
        <ele>38</ele>
        <time>2014-05-25T13:15:22Z</time>
      </trkpt>
      <trkpt lat="44.51111" lon="-0.79867">
        <ele>38</ele>
        <time>2014-05-25T13:15:23Z</time>
      </trkpt>
      <trkpt lat="44.51111" lon="-0.79867">
        <ele>38</ele>
        <time>2014-05-25T13:15:24Z</time>
      </trkpt>
      <trkpt lat="44.511" lon="-0.7987">
        <ele>38</ele>
        <time>2014-05-25T13:15:30Z</time>
      </trkpt>
      <trkpt lat="44.51089" lon="-0.79875">
        <ele>37</ele>
        <time>2014-05-25T13:15:35Z</time>
      </trkpt>
      <trkpt lat="44.51087" lon="-0.79877">
        <ele>37</ele>
        <time>2014-05-25T13:15:36Z</time>
      </trkpt>
      <trkpt lat="44.51069" lon="-0.79888">
        <ele>37</ele>
        <time>2014-05-25T13:15:42Z</time>
      </trkpt>
      <trkpt lat="44.51058" lon="-0.79904">
        <ele>37</ele>
        <time>2014-05-25T13:15:47Z</time>
      </trkpt>
      <trkpt lat="44.51057" lon="-0.79907">
        <ele>37</ele>
        <time>2014-05-25T13:15:48Z</time>
      </trkpt>
      <trkpt lat="44.51054" lon="-0.79909">
        <ele>37</ele>
        <time>2014-05-25T13:15:50Z</time>
      </trkpt>
      <trkpt lat="44.51035" lon="-0.79905">
        <ele>37</ele>
        <time>2014-05-25T13:15:55Z</time>
      </trkpt>
      <trkpt lat="44.51031" lon="-0.79904">
        <ele>37</ele>
        <time>2014-05-25T13:15:56Z</time>
      </trkpt>
      <trkpt lat="44.51015" lon="-0.79893">
        <ele>35</ele>
        <time>2014-05-25T13:16:01Z</time>
      </trkpt>
      <trkpt lat="44.51011" lon="-0.79881">
        <ele>33</ele>
        <time>2014-05-25T13:16:05Z</time>
      </trkpt>
      <trkpt lat="44.51012" lon="-0.79874">
        <ele>33</ele>
        <time>2014-05-25T13:16:09Z</time>
      </trkpt>
      <trkpt lat="44.51014" lon="-0.79874">
        <ele>33</ele>
        <time>2014-05-25T13:16:10Z</time>
      </trkpt>
      <trkpt lat="44.51014" lon="-0.79862">
        <ele>33</ele>
        <time>2014-05-25T13:16:13Z</time>
      </trkpt>
      <trkpt lat="44.51009" lon="-0.79847">
        <ele>31</ele>
        <time>2014-05-25T13:16:18Z</time>
      </trkpt>
      <trkpt lat="44.51009" lon="-0.79845">
        <ele>30</ele>
        <time>2014-05-25T13:16:19Z</time>
      </trkpt>
      <trkpt lat="44.51002" lon="-0.79832">
        <ele>28</ele>
        <time>2014-05-25T13:16:24Z</time>
      </trkpt>
      <trkpt lat="44.50999" lon="-0.79813">
        <ele>26</ele>
        <time>2014-05-25T13:16:31Z</time>
      </trkpt>
      <trkpt lat="44.50987" lon="-0.79807">
        <ele>23</ele>
        <time>2014-05-25T13:16:37Z</time>
      </trkpt>
      <trkpt lat="44.50982" lon="-0.79808">
        <ele>22</ele>
        <time>2014-05-25T13:16:39Z</time>
      </trkpt>
      <trkpt lat="44.50975" lon="-0.79826">
        <ele>22</ele>
        <time>2014-05-25T13:16:45Z</time>
      </trkpt>
      <trkpt lat="44.50959" lon="-0.79856">
        <ele>23</ele>
        <time>2014-05-25T13:16:52Z</time>
      </trkpt>
      <trkpt lat="44.50943" lon="-0.79885">
        <ele>22</ele>
        <time>2014-05-25T13:16:59Z</time>
      </trkpt>
      <trkpt lat="44.50929" lon="-0.79904">
        <ele>21</ele>
        <time>2014-05-25T13:17:03Z</time>
      </trkpt>
      <trkpt lat="44.50922" lon="-0.79914">
        <ele>21</ele>
        <time>2014-05-25T13:17:05Z</time>
      </trkpt>
      <trkpt lat="44.50918" lon="-0.79918">
        <ele>21</ele>
        <time>2014-05-25T13:17:06Z</time>
      </trkpt>
      <trkpt lat="44.50914" lon="-0.79924">
        <ele>21</ele>
        <time>2014-05-25T13:17:07Z</time>
      </trkpt>
      <trkpt lat="44.50907" lon="-0.79936">
        <ele>21</ele>
        <time>2014-05-25T13:17:09Z</time>
      </trkpt>
      <trkpt lat="44.50888" lon="-0.7997">
        <ele>20</ele>
        <time>2014-05-25T13:17:15Z</time>
      </trkpt>
      <trkpt lat="44.50886" lon="-0.79975">
        <ele>20</ele>
        <time>2014-05-25T13:17:16Z</time>
      </trkpt>
      <trkpt lat="44.50867" lon="-0.80012">
        <ele>21</ele>
        <time>2014-05-25T13:17:23Z</time>
      </trkpt>
      <trkpt lat="44.50852" lon="-0.80041">
        <ele>20</ele>
        <time>2014-05-25T13:17:29Z</time>
      </trkpt>
      <trkpt lat="44.50844" lon="-0.80061">
        <ele>20</ele>
        <time>2014-05-25T13:17:33Z</time>
      </trkpt>
      <trkpt lat="44.50835" lon="-0.80088">
        <ele>20</ele>
        <time>2014-05-25T13:17:38Z</time>
      </trkpt>
      <trkpt lat="44.50825" lon="-0.80106">
        <ele>20</ele>
        <time>2014-05-25T13:17:43Z</time>
      </trkpt>
      <trkpt lat="44.50818" lon="-0.80118">
        <ele>20</ele>
        <time>2014-05-25T13:17:48Z</time>
      </trkpt>
      <trkpt lat="44.50815" lon="-0.80118">
        <ele>20</ele>
        <time>2014-05-25T13:17:50Z</time>
      </trkpt>
      <trkpt lat="44.50813" lon="-0.80118">
        <ele>20</ele>
        <time>2014-05-25T13:17:51Z</time>
      </trkpt>
      <trkpt lat="44.50812" lon="-0.80117">
        <ele>20</ele>
        <time>2014-05-25T13:17:52Z</time>
      </trkpt>
      <trkpt lat="44.50811" lon="-0.80115">
        <ele>20</ele>
        <time>2014-05-25T13:17:53Z</time>
      </trkpt>
      <trkpt lat="44.50807" lon="-0.80114">
        <ele>19</ele>
        <time>2014-05-25T13:17:56Z</time>
      </trkpt>
      <trkpt lat="44.50804" lon="-0.80116">
        <ele>19</ele>
        <time>2014-05-25T13:17:57Z</time>
      </trkpt>
      <trkpt lat="44.50795" lon="-0.80135">
        <ele>20</ele>
        <time>2014-05-25T13:18:02Z</time>
      </trkpt>
      <trkpt lat="44.50791" lon="-0.80148">
        <ele>20</ele>
        <time>2014-05-25T13:18:05Z</time>
      </trkpt>
      <trkpt lat="44.50777" lon="-0.80172">
        <ele>21</ele>
        <time>2014-05-25T13:18:12Z</time>
      </trkpt>
      <trkpt lat="44.50767" lon="-0.80192">
        <ele>22</ele>
        <time>2014-05-25T13:18:17Z</time>
      </trkpt>
      <trkpt lat="44.50764" lon="-0.802">
        <ele>22</ele>
        <time>2014-05-25T13:18:19Z</time>
      </trkpt>
      <trkpt lat="44.50759" lon="-0.80218">
        <ele>23</ele>
        <time>2014-05-25T13:18:24Z</time>
      </trkpt>
      <trkpt lat="44.50756" lon="-0.80245">
        <ele>24</ele>
        <time>2014-05-25T13:18:31Z</time>
      </trkpt>
      <trkpt lat="44.50754" lon="-0.80257">
        <ele>25</ele>
        <time>2014-05-25T13:18:34Z</time>
      </trkpt>
      <trkpt lat="44.50754" lon="-0.80278">
        <ele>25</ele>
        <time>2014-05-25T13:18:39Z</time>
      </trkpt>
      <trkpt lat="44.50754" lon="-0.80283">
        <ele>25</ele>
        <time>2014-05-25T13:18:40Z</time>
      </trkpt>
      <trkpt lat="44.50754" lon="-0.80314">
        <ele>25</ele>
        <time>2014-05-25T13:18:48Z</time>
      </trkpt>
      <trkpt lat="44.50754" lon="-0.80318">
        <ele>25</ele>
        <time>2014-05-25T13:18:49Z</time>
      </trkpt>
      <trkpt lat="44.50759" lon="-0.80334">
        <ele>24</ele>
        <time>2014-05-25T13:18:54Z</time>
      </trkpt>
      <trkpt lat="44.50754" lon="-0.80354">
        <ele>24</ele>
        <time>2014-05-25T13:18:59Z</time>
      </trkpt>
      <trkpt lat="44.50751" lon="-0.80369">
        <ele>25</ele>
        <time>2014-05-25T13:19:02Z</time>
      </trkpt>
      <trkpt lat="44.50749" lon="-0.8038">
        <ele>25</ele>
        <time>2014-05-25T13:19:04Z</time>
      </trkpt>
      <trkpt lat="44.5074" lon="-0.80406">
        <ele>27</ele>
        <time>2014-05-25T13:19:10Z</time>
      </trkpt>
      <trkpt lat="44.50739" lon="-0.80408">
        <ele>27</ele>
        <time>2014-05-25T13:19:11Z</time>
      </trkpt>
      <trkpt lat="44.50737" lon="-0.80424">
        <ele>27</ele>
        <time>2014-05-25T13:19:16Z</time>
      </trkpt>
      <trkpt lat="44.50736" lon="-0.80428">
        <ele>27</ele>
        <time>2014-05-25T13:19:17Z</time>
      </trkpt>
      <trkpt lat="44.5073" lon="-0.80458">
        <ele>27</ele>
        <time>2014-05-25T13:19:24Z</time>
      </trkpt>
      <trkpt lat="44.50727" lon="-0.80482">
        <ele>27</ele>
        <time>2014-05-25T13:19:29Z</time>
      </trkpt>
      <trkpt lat="44.50722" lon="-0.80504">
        <ele>27</ele>
        <time>2014-05-25T13:19:35Z</time>
      </trkpt>
      <trkpt lat="44.5072" lon="-0.80517">
        <ele>27</ele>
        <time>2014-05-25T13:19:40Z</time>
      </trkpt>
      <trkpt lat="44.50716" lon="-0.80533">
        <ele>27</ele>
        <time>2014-05-25T13:19:45Z</time>
      </trkpt>
      <trkpt lat="44.5071" lon="-0.80552">
        <ele>27</ele>
        <time>2014-05-25T13:19:51Z</time>
      </trkpt>
      <trkpt lat="44.50703" lon="-0.80569">
        <ele>26</ele>
        <time>2014-05-25T13:19:56Z</time>
      </trkpt>
      <trkpt lat="44.507" lon="-0.80579">
        <ele>26</ele>
        <time>2014-05-25T13:20:00Z</time>
      </trkpt>
      <trkpt lat="44.50694" lon="-0.80593">
        <ele>25</ele>
        <time>2014-05-25T13:20:05Z</time>
      </trkpt>
      <trkpt lat="44.50685" lon="-0.80612">
        <ele>24</ele>
        <time>2014-05-25T13:20:12Z</time>
      </trkpt>
      <trkpt lat="44.50682" lon="-0.80617">
        <ele>24</ele>
        <time>2014-05-25T13:20:15Z</time>
      </trkpt>
      <trkpt lat="44.50676" lon="-0.80632">
        <ele>24</ele>
        <time>2014-05-25T13:20:21Z</time>
      </trkpt>
      <trkpt lat="44.50669" lon="-0.80642">
        <ele>24</ele>
        <time>2014-05-25T13:20:26Z</time>
      </trkpt>
      <trkpt lat="44.50665" lon="-0.80647">
        <ele>24</ele>
        <time>2014-05-25T13:20:30Z</time>
      </trkpt>
      <trkpt lat="44.50661" lon="-0.80654">
        <ele>23</ele>
        <time>2014-05-25T13:20:34Z</time>
      </trkpt>
      <trkpt lat="44.50652" lon="-0.80667">
        <ele>23</ele>
        <time>2014-05-25T13:20:41Z</time>
      </trkpt>
      <trkpt lat="44.50644" lon="-0.80681">
        <ele>23</ele>
        <time>2014-05-25T13:20:47Z</time>
      </trkpt>
      <trkpt lat="44.50637" lon="-0.80695">
        <ele>22</ele>
        <time>2014-05-25T13:20:53Z</time>
      </trkpt>
      <trkpt lat="44.50632" lon="-0.80708">
        <ele>22</ele>
        <time>2014-05-25T13:20:59Z</time>
      </trkpt>
      <trkpt lat="44.50628" lon="-0.80713">
        <ele>22</ele>
        <time>2014-05-25T13:21:01Z</time>
      </trkpt>
      <trkpt lat="44.50619" lon="-0.80733">
        <ele>23</ele>
        <time>2014-05-25T13:21:08Z</time>
      </trkpt>
      <trkpt lat="44.50613" lon="-0.80737">
        <ele>24</ele>
        <time>2014-05-25T13:21:11Z</time>
      </trkpt>
      <trkpt lat="44.50608" lon="-0.80737">
        <ele>24</ele>
        <time>2014-05-25T13:21:15Z</time>
      </trkpt>
      <trkpt lat="44.50601" lon="-0.80723">
        <ele>27</ele>
        <time>2014-05-25T13:21:21Z</time>
      </trkpt>
      <trkpt lat="44.50599" lon="-0.80717">
        <ele>27</ele>
        <time>2014-05-25T13:21:23Z</time>
      </trkpt>
      <trkpt lat="44.5059" lon="-0.80699">
        <ele>29</ele>
        <time>2014-05-25T13:21:30Z</time>
      </trkpt>
      <trkpt lat="44.50582" lon="-0.80684">
        <ele>30</ele>
        <time>2014-05-25T13:21:35Z</time>
      </trkpt>
      <trkpt lat="44.50572" lon="-0.80667">
        <ele>32</ele>
        <time>2014-05-25T13:21:42Z</time>
      </trkpt>
      <trkpt lat="44.50566" lon="-0.80654">
        <ele>33</ele>
        <time>2014-05-25T13:21:47Z</time>
      </trkpt>
      <trkpt lat="44.50558" lon="-0.80634">
        <ele>33</ele>
        <time>2014-05-25T13:21:54Z</time>
      </trkpt>
      <trkpt lat="44.50551" lon="-0.80611">
        <ele>33</ele>
        <time>2014-05-25T13:22:01Z</time>
      </trkpt>
      <trkpt lat="44.50547" lon="-0.80581">
        <ele>32</ele>
        <time>2014-05-25T13:22:09Z</time>
      </trkpt>
      <trkpt lat="44.50543" lon="-0.80564">
        <ele>32</ele>
        <time>2014-05-25T13:22:13Z</time>
      </trkpt>
      <trkpt lat="44.5054" lon="-0.80536">
        <ele>32</ele>
        <time>2014-05-25T13:22:21Z</time>
      </trkpt>
      <trkpt lat="44.50538" lon="-0.80513">
        <ele>33</ele>
        <time>2014-05-25T13:22:26Z</time>
      </trkpt>
      <trkpt lat="44.50538" lon="-0.80497">
        <ele>34</ele>
        <time>2014-05-25T13:22:30Z</time>
      </trkpt>
      <trkpt lat="44.50533" lon="-0.80474">
        <ele>35</ele>
        <time>2014-05-25T13:22:37Z</time>
      </trkpt>
      <trkpt lat="44.50532" lon="-0.80453">
        <ele>35</ele>
        <time>2014-05-25T13:22:44Z</time>
      </trkpt>
      <trkpt lat="44.50533" lon="-0.80433">
        <ele>35</ele>
        <time>2014-05-25T13:22:50Z</time>
      </trkpt>
      <trkpt lat="44.50535" lon="-0.80417">
        <ele>35</ele>
        <time>2014-05-25T13:22:56Z</time>
      </trkpt>
      <trkpt lat="44.50529" lon="-0.80408">
        <ele>36</ele>
        <time>2014-05-25T13:23:01Z</time>
      </trkpt>
      <trkpt lat="44.50524" lon="-0.80396">
        <ele>36</ele>
        <time>2014-05-25T13:23:08Z</time>
      </trkpt>
      <trkpt lat="44.50523" lon="-0.8039">
        <ele>36</ele>
        <time>2014-05-25T13:23:10Z</time>
      </trkpt>
      <trkpt lat="44.50514" lon="-0.80371">
        <ele>37</ele>
        <time>2014-05-25T13:23:17Z</time>
      </trkpt>
      <trkpt lat="44.50503" lon="-0.80359">
        <ele>38</ele>
        <time>2014-05-25T13:23:21Z</time>
      </trkpt>
      <trkpt lat="44.50486" lon="-0.80343">
        <ele>39</ele>
        <time>2014-05-25T13:23:27Z</time>
      </trkpt>
      <trkpt lat="44.50485" lon="-0.80341">
        <ele>39</ele>
        <time>2014-05-25T13:23:28Z</time>
      </trkpt>
      <trkpt lat="44.50473" lon="-0.8033">
        <ele>39</ele>
        <time>2014-05-25T13:23:33Z</time>
      </trkpt>
      <trkpt lat="44.50462" lon="-0.80324">
        <ele>39</ele>
        <time>2014-05-25T13:23:36Z</time>
      </trkpt>
      <trkpt lat="44.50427" lon="-0.80322">
        <ele>40</ele>
        <time>2014-05-25T13:23:45Z</time>
      </trkpt>
      <trkpt lat="44.50411" lon="-0.80306">
        <ele>40</ele>
        <time>2014-05-25T13:23:50Z</time>
      </trkpt>
      <trkpt lat="44.50395" lon="-0.80295">
        <ele>40</ele>
        <time>2014-05-25T13:23:55Z</time>
      </trkpt>
      <trkpt lat="44.50374" lon="-0.80278">
        <ele>40</ele>
        <time>2014-05-25T13:24:02Z</time>
      </trkpt>
      <trkpt lat="44.5036" lon="-0.80268">
        <ele>40</ele>
        <time>2014-05-25T13:24:07Z</time>
      </trkpt>
      <trkpt lat="44.50349" lon="-0.80252">
        <ele>40</ele>
        <time>2014-05-25T13:24:12Z</time>
      </trkpt>
      <trkpt lat="44.50336" lon="-0.80223">
        <ele>41</ele>
        <time>2014-05-25T13:24:19Z</time>
      </trkpt>
      <trkpt lat="44.50326" lon="-0.8019">
        <ele>41</ele>
        <time>2014-05-25T13:24:26Z</time>
      </trkpt>
      <trkpt lat="44.50317" lon="-0.80155">
        <ele>41</ele>
        <time>2014-05-25T13:24:33Z</time>
      </trkpt>
      <trkpt lat="44.50312" lon="-0.80128">
        <ele>41</ele>
        <time>2014-05-25T13:24:39Z</time>
      </trkpt>
      <trkpt lat="44.50306" lon="-0.80107">
        <ele>41</ele>
        <time>2014-05-25T13:24:44Z</time>
      </trkpt>
      <trkpt lat="44.50296" lon="-0.80073">
        <ele>41</ele>
        <time>2014-05-25T13:24:52Z</time>
      </trkpt>
      <trkpt lat="44.50287" lon="-0.80048">
        <ele>41</ele>
        <time>2014-05-25T13:24:58Z</time>
      </trkpt>
      <trkpt lat="44.50279" lon="-0.80021">
        <ele>41</ele>
        <time>2014-05-25T13:25:05Z</time>
      </trkpt>
      <trkpt lat="44.50276" lon="-0.79995">
        <ele>41</ele>
        <time>2014-05-25T13:25:13Z</time>
      </trkpt>
      <trkpt lat="44.50275" lon="-0.79991">
        <ele>41</ele>
        <time>2014-05-25T13:25:14Z</time>
      </trkpt>
      <trkpt lat="44.50267" lon="-0.7997">
        <ele>41</ele>
        <time>2014-05-25T13:25:20Z</time>
      </trkpt>
      <trkpt lat="44.50259" lon="-0.79933">
        <ele>41</ele>
        <time>2014-05-25T13:25:28Z</time>
      </trkpt>
      <trkpt lat="44.50248" lon="-0.79906">
        <ele>42</ele>
        <time>2014-05-25T13:25:35Z</time>
      </trkpt>
      <trkpt lat="44.50245" lon="-0.79898">
        <ele>42</ele>
        <time>2014-05-25T13:25:38Z</time>
      </trkpt>
      <trkpt lat="44.50242" lon="-0.79894">
        <ele>42</ele>
        <time>2014-05-25T13:25:45Z</time>
      </trkpt>
      <trkpt lat="44.50239" lon="-0.7989">
        <ele>42</ele>
        <time>2014-05-25T13:25:52Z</time>
      </trkpt>
      <trkpt lat="44.50239" lon="-0.7989">
        <ele>42</ele>
        <time>2014-05-25T13:26:02Z</time>
      </trkpt>
      <trkpt lat="44.5024" lon="-0.79892">
        <ele>42</ele>
        <time>2014-05-25T13:26:23Z</time>
      </trkpt>
      <trkpt lat="44.50239" lon="-0.79892">
        <ele>42</ele>
        <time>2014-05-25T13:26:42Z</time>
      </trkpt>
      <trkpt lat="44.50239" lon="-0.79892">
        <ele>42</ele>
        <time>2014-05-25T13:27:05Z</time>
      </trkpt>
      <trkpt lat="44.50239" lon="-0.79891">
        <ele>42</ele>
        <time>2014-05-25T13:27:27Z</time>
      </trkpt>
      <trkpt lat="44.50239" lon="-0.7989">
        <ele>42</ele>
        <time>2014-05-25T13:27:45Z</time>
      </trkpt>
      <trkpt lat="44.50238" lon="-0.7989">
        <ele>42</ele>
        <time>2014-05-25T13:28:04Z</time>
      </trkpt>
      <trkpt lat="44.50238" lon="-0.79891">
        <ele>42</ele>
        <time>2014-05-25T13:28:26Z</time>
      </trkpt>
      <trkpt lat="44.50238" lon="-0.79891">
        <ele>42</ele>
        <time>2014-05-25T13:28:51Z</time>
      </trkpt>
      <trkpt lat="44.50237" lon="-0.79891">
        <ele>42</ele>
        <time>2014-05-25T13:29:11Z</time>
      </trkpt>
      <trkpt lat="44.50237" lon="-0.79891">
        <ele>42</ele>
        <time>2014-05-25T13:29:32Z</time>
      </trkpt>
      <trkpt lat="44.50237" lon="-0.7989">
        <ele>42</ele>
        <time>2014-05-25T13:29:54Z</time>
      </trkpt>
      <trkpt lat="44.50238" lon="-0.79891">
        <ele>42</ele>
        <time>2014-05-25T13:30:15Z</time>
      </trkpt>
      <trkpt lat="44.50238" lon="-0.79891">
        <ele>42</ele>
        <time>2014-05-25T13:30:32Z</time>
      </trkpt>
      <trkpt lat="44.50238" lon="-0.79891">
        <ele>42</ele>
        <time>2014-05-25T13:30:36Z</time>
      </trkpt>
      <trkpt lat="44.50239" lon="-0.79891">
        <ele>42</ele>
        <time>2014-05-25T13:30:43Z</time>
      </trkpt>
      <trkpt lat="44.50239" lon="-0.7989">
        <ele>42</ele>
        <time>2014-05-25T13:30:51Z</time>
      </trkpt>
      <trkpt lat="44.50239" lon="-0.79891">
        <ele>42</ele>
        <time>2014-05-25T13:30:58Z</time>
      </trkpt>
      <trkpt lat="44.50239" lon="-0.79891">
        <ele>42</ele>
        <time>2014-05-25T13:31:19Z</time>
      </trkpt>
      <trkpt lat="44.50238" lon="-0.79891">
        <ele>42</ele>
        <time>2014-05-25T13:31:40Z</time>
      </trkpt>
      <trkpt lat="44.50238" lon="-0.79891">
        <ele>42</ele>
        <time>2014-05-25T13:32:00Z</time>
      </trkpt>
      <trkpt lat="44.50238" lon="-0.79892">
        <ele>42</ele>
        <time>2014-05-25T13:32:22Z</time>
      </trkpt>
      <trkpt lat="44.50238" lon="-0.79891">
        <ele>42</ele>
        <time>2014-05-25T13:32:38Z</time>
      </trkpt>
      <trkpt lat="44.50238" lon="-0.79891">
        <ele>42</ele>
        <time>2014-05-25T13:32:57Z</time>
      </trkpt>
      <trkpt lat="44.50237" lon="-0.79891">
        <ele>42</ele>
        <time>2014-05-25T13:33:18Z</time>
      </trkpt>
      <trkpt lat="44.50238" lon="-0.79891">
        <ele>42</ele>
        <time>2014-05-25T13:33:42Z</time>
      </trkpt>
      <trkpt lat="44.50238" lon="-0.79891">
        <ele>42</ele>
        <time>2014-05-25T13:34:01Z</time>
      </trkpt>
      <trkpt lat="44.50237" lon="-0.79891">
        <ele>42</ele>
        <time>2014-05-25T13:34:20Z</time>
      </trkpt>
      <trkpt lat="44.50237" lon="-0.79891">
        <ele>42</ele>
        <time>2014-05-25T13:34:38Z</time>
      </trkpt>
      <trkpt lat="44.50238" lon="-0.79893">
        <ele>42</ele>
        <time>2014-05-25T13:34:45Z</time>
      </trkpt>
      <trkpt lat="44.50238" lon="-0.79893">
        <ele>42</ele>
        <time>2014-05-25T13:34:59Z</time>
      </trkpt>
      <trkpt lat="44.50238" lon="-0.79893">
        <ele>42</ele>
        <time>2014-05-25T13:35:09Z</time>
      </trkpt>
      <trkpt lat="44.50239" lon="-0.79893">
        <ele>42</ele>
        <time>2014-05-25T13:35:17Z</time>
      </trkpt>
      <trkpt lat="44.50232" lon="-0.79898">
        <ele>42</ele>
        <time>2014-05-25T13:35:26Z</time>
      </trkpt>
      <trkpt lat="44.50228" lon="-0.79901">
        <ele>42</ele>
        <time>2014-05-25T13:35:32Z</time>
      </trkpt>
      <trkpt lat="44.5022" lon="-0.79906">
        <ele>42</ele>
        <time>2014-05-25T13:35:40Z</time>
      </trkpt>
      <trkpt lat="44.50216" lon="-0.79909">
        <ele>42</ele>
        <time>2014-05-25T13:35:44Z</time>
      </trkpt>
      <trkpt lat="44.50207" lon="-0.79915">
        <ele>42</ele>
        <time>2014-05-25T13:35:49Z</time>
      </trkpt>
      <trkpt lat="44.50191" lon="-0.79927">
        <ele>42</ele>
        <time>2014-05-25T13:35:58Z</time>
      </trkpt>
      <trkpt lat="44.50177" lon="-0.7994">
        <ele>42</ele>
        <time>2014-05-25T13:36:05Z</time>
      </trkpt>
      <trkpt lat="44.5016" lon="-0.79963">
        <ele>42</ele>
        <time>2014-05-25T13:36:13Z</time>
      </trkpt>
      <trkpt lat="44.50151" lon="-0.79988">
        <ele>42</ele>
        <time>2014-05-25T13:36:20Z</time>
      </trkpt>
      <trkpt lat="44.50139" lon="-0.80021">
        <ele>42</ele>
        <time>2014-05-25T13:36:28Z</time>
      </trkpt>
      <trkpt lat="44.50121" lon="-0.80056">
        <ele>42</ele>
        <time>2014-05-25T13:36:37Z</time>
      </trkpt>
      <trkpt lat="44.50105" lon="-0.80097">
        <ele>42</ele>
        <time>2014-05-25T13:36:46Z</time>
      </trkpt>
      <trkpt lat="44.5009" lon="-0.80136">
        <ele>42</ele>
        <time>2014-05-25T13:36:54Z</time>
      </trkpt>
      <trkpt lat="44.50074" lon="-0.8017">
        <ele>42</ele>
        <time>2014-05-25T13:37:02Z</time>
      </trkpt>
      <trkpt lat="44.50061" lon="-0.80199">
        <ele>42</ele>
        <time>2014-05-25T13:37:09Z</time>
      </trkpt>
      <trkpt lat="44.50047" lon="-0.80211">
        <ele>42</ele>
        <time>2014-05-25T13:37:14Z</time>
      </trkpt>
      <trkpt lat="44.50025" lon="-0.80226">
        <ele>41</ele>
        <time>2014-05-25T13:37:21Z</time>
      </trkpt>
      <trkpt lat="44.50005" lon="-0.8024">
        <ele>41</ele>
        <time>2014-05-25T13:37:28Z</time>
      </trkpt>
      <trkpt lat="44.49992" lon="-0.80256">
        <ele>41</ele>
        <time>2014-05-25T13:37:33Z</time>
      </trkpt>
      <trkpt lat="44.49985" lon="-0.80269">
        <ele>40</ele>
        <time>2014-05-25T13:37:36Z</time>
      </trkpt>
      <trkpt lat="44.49982" lon="-0.8027">
        <ele>40</ele>
        <time>2014-05-25T13:37:37Z</time>
      </trkpt>
      <trkpt lat="44.49979" lon="-0.80271">
        <ele>40</ele>
        <time>2014-05-25T13:37:38Z</time>
      </trkpt>
      <trkpt lat="44.49977" lon="-0.80271">
        <ele>40</ele>
        <time>2014-05-25T13:37:39Z</time>
      </trkpt>
      <trkpt lat="44.49975" lon="-0.80272">
        <ele>40</ele>
        <time>2014-05-25T13:37:40Z</time>
      </trkpt>
      <trkpt lat="44.49974" lon="-0.80273">
        <ele>40</ele>
        <time>2014-05-25T13:37:41Z</time>
      </trkpt>
      <trkpt lat="44.49972" lon="-0.80275">
        <ele>40</ele>
        <time>2014-05-25T13:37:42Z</time>
      </trkpt>
      <trkpt lat="44.49969" lon="-0.80275">
        <ele>40</ele>
        <time>2014-05-25T13:37:43Z</time>
      </trkpt>
      <trkpt lat="44.49966" lon="-0.80275">
        <ele>40</ele>
        <time>2014-05-25T13:37:44Z</time>
      </trkpt>
      <trkpt lat="44.49963" lon="-0.80275">
        <ele>40</ele>
        <time>2014-05-25T13:37:45Z</time>
      </trkpt>
      <trkpt lat="44.49959" lon="-0.80275">
        <ele>39</ele>
        <time>2014-05-25T13:37:46Z</time>
      </trkpt>
      <trkpt lat="44.49955" lon="-0.80276">
        <ele>39</ele>
        <time>2014-05-25T13:37:47Z</time>
      </trkpt>
      <trkpt lat="44.49926" lon="-0.80275">
        <ele>39</ele>
        <time>2014-05-25T13:37:55Z</time>
      </trkpt>
      <trkpt lat="44.49915" lon="-0.80277">
        <ele>38</ele>
        <time>2014-05-25T13:37:58Z</time>
      </trkpt>
      <trkpt lat="44.49901" lon="-0.80272">
        <ele>39</ele>
        <time>2014-05-25T13:38:02Z</time>
      </trkpt>
      <trkpt lat="44.49885" lon="-0.80277">
        <ele>38</ele>
        <time>2014-05-25T13:38:07Z</time>
      </trkpt>
      <trkpt lat="44.49882" lon="-0.80287">
        <ele>37</ele>
        <time>2014-05-25T13:38:56Z</time>
      </trkpt>
      <trkpt lat="44.49875" lon="-0.80301">
        <ele>36</ele>
        <time>2014-05-25T13:39:03Z</time>
      </trkpt>
      <trkpt lat="44.49869" lon="-0.80311">
        <ele>34</ele>
        <time>2014-05-25T13:39:08Z</time>
      </trkpt>
      <trkpt lat="44.49864" lon="-0.80324">
        <ele>32</ele>
        <time>2014-05-25T13:39:14Z</time>
      </trkpt>
      <trkpt lat="44.49854" lon="-0.80336">
        <ele>29</ele>
        <time>2014-05-25T13:39:21Z</time>
      </trkpt>
      <trkpt lat="44.49853" lon="-0.80336">
        <ele>29</ele>
        <time>2014-05-25T13:39:27Z</time>
      </trkpt>
      <trkpt lat="44.49847" lon="-0.80341">
        <ele>28</ele>
        <time>2014-05-25T13:39:33Z</time>
      </trkpt>
      <trkpt lat="44.49837" lon="-0.80346">
        <ele>26</ele>
        <time>2014-05-25T13:39:39Z</time>
      </trkpt>
      <trkpt lat="44.49827" lon="-0.80335">
        <ele>26</ele>
        <time>2014-05-25T13:41:05Z</time>
      </trkpt>
      <trkpt lat="44.49827" lon="-0.80335">
        <ele>26</ele>
        <time>2014-05-25T13:41:23Z</time>
      </trkpt>
      <trkpt lat="44.49826" lon="-0.80335">
        <ele>25</ele>
        <time>2014-05-25T13:41:41Z</time>
      </trkpt>
      <trkpt lat="44.49826" lon="-0.80334">
        <ele>25</ele>
        <time>2014-05-25T13:41:52Z</time>
      </trkpt>
      <trkpt lat="44.49825" lon="-0.80334">
        <ele>25</ele>
        <time>2014-05-25T13:41:57Z</time>
      </trkpt>
      <trkpt lat="44.49822" lon="-0.80331">
        <ele>25</ele>
        <time>2014-05-25T13:42:01Z</time>
      </trkpt>
      <trkpt lat="44.49814" lon="-0.80319">
        <ele>24</ele>
        <time>2014-05-25T13:42:07Z</time>
      </trkpt>
      <trkpt lat="44.49805" lon="-0.80301">
        <ele>23</ele>
        <time>2014-05-25T13:42:15Z</time>
      </trkpt>
      <trkpt lat="44.49807" lon="-0.80293">
        <ele>24</ele>
        <time>2014-05-25T13:42:18Z</time>
      </trkpt>
      <trkpt lat="44.49808" lon="-0.80273">
        <ele>26</ele>
        <time>2014-05-25T13:42:25Z</time>
      </trkpt>
      <trkpt lat="44.49807" lon="-0.80253">
        <ele>27</ele>
        <time>2014-05-25T13:42:32Z</time>
      </trkpt>
      <trkpt lat="44.49808" lon="-0.80243">
        <ele>27</ele>
        <time>2014-05-25T13:42:37Z</time>
      </trkpt>
      <trkpt lat="44.49807" lon="-0.80237">
        <ele>28</ele>
        <time>2014-05-25T13:42:40Z</time>
      </trkpt>
      <trkpt lat="44.49803" lon="-0.8023">
        <ele>27</ele>
        <time>2014-05-25T13:42:43Z</time>
      </trkpt>
      <trkpt lat="44.49796" lon="-0.80219">
        <ele>26</ele>
        <time>2014-05-25T13:42:48Z</time>
      </trkpt>
      <trkpt lat="44.49794" lon="-0.80205">
        <ele>27</ele>
        <time>2014-05-25T13:42:52Z</time>
      </trkpt>
      <trkpt lat="44.4979" lon="-0.80174">
        <ele>29</ele>
        <time>2014-05-25T13:43:00Z</time>
      </trkpt>
      <trkpt lat="44.49788" lon="-0.80151">
        <ele>29</ele>
        <time>2014-05-25T13:43:06Z</time>
      </trkpt>
      <trkpt lat="44.49785" lon="-0.80134">
        <ele>29</ele>
        <time>2014-05-25T13:43:12Z</time>
      </trkpt>
      <trkpt lat="44.49783" lon="-0.80117">
        <ele>29</ele>
        <time>2014-05-25T13:43:18Z</time>
      </trkpt>
      <trkpt lat="44.49779" lon="-0.80097">
        <ele>29</ele>
        <time>2014-05-25T13:43:25Z</time>
      </trkpt>
      <trkpt lat="44.49775" lon="-0.80078">
        <ele>28</ele>
        <time>2014-05-25T13:43:32Z</time>
      </trkpt>
      <trkpt lat="44.49775" lon="-0.80075">
        <ele>28</ele>
        <time>2014-05-25T13:43:33Z</time>
      </trkpt>
      <trkpt lat="44.49768" lon="-0.80053">
        <ele>27</ele>
        <time>2014-05-25T13:43:41Z</time>
      </trkpt>
      <trkpt lat="44.49766" lon="-0.80038">
        <ele>26</ele>
        <time>2014-05-25T13:43:48Z</time>
      </trkpt>
      <trkpt lat="44.49768" lon="-0.80023">
        <ele>27</ele>
        <time>2014-05-25T13:43:55Z</time>
      </trkpt>
      <trkpt lat="44.49766" lon="-0.79995">
        <ele>27</ele>
        <time>2014-05-25T13:44:03Z</time>
      </trkpt>
      <trkpt lat="44.49766" lon="-0.79992">
        <ele>26</ele>
        <time>2014-05-25T13:44:04Z</time>
      </trkpt>
      <trkpt lat="44.49763" lon="-0.79982">
        <ele>26</ele>
        <time>2014-05-25T13:44:11Z</time>
      </trkpt>
      <trkpt lat="44.4976" lon="-0.79974">
        <ele>25</ele>
        <time>2014-05-25T13:44:18Z</time>
      </trkpt>
      <trkpt lat="44.49759" lon="-0.79969">
        <ele>25</ele>
        <time>2014-05-25T13:44:20Z</time>
      </trkpt>
      <trkpt lat="44.4976" lon="-0.79963">
        <ele>25</ele>
        <time>2014-05-25T13:44:24Z</time>
      </trkpt>
      <trkpt lat="44.49761" lon="-0.79962">
        <ele>25</ele>
        <time>2014-05-25T13:44:31Z</time>
      </trkpt>
      <trkpt lat="44.49762" lon="-0.79962">
        <ele>26</ele>
        <time>2014-05-25T13:44:37Z</time>
      </trkpt>
      <trkpt lat="44.49764" lon="-0.79958">
        <ele>26</ele>
        <time>2014-05-25T13:44:44Z</time>
      </trkpt>
      <trkpt lat="44.49765" lon="-0.79949">
        <ele>27</ele>
        <time>2014-05-25T13:44:52Z</time>
      </trkpt>
      <trkpt lat="44.49766" lon="-0.79948">
        <ele>27</ele>
        <time>2014-05-25T13:44:54Z</time>
      </trkpt>
      <trkpt lat="44.4977" lon="-0.79938">
        <ele>28</ele>
        <time>2014-05-25T13:44:59Z</time>
      </trkpt>
      <trkpt lat="44.4977" lon="-0.79932">
        <ele>28</ele>
        <time>2014-05-25T13:45:01Z</time>
      </trkpt>
      <trkpt lat="44.49775" lon="-0.79913">
        <ele>29</ele>
        <time>2014-05-25T13:45:08Z</time>
      </trkpt>
      <trkpt lat="44.49777" lon="-0.79901">
        <ele>29</ele>
        <time>2014-05-25T13:45:12Z</time>
      </trkpt>
      <trkpt lat="44.49778" lon="-0.79884">
        <ele>29</ele>
        <time>2014-05-25T13:45:19Z</time>
      </trkpt>
      <trkpt lat="44.49779" lon="-0.79866">
        <ele>29</ele>
        <time>2014-05-25T13:45:25Z</time>
      </trkpt>
      <trkpt lat="44.49778" lon="-0.79839">
        <ele>29</ele>
        <time>2014-05-25T13:45:33Z</time>
      </trkpt>
      <trkpt lat="44.49778" lon="-0.79822">
        <ele>30</ele>
        <time>2014-05-25T13:45:40Z</time>
      </trkpt>
      <trkpt lat="44.49777" lon="-0.79806">
        <ele>30</ele>
        <time>2014-05-25T13:45:45Z</time>
      </trkpt>
      <trkpt lat="44.49775" lon="-0.79796">
        <ele>30</ele>
        <time>2014-05-25T13:45:52Z</time>
      </trkpt>
      <trkpt lat="44.49775" lon="-0.7979">
        <ele>30</ele>
        <time>2014-05-25T13:45:59Z</time>
      </trkpt>
      <trkpt lat="44.49776" lon="-0.79781">
        <ele>31</ele>
        <time>2014-05-25T13:46:07Z</time>
      </trkpt>
      <trkpt lat="44.4978" lon="-0.79774">
        <ele>32</ele>
        <time>2014-05-25T13:46:15Z</time>
      </trkpt>
      <trkpt lat="44.4978" lon="-0.79761">
        <ele>33</ele>
        <time>2014-05-25T13:46:22Z</time>
      </trkpt>
      <trkpt lat="44.49775" lon="-0.79753">
        <ele>33</ele>
        <time>2014-05-25T13:46:27Z</time>
      </trkpt>
      <trkpt lat="44.4977" lon="-0.79747">
        <ele>33</ele>
        <time>2014-05-25T13:46:32Z</time>
      </trkpt>
      <trkpt lat="44.49771" lon="-0.7974">
        <ele>34</ele>
        <time>2014-05-25T13:46:35Z</time>
      </trkpt>
      <trkpt lat="44.49764" lon="-0.79731">
        <ele>34</ele>
        <time>2014-05-25T13:46:41Z</time>
      </trkpt>
      <trkpt lat="44.49755" lon="-0.79729">
        <ele>33</ele>
        <time>2014-05-25T13:46:47Z</time>
      </trkpt>
      <trkpt lat="44.49754" lon="-0.79725">
        <ele>33</ele>
        <time>2014-05-25T13:46:50Z</time>
      </trkpt>
      <trkpt lat="44.49753" lon="-0.79714">
        <ele>34</ele>
        <time>2014-05-25T13:46:54Z</time>
      </trkpt>
      <trkpt lat="44.49752" lon="-0.79705">
        <ele>34</ele>
        <time>2014-05-25T13:46:58Z</time>
      </trkpt>
      <trkpt lat="44.49743" lon="-0.79686">
        <ele>35</ele>
        <time>2014-05-25T13:47:05Z</time>
      </trkpt>
      <trkpt lat="44.4974" lon="-0.79679">
        <ele>35</ele>
        <time>2014-05-25T13:47:07Z</time>
      </trkpt>
      <trkpt lat="44.49739" lon="-0.79658">
        <ele>36</ele>
        <time>2014-05-25T13:47:14Z</time>
      </trkpt>
      <trkpt lat="44.49738" lon="-0.79653">
        <ele>37</ele>
        <time>2014-05-25T13:47:16Z</time>
      </trkpt>
      <trkpt lat="44.49732" lon="-0.79641">
        <ele>37</ele>
        <time>2014-05-25T13:47:21Z</time>
      </trkpt>
      <trkpt lat="44.49717" lon="-0.79632">
        <ele>35</ele>
        <time>2014-05-25T13:47:29Z</time>
      </trkpt>
      <trkpt lat="44.49715" lon="-0.79631">
        <ele>35</ele>
        <time>2014-05-25T13:47:30Z</time>
      </trkpt>
      <trkpt lat="44.49704" lon="-0.79619">
        <ele>34</ele>
        <time>2014-05-25T13:47:36Z</time>
      </trkpt>
      <trkpt lat="44.49699" lon="-0.79608">
        <ele>34</ele>
        <time>2014-05-25T13:47:43Z</time>
      </trkpt>
      <trkpt lat="44.49695" lon="-0.79601">
        <ele>34</ele>
        <time>2014-05-25T13:47:46Z</time>
      </trkpt>
      <trkpt lat="44.49685" lon="-0.79592">
        <ele>33</ele>
        <time>2014-05-25T13:47:52Z</time>
      </trkpt>
      <trkpt lat="44.49679" lon="-0.79594">
        <ele>32</ele>
        <time>2014-05-25T13:47:54Z</time>
      </trkpt>
      <trkpt lat="44.49674" lon="-0.79594">
        <ele>31</ele>
        <time>2014-05-25T13:47:56Z</time>
      </trkpt>
      <trkpt lat="44.4966" lon="-0.79589">
        <ele>30</ele>
        <time>2014-05-25T13:48:04Z</time>
      </trkpt>
      <trkpt lat="44.49652" lon="-0.79586">
        <ele>29</ele>
        <time>2014-05-25T13:48:10Z</time>
      </trkpt>
      <trkpt lat="44.4965" lon="-0.79583">
        <ele>28</ele>
        <time>2014-05-25T13:48:18Z</time>
      </trkpt>
      <trkpt lat="44.4965" lon="-0.79579">
        <ele>29</ele>
        <time>2014-05-25T13:48:35Z</time>
      </trkpt>
      <trkpt lat="44.49649" lon="-0.7958">
        <ele>29</ele>
        <time>2014-05-25T13:48:49Z</time>
      </trkpt>
      <trkpt lat="44.49646" lon="-0.7958">
        <ele>28</ele>
        <time>2014-05-25T13:48:56Z</time>
      </trkpt>
      <trkpt lat="44.49644" lon="-0.7958">
        <ele>28</ele>
        <time>2014-05-25T13:48:57Z</time>
      </trkpt>
      <trkpt lat="44.49636" lon="-0.7957">
        <ele>28</ele>
        <time>2014-05-25T13:49:03Z</time>
      </trkpt>
      <trkpt lat="44.49634" lon="-0.79567">
        <ele>28</ele>
        <time>2014-05-25T13:49:05Z</time>
      </trkpt>
      <trkpt lat="44.49628" lon="-0.7956">
        <ele>29</ele>
        <time>2014-05-25T13:49:09Z</time>
      </trkpt>
      <trkpt lat="44.49615" lon="-0.79551">
        <ele>30</ele>
        <time>2014-05-25T13:49:16Z</time>
      </trkpt>
      <trkpt lat="44.49612" lon="-0.7955">
        <ele>30</ele>
        <time>2014-05-25T13:49:17Z</time>
      </trkpt>
      <trkpt lat="44.4959" lon="-0.7954">
        <ele>31</ele>
        <time>2014-05-25T13:49:23Z</time>
      </trkpt>
      <trkpt lat="44.49582" lon="-0.79531">
        <ele>32</ele>
        <time>2014-05-25T13:49:27Z</time>
      </trkpt>
      <trkpt lat="44.49574" lon="-0.79532">
        <ele>33</ele>
        <time>2014-05-25T13:49:31Z</time>
      </trkpt>
      <trkpt lat="44.49568" lon="-0.79536">
        <ele>32</ele>
        <time>2014-05-25T13:49:34Z</time>
      </trkpt>
      <trkpt lat="44.49555" lon="-0.79547">
        <ele>31</ele>
        <time>2014-05-25T13:49:39Z</time>
      </trkpt>
      <trkpt lat="44.49543" lon="-0.79552">
        <ele>30</ele>
        <time>2014-05-25T13:49:44Z</time>
      </trkpt>
      <trkpt lat="44.49529" lon="-0.79559">
        <ele>29</ele>
        <time>2014-05-25T13:49:51Z</time>
      </trkpt>
      <trkpt lat="44.49514" lon="-0.79558">
        <ele>29</ele>
        <time>2014-05-25T13:49:59Z</time>
      </trkpt>
      <trkpt lat="44.49501" lon="-0.79558">
        <ele>29</ele>
        <time>2014-05-25T13:50:04Z</time>
      </trkpt>
      <trkpt lat="44.49499" lon="-0.79558">
        <ele>29</ele>
        <time>2014-05-25T13:50:05Z</time>
      </trkpt>
      <trkpt lat="44.49483" lon="-0.79558">
        <ele>28</ele>
        <time>2014-05-25T13:50:13Z</time>
      </trkpt>
      <trkpt lat="44.49479" lon="-0.7956">
        <ele>28</ele>
        <time>2014-05-25T13:50:17Z</time>
      </trkpt>
      <trkpt lat="44.49472" lon="-0.79567">
        <ele>27</ele>
        <time>2014-05-25T13:50:20Z</time>
      </trkpt>
      <trkpt lat="44.49463" lon="-0.79563">
        <ele>27</ele>
        <time>2014-05-25T13:50:25Z</time>
      </trkpt>
      <trkpt lat="44.49456" lon="-0.79557">
        <ele>27</ele>
        <time>2014-05-25T13:50:30Z</time>
      </trkpt>
      <trkpt lat="44.49442" lon="-0.79568">
        <ele>24</ele>
        <time>2014-05-25T13:50:38Z</time>
      </trkpt>
      <trkpt lat="44.49431" lon="-0.79575">
        <ele>23</ele>
        <time>2014-05-25T13:50:43Z</time>
      </trkpt>
      <trkpt lat="44.49418" lon="-0.79567">
        <ele>21</ele>
        <time>2014-05-25T13:50:49Z</time>
      </trkpt>
      <trkpt lat="44.49412" lon="-0.79555">
        <ele>20</ele>
        <time>2014-05-25T13:50:55Z</time>
      </trkpt>
      <trkpt lat="44.49411" lon="-0.79553">
        <ele>20</ele>
        <time>2014-05-25T13:51:04Z</time>
      </trkpt>
      <trkpt lat="44.4941" lon="-0.79552">
        <ele>20</ele>
        <time>2014-05-25T13:51:13Z</time>
      </trkpt>
      <trkpt lat="44.49409" lon="-0.79552">
        <ele>20</ele>
        <time>2014-05-25T13:51:28Z</time>
      </trkpt>
      <trkpt lat="44.49409" lon="-0.79546">
        <ele>20</ele>
        <time>2014-05-25T13:51:36Z</time>
      </trkpt>
      <trkpt lat="44.49405" lon="-0.79526">
        <ele>20</ele>
        <time>2014-05-25T13:51:43Z</time>
      </trkpt>
      <trkpt lat="44.49404" lon="-0.79518">
        <ele>20</ele>
        <time>2014-05-25T13:51:46Z</time>
      </trkpt>
      <trkpt lat="44.49401" lon="-0.79499">
        <ele>21</ele>
        <time>2014-05-25T13:51:52Z</time>
      </trkpt>
      <trkpt lat="44.49401" lon="-0.79492">
        <ele>21</ele>
        <time>2014-05-25T13:51:54Z</time>
      </trkpt>
      <trkpt lat="44.49403" lon="-0.79466">
        <ele>22</ele>
        <time>2014-05-25T13:52:01Z</time>
      </trkpt>
      <trkpt lat="44.49403" lon="-0.79462">
        <ele>22</ele>
        <time>2014-05-25T13:52:02Z</time>
      </trkpt>
      <trkpt lat="44.49397" lon="-0.79453">
        <ele>23</ele>
        <time>2014-05-25T13:52:08Z</time>
      </trkpt>
      <trkpt lat="44.4938" lon="-0.79447">
        <ele>23</ele>
        <time>2014-05-25T13:52:14Z</time>
      </trkpt>
      <trkpt lat="44.4936" lon="-0.79435">
        <ele>24</ele>
        <time>2014-05-25T13:52:21Z</time>
      </trkpt>
      <trkpt lat="44.49341" lon="-0.79427">
        <ele>25</ele>
        <time>2014-05-25T13:52:27Z</time>
      </trkpt>
      <trkpt lat="44.49337" lon="-0.79426">
        <ele>25</ele>
        <time>2014-05-25T13:52:28Z</time>
      </trkpt>
      <trkpt lat="44.49334" lon="-0.79425">
        <ele>25</ele>
        <time>2014-05-25T13:52:29Z</time>
      </trkpt>
      <trkpt lat="44.49331" lon="-0.79423">
        <ele>26</ele>
        <time>2014-05-25T13:52:30Z</time>
      </trkpt>
      <trkpt lat="44.49328" lon="-0.79422">
        <ele>26</ele>
        <time>2014-05-25T13:52:31Z</time>
      </trkpt>
      <trkpt lat="44.49325" lon="-0.7942">
        <ele>26</ele>
        <time>2014-05-25T13:52:32Z</time>
      </trkpt>
      <trkpt lat="44.49305" lon="-0.79412">
        <ele>26</ele>
        <time>2014-05-25T13:52:38Z</time>
      </trkpt>
      <trkpt lat="44.49274" lon="-0.79394">
        <ele>26</ele>
        <time>2014-05-25T13:52:47Z</time>
      </trkpt>
      <trkpt lat="44.49253" lon="-0.79381">
        <ele>24</ele>
        <time>2014-05-25T13:52:53Z</time>
      </trkpt>
      <trkpt lat="44.49249" lon="-0.79379">
        <ele>23</ele>
        <time>2014-05-25T13:52:54Z</time>
      </trkpt>
      <trkpt lat="44.49244" lon="-0.79377">
        <ele>23</ele>
        <time>2014-05-25T13:52:55Z</time>
      </trkpt>
      <trkpt lat="44.49203" lon="-0.79367">
        <ele>24</ele>
        <time>2014-05-25T13:53:02Z</time>
      </trkpt>
      <trkpt lat="44.49188" lon="-0.79371">
        <ele>25</ele>
        <time>2014-05-25T13:53:07Z</time>
      </trkpt>
      <trkpt lat="44.49187" lon="-0.79376">
        <ele>25</ele>
        <time>2014-05-25T13:53:08Z</time>
      </trkpt>
      <trkpt lat="44.49185" lon="-0.79381">
        <ele>25</ele>
        <time>2014-05-25T13:53:09Z</time>
      </trkpt>
      <trkpt lat="44.4917" lon="-0.79423">
        <ele>25</ele>
        <time>2014-05-25T13:53:16Z</time>
      </trkpt>
      <trkpt lat="44.49163" lon="-0.7944">
        <ele>26</ele>
        <time>2014-05-25T13:53:20Z</time>
      </trkpt>
      <trkpt lat="44.49158" lon="-0.79454">
        <ele>26</ele>
        <time>2014-05-25T13:53:28Z</time>
      </trkpt>
      <trkpt lat="44.49154" lon="-0.79462">
        <ele>26</ele>
        <time>2014-05-25T13:53:36Z</time>
      </trkpt>
      <trkpt lat="44.49151" lon="-0.79459">
        <ele>26</ele>
        <time>2014-05-25T13:53:43Z</time>
      </trkpt>
      <trkpt lat="44.49152" lon="-0.79458">
        <ele>26</ele>
        <time>2014-05-25T13:53:54Z</time>
      </trkpt>
      <trkpt lat="44.49151" lon="-0.79458">
        <ele>26</ele>
        <time>2014-05-25T13:54:04Z</time>
      </trkpt>
      <trkpt lat="44.49146" lon="-0.79454">
        <ele>27</ele>
        <time>2014-05-25T13:54:08Z</time>
      </trkpt>
      <trkpt lat="44.49135" lon="-0.79453">
        <ele>28</ele>
        <time>2014-05-25T13:54:15Z</time>
      </trkpt>
      <trkpt lat="44.49129" lon="-0.79452">
        <ele>29</ele>
        <time>2014-05-25T13:54:19Z</time>
      </trkpt>
      <trkpt lat="44.4912" lon="-0.79449">
        <ele>31</ele>
        <time>2014-05-25T13:54:25Z</time>
      </trkpt>
      <trkpt lat="44.49106" lon="-0.79442">
        <ele>34</ele>
        <time>2014-05-25T13:54:34Z</time>
      </trkpt>
      <trkpt lat="44.491" lon="-0.7944">
        <ele>35</ele>
        <time>2014-05-25T13:54:39Z</time>
      </trkpt>
      <trkpt lat="44.49093" lon="-0.79436">
        <ele>35</ele>
        <time>2014-05-25T13:54:45Z</time>
      </trkpt>
      <trkpt lat="44.49085" lon="-0.79433">
        <ele>35</ele>
        <time>2014-05-25T13:54:51Z</time>
      </trkpt>
      <trkpt lat="44.49073" lon="-0.79436">
        <ele>36</ele>
        <time>2014-05-25T13:54:59Z</time>
      </trkpt>
      <trkpt lat="44.49064" lon="-0.7943">
        <ele>36</ele>
        <time>2014-05-25T13:55:06Z</time>
      </trkpt>
      <trkpt lat="44.49058" lon="-0.79425">
        <ele>36</ele>
        <time>2014-05-25T13:55:11Z</time>
      </trkpt>
      <trkpt lat="44.49046" lon="-0.79409">
        <ele>36</ele>
        <time>2014-05-25T13:55:19Z</time>
      </trkpt>
      <trkpt lat="44.49038" lon="-0.794">
        <ele>36</ele>
        <time>2014-05-25T13:55:25Z</time>
      </trkpt>
      <trkpt lat="44.49025" lon="-0.79404">
        <ele>37</ele>
        <time>2014-05-25T13:55:32Z</time>
      </trkpt>
      <trkpt lat="44.49019" lon="-0.79406">
        <ele>37</ele>
        <time>2014-05-25T13:55:34Z</time>
      </trkpt>
      <trkpt lat="44.48999" lon="-0.79418">
        <ele>37</ele>
        <time>2014-05-25T13:55:41Z</time>
      </trkpt>
      <trkpt lat="44.48989" lon="-0.79426">
        <ele>37</ele>
        <time>2014-05-25T13:55:45Z</time>
      </trkpt>
      <trkpt lat="44.48988" lon="-0.7943">
        <ele>37</ele>
        <time>2014-05-25T13:55:46Z</time>
      </trkpt>
      <trkpt lat="44.48989" lon="-0.79435">
        <ele>37</ele>
        <time>2014-05-25T13:55:47Z</time>
      </trkpt>
      <trkpt lat="44.48991" lon="-0.79439">
        <ele>37</ele>
        <time>2014-05-25T13:55:48Z</time>
      </trkpt>
      <trkpt lat="44.49004" lon="-0.79473">
        <ele>37</ele>
        <time>2014-05-25T13:55:56Z</time>
      </trkpt>
      <trkpt lat="44.49012" lon="-0.79501">
        <ele>36</ele>
        <time>2014-05-25T13:56:02Z</time>
      </trkpt>
      <trkpt lat="44.49023" lon="-0.79541">
        <ele>35</ele>
        <time>2014-05-25T13:56:09Z</time>
      </trkpt>
      <trkpt lat="44.49039" lon="-0.79593">
        <ele>33</ele>
        <time>2014-05-25T13:56:15Z</time>
      </trkpt>
      <trkpt lat="44.49056" lon="-0.79656">
        <ele>31</ele>
        <time>2014-05-25T13:56:20Z</time>
      </trkpt>
      <trkpt lat="44.49063" lon="-0.79701">
        <ele>30</ele>
        <time>2014-05-25T13:56:23Z</time>
      </trkpt>
      <trkpt lat="44.49063" lon="-0.79716">
        <ele>30</ele>
        <time>2014-05-25T13:56:24Z</time>
      </trkpt>
      <trkpt lat="44.49063" lon="-0.79762">
        <ele>29</ele>
        <time>2014-05-25T13:56:27Z</time>
      </trkpt>
      <trkpt lat="44.49065" lon="-0.79776">
        <ele>28</ele>
        <time>2014-05-25T13:56:28Z</time>
      </trkpt>
      <trkpt lat="44.49067" lon="-0.7979">
        <ele>27</ele>
        <time>2014-05-25T13:56:29Z</time>
      </trkpt>
      <trkpt lat="44.49069" lon="-0.79803">
        <ele>26</ele>
        <time>2014-05-25T13:56:30Z</time>
      </trkpt>
      <trkpt lat="44.49072" lon="-0.79816">
        <ele>25</ele>
        <time>2014-05-25T13:56:31Z</time>
      </trkpt>
      <trkpt lat="44.49091" lon="-0.7988">
        <ele>21</ele>
        <time>2014-05-25T13:56:37Z</time>
      </trkpt>
      <trkpt lat="44.49096" lon="-0.79898">
        <ele>20</ele>
        <time>2014-05-25T13:56:39Z</time>
      </trkpt>
      <trkpt lat="44.49097" lon="-0.79907">
        <ele>20</ele>
        <time>2014-05-25T13:56:40Z</time>
      </trkpt>
      <trkpt lat="44.49096" lon="-0.79914">
        <ele>20</ele>
        <time>2014-05-25T13:56:41Z</time>
      </trkpt>
      <trkpt lat="44.49093" lon="-0.79921">
        <ele>20</ele>
        <time>2014-05-25T13:56:42Z</time>
      </trkpt>
      <trkpt lat="44.49089" lon="-0.79927">
        <ele>20</ele>
        <time>2014-05-25T13:56:43Z</time>
      </trkpt>
      <trkpt lat="44.49085" lon="-0.79931">
        <ele>20</ele>
        <time>2014-05-25T13:56:44Z</time>
      </trkpt>
      <trkpt lat="44.49079" lon="-0.79935">
        <ele>19</ele>
        <time>2014-05-25T13:56:45Z</time>
      </trkpt>
      <trkpt lat="44.49074" lon="-0.79937">
        <ele>19</ele>
        <time>2014-05-25T13:56:46Z</time>
      </trkpt>
      <trkpt lat="44.49069" lon="-0.79939">
        <ele>19</ele>
        <time>2014-05-25T13:56:47Z</time>
      </trkpt>
      <trkpt lat="44.49063" lon="-0.79941">
        <ele>19</ele>
        <time>2014-05-25T13:56:48Z</time>
      </trkpt>
      <trkpt lat="44.49058" lon="-0.79941">
        <ele>19</ele>
        <time>2014-05-25T13:56:49Z</time>
      </trkpt>
      <trkpt lat="44.49053" lon="-0.79941">
        <ele>19</ele>
        <time>2014-05-25T13:56:50Z</time>
      </trkpt>
      <trkpt lat="44.49047" lon="-0.79941">
        <ele>19</ele>
        <time>2014-05-25T13:56:51Z</time>
      </trkpt>
      <trkpt lat="44.49043" lon="-0.79942">
        <ele>19</ele>
        <time>2014-05-25T13:56:52Z</time>
      </trkpt>
      <trkpt lat="44.49039" lon="-0.79944">
        <ele>19</ele>
        <time>2014-05-25T13:56:53Z</time>
      </trkpt>
      <trkpt lat="44.49037" lon="-0.79945">
        <ele>19</ele>
        <time>2014-05-25T13:56:54Z</time>
      </trkpt>
      <trkpt lat="44.49034" lon="-0.79946">
        <ele>19</ele>
        <time>2014-05-25T13:56:55Z</time>
      </trkpt>
      <trkpt lat="44.49031" lon="-0.79947">
        <ele>19</ele>
        <time>2014-05-25T13:56:56Z</time>
      </trkpt>
      <trkpt lat="44.49024" lon="-0.79949">
        <ele>19</ele>
        <time>2014-05-25T13:57:02Z</time>
      </trkpt>
      <trkpt lat="44.49023" lon="-0.7995">
        <ele>19</ele>
        <time>2014-05-25T13:57:10Z</time>
      </trkpt>
      <trkpt lat="44.49022" lon="-0.7995">
        <ele>19</ele>
        <time>2014-05-25T13:57:16Z</time>
      </trkpt>
      <trkpt lat="44.4902" lon="-0.79948">
        <ele>19</ele>
        <time>2014-05-25T13:57:27Z</time>
      </trkpt>
      <trkpt lat="44.49016" lon="-0.7995">
        <ele>19</ele>
        <time>2014-05-25T13:57:35Z</time>
      </trkpt>
      <trkpt lat="44.49005" lon="-0.79954">
        <ele>19</ele>
        <time>2014-05-25T13:57:42Z</time>
      </trkpt>
      <trkpt lat="44.48989" lon="-0.79961">
        <ele>19</ele>
        <time>2014-05-25T13:57:50Z</time>
      </trkpt>
      <trkpt lat="44.48987" lon="-0.79961">
        <ele>19</ele>
        <time>2014-05-25T13:57:51Z</time>
      </trkpt>
      <trkpt lat="44.48986" lon="-0.79962">
        <ele>19</ele>
        <time>2014-05-25T13:57:52Z</time>
      </trkpt>
      <trkpt lat="44.4898" lon="-0.79965">
        <ele>19</ele>
        <time>2014-05-25T13:57:57Z</time>
      </trkpt>
      <trkpt lat="44.48977" lon="-0.79967">
        <ele>19</ele>
        <time>2014-05-25T13:58:03Z</time>
      </trkpt>
      <trkpt lat="44.48974" lon="-0.79971">
        <ele>19</ele>
        <time>2014-05-25T13:58:08Z</time>
      </trkpt>
      <trkpt lat="44.48974" lon="-0.79973">
        <ele>18</ele>
        <time>2014-05-25T13:58:09Z</time>
      </trkpt>
      <trkpt lat="44.48972" lon="-0.79975">
        <ele>18</ele>
        <time>2014-05-25T13:58:10Z</time>
      </trkpt>
      <trkpt lat="44.48971" lon="-0.79976">
        <ele>18</ele>
        <time>2014-05-25T13:58:11Z</time>
      </trkpt>
      <trkpt lat="44.48969" lon="-0.79975">
        <ele>18</ele>
        <time>2014-05-25T13:58:12Z</time>
      </trkpt>
      <trkpt lat="44.48967" lon="-0.79975">
        <ele>18</ele>
        <time>2014-05-25T13:58:13Z</time>
      </trkpt>
      <trkpt lat="44.48964" lon="-0.79975">
        <ele>18</ele>
        <time>2014-05-25T13:58:14Z</time>
      </trkpt>
      <trkpt lat="44.48962" lon="-0.79975">
        <ele>18</ele>
        <time>2014-05-25T13:58:15Z</time>
      </trkpt>
      <trkpt lat="44.48959" lon="-0.79975">
        <ele>18</ele>
        <time>2014-05-25T13:58:16Z</time>
      </trkpt>
      <trkpt lat="44.48956" lon="-0.79975">
        <ele>18</ele>
        <time>2014-05-25T13:58:17Z</time>
      </trkpt>
      <trkpt lat="44.48941" lon="-0.79972">
        <ele>18</ele>
        <time>2014-05-25T13:58:22Z</time>
      </trkpt>
      <trkpt lat="44.4892" lon="-0.79961">
        <ele>18</ele>
        <time>2014-05-25T13:58:28Z</time>
      </trkpt>
      <trkpt lat="44.48902" lon="-0.79948">
        <ele>19</ele>
        <time>2014-05-25T13:58:34Z</time>
      </trkpt>
      <trkpt lat="44.48877" lon="-0.79929">
        <ele>19</ele>
        <time>2014-05-25T13:58:41Z</time>
      </trkpt>
      <trkpt lat="44.48856" lon="-0.79916">
        <ele>20</ele>
        <time>2014-05-25T13:58:47Z</time>
      </trkpt>
      <trkpt lat="44.48838" lon="-0.79905">
        <ele>20</ele>
        <time>2014-05-25T13:58:53Z</time>
      </trkpt>
      <trkpt lat="44.48823" lon="-0.79888">
        <ele>20</ele>
        <time>2014-05-25T13:58:59Z</time>
      </trkpt>
      <trkpt lat="44.48807" lon="-0.79876">
        <ele>19</ele>
        <time>2014-05-25T13:59:04Z</time>
      </trkpt>
      <trkpt lat="44.48787" lon="-0.79858">
        <ele>19</ele>
        <time>2014-05-25T13:59:10Z</time>
      </trkpt>
      <trkpt lat="44.4877" lon="-0.79841">
        <ele>20</ele>
        <time>2014-05-25T13:59:17Z</time>
      </trkpt>
      <trkpt lat="44.48764" lon="-0.79825">
        <ele>21</ele>
        <time>2014-05-25T13:59:21Z</time>
      </trkpt>
      <trkpt lat="44.48762" lon="-0.79824">
        <ele>21</ele>
        <time>2014-05-25T13:59:22Z</time>
      </trkpt>
      <trkpt lat="44.4876" lon="-0.79821">
        <ele>21</ele>
        <time>2014-05-25T13:59:23Z</time>
      </trkpt>
      <trkpt lat="44.48759" lon="-0.79818">
        <ele>21</ele>
        <time>2014-05-25T13:59:24Z</time>
      </trkpt>
      <trkpt lat="44.48757" lon="-0.79814">
        <ele>21</ele>
        <time>2014-05-25T13:59:25Z</time>
      </trkpt>
      <trkpt lat="44.48754" lon="-0.7981">
        <ele>21</ele>
        <time>2014-05-25T13:59:27Z</time>
      </trkpt>
      <trkpt lat="44.48749" lon="-0.79807">
        <ele>20</ele>
        <time>2014-05-25T13:59:30Z</time>
      </trkpt>
      <trkpt lat="44.48748" lon="-0.79805">
        <ele>20</ele>
        <time>2014-05-25T13:59:31Z</time>
      </trkpt>
      <trkpt lat="44.48746" lon="-0.79804">
        <ele>20</ele>
        <time>2014-05-25T13:59:32Z</time>
      </trkpt>
      <trkpt lat="44.48744" lon="-0.79802">
        <ele>20</ele>
        <time>2014-05-25T13:59:33Z</time>
      </trkpt>
      <trkpt lat="44.48742" lon="-0.79799">
        <ele>20</ele>
        <time>2014-05-25T13:59:34Z</time>
      </trkpt>
      <trkpt lat="44.48741" lon="-0.79797">
        <ele>21</ele>
        <time>2014-05-25T13:59:35Z</time>
      </trkpt>
      <trkpt lat="44.48733" lon="-0.79781">
        <ele>22</ele>
        <time>2014-05-25T13:59:41Z</time>
      </trkpt>
      <trkpt lat="44.4873" lon="-0.79776">
        <ele>22</ele>
        <time>2014-05-25T13:59:43Z</time>
      </trkpt>
      <trkpt lat="44.48729" lon="-0.79773">
        <ele>22</ele>
        <time>2014-05-25T13:59:44Z</time>
      </trkpt>
      <trkpt lat="44.48728" lon="-0.79771">
        <ele>23</ele>
        <time>2014-05-25T13:59:45Z</time>
      </trkpt>
      <trkpt lat="44.48727" lon="-0.79768">
        <ele>23</ele>
        <time>2014-05-25T13:59:46Z</time>
      </trkpt>
      <trkpt lat="44.48726" lon="-0.79765">
        <ele>23</ele>
        <time>2014-05-25T13:59:47Z</time>
      </trkpt>
      <trkpt lat="44.48724" lon="-0.79763">
        <ele>23</ele>
        <time>2014-05-25T13:59:48Z</time>
      </trkpt>
      <trkpt lat="44.48722" lon="-0.79761">
        <ele>24</ele>
        <time>2014-05-25T13:59:49Z</time>
      </trkpt>
      <trkpt lat="44.48711" lon="-0.79752">
        <ele>24</ele>
        <time>2014-05-25T13:59:54Z</time>
      </trkpt>
      <trkpt lat="44.4871" lon="-0.79749">
        <ele>24</ele>
        <time>2014-05-25T13:59:55Z</time>
      </trkpt>
      <trkpt lat="44.48709" lon="-0.79747">
        <ele>24</ele>
        <time>2014-05-25T13:59:56Z</time>
      </trkpt>
      <trkpt lat="44.48708" lon="-0.79744">
        <ele>25</ele>
        <time>2014-05-25T13:59:57Z</time>
      </trkpt>
      <trkpt lat="44.48704" lon="-0.79735">
        <ele>25</ele>
        <time>2014-05-25T14:00:02Z</time>
      </trkpt>
      <trkpt lat="44.48699" lon="-0.79726">
        <ele>26</ele>
        <time>2014-05-25T14:00:07Z</time>
      </trkpt>
      <trkpt lat="44.48697" lon="-0.79725">
        <ele>26</ele>
        <time>2014-05-25T14:00:08Z</time>
      </trkpt>
      <trkpt lat="44.48695" lon="-0.79724">
        <ele>26</ele>
        <time>2014-05-25T14:00:09Z</time>
      </trkpt>
      <trkpt lat="44.48694" lon="-0.79723">
        <ele>26</ele>
        <time>2014-05-25T14:00:10Z</time>
      </trkpt>
      <trkpt lat="44.48692" lon="-0.79722">
        <ele>26</ele>
        <time>2014-05-25T14:00:11Z</time>
      </trkpt>
      <trkpt lat="44.4869" lon="-0.79721">
        <ele>26</ele>
        <time>2014-05-25T14:00:12Z</time>
      </trkpt>
      <trkpt lat="44.48687" lon="-0.79719">
        <ele>26</ele>
        <time>2014-05-25T14:00:15Z</time>
      </trkpt>
      <trkpt lat="44.48686" lon="-0.79717">
        <ele>26</ele>
        <time>2014-05-25T14:00:16Z</time>
      </trkpt>
      <trkpt lat="44.48671" lon="-0.79704">
        <ele>27</ele>
        <time>2014-05-25T14:00:23Z</time>
      </trkpt>
      <trkpt lat="44.4867" lon="-0.79702">
        <ele>27</ele>
        <time>2014-05-25T14:00:24Z</time>
      </trkpt>
      <trkpt lat="44.48668" lon="-0.797">
        <ele>27</ele>
        <time>2014-05-25T14:00:25Z</time>
      </trkpt>
      <trkpt lat="44.48656" lon="-0.7969">
        <ele>28</ele>
        <time>2014-05-25T14:00:32Z</time>
      </trkpt>
      <trkpt lat="44.48655" lon="-0.79688">
        <ele>28</ele>
        <time>2014-05-25T14:00:33Z</time>
      </trkpt>
      <trkpt lat="44.48653" lon="-0.79687">
        <ele>28</ele>
        <time>2014-05-25T14:00:34Z</time>
      </trkpt>
      <trkpt lat="44.48651" lon="-0.79685">
        <ele>28</ele>
        <time>2014-05-25T14:00:35Z</time>
      </trkpt>
      <trkpt lat="44.4864" lon="-0.79665">
        <ele>30</ele>
        <time>2014-05-25T14:00:42Z</time>
      </trkpt>
      <trkpt lat="44.48627" lon="-0.79648">
        <ele>32</ele>
        <time>2014-05-25T14:00:48Z</time>
      </trkpt>
      <trkpt lat="44.48622" lon="-0.79639">
        <ele>32</ele>
        <time>2014-05-25T14:00:52Z</time>
      </trkpt>
      <trkpt lat="44.4862" lon="-0.79637">
        <ele>32</ele>
        <time>2014-05-25T14:00:53Z</time>
      </trkpt>
      <trkpt lat="44.48609" lon="-0.79624">
        <ele>33</ele>
        <time>2014-05-25T14:01:00Z</time>
      </trkpt>
      <trkpt lat="44.48598" lon="-0.79608">
        <ele>34</ele>
        <time>2014-05-25T14:01:07Z</time>
      </trkpt>
      <trkpt lat="44.48596" lon="-0.79607">
        <ele>34</ele>
        <time>2014-05-25T14:01:08Z</time>
      </trkpt>
      <trkpt lat="44.48595" lon="-0.79605">
        <ele>34</ele>
        <time>2014-05-25T14:01:09Z</time>
      </trkpt>
      <trkpt lat="44.48592" lon="-0.79604">
        <ele>34</ele>
        <time>2014-05-25T14:01:10Z</time>
      </trkpt>
      <trkpt lat="44.48589" lon="-0.79603">
        <ele>34</ele>
        <time>2014-05-25T14:01:11Z</time>
      </trkpt>
      <trkpt lat="44.48587" lon="-0.79604">
        <ele>34</ele>
        <time>2014-05-25T14:01:12Z</time>
      </trkpt>
      <trkpt lat="44.48567" lon="-0.79613">
        <ele>33</ele>
        <time>2014-05-25T14:01:18Z</time>
      </trkpt>
      <trkpt lat="44.48545" lon="-0.79623">
        <ele>33</ele>
        <time>2014-05-25T14:01:24Z</time>
      </trkpt>
      <trkpt lat="44.48512" lon="-0.7964">
        <ele>32</ele>
        <time>2014-05-25T14:01:33Z</time>
      </trkpt>
      <trkpt lat="44.48492" lon="-0.79649">
        <ele>31</ele>
        <time>2014-05-25T14:01:39Z</time>
      </trkpt>
      <trkpt lat="44.48477" lon="-0.79654">
        <ele>31</ele>
        <time>2014-05-25T14:01:45Z</time>
      </trkpt>
      <trkpt lat="44.4847" lon="-0.79638">
        <ele>32</ele>
        <time>2014-05-25T14:01:51Z</time>
      </trkpt>
      <trkpt lat="44.48469" lon="-0.79635">
        <ele>32</ele>
        <time>2014-05-25T14:01:57Z</time>
      </trkpt>
      <trkpt lat="44.48468" lon="-0.79634">
        <ele>32</ele>
        <time>2014-05-25T14:02:08Z</time>
      </trkpt>
      <trkpt lat="44.48461" lon="-0.79632">
        <ele>32</ele>
        <time>2014-05-25T14:02:34Z</time>
      </trkpt>
      <trkpt lat="44.48451" lon="-0.79625">
        <ele>31</ele>
        <time>2014-05-25T14:02:42Z</time>
      </trkpt>
      <trkpt lat="44.48446" lon="-0.79623">
        <ele>31</ele>
        <time>2014-05-25T14:02:45Z</time>
      </trkpt>
      <trkpt lat="44.48442" lon="-0.79618">
        <ele>31</ele>
        <time>2014-05-25T14:02:49Z</time>
      </trkpt>
      <trkpt lat="44.48438" lon="-0.79598">
        <ele>32</ele>
        <time>2014-05-25T14:02:58Z</time>
      </trkpt>
      <trkpt lat="44.48436" lon="-0.79578">
        <ele>32</ele>
        <time>2014-05-25T14:03:05Z</time>
      </trkpt>
      <trkpt lat="44.4843" lon="-0.79559">
        <ele>32</ele>
        <time>2014-05-25T14:03:12Z</time>
      </trkpt>
      <trkpt lat="44.4843" lon="-0.7953">
        <ele>32</ele>
        <time>2014-05-25T14:03:20Z</time>
      </trkpt>
      <trkpt lat="44.48426" lon="-0.79505">
        <ele>33</ele>
        <time>2014-05-25T14:03:28Z</time>
      </trkpt>
      <trkpt lat="44.48423" lon="-0.79482">
        <ele>34</ele>
        <time>2014-05-25T14:03:35Z</time>
      </trkpt>
      <trkpt lat="44.48419" lon="-0.79457">
        <ele>34</ele>
        <time>2014-05-25T14:03:43Z</time>
      </trkpt>
      <trkpt lat="44.48416" lon="-0.79426">
        <ele>35</ele>
        <time>2014-05-25T14:03:52Z</time>
      </trkpt>
      <trkpt lat="44.48413" lon="-0.794">
        <ele>35</ele>
        <time>2014-05-25T14:03:59Z</time>
      </trkpt>
      <trkpt lat="44.48409" lon="-0.79368">
        <ele>36</ele>
        <time>2014-05-25T14:04:07Z</time>
      </trkpt>
      <trkpt lat="44.48408" lon="-0.79358">
        <ele>36</ele>
        <time>2014-05-25T14:04:10Z</time>
      </trkpt>
      <trkpt lat="44.48407" lon="-0.79334">
        <ele>36</ele>
        <time>2014-05-25T14:04:19Z</time>
      </trkpt>
      <trkpt lat="44.48406" lon="-0.79329">
        <ele>36</ele>
        <time>2014-05-25T14:04:26Z</time>
      </trkpt>
      <trkpt lat="44.48408" lon="-0.79327">
        <ele>36</ele>
        <time>2014-05-25T14:04:31Z</time>
      </trkpt>
      <trkpt lat="44.48409" lon="-0.79324">
        <ele>37</ele>
        <time>2014-05-25T14:04:39Z</time>
      </trkpt>
      <trkpt lat="44.48407" lon="-0.79321">
        <ele>37</ele>
        <time>2014-05-25T14:04:45Z</time>
      </trkpt>
      <trkpt lat="44.48406" lon="-0.79316">
        <ele>37</ele>
        <time>2014-05-25T14:04:52Z</time>
      </trkpt>
      <trkpt lat="44.48405" lon="-0.79315">
        <ele>37</ele>
        <time>2014-05-25T14:05:00Z</time>
      </trkpt>
      <trkpt lat="44.48405" lon="-0.79315">
        <ele>37</ele>
        <time>2014-05-25T14:05:11Z</time>
      </trkpt>
      <trkpt lat="44.48405" lon="-0.79314">
        <ele>37</ele>
        <time>2014-05-25T14:05:27Z</time>
      </trkpt>
      <trkpt lat="44.48406" lon="-0.79314">
        <ele>37</ele>
        <time>2014-05-25T14:05:42Z</time>
      </trkpt>
      <trkpt lat="44.48406" lon="-0.79314">
        <ele>37</ele>
        <time>2014-05-25T14:05:58Z</time>
      </trkpt>
      <trkpt lat="44.48406" lon="-0.79313">
        <ele>37</ele>
        <time>2014-05-25T14:06:14Z</time>
      </trkpt>
      <trkpt lat="44.48406" lon="-0.79312">
        <ele>37</ele>
        <time>2014-05-25T14:06:29Z</time>
      </trkpt>
      <trkpt lat="44.48406" lon="-0.7931">
        <ele>37</ele>
        <time>2014-05-25T14:06:39Z</time>
      </trkpt>
      <trkpt lat="44.48405" lon="-0.7931">
        <ele>37</ele>
        <time>2014-05-25T14:06:46Z</time>
      </trkpt>
      <trkpt lat="44.48405" lon="-0.79311">
        <ele>37</ele>
        <time>2014-05-25T14:07:02Z</time>
      </trkpt>
      <trkpt lat="44.48404" lon="-0.79309">
        <ele>37</ele>
        <time>2014-05-25T14:07:10Z</time>
      </trkpt>
      <trkpt lat="44.48404" lon="-0.79307">
        <ele>37</ele>
        <time>2014-05-25T14:07:11Z</time>
      </trkpt>
      <trkpt lat="44.48403" lon="-0.79297">
        <ele>37</ele>
        <time>2014-05-25T14:07:17Z</time>
      </trkpt>
      <trkpt lat="44.48401" lon="-0.79284">
        <ele>37</ele>
        <time>2014-05-25T14:07:23Z</time>
      </trkpt>
      <trkpt lat="44.48396" lon="-0.79264">
        <ele>38</ele>
        <time>2014-05-25T14:07:31Z</time>
      </trkpt>
      <trkpt lat="44.48389" lon="-0.79246">
        <ele>38</ele>
        <time>2014-05-25T14:07:38Z</time>
      </trkpt>
      <trkpt lat="44.48383" lon="-0.79224">
        <ele>39</ele>
        <time>2014-05-25T14:07:45Z</time>
      </trkpt>
      <trkpt lat="44.48374" lon="-0.79204">
        <ele>40</ele>
        <time>2014-05-25T14:07:53Z</time>
      </trkpt>
      <trkpt lat="44.48368" lon="-0.7919">
        <ele>41</ele>
        <time>2014-05-25T14:07:58Z</time>
      </trkpt>
      <trkpt lat="44.48364" lon="-0.7918">
        <ele>42</ele>
        <time>2014-05-25T14:08:02Z</time>
      </trkpt>
      <trkpt lat="44.48356" lon="-0.79165">
        <ele>43</ele>
        <time>2014-05-25T14:08:08Z</time>
      </trkpt>
      <trkpt lat="44.48353" lon="-0.79159">
        <ele>43</ele>
        <time>2014-05-25T14:08:10Z</time>
      </trkpt>
      <trkpt lat="44.48339" lon="-0.79129">
        <ele>43</ele>
        <time>2014-05-25T14:08:19Z</time>
      </trkpt>
      <trkpt lat="44.48329" lon="-0.79099">
        <ele>40</ele>
        <time>2014-05-25T14:08:27Z</time>
      </trkpt>
      <trkpt lat="44.48331" lon="-0.79078">
        <ele>39</ele>
        <time>2014-05-25T14:08:32Z</time>
      </trkpt>
      <trkpt lat="44.48326" lon="-0.79055">
        <ele>37</ele>
        <time>2014-05-25T14:08:39Z</time>
      </trkpt>
      <trkpt lat="44.48318" lon="-0.79031">
        <ele>34</ele>
        <time>2014-05-25T14:08:45Z</time>
      </trkpt>
      <trkpt lat="44.48317" lon="-0.79026">
        <ele>34</ele>
        <time>2014-05-25T14:08:46Z</time>
      </trkpt>
      <trkpt lat="44.48318" lon="-0.79015">
        <ele>34</ele>
        <time>2014-05-25T14:08:49Z</time>
      </trkpt>
      <trkpt lat="44.4832" lon="-0.79007">
        <ele>35</ele>
        <time>2014-05-25T14:08:52Z</time>
      </trkpt>
      <trkpt lat="44.48326" lon="-0.78971">
        <ele>36</ele>
        <time>2014-05-25T14:08:56Z</time>
      </trkpt>
      <trkpt lat="44.48321" lon="-0.78956">
        <ele>37</ele>
        <time>2014-05-25T14:09:01Z</time>
      </trkpt>
      <trkpt lat="44.48319" lon="-0.78951">
        <ele>38</ele>
        <time>2014-05-25T14:09:04Z</time>
      </trkpt>
      <trkpt lat="44.48312" lon="-0.78935">
        <ele>39</ele>
        <time>2014-05-25T14:09:10Z</time>
      </trkpt>
      <trkpt lat="44.48312" lon="-0.78933">
        <ele>40</ele>
        <time>2014-05-25T14:09:11Z</time>
      </trkpt>
      <trkpt lat="44.4831" lon="-0.78924">
        <ele>40</ele>
        <time>2014-05-25T14:09:14Z</time>
      </trkpt>
      <trkpt lat="44.48298" lon="-0.7891">
        <ele>42</ele>
        <time>2014-05-25T14:09:22Z</time>
      </trkpt>
      <trkpt lat="44.48298" lon="-0.78899">
        <ele>42</ele>
        <time>2014-05-25T14:09:26Z</time>
      </trkpt>
      <trkpt lat="44.48293" lon="-0.78875">
        <ele>43</ele>
        <time>2014-05-25T14:09:35Z</time>
      </trkpt>
      <trkpt lat="44.48287" lon="-0.78857">
        <ele>43</ele>
        <time>2014-05-25T14:09:41Z</time>
      </trkpt>
      <trkpt lat="44.48281" lon="-0.78832">
        <ele>44</ele>
        <time>2014-05-25T14:09:49Z</time>
      </trkpt>
      <trkpt lat="44.48275" lon="-0.788">
        <ele>44</ele>
        <time>2014-05-25T14:09:58Z</time>
      </trkpt>
      <trkpt lat="44.48275" lon="-0.78793">
        <ele>44</ele>
        <time>2014-05-25T14:10:00Z</time>
      </trkpt>
      <trkpt lat="44.48268" lon="-0.7876">
        <ele>44</ele>
        <time>2014-05-25T14:10:10Z</time>
      </trkpt>
      <trkpt lat="44.48257" lon="-0.78736">
        <ele>44</ele>
        <time>2014-05-25T14:10:17Z</time>
      </trkpt>
      <trkpt lat="44.48246" lon="-0.78703">
        <ele>44</ele>
        <time>2014-05-25T14:10:25Z</time>
      </trkpt>
      <trkpt lat="44.48233" lon="-0.78668">
        <ele>43</ele>
        <time>2014-05-25T14:10:33Z</time>
      </trkpt>
      <trkpt lat="44.4822" lon="-0.78634">
        <ele>43</ele>
        <time>2014-05-25T14:10:41Z</time>
      </trkpt>
      <trkpt lat="44.4821" lon="-0.78607">
        <ele>42</ele>
        <time>2014-05-25T14:10:47Z</time>
      </trkpt>
      <trkpt lat="44.48206" lon="-0.78598">
        <ele>42</ele>
        <time>2014-05-25T14:10:49Z</time>
      </trkpt>
      <trkpt lat="44.48199" lon="-0.78576">
        <ele>42</ele>
        <time>2014-05-25T14:10:53Z</time>
      </trkpt>
      <trkpt lat="44.48197" lon="-0.78571">
        <ele>42</ele>
        <time>2014-05-25T14:10:54Z</time>
      </trkpt>
      <trkpt lat="44.48188" lon="-0.78546">
        <ele>42</ele>
        <time>2014-05-25T14:10:59Z</time>
      </trkpt>
      <trkpt lat="44.48186" lon="-0.78541">
        <ele>42</ele>
        <time>2014-05-25T14:11:00Z</time>
      </trkpt>
      <trkpt lat="44.48174" lon="-0.78518">
        <ele>41</ele>
        <time>2014-05-25T14:11:05Z</time>
      </trkpt>
      <trkpt lat="44.48172" lon="-0.78513">
        <ele>41</ele>
        <time>2014-05-25T14:11:06Z</time>
      </trkpt>
      <trkpt lat="44.48159" lon="-0.7848">
        <ele>41</ele>
        <time>2014-05-25T14:11:13Z</time>
      </trkpt>
      <trkpt lat="44.48145" lon="-0.78456">
        <ele>41</ele>
        <time>2014-05-25T14:11:20Z</time>
      </trkpt>
      <trkpt lat="44.48126" lon="-0.78445">
        <ele>41</ele>
        <time>2014-05-25T14:11:27Z</time>
      </trkpt>
      <trkpt lat="44.48115" lon="-0.78419">
        <ele>41</ele>
        <time>2014-05-25T14:11:33Z</time>
      </trkpt>
      <trkpt lat="44.48104" lon="-0.78389">
        <ele>41</ele>
        <time>2014-05-25T14:11:40Z</time>
      </trkpt>
      <trkpt lat="44.48094" lon="-0.78352">
        <ele>42</ele>
        <time>2014-05-25T14:11:48Z</time>
      </trkpt>
      <trkpt lat="44.48092" lon="-0.78347">
        <ele>42</ele>
        <time>2014-05-25T14:11:49Z</time>
      </trkpt>
      <trkpt lat="44.48085" lon="-0.78333">
        <ele>42</ele>
        <time>2014-05-25T14:11:52Z</time>
      </trkpt>
      <trkpt lat="44.48082" lon="-0.78328">
        <ele>42</ele>
        <time>2014-05-25T14:11:53Z</time>
      </trkpt>
      <trkpt lat="44.4808" lon="-0.78323">
        <ele>42</ele>
        <time>2014-05-25T14:11:54Z</time>
      </trkpt>
      <trkpt lat="44.48069" lon="-0.78282">
        <ele>42</ele>
        <time>2014-05-25T14:12:02Z</time>
      </trkpt>
      <trkpt lat="44.48062" lon="-0.78255">
        <ele>42</ele>
        <time>2014-05-25T14:12:07Z</time>
      </trkpt>
      <trkpt lat="44.48056" lon="-0.78241">
        <ele>42</ele>
        <time>2014-05-25T14:12:10Z</time>
      </trkpt>
      <trkpt lat="44.48054" lon="-0.78236">
        <ele>42</ele>
        <time>2014-05-25T14:12:11Z</time>
      </trkpt>
      <trkpt lat="44.48048" lon="-0.7822">
        <ele>42</ele>
        <time>2014-05-25T14:12:14Z</time>
      </trkpt>
      <trkpt lat="44.48046" lon="-0.78215">
        <ele>42</ele>
        <time>2014-05-25T14:12:15Z</time>
      </trkpt>
      <trkpt lat="44.48045" lon="-0.78209">
        <ele>42</ele>
        <time>2014-05-25T14:12:16Z</time>
      </trkpt>
      <trkpt lat="44.48043" lon="-0.78204">
        <ele>42</ele>
        <time>2014-05-25T14:12:17Z</time>
      </trkpt>
      <trkpt lat="44.48041" lon="-0.782">
        <ele>42</ele>
        <time>2014-05-25T14:12:18Z</time>
      </trkpt>
      <trkpt lat="44.4804" lon="-0.78194">
        <ele>42</ele>
        <time>2014-05-25T14:12:19Z</time>
      </trkpt>
      <trkpt lat="44.48039" lon="-0.78189">
        <ele>42</ele>
        <time>2014-05-25T14:12:20Z</time>
      </trkpt>
      <trkpt lat="44.48037" lon="-0.78184">
        <ele>42</ele>
        <time>2014-05-25T14:12:21Z</time>
      </trkpt>
      <trkpt lat="44.48027" lon="-0.78153">
        <ele>42</ele>
        <time>2014-05-25T14:12:27Z</time>
      </trkpt>
      <trkpt lat="44.48015" lon="-0.78116">
        <ele>42</ele>
        <time>2014-05-25T14:12:34Z</time>
      </trkpt>
      <trkpt lat="44.48014" lon="-0.78111">
        <ele>42</ele>
        <time>2014-05-25T14:12:35Z</time>
      </trkpt>
      <trkpt lat="44.48012" lon="-0.78105">
        <ele>42</ele>
        <time>2014-05-25T14:12:36Z</time>
      </trkpt>
      <trkpt lat="44.4801" lon="-0.781">
        <ele>42</ele>
        <time>2014-05-25T14:12:37Z</time>
      </trkpt>
      <trkpt lat="44.48008" lon="-0.78095">
        <ele>42</ele>
        <time>2014-05-25T14:12:38Z</time>
      </trkpt>
      <trkpt lat="44.48001" lon="-0.78069">
        <ele>42</ele>
        <time>2014-05-25T14:12:43Z</time>
      </trkpt>
      <trkpt lat="44.47989" lon="-0.78033">
        <ele>42</ele>
        <time>2014-05-25T14:12:50Z</time>
      </trkpt>
      <trkpt lat="44.47981" lon="-0.78007">
        <ele>42</ele>
        <time>2014-05-25T14:12:55Z</time>
      </trkpt>
      <trkpt lat="44.47966" lon="-0.77983">
        <ele>42</ele>
        <time>2014-05-25T14:13:01Z</time>
      </trkpt>
      <trkpt lat="44.47946" lon="-0.77981">
        <ele>42</ele>
        <time>2014-05-25T14:13:06Z</time>
      </trkpt>
      <trkpt lat="44.47937" lon="-0.77983">
        <ele>42</ele>
        <time>2014-05-25T14:13:08Z</time>
      </trkpt>
      <trkpt lat="44.47906" lon="-0.77994">
        <ele>42</ele>
        <time>2014-05-25T14:13:16Z</time>
      </trkpt>
      <trkpt lat="44.47881" lon="-0.77998">
        <ele>42</ele>
        <time>2014-05-25T14:13:23Z</time>
      </trkpt>
      <trkpt lat="44.47855" lon="-0.78007">
        <ele>41</ele>
        <time>2014-05-25T14:13:30Z</time>
      </trkpt>
      <trkpt lat="44.4783" lon="-0.78021">
        <ele>41</ele>
        <time>2014-05-25T14:13:37Z</time>
      </trkpt>
      <trkpt lat="44.47791" lon="-0.78027">
        <ele>40</ele>
        <time>2014-05-25T14:13:47Z</time>
      </trkpt>
      <trkpt lat="44.47765" lon="-0.7803">
        <ele>40</ele>
        <time>2014-05-25T14:13:54Z</time>
      </trkpt>
      <trkpt lat="44.47753" lon="-0.78032">
        <ele>40</ele>
        <time>2014-05-25T14:13:57Z</time>
      </trkpt>
      <trkpt lat="44.47723" lon="-0.78034">
        <ele>40</ele>
        <time>2014-05-25T14:14:04Z</time>
      </trkpt>
      <trkpt lat="44.47685" lon="-0.78038">
        <ele>40</ele>
        <time>2014-05-25T14:14:13Z</time>
      </trkpt>
      <trkpt lat="44.47661" lon="-0.78039">
        <ele>40</ele>
        <time>2014-05-25T14:14:20Z</time>
      </trkpt>
      <trkpt lat="44.47636" lon="-0.78041">
        <ele>40</ele>
        <time>2014-05-25T14:14:27Z</time>
      </trkpt>
      <trkpt lat="44.47611" lon="-0.78044">
        <ele>40</ele>
        <time>2014-05-25T14:14:33Z</time>
      </trkpt>
      <trkpt lat="44.47574" lon="-0.78046">
        <ele>40</ele>
        <time>2014-05-25T14:14:42Z</time>
      </trkpt>
      <trkpt lat="44.47551" lon="-0.78044">
        <ele>40</ele>
        <time>2014-05-25T14:14:49Z</time>
      </trkpt>
      <trkpt lat="44.47533" lon="-0.78046">
        <ele>40</ele>
        <time>2014-05-25T14:14:54Z</time>
      </trkpt>
      <trkpt lat="44.47516" lon="-0.78048">
        <ele>40</ele>
        <time>2014-05-25T14:14:59Z</time>
      </trkpt>
      <trkpt lat="44.47487" lon="-0.78053">
        <ele>39</ele>
        <time>2014-05-25T14:15:07Z</time>
      </trkpt>
      <trkpt lat="44.47458" lon="-0.78053">
        <ele>39</ele>
        <time>2014-05-25T14:15:15Z</time>
      </trkpt>
      <trkpt lat="44.47435" lon="-0.78053">
        <ele>39</ele>
        <time>2014-05-25T14:15:21Z</time>
      </trkpt>
      <trkpt lat="44.47403" lon="-0.78055">
        <ele>39</ele>
        <time>2014-05-25T14:15:29Z</time>
      </trkpt>
      <trkpt lat="44.47371" lon="-0.7806">
        <ele>39</ele>
        <time>2014-05-25T14:15:37Z</time>
      </trkpt>
      <trkpt lat="44.47346" lon="-0.78063">
        <ele>39</ele>
        <time>2014-05-25T14:15:44Z</time>
      </trkpt>
      <trkpt lat="44.47342" lon="-0.78064">
        <ele>39</ele>
        <time>2014-05-25T14:15:45Z</time>
      </trkpt>
      <trkpt lat="44.47322" lon="-0.78067">
        <ele>39</ele>
        <time>2014-05-25T14:15:51Z</time>
      </trkpt>
      <trkpt lat="44.47301" lon="-0.78067">
        <ele>39</ele>
        <time>2014-05-25T14:15:56Z</time>
      </trkpt>
      <trkpt lat="44.47287" lon="-0.78064">
        <ele>39</ele>
        <time>2014-05-25T14:15:59Z</time>
      </trkpt>
      <trkpt lat="44.4726" lon="-0.78059">
        <ele>39</ele>
        <time>2014-05-25T14:16:06Z</time>
      </trkpt>
      <trkpt lat="44.47224" lon="-0.78059">
        <ele>40</ele>
        <time>2014-05-25T14:16:15Z</time>
      </trkpt>
      <trkpt lat="44.47204" lon="-0.78069">
        <ele>40</ele>
        <time>2014-05-25T14:16:21Z</time>
      </trkpt>
      <trkpt lat="44.47186" lon="-0.78076">
        <ele>40</ele>
        <time>2014-05-25T14:16:28Z</time>
      </trkpt>
      <trkpt lat="44.47185" lon="-0.78077">
        <ele>40</ele>
        <time>2014-05-25T14:16:29Z</time>
      </trkpt>
      <trkpt lat="44.47183" lon="-0.78078">
        <ele>40</ele>
        <time>2014-05-25T14:16:30Z</time>
      </trkpt>
      <trkpt lat="44.47174" lon="-0.78093">
        <ele>41</ele>
        <time>2014-05-25T14:16:37Z</time>
      </trkpt>
      <trkpt lat="44.47161" lon="-0.78113">
        <ele>40</ele>
        <time>2014-05-25T14:16:45Z</time>
      </trkpt>
      <trkpt lat="44.47151" lon="-0.78132">
        <ele>40</ele>
        <time>2014-05-25T14:16:49Z</time>
      </trkpt>
      <trkpt lat="44.47149" lon="-0.78138">
        <ele>40</ele>
        <time>2014-05-25T14:16:50Z</time>
      </trkpt>
      <trkpt lat="44.47147" lon="-0.78145">
        <ele>40</ele>
        <time>2014-05-25T14:16:51Z</time>
      </trkpt>
      <trkpt lat="44.47147" lon="-0.78151">
        <ele>40</ele>
        <time>2014-05-25T14:16:52Z</time>
      </trkpt>
      <trkpt lat="44.47147" lon="-0.78157">
        <ele>40</ele>
        <time>2014-05-25T14:16:53Z</time>
      </trkpt>
      <trkpt lat="44.47147" lon="-0.78162">
        <ele>40</ele>
        <time>2014-05-25T14:16:54Z</time>
      </trkpt>
      <trkpt lat="44.47149" lon="-0.78182">
        <ele>40</ele>
        <time>2014-05-25T14:16:59Z</time>
      </trkpt>
      <trkpt lat="44.47146" lon="-0.78213">
        <ele>40</ele>
        <time>2014-05-25T14:17:05Z</time>
      </trkpt>
      <trkpt lat="44.47141" lon="-0.78242">
        <ele>40</ele>
        <time>2014-05-25T14:17:11Z</time>
      </trkpt>
      <trkpt lat="44.47133" lon="-0.7827">
        <ele>40</ele>
        <time>2014-05-25T14:17:17Z</time>
      </trkpt>
      <trkpt lat="44.47123" lon="-0.78287">
        <ele>39</ele>
        <time>2014-05-25T14:17:22Z</time>
      </trkpt>
      <trkpt lat="44.4712" lon="-0.78289">
        <ele>39</ele>
        <time>2014-05-25T14:17:23Z</time>
      </trkpt>
      <trkpt lat="44.47117" lon="-0.78291">
        <ele>39</ele>
        <time>2014-05-25T14:17:24Z</time>
      </trkpt>
      <trkpt lat="44.47104" lon="-0.78306">
        <ele>39</ele>
        <time>2014-05-25T14:17:30Z</time>
      </trkpt>
      <trkpt lat="44.47091" lon="-0.7832">
        <ele>39</ele>
        <time>2014-05-25T14:17:37Z</time>
      </trkpt>
      <trkpt lat="44.47079" lon="-0.78317">
        <ele>39</ele>
        <time>2014-05-25T14:17:42Z</time>
      </trkpt>
      <trkpt lat="44.47058" lon="-0.78307">
        <ele>39</ele>
        <time>2014-05-25T14:17:48Z</time>
      </trkpt>
      <trkpt lat="44.47037" lon="-0.78316">
        <ele>39</ele>
        <time>2014-05-25T14:17:54Z</time>
      </trkpt>
      <trkpt lat="44.47022" lon="-0.78335">
        <ele>39</ele>
        <time>2014-05-25T14:18:00Z</time>
      </trkpt>
      <trkpt lat="44.46995" lon="-0.78352">
        <ele>39</ele>
        <time>2014-05-25T14:18:08Z</time>
      </trkpt>
      <trkpt lat="44.46972" lon="-0.78357">
        <ele>39</ele>
        <time>2014-05-25T14:18:14Z</time>
      </trkpt>
      <trkpt lat="44.46948" lon="-0.78362">
        <ele>39</ele>
        <time>2014-05-25T14:18:21Z</time>
      </trkpt>
      <trkpt lat="44.46931" lon="-0.78375">
        <ele>39</ele>
        <time>2014-05-25T14:18:27Z</time>
      </trkpt>
      <trkpt lat="44.46928" lon="-0.78374">
        <ele>39</ele>
        <time>2014-05-25T14:18:28Z</time>
      </trkpt>
      <trkpt lat="44.46926" lon="-0.78371">
        <ele>39</ele>
        <time>2014-05-25T14:18:29Z</time>
      </trkpt>
      <trkpt lat="44.46925" lon="-0.78368">
        <ele>39</ele>
        <time>2014-05-25T14:18:30Z</time>
      </trkpt>
      <trkpt lat="44.46924" lon="-0.78364">
        <ele>39</ele>
        <time>2014-05-25T14:18:31Z</time>
      </trkpt>
      <trkpt lat="44.46924" lon="-0.7836">
        <ele>39</ele>
        <time>2014-05-25T14:18:32Z</time>
      </trkpt>
      <trkpt lat="44.46924" lon="-0.78355">
        <ele>39</ele>
        <time>2014-05-25T14:18:33Z</time>
      </trkpt>
      <trkpt lat="44.46925" lon="-0.78351">
        <ele>39</ele>
        <time>2014-05-25T14:18:34Z</time>
      </trkpt>
      <trkpt lat="44.46925" lon="-0.78346">
        <ele>39</ele>
        <time>2014-05-25T14:18:35Z</time>
      </trkpt>
      <trkpt lat="44.46925" lon="-0.78341">
        <ele>39</ele>
        <time>2014-05-25T14:18:36Z</time>
      </trkpt>
      <trkpt lat="44.46925" lon="-0.78337">
        <ele>39</ele>
        <time>2014-05-25T14:18:37Z</time>
      </trkpt>
      <trkpt lat="44.46925" lon="-0.78332">
        <ele>39</ele>
        <time>2014-05-25T14:18:38Z</time>
      </trkpt>
      <trkpt lat="44.46924" lon="-0.78293">
        <ele>39</ele>
        <time>2014-05-25T14:18:46Z</time>
      </trkpt>
      <trkpt lat="44.46923" lon="-0.78255">
        <ele>38</ele>
        <time>2014-05-25T14:18:53Z</time>
      </trkpt>
      <trkpt lat="44.46919" lon="-0.78212">
        <ele>38</ele>
        <time>2014-05-25T14:19:01Z</time>
      </trkpt>
      <trkpt lat="44.46919" lon="-0.78206">
        <ele>38</ele>
        <time>2014-05-25T14:19:02Z</time>
      </trkpt>
      <trkpt lat="44.46919" lon="-0.78201">
        <ele>38</ele>
        <time>2014-05-25T14:19:03Z</time>
      </trkpt>
      <trkpt lat="44.4692" lon="-0.78153">
        <ele>38</ele>
        <time>2014-05-25T14:19:12Z</time>
      </trkpt>
      <trkpt lat="44.46918" lon="-0.78125">
        <ele>38</ele>
        <time>2014-05-25T14:19:17Z</time>
      </trkpt>
      <trkpt lat="44.46918" lon="-0.78101">
        <ele>38</ele>
        <time>2014-05-25T14:19:22Z</time>
      </trkpt>
      <trkpt lat="44.46917" lon="-0.78099">
        <ele>38</ele>
        <time>2014-05-25T14:19:23Z</time>
      </trkpt>
      <trkpt lat="44.46914" lon="-0.78098">
        <ele>38</ele>
        <time>2014-05-25T14:19:24Z</time>
      </trkpt>
      <trkpt lat="44.46891" lon="-0.78101">
        <ele>37</ele>
        <time>2014-05-25T14:19:30Z</time>
      </trkpt>
      <trkpt lat="44.46886" lon="-0.78101">
        <ele>37</ele>
        <time>2014-05-25T14:19:31Z</time>
      </trkpt>
      <trkpt lat="44.46865" lon="-0.78104">
        <ele>37</ele>
        <time>2014-05-25T14:19:36Z</time>
      </trkpt>
      <trkpt lat="44.46861" lon="-0.78104">
        <ele>37</ele>
        <time>2014-05-25T14:19:37Z</time>
      </trkpt>
      <trkpt lat="44.46857" lon="-0.78102">
        <ele>37</ele>
        <time>2014-05-25T14:19:38Z</time>
      </trkpt>
      <trkpt lat="44.46854" lon="-0.78099">
        <ele>37</ele>
        <time>2014-05-25T14:19:39Z</time>
      </trkpt>
      <trkpt lat="44.46851" lon="-0.78096">
        <ele>37</ele>
        <time>2014-05-25T14:19:40Z</time>
      </trkpt>
      <trkpt lat="44.46849" lon="-0.78093">
        <ele>38</ele>
        <time>2014-05-25T14:19:41Z</time>
      </trkpt>
      <trkpt lat="44.46846" lon="-0.7809">
        <ele>38</ele>
        <time>2014-05-25T14:19:42Z</time>
      </trkpt>
      <trkpt lat="44.46843" lon="-0.78087">
        <ele>38</ele>
        <time>2014-05-25T14:19:43Z</time>
      </trkpt>
      <trkpt lat="44.46841" lon="-0.78085">
        <ele>38</ele>
        <time>2014-05-25T14:19:44Z</time>
      </trkpt>
      <trkpt lat="44.46839" lon="-0.78083">
        <ele>38</ele>
        <time>2014-05-25T14:19:45Z</time>
      </trkpt>
      <trkpt lat="44.46837" lon="-0.78081">
        <ele>38</ele>
        <time>2014-05-25T14:19:46Z</time>
      </trkpt>
      <trkpt lat="44.46836" lon="-0.78078">
        <ele>38</ele>
        <time>2014-05-25T14:19:47Z</time>
      </trkpt>
      <trkpt lat="44.46835" lon="-0.78074">
        <ele>38</ele>
        <time>2014-05-25T14:19:48Z</time>
      </trkpt>
      <trkpt lat="44.46835" lon="-0.78069">
        <ele>38</ele>
        <time>2014-05-25T14:19:49Z</time>
      </trkpt>
      <trkpt lat="44.46835" lon="-0.78064">
        <ele>38</ele>
        <time>2014-05-25T14:19:50Z</time>
      </trkpt>
      <trkpt lat="44.46836" lon="-0.78059">
        <ele>38</ele>
        <time>2014-05-25T14:19:51Z</time>
      </trkpt>
      <trkpt lat="44.46837" lon="-0.78055">
        <ele>38</ele>
        <time>2014-05-25T14:19:52Z</time>
      </trkpt>
      <trkpt lat="44.46837" lon="-0.7805">
        <ele>38</ele>
        <time>2014-05-25T14:19:53Z</time>
      </trkpt>
      <trkpt lat="44.46843" lon="-0.78002">
        <ele>38</ele>
        <time>2014-05-25T14:20:02Z</time>
      </trkpt>
      <trkpt lat="44.46847" lon="-0.77967">
        <ele>38</ele>
        <time>2014-05-25T14:20:09Z</time>
      </trkpt>
      <trkpt lat="44.46849" lon="-0.7794">
        <ele>38</ele>
        <time>2014-05-25T14:20:15Z</time>
      </trkpt>
      <trkpt lat="44.46853" lon="-0.77914">
        <ele>38</ele>
        <time>2014-05-25T14:20:20Z</time>
      </trkpt>
      <trkpt lat="44.46857" lon="-0.77876">
        <ele>38</ele>
        <time>2014-05-25T14:20:27Z</time>
      </trkpt>
      <trkpt lat="44.46861" lon="-0.77841">
        <ele>37</ele>
        <time>2014-05-25T14:20:34Z</time>
      </trkpt>
      <trkpt lat="44.46863" lon="-0.77803">
        <ele>37</ele>
        <time>2014-05-25T14:20:41Z</time>
      </trkpt>
      <trkpt lat="44.46863" lon="-0.77792">
        <ele>37</ele>
        <time>2014-05-25T14:20:43Z</time>
      </trkpt>
      <trkpt lat="44.46864" lon="-0.77786">
        <ele>37</ele>
        <time>2014-05-25T14:20:44Z</time>
      </trkpt>
      <trkpt lat="44.46864" lon="-0.7778">
        <ele>36</ele>
        <time>2014-05-25T14:20:45Z</time>
      </trkpt>
      <trkpt lat="44.46863" lon="-0.77775">
        <ele>36</ele>
        <time>2014-05-25T14:20:46Z</time>
      </trkpt>
      <trkpt lat="44.46863" lon="-0.77769">
        <ele>36</ele>
        <time>2014-05-25T14:20:47Z</time>
      </trkpt>
      <trkpt lat="44.4686" lon="-0.77742">
        <ele>36</ele>
        <time>2014-05-25T14:20:52Z</time>
      </trkpt>
      <trkpt lat="44.4686" lon="-0.7772">
        <ele>36</ele>
        <time>2014-05-25T14:20:56Z</time>
      </trkpt>
      <trkpt lat="44.46861" lon="-0.77714">
        <ele>36</ele>
        <time>2014-05-25T14:20:57Z</time>
      </trkpt>
      <trkpt lat="44.46862" lon="-0.77707">
        <ele>36</ele>
        <time>2014-05-25T14:20:58Z</time>
      </trkpt>
      <trkpt lat="44.46863" lon="-0.77701">
        <ele>36</ele>
        <time>2014-05-25T14:20:59Z</time>
      </trkpt>
      <trkpt lat="44.46864" lon="-0.77695">
        <ele>36</ele>
        <time>2014-05-25T14:21:00Z</time>
      </trkpt>
      <trkpt lat="44.46864" lon="-0.77673">
        <ele>36</ele>
        <time>2014-05-25T14:21:04Z</time>
      </trkpt>
      <trkpt lat="44.46863" lon="-0.77668">
        <ele>37</ele>
        <time>2014-05-25T14:21:05Z</time>
      </trkpt>
      <trkpt lat="44.46863" lon="-0.77662">
        <ele>37</ele>
        <time>2014-05-25T14:21:06Z</time>
      </trkpt>
      <trkpt lat="44.46862" lon="-0.77657">
        <ele>37</ele>
        <time>2014-05-25T14:21:07Z</time>
      </trkpt>
      <trkpt lat="44.46862" lon="-0.77651">
        <ele>37</ele>
        <time>2014-05-25T14:21:08Z</time>
      </trkpt>
      <trkpt lat="44.46862" lon="-0.77646">
        <ele>37</ele>
        <time>2014-05-25T14:21:09Z</time>
      </trkpt>
      <trkpt lat="44.46866" lon="-0.77618">
        <ele>38</ele>
        <time>2014-05-25T14:21:15Z</time>
      </trkpt>
      <trkpt lat="44.46863" lon="-0.77578">
        <ele>39</ele>
        <time>2014-05-25T14:21:23Z</time>
      </trkpt>
      <trkpt lat="44.46861" lon="-0.77555">
        <ele>40</ele>
        <time>2014-05-25T14:21:30Z</time>
      </trkpt>
      <trkpt lat="44.4686" lon="-0.77542">
        <ele>40</ele>
        <time>2014-05-25T14:21:35Z</time>
      </trkpt>
      <trkpt lat="44.4686" lon="-0.77542">
        <ele>40</ele>
        <time>2014-05-25T14:21:41Z</time>
      </trkpt>
      <trkpt lat="44.4686" lon="-0.77538">
        <ele>40</ele>
        <time>2014-05-25T14:21:47Z</time>
      </trkpt>
      <trkpt lat="44.46859" lon="-0.77534">
        <ele>40</ele>
        <time>2014-05-25T14:21:50Z</time>
      </trkpt>
      <trkpt lat="44.46859" lon="-0.77527">
        <ele>41</ele>
        <time>2014-05-25T14:21:57Z</time>
      </trkpt>
      <trkpt lat="44.46859" lon="-0.7752">
        <ele>41</ele>
        <time>2014-05-25T14:22:02Z</time>
      </trkpt>
      <trkpt lat="44.46857" lon="-0.77489">
        <ele>41</ele>
        <time>2014-05-25T14:22:09Z</time>
      </trkpt>
      <trkpt lat="44.46854" lon="-0.77445">
        <ele>42</ele>
        <time>2014-05-25T14:22:18Z</time>
      </trkpt>
      <trkpt lat="44.46851" lon="-0.77402">
        <ele>42</ele>
        <time>2014-05-25T14:22:26Z</time>
      </trkpt>
      <trkpt lat="44.46849" lon="-0.77366">
        <ele>42</ele>
        <time>2014-05-25T14:22:33Z</time>
      </trkpt>
      <trkpt lat="44.46848" lon="-0.7735">
        <ele>42</ele>
        <time>2014-05-25T14:22:36Z</time>
      </trkpt>
      <trkpt lat="44.46847" lon="-0.77345">
        <ele>42</ele>
        <time>2014-05-25T14:22:37Z</time>
      </trkpt>
      <trkpt lat="44.46847" lon="-0.77339">
        <ele>42</ele>
        <time>2014-05-25T14:22:38Z</time>
      </trkpt>
      <trkpt lat="44.46847" lon="-0.77334">
        <ele>42</ele>
        <time>2014-05-25T14:22:39Z</time>
      </trkpt>
      <trkpt lat="44.46847" lon="-0.77329">
        <ele>42</ele>
        <time>2014-05-25T14:22:40Z</time>
      </trkpt>
      <trkpt lat="44.46845" lon="-0.77301">
        <ele>42</ele>
        <time>2014-05-25T14:22:46Z</time>
      </trkpt>
      <trkpt lat="44.46844" lon="-0.77272">
        <ele>42</ele>
        <time>2014-05-25T14:22:52Z</time>
      </trkpt>
      <trkpt lat="44.4684" lon="-0.77238">
        <ele>41</ele>
        <time>2014-05-25T14:22:58Z</time>
      </trkpt>
      <trkpt lat="44.46835" lon="-0.77191">
        <ele>42</ele>
        <time>2014-05-25T14:23:06Z</time>
      </trkpt>
      <trkpt lat="44.4683" lon="-0.77143">
        <ele>42</ele>
        <time>2014-05-25T14:23:14Z</time>
      </trkpt>
      <trkpt lat="44.46824" lon="-0.77089">
        <ele>42</ele>
        <time>2014-05-25T14:23:23Z</time>
      </trkpt>
      <trkpt lat="44.46817" lon="-0.77021">
        <ele>43</ele>
        <time>2014-05-25T14:23:34Z</time>
      </trkpt>
      <trkpt lat="44.46816" lon="-0.77015">
        <ele>43</ele>
        <time>2014-05-25T14:23:35Z</time>
      </trkpt>
      <trkpt lat="44.46815" lon="-0.77009">
        <ele>43</ele>
        <time>2014-05-25T14:23:36Z</time>
      </trkpt>
      <trkpt lat="44.46814" lon="-0.77003">
        <ele>43</ele>
        <time>2014-05-25T14:23:37Z</time>
      </trkpt>
      <trkpt lat="44.46814" lon="-0.76997">
        <ele>43</ele>
        <time>2014-05-25T14:23:38Z</time>
      </trkpt>
      <trkpt lat="44.46814" lon="-0.76991">
        <ele>43</ele>
        <time>2014-05-25T14:23:39Z</time>
      </trkpt>
      <trkpt lat="44.46814" lon="-0.76985">
        <ele>43</ele>
        <time>2014-05-25T14:23:40Z</time>
      </trkpt>
      <trkpt lat="44.46812" lon="-0.76958">
        <ele>43</ele>
        <time>2014-05-25T14:23:45Z</time>
      </trkpt>
      <trkpt lat="44.46806" lon="-0.76905">
        <ele>43</ele>
        <time>2014-05-25T14:23:54Z</time>
      </trkpt>
      <trkpt lat="44.46803" lon="-0.76858">
        <ele>42</ele>
        <time>2014-05-25T14:24:02Z</time>
      </trkpt>
      <trkpt lat="44.46803" lon="-0.76832">
        <ele>42</ele>
        <time>2014-05-25T14:24:07Z</time>
      </trkpt>
      <trkpt lat="44.46803" lon="-0.76826">
        <ele>42</ele>
        <time>2014-05-25T14:24:08Z</time>
      </trkpt>
      <trkpt lat="44.46802" lon="-0.76821">
        <ele>42</ele>
        <time>2014-05-25T14:24:09Z</time>
      </trkpt>
      <trkpt lat="44.46801" lon="-0.7677">
        <ele>42</ele>
        <time>2014-05-25T14:24:18Z</time>
      </trkpt>
      <trkpt lat="44.46801" lon="-0.76733">
        <ele>42</ele>
        <time>2014-05-25T14:24:25Z</time>
      </trkpt>
      <trkpt lat="44.46801" lon="-0.7669">
        <ele>42</ele>
        <time>2014-05-25T14:24:34Z</time>
      </trkpt>
      <trkpt lat="44.468" lon="-0.76655">
        <ele>42</ele>
        <time>2014-05-25T14:24:42Z</time>
      </trkpt>
      <trkpt lat="44.46801" lon="-0.76617">
        <ele>42</ele>
        <time>2014-05-25T14:24:51Z</time>
      </trkpt>
      <trkpt lat="44.468" lon="-0.76583">
        <ele>43</ele>
        <time>2014-05-25T14:24:59Z</time>
      </trkpt>
      <trkpt lat="44.46798" lon="-0.76559">
        <ele>43</ele>
        <time>2014-05-25T14:25:05Z</time>
      </trkpt>
      <trkpt lat="44.46797" lon="-0.76518">
        <ele>44</ele>
        <time>2014-05-25T14:25:15Z</time>
      </trkpt>
      <trkpt lat="44.46799" lon="-0.76479">
        <ele>44</ele>
        <time>2014-05-25T14:25:23Z</time>
      </trkpt>
      <trkpt lat="44.468" lon="-0.76437">
        <ele>45</ele>
        <time>2014-05-25T14:25:31Z</time>
      </trkpt>
      <trkpt lat="44.468" lon="-0.76432">
        <ele>45</ele>
        <time>2014-05-25T14:25:32Z</time>
      </trkpt>
      <trkpt lat="44.468" lon="-0.76426">
        <ele>45</ele>
        <time>2014-05-25T14:25:33Z</time>
      </trkpt>
      <trkpt lat="44.46801" lon="-0.76421">
        <ele>45</ele>
        <time>2014-05-25T14:25:34Z</time>
      </trkpt>
      <trkpt lat="44.46802" lon="-0.76367">
        <ele>46</ele>
        <time>2014-05-25T14:25:44Z</time>
      </trkpt>
      <trkpt lat="44.46805" lon="-0.76316">
        <ele>46</ele>
        <time>2014-05-25T14:25:54Z</time>
      </trkpt>
      <trkpt lat="44.46807" lon="-0.76274">
        <ele>46</ele>
        <time>2014-05-25T14:26:02Z</time>
      </trkpt>
      <trkpt lat="44.46807" lon="-0.76231">
        <ele>46</ele>
        <time>2014-05-25T14:26:10Z</time>
      </trkpt>
      <trkpt lat="44.46809" lon="-0.76183">
        <ele>46</ele>
        <time>2014-05-25T14:26:19Z</time>
      </trkpt>
      <trkpt lat="44.4681" lon="-0.76129">
        <ele>46</ele>
        <time>2014-05-25T14:26:29Z</time>
      </trkpt>
      <trkpt lat="44.46814" lon="-0.76074">
        <ele>46</ele>
        <time>2014-05-25T14:26:39Z</time>
      </trkpt>
      <trkpt lat="44.46815" lon="-0.76045">
        <ele>46</ele>
        <time>2014-05-25T14:26:44Z</time>
      </trkpt>
      <trkpt lat="44.46815" lon="-0.76039">
        <ele>46</ele>
        <time>2014-05-25T14:26:45Z</time>
      </trkpt>
      <trkpt lat="44.46815" lon="-0.76033">
        <ele>46</ele>
        <time>2014-05-25T14:26:46Z</time>
      </trkpt>
      <trkpt lat="44.46817" lon="-0.75973">
        <ele>46</ele>
        <time>2014-05-25T14:26:56Z</time>
      </trkpt>
      <trkpt lat="44.46822" lon="-0.75929">
        <ele>46</ele>
        <time>2014-05-25T14:27:04Z</time>
      </trkpt>
      <trkpt lat="44.46836" lon="-0.75909">
        <ele>46</ele>
        <time>2014-05-25T14:27:10Z</time>
      </trkpt>
      <trkpt lat="44.46838" lon="-0.75902">
        <ele>46</ele>
        <time>2014-05-25T14:27:12Z</time>
      </trkpt>
      <trkpt lat="44.46837" lon="-0.75899">
        <ele>46</ele>
        <time>2014-05-25T14:27:13Z</time>
      </trkpt>
      <trkpt lat="44.46836" lon="-0.75897">
        <ele>46</ele>
        <time>2014-05-25T14:27:14Z</time>
      </trkpt>
      <trkpt lat="44.46834" lon="-0.75895">
        <ele>46</ele>
        <time>2014-05-25T14:27:15Z</time>
      </trkpt>
      <trkpt lat="44.46832" lon="-0.75894">
        <ele>46</ele>
        <time>2014-05-25T14:27:16Z</time>
      </trkpt>
      <trkpt lat="44.46828" lon="-0.75893">
        <ele>46</ele>
        <time>2014-05-25T14:27:17Z</time>
      </trkpt>
      <trkpt lat="44.46825" lon="-0.75892">
        <ele>46</ele>
        <time>2014-05-25T14:27:18Z</time>
      </trkpt>
      <trkpt lat="44.46821" lon="-0.7589">
        <ele>46</ele>
        <time>2014-05-25T14:27:19Z</time>
      </trkpt>
      <trkpt lat="44.46817" lon="-0.75888">
        <ele>46</ele>
        <time>2014-05-25T14:27:20Z</time>
      </trkpt>
      <trkpt lat="44.46794" lon="-0.75873">
        <ele>46</ele>
        <time>2014-05-25T14:27:26Z</time>
      </trkpt>
      <trkpt lat="44.46771" lon="-0.75856">
        <ele>45</ele>
        <time>2014-05-25T14:27:32Z</time>
      </trkpt>
      <trkpt lat="44.46768" lon="-0.75853">
        <ele>45</ele>
        <time>2014-05-25T14:27:33Z</time>
      </trkpt>
      <trkpt lat="44.46764" lon="-0.7585">
        <ele>45</ele>
        <time>2014-05-25T14:27:34Z</time>
      </trkpt>
      <trkpt lat="44.46761" lon="-0.75847">
        <ele>45</ele>
        <time>2014-05-25T14:27:35Z</time>
      </trkpt>
      <trkpt lat="44.46757" lon="-0.75843">
        <ele>45</ele>
        <time>2014-05-25T14:27:36Z</time>
      </trkpt>
      <trkpt lat="44.46736" lon="-0.75817">
        <ele>44</ele>
        <time>2014-05-25T14:27:43Z</time>
      </trkpt>
      <trkpt lat="44.46717" lon="-0.75792">
        <ele>43</ele>
        <time>2014-05-25T14:27:49Z</time>
      </trkpt>
      <trkpt lat="44.46714" lon="-0.75787">
        <ele>43</ele>
        <time>2014-05-25T14:27:50Z</time>
      </trkpt>
      <trkpt lat="44.46709" lon="-0.75775">
        <ele>43</ele>
        <time>2014-05-25T14:27:52Z</time>
      </trkpt>
      <trkpt lat="44.46703" lon="-0.75747">
        <ele>43</ele>
        <time>2014-05-25T14:27:58Z</time>
      </trkpt>
      <trkpt lat="44.46697" lon="-0.75731">
        <ele>42</ele>
        <time>2014-05-25T14:28:03Z</time>
      </trkpt>
      <trkpt lat="44.46688" lon="-0.75711">
        <ele>42</ele>
        <time>2014-05-25T14:28:09Z</time>
      </trkpt>
      <trkpt lat="44.46687" lon="-0.75708">
        <ele>42</ele>
        <time>2014-05-25T14:28:10Z</time>
      </trkpt>
      <trkpt lat="44.46679" lon="-0.75684">
        <ele>42</ele>
        <time>2014-05-25T14:28:16Z</time>
      </trkpt>
      <trkpt lat="44.46669" lon="-0.75654">
        <ele>42</ele>
        <time>2014-05-25T14:28:22Z</time>
      </trkpt>
      <trkpt lat="44.46668" lon="-0.75648">
        <ele>42</ele>
        <time>2014-05-25T14:28:23Z</time>
      </trkpt>
      <trkpt lat="44.46667" lon="-0.75635">
        <ele>43</ele>
        <time>2014-05-25T14:28:25Z</time>
      </trkpt>
      <trkpt lat="44.46667" lon="-0.75628">
        <ele>43</ele>
        <time>2014-05-25T14:28:26Z</time>
      </trkpt>
      <trkpt lat="44.46664" lon="-0.75594">
        <ele>44</ele>
        <time>2014-05-25T14:28:32Z</time>
      </trkpt>
      <trkpt lat="44.46657" lon="-0.75586">
        <ele>44</ele>
        <time>2014-05-25T14:28:36Z</time>
      </trkpt>
      <trkpt lat="44.46657" lon="-0.75586">
        <ele>44</ele>
        <time>2014-05-25T14:28:38Z</time>
      </trkpt>
      <trkpt lat="44.46651" lon="-0.75585">
        <ele>44</ele>
        <time>2014-05-25T14:28:45Z</time>
      </trkpt>
      <trkpt lat="44.46647" lon="-0.75585">
        <ele>44</ele>
        <time>2014-05-25T14:28:51Z</time>
      </trkpt>
      <trkpt lat="44.46644" lon="-0.75586">
        <ele>44</ele>
        <time>2014-05-25T14:28:54Z</time>
      </trkpt>
      <trkpt lat="44.46636" lon="-0.75586">
        <ele>44</ele>
        <time>2014-05-25T14:29:02Z</time>
      </trkpt>
      <trkpt lat="44.46631" lon="-0.75584">
        <ele>44</ele>
        <time>2014-05-25T14:29:10Z</time>
      </trkpt>
      <trkpt lat="44.46628" lon="-0.75583">
        <ele>44</ele>
        <time>2014-05-25T14:29:16Z</time>
      </trkpt>
      <trkpt lat="44.46616" lon="-0.75581">
        <ele>44</ele>
        <time>2014-05-25T14:29:24Z</time>
      </trkpt>
      <trkpt lat="44.46599" lon="-0.7558">
        <ele>45</ele>
        <time>2014-05-25T14:29:31Z</time>
      </trkpt>
      <trkpt lat="44.46575" lon="-0.75584">
        <ele>45</ele>
        <time>2014-05-25T14:29:39Z</time>
      </trkpt>
      <trkpt lat="44.46548" lon="-0.75595">
        <ele>45</ele>
        <time>2014-05-25T14:29:47Z</time>
      </trkpt>
      <trkpt lat="44.46525" lon="-0.75587">
        <ele>44</ele>
        <time>2014-05-25T14:29:54Z</time>
      </trkpt>
      <trkpt lat="44.46518" lon="-0.75568">
        <ele>45</ele>
        <time>2014-05-25T14:30:00Z</time>
      </trkpt>
      <trkpt lat="44.46517" lon="-0.75559">
        <ele>45</ele>
        <time>2014-05-25T14:30:06Z</time>
      </trkpt>
      <trkpt lat="44.46516" lon="-0.75559">
        <ele>45</ele>
        <time>2014-05-25T14:30:18Z</time>
      </trkpt>
      <trkpt lat="44.46516" lon="-0.7556">
        <ele>45</ele>
        <time>2014-05-25T14:30:35Z</time>
      </trkpt>
      <trkpt lat="44.46516" lon="-0.7556">
        <ele>45</ele>
        <time>2014-05-25T14:30:51Z</time>
      </trkpt>
      <trkpt lat="44.46517" lon="-0.7556">
        <ele>45</ele>
        <time>2014-05-25T14:31:05Z</time>
      </trkpt>
      <trkpt lat="44.46518" lon="-0.75561">
        <ele>45</ele>
        <time>2014-05-25T14:31:20Z</time>
      </trkpt>
      <trkpt lat="44.46518" lon="-0.75561">
        <ele>45</ele>
        <time>2014-05-25T14:31:35Z</time>
      </trkpt>
      <trkpt lat="44.46519" lon="-0.7556">
        <ele>45</ele>
        <time>2014-05-25T14:31:50Z</time>
      </trkpt>
      <trkpt lat="44.46519" lon="-0.7556">
        <ele>45</ele>
        <time>2014-05-25T14:32:07Z</time>
      </trkpt>
      <trkpt lat="44.46519" lon="-0.75561">
        <ele>45</ele>
        <time>2014-05-25T14:32:23Z</time>
      </trkpt>
      <trkpt lat="44.46519" lon="-0.7556">
        <ele>45</ele>
        <time>2014-05-25T14:32:34Z</time>
      </trkpt>
      <trkpt lat="44.46517" lon="-0.75554">
        <ele>45</ele>
        <time>2014-05-25T14:32:37Z</time>
      </trkpt>
      <trkpt lat="44.46518" lon="-0.75532">
        <ele>45</ele>
        <time>2014-05-25T14:32:44Z</time>
      </trkpt>
      <trkpt lat="44.46514" lon="-0.75513">
        <ele>45</ele>
        <time>2014-05-25T14:32:49Z</time>
      </trkpt>
      <trkpt lat="44.46495" lon="-0.75493">
        <ele>45</ele>
        <time>2014-05-25T14:32:56Z</time>
      </trkpt>
      <trkpt lat="44.46486" lon="-0.75476">
        <ele>45</ele>
        <time>2014-05-25T14:33:01Z</time>
      </trkpt>
      <trkpt lat="44.46488" lon="-0.75451">
        <ele>45</ele>
        <time>2014-05-25T14:33:07Z</time>
      </trkpt>
      <trkpt lat="44.46495" lon="-0.75424">
        <ele>45</ele>
        <time>2014-05-25T14:33:13Z</time>
      </trkpt>
      <trkpt lat="44.46502" lon="-0.75399">
        <ele>45</ele>
        <time>2014-05-25T14:33:19Z</time>
      </trkpt>
      <trkpt lat="44.46511" lon="-0.75364">
        <ele>46</ele>
        <time>2014-05-25T14:33:27Z</time>
      </trkpt>
      <trkpt lat="44.46521" lon="-0.75327">
        <ele>46</ele>
        <time>2014-05-25T14:33:35Z</time>
      </trkpt>
      <trkpt lat="44.46532" lon="-0.75287">
        <ele>46</ele>
        <time>2014-05-25T14:33:44Z</time>
      </trkpt>
      <trkpt lat="44.46545" lon="-0.75257">
        <ele>46</ele>
        <time>2014-05-25T14:33:51Z</time>
      </trkpt>
      <trkpt lat="44.4656" lon="-0.75237">
        <ele>46</ele>
        <time>2014-05-25T14:33:57Z</time>
      </trkpt>
      <trkpt lat="44.46577" lon="-0.75216">
        <ele>46</ele>
        <time>2014-05-25T14:34:04Z</time>
      </trkpt>
      <trkpt lat="44.46592" lon="-0.75198">
        <ele>46</ele>
        <time>2014-05-25T14:34:10Z</time>
      </trkpt>
      <trkpt lat="44.46612" lon="-0.75178">
        <ele>46</ele>
        <time>2014-05-25T14:34:17Z</time>
      </trkpt>
      <trkpt lat="44.46627" lon="-0.75156">
        <ele>46</ele>
        <time>2014-05-25T14:34:24Z</time>
      </trkpt>
      <trkpt lat="44.46641" lon="-0.75131">
        <ele>46</ele>
        <time>2014-05-25T14:34:31Z</time>
      </trkpt>
      <trkpt lat="44.46651" lon="-0.75106">
        <ele>46</ele>
        <time>2014-05-25T14:34:37Z</time>
      </trkpt>
      <trkpt lat="44.46659" lon="-0.75083">
        <ele>46</ele>
        <time>2014-05-25T14:34:43Z</time>
      </trkpt>
      <trkpt lat="44.46663" lon="-0.75075">
        <ele>46</ele>
        <time>2014-05-25T14:34:45Z</time>
      </trkpt>
      <trkpt lat="44.46666" lon="-0.75071">
        <ele>46</ele>
        <time>2014-05-25T14:34:46Z</time>
      </trkpt>
      <trkpt lat="44.46678" lon="-0.75054">
        <ele>46</ele>
        <time>2014-05-25T14:34:51Z</time>
      </trkpt>
      <trkpt lat="44.46688" lon="-0.75037">
        <ele>46</ele>
        <time>2014-05-25T14:34:56Z</time>
      </trkpt>
      <trkpt lat="44.467" lon="-0.75008">
        <ele>46</ele>
        <time>2014-05-25T14:35:03Z</time>
      </trkpt>
      <trkpt lat="44.46709" lon="-0.74982">
        <ele>46</ele>
        <time>2014-05-25T14:35:09Z</time>
      </trkpt>
      <trkpt lat="44.46714" lon="-0.74969">
        <ele>46</ele>
        <time>2014-05-25T14:35:13Z</time>
      </trkpt>
      <trkpt lat="44.46715" lon="-0.74966">
        <ele>46</ele>
        <time>2014-05-25T14:35:14Z</time>
      </trkpt>
      <trkpt lat="44.46715" lon="-0.74963">
        <ele>46</ele>
        <time>2014-05-25T14:35:15Z</time>
      </trkpt>
      <trkpt lat="44.46716" lon="-0.74959">
        <ele>46</ele>
        <time>2014-05-25T14:35:17Z</time>
      </trkpt>
      <trkpt lat="44.46725" lon="-0.74935">
        <ele>46</ele>
        <time>2014-05-25T14:35:23Z</time>
      </trkpt>
      <trkpt lat="44.46734" lon="-0.74906">
        <ele>47</ele>
        <time>2014-05-25T14:35:29Z</time>
      </trkpt>
      <trkpt lat="44.46739" lon="-0.74896">
        <ele>47</ele>
        <time>2014-05-25T14:35:31Z</time>
      </trkpt>
      <trkpt lat="44.46741" lon="-0.7489">
        <ele>47</ele>
        <time>2014-05-25T14:35:32Z</time>
      </trkpt>
      <trkpt lat="44.46744" lon="-0.74884">
        <ele>47</ele>
        <time>2014-05-25T14:35:33Z</time>
      </trkpt>
      <trkpt lat="44.46746" lon="-0.74879">
        <ele>47</ele>
        <time>2014-05-25T14:35:34Z</time>
      </trkpt>
      <trkpt lat="44.46748" lon="-0.74874">
        <ele>47</ele>
        <time>2014-05-25T14:35:35Z</time>
      </trkpt>
      <trkpt lat="44.4675" lon="-0.74869">
        <ele>47</ele>
        <time>2014-05-25T14:35:36Z</time>
      </trkpt>
      <trkpt lat="44.46751" lon="-0.74866">
        <ele>47</ele>
        <time>2014-05-25T14:35:37Z</time>
      </trkpt>
      <trkpt lat="44.46752" lon="-0.74862">
        <ele>47</ele>
        <time>2014-05-25T14:35:38Z</time>
      </trkpt>
      <trkpt lat="44.46754" lon="-0.74857">
        <ele>47</ele>
        <time>2014-05-25T14:35:39Z</time>
      </trkpt>
      <trkpt lat="44.46756" lon="-0.74854">
        <ele>47</ele>
        <time>2014-05-25T14:35:40Z</time>
      </trkpt>
      <trkpt lat="44.46768" lon="-0.74822">
        <ele>47</ele>
        <time>2014-05-25T14:35:46Z</time>
      </trkpt>
      <trkpt lat="44.46777" lon="-0.74803">
        <ele>47</ele>
        <time>2014-05-25T14:35:52Z</time>
      </trkpt>
      <trkpt lat="44.46777" lon="-0.74799">
        <ele>47</ele>
        <time>2014-05-25T14:35:53Z</time>
      </trkpt>
      <trkpt lat="44.46785" lon="-0.74767">
        <ele>47</ele>
        <time>2014-05-25T14:36:00Z</time>
      </trkpt>
      <trkpt lat="44.46803" lon="-0.74728">
        <ele>47</ele>
        <time>2014-05-25T14:36:06Z</time>
      </trkpt>
      <trkpt lat="44.46813" lon="-0.74697">
        <ele>47</ele>
        <time>2014-05-25T14:36:12Z</time>
      </trkpt>
      <trkpt lat="44.46824" lon="-0.74657">
        <ele>47</ele>
        <time>2014-05-25T14:36:20Z</time>
      </trkpt>
      <trkpt lat="44.46834" lon="-0.74621">
        <ele>47</ele>
        <time>2014-05-25T14:36:27Z</time>
      </trkpt>
      <trkpt lat="44.4684" lon="-0.74598">
        <ele>47</ele>
        <time>2014-05-25T14:36:31Z</time>
      </trkpt>
      <trkpt lat="44.46844" lon="-0.74586">
        <ele>47</ele>
        <time>2014-05-25T14:36:33Z</time>
      </trkpt>
      <trkpt lat="44.46847" lon="-0.74543">
        <ele>47</ele>
        <time>2014-05-25T14:36:41Z</time>
      </trkpt>
      <trkpt lat="44.46844" lon="-0.74516">
        <ele>47</ele>
        <time>2014-05-25T14:36:47Z</time>
      </trkpt>
      <trkpt lat="44.4684" lon="-0.74486">
        <ele>47</ele>
        <time>2014-05-25T14:36:54Z</time>
      </trkpt>
      <trkpt lat="44.46835" lon="-0.74457">
        <ele>48</ele>
        <time>2014-05-25T14:37:01Z</time>
      </trkpt>
      <trkpt lat="44.46829" lon="-0.74418">
        <ele>48</ele>
        <time>2014-05-25T14:37:10Z</time>
      </trkpt>
      <trkpt lat="44.46823" lon="-0.74391">
        <ele>48</ele>
        <time>2014-05-25T14:37:15Z</time>
      </trkpt>
      <trkpt lat="44.46823" lon="-0.74386">
        <ele>48</ele>
        <time>2014-05-25T14:37:16Z</time>
      </trkpt>
      <trkpt lat="44.46819" lon="-0.74361">
        <ele>49</ele>
        <time>2014-05-25T14:37:21Z</time>
      </trkpt>
      <trkpt lat="44.46812" lon="-0.74321">
        <ele>49</ele>
        <time>2014-05-25T14:37:29Z</time>
      </trkpt>
      <trkpt lat="44.46807" lon="-0.74292">
        <ele>49</ele>
        <time>2014-05-25T14:37:35Z</time>
      </trkpt>
      <trkpt lat="44.46802" lon="-0.74263">
        <ele>49</ele>
        <time>2014-05-25T14:37:41Z</time>
      </trkpt>
      <trkpt lat="44.46795" lon="-0.74225">
        <ele>49</ele>
        <time>2014-05-25T14:37:48Z</time>
      </trkpt>
      <trkpt lat="44.46789" lon="-0.7419">
        <ele>49</ele>
        <time>2014-05-25T14:37:55Z</time>
      </trkpt>
      <trkpt lat="44.46786" lon="-0.74179">
        <ele>49</ele>
        <time>2014-05-25T14:37:57Z</time>
      </trkpt>
      <trkpt lat="44.46785" lon="-0.74174">
        <ele>49</ele>
        <time>2014-05-25T14:37:58Z</time>
      </trkpt>
      <trkpt lat="44.46784" lon="-0.74169">
        <ele>49</ele>
        <time>2014-05-25T14:37:59Z</time>
      </trkpt>
      <trkpt lat="44.46783" lon="-0.74164">
        <ele>49</ele>
        <time>2014-05-25T14:38:00Z</time>
      </trkpt>
      <trkpt lat="44.46783" lon="-0.7416">
        <ele>49</ele>
        <time>2014-05-25T14:38:01Z</time>
      </trkpt>
      <trkpt lat="44.46782" lon="-0.74155">
        <ele>49</ele>
        <time>2014-05-25T14:38:02Z</time>
      </trkpt>
      <trkpt lat="44.46774" lon="-0.74113">
        <ele>49</ele>
        <time>2014-05-25T14:38:10Z</time>
      </trkpt>
      <trkpt lat="44.46769" lon="-0.74072">
        <ele>49</ele>
        <time>2014-05-25T14:38:18Z</time>
      </trkpt>
      <trkpt lat="44.46766" lon="-0.74037">
        <ele>49</ele>
        <time>2014-05-25T14:38:25Z</time>
      </trkpt>
      <trkpt lat="44.46761" lon="-0.74009">
        <ele>49</ele>
        <time>2014-05-25T14:38:32Z</time>
      </trkpt>
      <trkpt lat="44.46756" lon="-0.7398">
        <ele>49</ele>
        <time>2014-05-25T14:38:38Z</time>
      </trkpt>
      <trkpt lat="44.46749" lon="-0.73947">
        <ele>49</ele>
        <time>2014-05-25T14:38:46Z</time>
      </trkpt>
      <trkpt lat="44.46744" lon="-0.73919">
        <ele>49</ele>
        <time>2014-05-25T14:38:52Z</time>
      </trkpt>
      <trkpt lat="44.46743" lon="-0.7389">
        <ele>49</ele>
        <time>2014-05-25T14:38:58Z</time>
      </trkpt>
      <trkpt lat="44.46742" lon="-0.73852">
        <ele>50</ele>
        <time>2014-05-25T14:39:05Z</time>
      </trkpt>
      <trkpt lat="44.4674" lon="-0.73818">
        <ele>50</ele>
        <time>2014-05-25T14:39:11Z</time>
      </trkpt>
      <trkpt lat="44.46739" lon="-0.73806">
        <ele>50</ele>
        <time>2014-05-25T14:39:13Z</time>
      </trkpt>
      <trkpt lat="44.46736" lon="-0.73781">
        <ele>50</ele>
        <time>2014-05-25T14:39:18Z</time>
      </trkpt>
      <trkpt lat="44.46735" lon="-0.73775">
        <ele>50</ele>
        <time>2014-05-25T14:39:19Z</time>
      </trkpt>
      <trkpt lat="44.46734" lon="-0.73769">
        <ele>50</ele>
        <time>2014-05-25T14:39:20Z</time>
      </trkpt>
      <trkpt lat="44.46729" lon="-0.73736">
        <ele>50</ele>
        <time>2014-05-25T14:39:26Z</time>
      </trkpt>
      <trkpt lat="44.46725" lon="-0.73734">
        <ele>50</ele>
        <time>2014-05-25T14:39:27Z</time>
      </trkpt>
      <trkpt lat="44.46722" lon="-0.73732">
        <ele>50</ele>
        <time>2014-05-25T14:39:28Z</time>
      </trkpt>
      <trkpt lat="44.46695" lon="-0.73726">
        <ele>50</ele>
        <time>2014-05-25T14:39:35Z</time>
      </trkpt>
      <trkpt lat="44.46678" lon="-0.73723">
        <ele>50</ele>
        <time>2014-05-25T14:39:40Z</time>
      </trkpt>
      <trkpt lat="44.46664" lon="-0.73726">
        <ele>50</ele>
        <time>2014-05-25T14:39:44Z</time>
      </trkpt>
      <trkpt lat="44.46649" lon="-0.73723">
        <ele>50</ele>
        <time>2014-05-25T14:39:49Z</time>
      </trkpt>
      <trkpt lat="44.46621" lon="-0.73727">
        <ele>50</ele>
        <time>2014-05-25T14:39:55Z</time>
      </trkpt>
      <trkpt lat="44.46605" lon="-0.73724">
        <ele>50</ele>
        <time>2014-05-25T14:39:59Z</time>
      </trkpt>
      <trkpt lat="44.46602" lon="-0.73719">
        <ele>50</ele>
        <time>2014-05-25T14:40:00Z</time>
      </trkpt>
      <trkpt lat="44.466" lon="-0.73714">
        <ele>50</ele>
        <time>2014-05-25T14:40:01Z</time>
      </trkpt>
      <trkpt lat="44.46599" lon="-0.7371">
        <ele>50</ele>
        <time>2014-05-25T14:40:02Z</time>
      </trkpt>
      <trkpt lat="44.466" lon="-0.73705">
        <ele>50</ele>
        <time>2014-05-25T14:40:03Z</time>
      </trkpt>
      <trkpt lat="44.466" lon="-0.73701">
        <ele>50</ele>
        <time>2014-05-25T14:40:04Z</time>
      </trkpt>
      <trkpt lat="44.466" lon="-0.73697">
        <ele>50</ele>
        <time>2014-05-25T14:40:05Z</time>
      </trkpt>
      <trkpt lat="44.466" lon="-0.73668">
        <ele>50</ele>
        <time>2014-05-25T14:40:11Z</time>
      </trkpt>
      <trkpt lat="44.46603" lon="-0.73633">
        <ele>50</ele>
        <time>2014-05-25T14:40:18Z</time>
      </trkpt>
      <trkpt lat="44.46603" lon="-0.73627">
        <ele>50</ele>
        <time>2014-05-25T14:40:19Z</time>
      </trkpt>
      <trkpt lat="44.46604" lon="-0.73622">
        <ele>50</ele>
        <time>2014-05-25T14:40:20Z</time>
      </trkpt>
      <trkpt lat="44.46605" lon="-0.73616">
        <ele>50</ele>
        <time>2014-05-25T14:40:21Z</time>
      </trkpt>
      <trkpt lat="44.46606" lon="-0.7361">
        <ele>50</ele>
        <time>2014-05-25T14:40:22Z</time>
      </trkpt>
      <trkpt lat="44.46607" lon="-0.73604">
        <ele>50</ele>
        <time>2014-05-25T14:40:23Z</time>
      </trkpt>
      <trkpt lat="44.46608" lon="-0.73599">
        <ele>50</ele>
        <time>2014-05-25T14:40:24Z</time>
      </trkpt>
      <trkpt lat="44.46614" lon="-0.73555">
        <ele>51</ele>
        <time>2014-05-25T14:40:32Z</time>
      </trkpt>
      <trkpt lat="44.46615" lon="-0.73527">
        <ele>51</ele>
        <time>2014-05-25T14:40:38Z</time>
      </trkpt>
      <trkpt lat="44.46619" lon="-0.73478">
        <ele>51</ele>
        <time>2014-05-25T14:40:48Z</time>
      </trkpt>
      <trkpt lat="44.46624" lon="-0.73445">
        <ele>51</ele>
        <time>2014-05-25T14:40:56Z</time>
      </trkpt>
      <trkpt lat="44.46638" lon="-0.73416">
        <ele>51</ele>
        <time>2014-05-25T14:41:04Z</time>
      </trkpt>
      <trkpt lat="44.46656" lon="-0.73398">
        <ele>51</ele>
        <time>2014-05-25T14:41:12Z</time>
      </trkpt>
      <trkpt lat="44.46665" lon="-0.73386">
        <ele>51</ele>
        <time>2014-05-25T14:41:18Z</time>
      </trkpt>
      <trkpt lat="44.46664" lon="-0.73383">
        <ele>51</ele>
        <time>2014-05-25T14:41:19Z</time>
      </trkpt>
      <trkpt lat="44.46664" lon="-0.73381">
        <ele>51</ele>
        <time>2014-05-25T14:41:20Z</time>
      </trkpt>
      <trkpt lat="44.46662" lon="-0.73378">
        <ele>51</ele>
        <time>2014-05-25T14:41:21Z</time>
      </trkpt>
      <trkpt lat="44.46661" lon="-0.73375">
        <ele>51</ele>
        <time>2014-05-25T14:41:22Z</time>
      </trkpt>
      <trkpt lat="44.46644" lon="-0.73356">
        <ele>51</ele>
        <time>2014-05-25T14:41:30Z</time>
      </trkpt>
      <trkpt lat="44.4663" lon="-0.73342">
        <ele>51</ele>
        <time>2014-05-25T14:41:36Z</time>
      </trkpt>
      <trkpt lat="44.46611" lon="-0.73317">
        <ele>51</ele>
        <time>2014-05-25T14:41:46Z</time>
      </trkpt>
      <trkpt lat="44.46596" lon="-0.733">
        <ele>50</ele>
        <time>2014-05-25T14:41:53Z</time>
      </trkpt>
      <trkpt lat="44.46582" lon="-0.73284">
        <ele>50</ele>
        <time>2014-05-25T14:42:01Z</time>
      </trkpt>
      <trkpt lat="44.4657" lon="-0.73269">
        <ele>50</ele>
        <time>2014-05-25T14:42:07Z</time>
      </trkpt>
      <trkpt lat="44.46549" lon="-0.73243">
        <ele>50</ele>
        <time>2014-05-25T14:42:16Z</time>
      </trkpt>
      <trkpt lat="44.46532" lon="-0.73222">
        <ele>50</ele>
        <time>2014-05-25T14:42:23Z</time>
      </trkpt>
      <trkpt lat="44.46505" lon="-0.7319">
        <ele>50</ele>
        <time>2014-05-25T14:42:32Z</time>
      </trkpt>
      <trkpt lat="44.46485" lon="-0.73177">
        <ele>49</ele>
        <time>2014-05-25T14:42:37Z</time>
      </trkpt>
      <trkpt lat="44.46471" lon="-0.73176">
        <ele>49</ele>
        <time>2014-05-25T14:42:42Z</time>
      </trkpt>
      <trkpt lat="44.46449" lon="-0.73172">
        <ele>49</ele>
        <time>2014-05-25T14:42:50Z</time>
      </trkpt>
      <trkpt lat="44.46423" lon="-0.73149">
        <ele>50</ele>
        <time>2014-05-25T14:42:58Z</time>
      </trkpt>
      <trkpt lat="44.46416" lon="-0.73135">
        <ele>50</ele>
        <time>2014-05-25T14:43:01Z</time>
      </trkpt>
      <trkpt lat="44.46392" lon="-0.73073">
        <ele>50</ele>
        <time>2014-05-25T14:43:13Z</time>
      </trkpt>
      <trkpt lat="44.4638" lon="-0.73043">
        <ele>50</ele>
        <time>2014-05-25T14:43:19Z</time>
      </trkpt>
      <trkpt lat="44.46378" lon="-0.73037">
        <ele>50</ele>
        <time>2014-05-25T14:43:20Z</time>
      </trkpt>
      <trkpt lat="44.46364" lon="-0.72989">
        <ele>51</ele>
        <time>2014-05-25T14:43:29Z</time>
      </trkpt>
      <trkpt lat="44.46359" lon="-0.72934">
        <ele>50</ele>
        <time>2014-05-25T14:43:39Z</time>
      </trkpt>
      <trkpt lat="44.46359" lon="-0.72884">
        <ele>50</ele>
        <time>2014-05-25T14:43:48Z</time>
      </trkpt>
      <trkpt lat="44.46359" lon="-0.72845">
        <ele>50</ele>
        <time>2014-05-25T14:43:55Z</time>
      </trkpt>
      <trkpt lat="44.46352" lon="-0.72799">
        <ele>50</ele>
        <time>2014-05-25T14:44:03Z</time>
      </trkpt>
      <trkpt lat="44.46344" lon="-0.72765">
        <ele>51</ele>
        <time>2014-05-25T14:44:10Z</time>
      </trkpt>
      <trkpt lat="44.46341" lon="-0.72755">
        <ele>51</ele>
        <time>2014-05-25T14:44:12Z</time>
      </trkpt>
      <trkpt lat="44.46324" lon="-0.72698">
        <ele>52</ele>
        <time>2014-05-25T14:44:22Z</time>
      </trkpt>
      <trkpt lat="44.46309" lon="-0.72644">
        <ele>53</ele>
        <time>2014-05-25T14:44:31Z</time>
      </trkpt>
      <trkpt lat="44.46299" lon="-0.72613">
        <ele>53</ele>
        <time>2014-05-25T14:44:36Z</time>
      </trkpt>
      <trkpt lat="44.46282" lon="-0.72555">
        <ele>53</ele>
        <time>2014-05-25T14:44:45Z</time>
      </trkpt>
      <trkpt lat="44.46271" lon="-0.7252">
        <ele>53</ele>
        <time>2014-05-25T14:44:51Z</time>
      </trkpt>
      <trkpt lat="44.46269" lon="-0.72515">
        <ele>53</ele>
        <time>2014-05-25T14:44:52Z</time>
      </trkpt>
      <trkpt lat="44.46258" lon="-0.72475">
        <ele>53</ele>
        <time>2014-05-25T14:44:59Z</time>
      </trkpt>
      <trkpt lat="44.46256" lon="-0.7247">
        <ele>53</ele>
        <time>2014-05-25T14:45:00Z</time>
      </trkpt>
      <trkpt lat="44.46255" lon="-0.72464">
        <ele>53</ele>
        <time>2014-05-25T14:45:01Z</time>
      </trkpt>
      <trkpt lat="44.46253" lon="-0.72458">
        <ele>53</ele>
        <time>2014-05-25T14:45:02Z</time>
      </trkpt>
      <trkpt lat="44.46252" lon="-0.72452">
        <ele>53</ele>
        <time>2014-05-25T14:45:03Z</time>
      </trkpt>
      <trkpt lat="44.46239" lon="-0.72407">
        <ele>53</ele>
        <time>2014-05-25T14:45:12Z</time>
      </trkpt>
      <trkpt lat="44.46244" lon="-0.72389">
        <ele>54</ele>
        <time>2014-05-25T14:45:17Z</time>
      </trkpt>
      <trkpt lat="44.46254" lon="-0.72362">
        <ele>54</ele>
        <time>2014-05-25T14:45:24Z</time>
      </trkpt>
      <trkpt lat="44.46262" lon="-0.72322">
        <ele>54</ele>
        <time>2014-05-25T14:45:32Z</time>
      </trkpt>
      <trkpt lat="44.46267" lon="-0.72289">
        <ele>54</ele>
        <time>2014-05-25T14:45:39Z</time>
      </trkpt>
      <trkpt lat="44.46265" lon="-0.72264">
        <ele>54</ele>
        <time>2014-05-25T14:45:45Z</time>
      </trkpt>
      <trkpt lat="44.46264" lon="-0.72238">
        <ele>54</ele>
        <time>2014-05-25T14:45:51Z</time>
      </trkpt>
      <trkpt lat="44.46271" lon="-0.72213">
        <ele>54</ele>
        <time>2014-05-25T14:45:58Z</time>
      </trkpt>
      <trkpt lat="44.46276" lon="-0.72181">
        <ele>54</ele>
        <time>2014-05-25T14:46:06Z</time>
      </trkpt>
      <trkpt lat="44.46273" lon="-0.72155">
        <ele>54</ele>
        <time>2014-05-25T14:46:12Z</time>
      </trkpt>
      <trkpt lat="44.46268" lon="-0.72134">
        <ele>54</ele>
        <time>2014-05-25T14:46:18Z</time>
      </trkpt>
      <trkpt lat="44.46256" lon="-0.72107">
        <ele>54</ele>
        <time>2014-05-25T14:46:25Z</time>
      </trkpt>
      <trkpt lat="44.46249" lon="-0.72088">
        <ele>54</ele>
        <time>2014-05-25T14:46:30Z</time>
      </trkpt>
      <trkpt lat="44.46239" lon="-0.72057">
        <ele>54</ele>
        <time>2014-05-25T14:46:38Z</time>
      </trkpt>
      <trkpt lat="44.46234" lon="-0.72028">
        <ele>55</ele>
        <time>2014-05-25T14:46:45Z</time>
      </trkpt>
      <trkpt lat="44.4623" lon="-0.72005">
        <ele>55</ele>
        <time>2014-05-25T14:46:51Z</time>
      </trkpt>
      <trkpt lat="44.46229" lon="-0.71978">
        <ele>55</ele>
        <time>2014-05-25T14:46:58Z</time>
      </trkpt>
      <trkpt lat="44.46229" lon="-0.71953">
        <ele>55</ele>
        <time>2014-05-25T14:47:04Z</time>
      </trkpt>
      <trkpt lat="44.46222" lon="-0.71918">
        <ele>55</ele>
        <time>2014-05-25T14:47:12Z</time>
      </trkpt>
      <trkpt lat="44.46214" lon="-0.71871">
        <ele>55</ele>
        <time>2014-05-25T14:47:21Z</time>
      </trkpt>
      <trkpt lat="44.46205" lon="-0.71823">
        <ele>55</ele>
        <time>2014-05-25T14:47:30Z</time>
      </trkpt>
      <trkpt lat="44.46198" lon="-0.71796">
        <ele>55</ele>
        <time>2014-05-25T14:47:36Z</time>
      </trkpt>
      <trkpt lat="44.46198" lon="-0.71791">
        <ele>55</ele>
        <time>2014-05-25T14:47:37Z</time>
      </trkpt>
      <trkpt lat="44.46197" lon="-0.71786">
        <ele>55</ele>
        <time>2014-05-25T14:47:38Z</time>
      </trkpt>
      <trkpt lat="44.46194" lon="-0.71753">
        <ele>55</ele>
        <time>2014-05-25T14:47:45Z</time>
      </trkpt>
      <trkpt lat="44.46184" lon="-0.71712">
        <ele>56</ele>
        <time>2014-05-25T14:47:53Z</time>
      </trkpt>
      <trkpt lat="44.46176" lon="-0.71672">
        <ele>56</ele>
        <time>2014-05-25T14:48:01Z</time>
      </trkpt>
      <trkpt lat="44.46171" lon="-0.71638">
        <ele>56</ele>
        <time>2014-05-25T14:48:08Z</time>
      </trkpt>
      <trkpt lat="44.46164" lon="-0.71613">
        <ele>56</ele>
        <time>2014-05-25T14:48:14Z</time>
      </trkpt>
      <trkpt lat="44.46156" lon="-0.71583">
        <ele>56</ele>
        <time>2014-05-25T14:48:21Z</time>
      </trkpt>
      <trkpt lat="44.46153" lon="-0.71557">
        <ele>56</ele>
        <time>2014-05-25T14:48:28Z</time>
      </trkpt>
      <trkpt lat="44.46148" lon="-0.71542">
        <ele>56</ele>
        <time>2014-05-25T14:48:32Z</time>
      </trkpt>
      <trkpt lat="44.46148" lon="-0.71539">
        <ele>56</ele>
        <time>2014-05-25T14:48:33Z</time>
      </trkpt>
      <trkpt lat="44.46143" lon="-0.71514">
        <ele>56</ele>
        <time>2014-05-25T14:48:40Z</time>
      </trkpt>
      <trkpt lat="44.46136" lon="-0.71487">
        <ele>57</ele>
        <time>2014-05-25T14:48:47Z</time>
      </trkpt>
      <trkpt lat="44.46123" lon="-0.71457">
        <ele>57</ele>
        <time>2014-05-25T14:48:56Z</time>
      </trkpt>
      <trkpt lat="44.46113" lon="-0.71429">
        <ele>57</ele>
        <time>2014-05-25T14:49:04Z</time>
      </trkpt>
      <trkpt lat="44.46103" lon="-0.71404">
        <ele>57</ele>
        <time>2014-05-25T14:49:11Z</time>
      </trkpt>
      <trkpt lat="44.46096" lon="-0.71373">
        <ele>57</ele>
        <time>2014-05-25T14:49:19Z</time>
      </trkpt>
      <trkpt lat="44.46094" lon="-0.7136">
        <ele>57</ele>
        <time>2014-05-25T14:49:23Z</time>
      </trkpt>
      <trkpt lat="44.46094" lon="-0.71357">
        <ele>57</ele>
        <time>2014-05-25T14:49:24Z</time>
      </trkpt>
      <trkpt lat="44.46093" lon="-0.71354">
        <ele>57</ele>
        <time>2014-05-25T14:49:25Z</time>
      </trkpt>
      <trkpt lat="44.46092" lon="-0.7135">
        <ele>57</ele>
        <time>2014-05-25T14:49:26Z</time>
      </trkpt>
      <trkpt lat="44.46091" lon="-0.71347">
        <ele>57</ele>
        <time>2014-05-25T14:49:27Z</time>
      </trkpt>
      <trkpt lat="44.46083" lon="-0.71321">
        <ele>57</ele>
        <time>2014-05-25T14:49:34Z</time>
      </trkpt>
      <trkpt lat="44.46077" lon="-0.71304">
        <ele>57</ele>
        <time>2014-05-25T14:49:40Z</time>
      </trkpt>
      <trkpt lat="44.46076" lon="-0.71294">
        <ele>57</ele>
        <time>2014-05-25T14:49:44Z</time>
      </trkpt>
      <trkpt lat="44.46075" lon="-0.71291">
        <ele>57</ele>
        <time>2014-05-25T14:49:45Z</time>
      </trkpt>
      <trkpt lat="44.4607" lon="-0.71272">
        <ele>57</ele>
        <time>2014-05-25T14:49:51Z</time>
      </trkpt>
      <trkpt lat="44.4606" lon="-0.71251">
        <ele>57</ele>
        <time>2014-05-25T14:49:57Z</time>
      </trkpt>
      <trkpt lat="44.46057" lon="-0.71245">
        <ele>57</ele>
        <time>2014-05-25T14:49:59Z</time>
      </trkpt>
      <trkpt lat="44.46045" lon="-0.71207">
        <ele>57</ele>
        <time>2014-05-25T14:50:08Z</time>
      </trkpt>
      <trkpt lat="44.46038" lon="-0.71179">
        <ele>57</ele>
        <time>2014-05-25T14:50:14Z</time>
      </trkpt>
      <trkpt lat="44.46037" lon="-0.71168">
        <ele>57</ele>
        <time>2014-05-25T14:50:16Z</time>
      </trkpt>
      <trkpt lat="44.46026" lon="-0.71127">
        <ele>58</ele>
        <time>2014-05-25T14:50:24Z</time>
      </trkpt>
      <trkpt lat="44.46016" lon="-0.71089">
        <ele>58</ele>
        <time>2014-05-25T14:50:32Z</time>
      </trkpt>
      <trkpt lat="44.46013" lon="-0.71073">
        <ele>58</ele>
        <time>2014-05-25T14:50:36Z</time>
      </trkpt>
      <trkpt lat="44.46015" lon="-0.7107">
        <ele>58</ele>
        <time>2014-05-25T14:50:37Z</time>
      </trkpt>
      <trkpt lat="44.4603" lon="-0.71056">
        <ele>58</ele>
        <time>2014-05-25T14:50:44Z</time>
      </trkpt>
      <trkpt lat="44.46042" lon="-0.71048">
        <ele>58</ele>
        <time>2014-05-25T14:50:51Z</time>
      </trkpt>
      <trkpt lat="44.46051" lon="-0.7104">
        <ele>58</ele>
        <time>2014-05-25T14:50:57Z</time>
      </trkpt>
      <trkpt lat="44.46054" lon="-0.71038">
        <ele>58</ele>
        <time>2014-05-25T14:50:59Z</time>
      </trkpt>
      <trkpt lat="44.4606" lon="-0.71034">
        <ele>58</ele>
        <time>2014-05-25T14:51:05Z</time>
      </trkpt>
      <trkpt lat="44.46063" lon="-0.71031">
        <ele>58</ele>
        <time>2014-05-25T14:51:12Z</time>
      </trkpt>
      <trkpt lat="44.46063" lon="-0.71031">
        <ele>58</ele>
        <time>2014-05-25T14:51:28Z</time>
      </trkpt>
      <trkpt lat="44.46063" lon="-0.71031">
        <ele>58</ele>
        <time>2014-05-25T14:51:42Z</time>
      </trkpt>
      <trkpt lat="44.46062" lon="-0.71032">
        <ele>58</ele>
        <time>2014-05-25T14:51:56Z</time>
      </trkpt>
      <trkpt lat="44.46062" lon="-0.71032">
        <ele>58</ele>
        <time>2014-05-25T14:52:13Z</time>
      </trkpt>
      <trkpt lat="44.46062" lon="-0.71032">
        <ele>58</ele>
        <time>2014-05-25T14:52:30Z</time>
      </trkpt>
      <trkpt lat="44.46062" lon="-0.71032">
        <ele>58</ele>
        <time>2014-05-25T14:52:44Z</time>
      </trkpt>
      <trkpt lat="44.46061" lon="-0.71031">
        <ele>58</ele>
        <time>2014-05-25T14:53:01Z</time>
      </trkpt>
      <trkpt lat="44.46061" lon="-0.71031">
        <ele>58</ele>
        <time>2014-05-25T14:53:18Z</time>
      </trkpt>
      <trkpt lat="44.4606" lon="-0.71032">
        <ele>58</ele>
        <time>2014-05-25T14:53:35Z</time>
      </trkpt>
      <trkpt lat="44.46061" lon="-0.71032">
        <ele>58</ele>
        <time>2014-05-25T14:53:53Z</time>
      </trkpt>
      <trkpt lat="44.46061" lon="-0.71031">
        <ele>58</ele>
        <time>2014-05-25T14:54:07Z</time>
      </trkpt>
      <trkpt lat="44.46064" lon="-0.71029">
        <ele>58</ele>
        <time>2014-05-25T14:54:17Z</time>
      </trkpt>
      <trkpt lat="44.46075" lon="-0.71021">
        <ele>58</ele>
        <time>2014-05-25T14:54:23Z</time>
      </trkpt>
      <trkpt lat="44.46089" lon="-0.71008">
        <ele>57</ele>
        <time>2014-05-25T14:54:29Z</time>
      </trkpt>
      <trkpt lat="44.46106" lon="-0.70994">
        <ele>57</ele>
        <time>2014-05-25T14:54:36Z</time>
      </trkpt>
      <trkpt lat="44.46122" lon="-0.70979">
        <ele>57</ele>
        <time>2014-05-25T14:54:42Z</time>
      </trkpt>
      <trkpt lat="44.46146" lon="-0.7096">
        <ele>57</ele>
        <time>2014-05-25T14:54:51Z</time>
      </trkpt>
      <trkpt lat="44.4617" lon="-0.7094">
        <ele>58</ele>
        <time>2014-05-25T14:55:00Z</time>
      </trkpt>
      <trkpt lat="44.46191" lon="-0.70921">
        <ele>58</ele>
        <time>2014-05-25T14:55:08Z</time>
      </trkpt>
      <trkpt lat="44.46216" lon="-0.70901">
        <ele>58</ele>
        <time>2014-05-25T14:55:17Z</time>
      </trkpt>
      <trkpt lat="44.46235" lon="-0.70884">
        <ele>59</ele>
        <time>2014-05-25T14:55:24Z</time>
      </trkpt>
      <trkpt lat="44.46261" lon="-0.70862">
        <ele>59</ele>
        <time>2014-05-25T14:55:33Z</time>
      </trkpt>
      <trkpt lat="44.46287" lon="-0.70839">
        <ele>59</ele>
        <time>2014-05-25T14:55:42Z</time>
      </trkpt>
      <trkpt lat="44.46308" lon="-0.70817">
        <ele>59</ele>
        <time>2014-05-25T14:55:50Z</time>
      </trkpt>
      <trkpt lat="44.46335" lon="-0.70797">
        <ele>59</ele>
        <time>2014-05-25T14:55:58Z</time>
      </trkpt>
      <trkpt lat="44.46366" lon="-0.70774">
        <ele>60</ele>
        <time>2014-05-25T14:56:07Z</time>
      </trkpt>
      <trkpt lat="44.46395" lon="-0.70748">
        <ele>60</ele>
        <time>2014-05-25T14:56:16Z</time>
      </trkpt>
      <trkpt lat="44.46411" lon="-0.70734">
        <ele>60</ele>
        <time>2014-05-25T14:56:21Z</time>
      </trkpt>
      <trkpt lat="44.46412" lon="-0.7073">
        <ele>60</ele>
        <time>2014-05-25T14:56:22Z</time>
      </trkpt>
      <trkpt lat="44.46413" lon="-0.70726">
        <ele>60</ele>
        <time>2014-05-25T14:56:23Z</time>
      </trkpt>
      <trkpt lat="44.46416" lon="-0.70701">
        <ele>60</ele>
        <time>2014-05-25T14:56:30Z</time>
      </trkpt>
      <trkpt lat="44.46419" lon="-0.70674">
        <ele>60</ele>
        <time>2014-05-25T14:56:37Z</time>
      </trkpt>
      <trkpt lat="44.46419" lon="-0.70645">
        <ele>60</ele>
        <time>2014-05-25T14:56:44Z</time>
      </trkpt>
      <trkpt lat="44.46419" lon="-0.70642">
        <ele>60</ele>
        <time>2014-05-25T14:56:45Z</time>
      </trkpt>
      <trkpt lat="44.46419" lon="-0.70639">
        <ele>60</ele>
        <time>2014-05-25T14:56:46Z</time>
      </trkpt>
      <trkpt lat="44.46419" lon="-0.70636">
        <ele>60</ele>
        <time>2014-05-25T14:56:47Z</time>
      </trkpt>
      <trkpt lat="44.46419" lon="-0.70634">
        <ele>60</ele>
        <time>2014-05-25T14:56:48Z</time>
      </trkpt>
      <trkpt lat="44.4642" lon="-0.70632">
        <ele>60</ele>
        <time>2014-05-25T14:56:49Z</time>
      </trkpt>
      <trkpt lat="44.4642" lon="-0.70629">
        <ele>60</ele>
        <time>2014-05-25T14:56:50Z</time>
      </trkpt>
      <trkpt lat="44.4642" lon="-0.70627">
        <ele>60</ele>
        <time>2014-05-25T14:56:51Z</time>
      </trkpt>
      <trkpt lat="44.46419" lon="-0.70626">
        <ele>60</ele>
        <time>2014-05-25T14:56:52Z</time>
      </trkpt>
      <trkpt lat="44.46419" lon="-0.70624">
        <ele>60</ele>
        <time>2014-05-25T14:56:53Z</time>
      </trkpt>
      <trkpt lat="44.46417" lon="-0.70618">
        <ele>60</ele>
        <time>2014-05-25T14:56:55Z</time>
      </trkpt>
      <trkpt lat="44.46416" lon="-0.70614">
        <ele>60</ele>
        <time>2014-05-25T14:56:56Z</time>
      </trkpt>
      <trkpt lat="44.46417" lon="-0.70611">
        <ele>60</ele>
        <time>2014-05-25T14:56:57Z</time>
      </trkpt>
      <trkpt lat="44.46417" lon="-0.70609">
        <ele>60</ele>
        <time>2014-05-25T14:56:58Z</time>
      </trkpt>
      <trkpt lat="44.46416" lon="-0.70605">
        <ele>60</ele>
        <time>2014-05-25T14:56:59Z</time>
      </trkpt>
      <trkpt lat="44.46416" lon="-0.70602">
        <ele>60</ele>
        <time>2014-05-25T14:57:00Z</time>
      </trkpt>
      <trkpt lat="44.46415" lon="-0.70598">
        <ele>61</ele>
        <time>2014-05-25T14:57:01Z</time>
      </trkpt>
      <trkpt lat="44.46415" lon="-0.70594">
        <ele>61</ele>
        <time>2014-05-25T14:57:02Z</time>
      </trkpt>
      <trkpt lat="44.46415" lon="-0.70591">
        <ele>61</ele>
        <time>2014-05-25T14:57:03Z</time>
      </trkpt>
      <trkpt lat="44.46415" lon="-0.70587">
        <ele>61</ele>
        <time>2014-05-25T14:57:04Z</time>
      </trkpt>
      <trkpt lat="44.46415" lon="-0.70583">
        <ele>61</ele>
        <time>2014-05-25T14:57:05Z</time>
      </trkpt>
      <trkpt lat="44.46416" lon="-0.70579">
        <ele>61</ele>
        <time>2014-05-25T14:57:06Z</time>
      </trkpt>
      <trkpt lat="44.46416" lon="-0.70576">
        <ele>61</ele>
        <time>2014-05-25T14:57:07Z</time>
      </trkpt>
      <trkpt lat="44.46416" lon="-0.70572">
        <ele>61</ele>
        <time>2014-05-25T14:57:08Z</time>
      </trkpt>
      <trkpt lat="44.46415" lon="-0.70547">
        <ele>61</ele>
        <time>2014-05-25T14:57:15Z</time>
      </trkpt>
      <trkpt lat="44.46413" lon="-0.7051">
        <ele>61</ele>
        <time>2014-05-25T14:57:25Z</time>
      </trkpt>
      <trkpt lat="44.46412" lon="-0.70483">
        <ele>61</ele>
        <time>2014-05-25T14:57:32Z</time>
      </trkpt>
      <trkpt lat="44.46408" lon="-0.70451">
        <ele>61</ele>
        <time>2014-05-25T14:57:40Z</time>
      </trkpt>
      <trkpt lat="44.46399" lon="-0.70416">
        <ele>62</ele>
        <time>2014-05-25T14:57:49Z</time>
      </trkpt>
      <trkpt lat="44.46388" lon="-0.70383">
        <ele>62</ele>
        <time>2014-05-25T14:57:57Z</time>
      </trkpt>
      <trkpt lat="44.46378" lon="-0.70352">
        <ele>62</ele>
        <time>2014-05-25T14:58:05Z</time>
      </trkpt>
      <trkpt lat="44.46369" lon="-0.70311">
        <ele>62</ele>
        <time>2014-05-25T14:58:14Z</time>
      </trkpt>
      <trkpt lat="44.4636" lon="-0.70278">
        <ele>62</ele>
        <time>2014-05-25T14:58:21Z</time>
      </trkpt>
      <trkpt lat="44.46349" lon="-0.70243">
        <ele>62</ele>
        <time>2014-05-25T14:58:29Z</time>
      </trkpt>
      <trkpt lat="44.4634" lon="-0.70215">
        <ele>62</ele>
        <time>2014-05-25T14:58:36Z</time>
      </trkpt>
      <trkpt lat="44.4633" lon="-0.70192">
        <ele>62</ele>
        <time>2014-05-25T14:58:42Z</time>
      </trkpt>
      <trkpt lat="44.46322" lon="-0.70173">
        <ele>62</ele>
        <time>2014-05-25T14:58:47Z</time>
      </trkpt>
      <trkpt lat="44.46308" lon="-0.70143">
        <ele>62</ele>
        <time>2014-05-25T14:58:54Z</time>
      </trkpt>
      <trkpt lat="44.46295" lon="-0.701">
        <ele>62</ele>
        <time>2014-05-25T14:59:03Z</time>
      </trkpt>
      <trkpt lat="44.46287" lon="-0.70062">
        <ele>62</ele>
        <time>2014-05-25T14:59:11Z</time>
      </trkpt>
      <trkpt lat="44.46279" lon="-0.70023">
        <ele>62</ele>
        <time>2014-05-25T14:59:19Z</time>
      </trkpt>
      <trkpt lat="44.46268" lon="-0.6998">
        <ele>62</ele>
        <time>2014-05-25T14:59:28Z</time>
      </trkpt>
      <trkpt lat="44.46261" lon="-0.6995">
        <ele>63</ele>
        <time>2014-05-25T14:59:35Z</time>
      </trkpt>
      <trkpt lat="44.46257" lon="-0.69925">
        <ele>63</ele>
        <time>2014-05-25T14:59:41Z</time>
      </trkpt>
      <trkpt lat="44.46247" lon="-0.69889">
        <ele>63</ele>
        <time>2014-05-25T14:59:49Z</time>
      </trkpt>
      <trkpt lat="44.46238" lon="-0.69863">
        <ele>63</ele>
        <time>2014-05-25T14:59:55Z</time>
      </trkpt>
      <trkpt lat="44.46226" lon="-0.69826">
        <ele>64</ele>
        <time>2014-05-25T15:00:03Z</time>
      </trkpt>
      <trkpt lat="44.46218" lon="-0.69796">
        <ele>64</ele>
        <time>2014-05-25T15:00:09Z</time>
      </trkpt>
      <trkpt lat="44.4621" lon="-0.69765">
        <ele>64</ele>
        <time>2014-05-25T15:00:15Z</time>
      </trkpt>
      <trkpt lat="44.46203" lon="-0.69735">
        <ele>64</ele>
        <time>2014-05-25T15:00:21Z</time>
      </trkpt>
      <trkpt lat="44.46194" lon="-0.69713">
        <ele>64</ele>
        <time>2014-05-25T15:00:26Z</time>
      </trkpt>
      <trkpt lat="44.46187" lon="-0.69694">
        <ele>64</ele>
        <time>2014-05-25T15:00:31Z</time>
      </trkpt>
      <trkpt lat="44.46182" lon="-0.69678">
        <ele>64</ele>
        <time>2014-05-25T15:00:37Z</time>
      </trkpt>
      <trkpt lat="44.46181" lon="-0.69664">
        <ele>64</ele>
        <time>2014-05-25T15:00:42Z</time>
      </trkpt>
      <trkpt lat="44.46177" lon="-0.69641">
        <ele>64</ele>
        <time>2014-05-25T15:00:49Z</time>
      </trkpt>
      <trkpt lat="44.46169" lon="-0.69622">
        <ele>65</ele>
        <time>2014-05-25T15:00:55Z</time>
      </trkpt>
      <trkpt lat="44.46167" lon="-0.6961">
        <ele>65</ele>
        <time>2014-05-25T15:00:59Z</time>
      </trkpt>
      <trkpt lat="44.46165" lon="-0.69604">
        <ele>65</ele>
        <time>2014-05-25T15:01:01Z</time>
      </trkpt>
      <trkpt lat="44.46164" lon="-0.69601">
        <ele>65</ele>
        <time>2014-05-25T15:01:02Z</time>
      </trkpt>
      <trkpt lat="44.46163" lon="-0.69595">
        <ele>65</ele>
        <time>2014-05-25T15:01:04Z</time>
      </trkpt>
      <trkpt lat="44.46162" lon="-0.69591">
        <ele>65</ele>
        <time>2014-05-25T15:01:05Z</time>
      </trkpt>
      <trkpt lat="44.46161" lon="-0.69588">
        <ele>65</ele>
        <time>2014-05-25T15:01:06Z</time>
      </trkpt>
      <trkpt lat="44.4616" lon="-0.69583">
        <ele>65</ele>
        <time>2014-05-25T15:01:07Z</time>
      </trkpt>
      <trkpt lat="44.46159" lon="-0.6958">
        <ele>65</ele>
        <time>2014-05-25T15:01:08Z</time>
      </trkpt>
      <trkpt lat="44.46152" lon="-0.69561">
        <ele>65</ele>
        <time>2014-05-25T15:01:14Z</time>
      </trkpt>
      <trkpt lat="44.46152" lon="-0.69558">
        <ele>65</ele>
        <time>2014-05-25T15:01:15Z</time>
      </trkpt>
      <trkpt lat="44.46152" lon="-0.69555">
        <ele>65</ele>
        <time>2014-05-25T15:01:16Z</time>
      </trkpt>
      <trkpt lat="44.46152" lon="-0.69552">
        <ele>65</ele>
        <time>2014-05-25T15:01:17Z</time>
      </trkpt>
      <trkpt lat="44.46151" lon="-0.6955">
        <ele>65</ele>
        <time>2014-05-25T15:01:18Z</time>
      </trkpt>
      <trkpt lat="44.4615" lon="-0.69548">
        <ele>65</ele>
        <time>2014-05-25T15:01:19Z</time>
      </trkpt>
      <trkpt lat="44.4615" lon="-0.69545">
        <ele>65</ele>
        <time>2014-05-25T15:01:20Z</time>
      </trkpt>
      <trkpt lat="44.46148" lon="-0.69538">
        <ele>65</ele>
        <time>2014-05-25T15:01:23Z</time>
      </trkpt>
      <trkpt lat="44.46148" lon="-0.69535">
        <ele>65</ele>
        <time>2014-05-25T15:01:24Z</time>
      </trkpt>
      <trkpt lat="44.46148" lon="-0.69533">
        <ele>65</ele>
        <time>2014-05-25T15:01:25Z</time>
      </trkpt>
      <trkpt lat="44.46148" lon="-0.69529">
        <ele>65</ele>
        <time>2014-05-25T15:01:26Z</time>
      </trkpt>
      <trkpt lat="44.46148" lon="-0.69526">
        <ele>65</ele>
        <time>2014-05-25T15:01:27Z</time>
      </trkpt>
      <trkpt lat="44.46148" lon="-0.69523">
        <ele>65</ele>
        <time>2014-05-25T15:01:28Z</time>
      </trkpt>
      <trkpt lat="44.46148" lon="-0.6952">
        <ele>65</ele>
        <time>2014-05-25T15:01:29Z</time>
      </trkpt>
      <trkpt lat="44.46149" lon="-0.69517">
        <ele>65</ele>
        <time>2014-05-25T15:01:30Z</time>
      </trkpt>
      <trkpt lat="44.46149" lon="-0.69514">
        <ele>65</ele>
        <time>2014-05-25T15:01:31Z</time>
      </trkpt>
      <trkpt lat="44.46149" lon="-0.69511">
        <ele>65</ele>
        <time>2014-05-25T15:01:32Z</time>
      </trkpt>
      <trkpt lat="44.46149" lon="-0.69494">
        <ele>66</ele>
        <time>2014-05-25T15:01:38Z</time>
      </trkpt>
      <trkpt lat="44.4615" lon="-0.69487">
        <ele>66</ele>
        <time>2014-05-25T15:01:42Z</time>
      </trkpt>
      <trkpt lat="44.46151" lon="-0.69486">
        <ele>66</ele>
        <time>2014-05-25T15:01:43Z</time>
      </trkpt>
      <trkpt lat="44.46152" lon="-0.69485">
        <ele>66</ele>
        <time>2014-05-25T15:01:44Z</time>
      </trkpt>
      <trkpt lat="44.46153" lon="-0.69484">
        <ele>66</ele>
        <time>2014-05-25T15:01:45Z</time>
      </trkpt>
      <trkpt lat="44.46155" lon="-0.69483">
        <ele>66</ele>
        <time>2014-05-25T15:01:47Z</time>
      </trkpt>
      <trkpt lat="44.46157" lon="-0.69482">
        <ele>66</ele>
        <time>2014-05-25T15:01:48Z</time>
      </trkpt>
      <trkpt lat="44.46165" lon="-0.69476">
        <ele>66</ele>
        <time>2014-05-25T15:01:56Z</time>
      </trkpt>
      <trkpt lat="44.46166" lon="-0.69475">
        <ele>66</ele>
        <time>2014-05-25T15:01:57Z</time>
      </trkpt>
      <trkpt lat="44.4617" lon="-0.69471">
        <ele>66</ele>
        <time>2014-05-25T15:02:01Z</time>
      </trkpt>
      <trkpt lat="44.46179" lon="-0.69462">
        <ele>66</ele>
        <time>2014-05-25T15:02:10Z</time>
      </trkpt>
      <trkpt lat="44.4618" lon="-0.69461">
        <ele>66</ele>
        <time>2014-05-25T15:02:11Z</time>
      </trkpt>
      <trkpt lat="44.46181" lon="-0.6946">
        <ele>66</ele>
        <time>2014-05-25T15:02:12Z</time>
      </trkpt>
      <trkpt lat="44.46193" lon="-0.69442">
        <ele>66</ele>
        <time>2014-05-25T15:02:23Z</time>
      </trkpt>
      <trkpt lat="44.46203" lon="-0.69428">
        <ele>66</ele>
        <time>2014-05-25T15:02:30Z</time>
      </trkpt>
      <trkpt lat="44.46215" lon="-0.69414">
        <ele>66</ele>
        <time>2014-05-25T15:02:37Z</time>
      </trkpt>
      <trkpt lat="44.46235" lon="-0.69398">
        <ele>66</ele>
        <time>2014-05-25T15:02:46Z</time>
      </trkpt>
      <trkpt lat="44.46256" lon="-0.69377">
        <ele>66</ele>
        <time>2014-05-25T15:02:54Z</time>
      </trkpt>
      <trkpt lat="44.46271" lon="-0.69351">
        <ele>66</ele>
        <time>2014-05-25T15:03:01Z</time>
      </trkpt>
      <trkpt lat="44.46282" lon="-0.69314">
        <ele>66</ele>
        <time>2014-05-25T15:03:09Z</time>
      </trkpt>
      <trkpt lat="44.46285" lon="-0.69302">
        <ele>66</ele>
        <time>2014-05-25T15:03:11Z</time>
      </trkpt>
      <trkpt lat="44.46286" lon="-0.69297">
        <ele>66</ele>
        <time>2014-05-25T15:03:12Z</time>
      </trkpt>
      <trkpt lat="44.46303" lon="-0.69245">
        <ele>66</ele>
        <time>2014-05-25T15:03:21Z</time>
      </trkpt>
      <trkpt lat="44.46318" lon="-0.69199">
        <ele>67</ele>
        <time>2014-05-25T15:03:29Z</time>
      </trkpt>
      <trkpt lat="44.46332" lon="-0.69157">
        <ele>67</ele>
        <time>2014-05-25T15:03:36Z</time>
      </trkpt>
      <trkpt lat="44.46339" lon="-0.69133">
        <ele>67</ele>
        <time>2014-05-25T15:03:40Z</time>
      </trkpt>
      <trkpt lat="44.46358" lon="-0.69076">
        <ele>67</ele>
        <time>2014-05-25T15:03:50Z</time>
      </trkpt>
      <trkpt lat="44.46366" lon="-0.69053">
        <ele>67</ele>
        <time>2014-05-25T15:03:54Z</time>
      </trkpt>
      <trkpt lat="44.46368" lon="-0.69047">
        <ele>67</ele>
        <time>2014-05-25T15:03:55Z</time>
      </trkpt>
      <trkpt lat="44.46384" lon="-0.69002">
        <ele>67</ele>
        <time>2014-05-25T15:04:03Z</time>
      </trkpt>
      <trkpt lat="44.4639" lon="-0.68978">
        <ele>67</ele>
        <time>2014-05-25T15:04:07Z</time>
      </trkpt>
      <trkpt lat="44.46401" lon="-0.68937">
        <ele>68</ele>
        <time>2014-05-25T15:04:14Z</time>
      </trkpt>
      <trkpt lat="44.46415" lon="-0.68883">
        <ele>68</ele>
        <time>2014-05-25T15:04:23Z</time>
      </trkpt>
      <trkpt lat="44.46428" lon="-0.68823">
        <ele>68</ele>
        <time>2014-05-25T15:04:32Z</time>
      </trkpt>
      <trkpt lat="44.46439" lon="-0.68771">
        <ele>69</ele>
        <time>2014-05-25T15:04:40Z</time>
      </trkpt>
      <trkpt lat="44.46449" lon="-0.68715">
        <ele>69</ele>
        <time>2014-05-25T15:04:48Z</time>
      </trkpt>
      <trkpt lat="44.46458" lon="-0.6865">
        <ele>69</ele>
        <time>2014-05-25T15:04:57Z</time>
      </trkpt>
      <trkpt lat="44.46466" lon="-0.68591">
        <ele>70</ele>
        <time>2014-05-25T15:05:05Z</time>
      </trkpt>
      <trkpt lat="44.46478" lon="-0.68509">
        <ele>70</ele>
        <time>2014-05-25T15:05:16Z</time>
      </trkpt>
      <trkpt lat="44.4649" lon="-0.68429">
        <ele>70</ele>
        <time>2014-05-25T15:05:27Z</time>
      </trkpt>
      <trkpt lat="44.46509" lon="-0.68342">
        <ele>70</ele>
        <time>2014-05-25T15:05:39Z</time>
      </trkpt>
      <trkpt lat="44.46526" lon="-0.68287">
        <ele>70</ele>
        <time>2014-05-25T15:05:47Z</time>
      </trkpt>
      <trkpt lat="44.46548" lon="-0.68226">
        <ele>71</ele>
        <time>2014-05-25T15:05:56Z</time>
      </trkpt>
      <trkpt lat="44.4658" lon="-0.68152">
        <ele>71</ele>
        <time>2014-05-25T15:06:07Z</time>
      </trkpt>
      <trkpt lat="44.46605" lon="-0.68097">
        <ele>72</ele>
        <time>2014-05-25T15:06:15Z</time>
      </trkpt>
      <trkpt lat="44.46638" lon="-0.68021">
        <ele>72</ele>
        <time>2014-05-25T15:06:26Z</time>
      </trkpt>
      <trkpt lat="44.46661" lon="-0.67968">
        <ele>72</ele>
        <time>2014-05-25T15:06:34Z</time>
      </trkpt>
      <trkpt lat="44.46678" lon="-0.67924">
        <ele>72</ele>
        <time>2014-05-25T15:06:42Z</time>
      </trkpt>
      <trkpt lat="44.46677" lon="-0.6792">
        <ele>72</ele>
        <time>2014-05-25T15:06:43Z</time>
      </trkpt>
      <trkpt lat="44.46674" lon="-0.67916">
        <ele>72</ele>
        <time>2014-05-25T15:06:44Z</time>
      </trkpt>
      <trkpt lat="44.46651" lon="-0.67899">
        <ele>72</ele>
        <time>2014-05-25T15:06:51Z</time>
      </trkpt>
      <trkpt lat="44.46635" lon="-0.67872">
        <ele>72</ele>
        <time>2014-05-25T15:06:58Z</time>
      </trkpt>
      <trkpt lat="44.46619" lon="-0.67843">
        <ele>72</ele>
        <time>2014-05-25T15:07:05Z</time>
      </trkpt>
      <trkpt lat="44.4659" lon="-0.67828">
        <ele>72</ele>
        <time>2014-05-25T15:07:12Z</time>
      </trkpt>
      <trkpt lat="44.46586" lon="-0.67827">
        <ele>72</ele>
        <time>2014-05-25T15:07:13Z</time>
      </trkpt>
      <trkpt lat="44.4658" lon="-0.67826">
        <ele>72</ele>
        <time>2014-05-25T15:07:14Z</time>
      </trkpt>
      <trkpt lat="44.46565" lon="-0.67826">
        <ele>72</ele>
        <time>2014-05-25T15:07:17Z</time>
      </trkpt>
      <trkpt lat="44.46549" lon="-0.67827">
        <ele>72</ele>
        <time>2014-05-25T15:07:21Z</time>
      </trkpt>
      <trkpt lat="44.46532" lon="-0.67829">
        <ele>72</ele>
        <time>2014-05-25T15:07:25Z</time>
      </trkpt>
      <trkpt lat="44.46527" lon="-0.67829">
        <ele>72</ele>
        <time>2014-05-25T15:07:26Z</time>
      </trkpt>
      <trkpt lat="44.46509" lon="-0.67825">
        <ele>72</ele>
        <time>2014-05-25T15:07:30Z</time>
      </trkpt>
      <trkpt lat="44.465" lon="-0.67825">
        <ele>72</ele>
        <time>2014-05-25T15:07:32Z</time>
      </trkpt>
      <trkpt lat="44.46479" lon="-0.67832">
        <ele>72</ele>
        <time>2014-05-25T15:07:37Z</time>
      </trkpt>
      <trkpt lat="44.46475" lon="-0.67834">
        <ele>71</ele>
        <time>2014-05-25T15:07:38Z</time>
      </trkpt>
      <trkpt lat="44.46467" lon="-0.67838">
        <ele>71</ele>
        <time>2014-05-25T15:07:40Z</time>
      </trkpt>
      <trkpt lat="44.46448" lon="-0.67854">
        <ele>71</ele>
        <time>2014-05-25T15:07:45Z</time>
      </trkpt>
      <trkpt lat="44.46437" lon="-0.67865">
        <ele>71</ele>
        <time>2014-05-25T15:07:48Z</time>
      </trkpt>
      <trkpt lat="44.46433" lon="-0.67867">
        <ele>71</ele>
        <time>2014-05-25T15:07:49Z</time>
      </trkpt>
      <trkpt lat="44.46429" lon="-0.67866">
        <ele>71</ele>
        <time>2014-05-25T15:07:50Z</time>
      </trkpt>
      <trkpt lat="44.46418" lon="-0.67863">
        <ele>71</ele>
        <time>2014-05-25T15:07:53Z</time>
      </trkpt>
      <trkpt lat="44.46415" lon="-0.67861">
        <ele>71</ele>
        <time>2014-05-25T15:07:54Z</time>
      </trkpt>
      <trkpt lat="44.46411" lon="-0.67858">
        <ele>71</ele>
        <time>2014-05-25T15:07:55Z</time>
      </trkpt>
      <trkpt lat="44.46408" lon="-0.67855">
        <ele>71</ele>
        <time>2014-05-25T15:07:56Z</time>
      </trkpt>
      <trkpt lat="44.46405" lon="-0.67851">
        <ele>71</ele>
        <time>2014-05-25T15:07:57Z</time>
      </trkpt>
      <trkpt lat="44.46402" lon="-0.67848">
        <ele>71</ele>
        <time>2014-05-25T15:07:58Z</time>
      </trkpt>
      <trkpt lat="44.46387" lon="-0.67822">
        <ele>70</ele>
        <time>2014-05-25T15:08:04Z</time>
      </trkpt>
      <trkpt lat="44.46364" lon="-0.67784">
        <ele>70</ele>
        <time>2014-05-25T15:08:12Z</time>
      </trkpt>
      <trkpt lat="44.46355" lon="-0.67769">
        <ele>70</ele>
        <time>2014-05-25T15:08:15Z</time>
      </trkpt>
      <trkpt lat="44.46343" lon="-0.6775">
        <ele>70</ele>
        <time>2014-05-25T15:08:19Z</time>
      </trkpt>
      <trkpt lat="44.46336" lon="-0.67742">
        <ele>70</ele>
        <time>2014-05-25T15:08:21Z</time>
      </trkpt>
      <trkpt lat="44.46333" lon="-0.67736">
        <ele>70</ele>
        <time>2014-05-25T15:08:22Z</time>
      </trkpt>
      <trkpt lat="44.46327" lon="-0.67717">
        <ele>70</ele>
        <time>2014-05-25T15:08:26Z</time>
      </trkpt>
      <trkpt lat="44.4632" lon="-0.67679">
        <ele>70</ele>
        <time>2014-05-25T15:08:32Z</time>
      </trkpt>
      <trkpt lat="44.4632" lon="-0.67671">
        <ele>70</ele>
        <time>2014-05-25T15:08:33Z</time>
      </trkpt>
      <trkpt lat="44.46321" lon="-0.67664">
        <ele>70</ele>
        <time>2014-05-25T15:08:34Z</time>
      </trkpt>
      <trkpt lat="44.46329" lon="-0.67621">
        <ele>70</ele>
        <time>2014-05-25T15:08:40Z</time>
      </trkpt>
      <trkpt lat="44.4633" lon="-0.67602">
        <ele>70</ele>
        <time>2014-05-25T15:08:43Z</time>
      </trkpt>
      <trkpt lat="44.4633" lon="-0.67596">
        <ele>70</ele>
        <time>2014-05-25T15:08:44Z</time>
      </trkpt>
      <trkpt lat="44.46331" lon="-0.67587">
        <ele>70</ele>
        <time>2014-05-25T15:08:46Z</time>
      </trkpt>
      <trkpt lat="44.46333" lon="-0.67584">
        <ele>70</ele>
        <time>2014-05-25T15:08:47Z</time>
      </trkpt>
      <trkpt lat="44.46353" lon="-0.6757">
        <ele>70</ele>
        <time>2014-05-25T15:08:54Z</time>
      </trkpt>
      <trkpt lat="44.46366" lon="-0.67556">
        <ele>70</ele>
        <time>2014-05-25T15:08:59Z</time>
      </trkpt>
      <trkpt lat="44.4638" lon="-0.6754">
        <ele>70</ele>
        <time>2014-05-25T15:09:04Z</time>
      </trkpt>
      <trkpt lat="44.46394" lon="-0.67524">
        <ele>70</ele>
        <time>2014-05-25T15:09:09Z</time>
      </trkpt>
      <trkpt lat="44.46405" lon="-0.67508">
        <ele>70</ele>
        <time>2014-05-25T15:09:14Z</time>
      </trkpt>
      <trkpt lat="44.46408" lon="-0.67507">
        <ele>70</ele>
        <time>2014-05-25T15:09:15Z</time>
      </trkpt>
      <trkpt lat="44.46429" lon="-0.67503">
        <ele>71</ele>
        <time>2014-05-25T15:09:20Z</time>
      </trkpt>
      <trkpt lat="44.46433" lon="-0.67501">
        <ele>71</ele>
        <time>2014-05-25T15:09:21Z</time>
      </trkpt>
      <trkpt lat="44.46451" lon="-0.67483">
        <ele>71</ele>
        <time>2014-05-25T15:09:26Z</time>
      </trkpt>
      <trkpt lat="44.46477" lon="-0.67453">
        <ele>72</ele>
        <time>2014-05-25T15:09:34Z</time>
      </trkpt>
      <trkpt lat="44.46484" lon="-0.67445">
        <ele>72</ele>
        <time>2014-05-25T15:09:36Z</time>
      </trkpt>
      <trkpt lat="44.46487" lon="-0.67441">
        <ele>72</ele>
        <time>2014-05-25T15:09:37Z</time>
      </trkpt>
      <trkpt lat="44.4649" lon="-0.67437">
        <ele>72</ele>
        <time>2014-05-25T15:09:38Z</time>
      </trkpt>
      <trkpt lat="44.46493" lon="-0.67433">
        <ele>72</ele>
        <time>2014-05-25T15:09:39Z</time>
      </trkpt>
      <trkpt lat="44.46496" lon="-0.6743">
        <ele>72</ele>
        <time>2014-05-25T15:09:40Z</time>
      </trkpt>
      <trkpt lat="44.46509" lon="-0.67422">
        <ele>72</ele>
        <time>2014-05-25T15:09:43Z</time>
      </trkpt>
      <trkpt lat="44.46513" lon="-0.67419">
        <ele>72</ele>
        <time>2014-05-25T15:09:44Z</time>
      </trkpt>
      <trkpt lat="44.46516" lon="-0.67417">
        <ele>72</ele>
        <time>2014-05-25T15:09:45Z</time>
      </trkpt>
      <trkpt lat="44.4652" lon="-0.67414">
        <ele>72</ele>
        <time>2014-05-25T15:09:46Z</time>
      </trkpt>
      <trkpt lat="44.46523" lon="-0.67412">
        <ele>72</ele>
        <time>2014-05-25T15:09:47Z</time>
      </trkpt>
      <trkpt lat="44.46537" lon="-0.67393">
        <ele>72</ele>
        <time>2014-05-25T15:09:53Z</time>
      </trkpt>
      <trkpt lat="44.46551" lon="-0.67372">
        <ele>72</ele>
        <time>2014-05-25T15:09:59Z</time>
      </trkpt>
      <trkpt lat="44.46554" lon="-0.67365">
        <ele>72</ele>
        <time>2014-05-25T15:10:01Z</time>
      </trkpt>
      <trkpt lat="44.46555" lon="-0.6736">
        <ele>72</ele>
        <time>2014-05-25T15:10:02Z</time>
      </trkpt>
      <trkpt lat="44.46555" lon="-0.67355">
        <ele>72</ele>
        <time>2014-05-25T15:10:03Z</time>
      </trkpt>
      <trkpt lat="44.46565" lon="-0.67333">
        <ele>72</ele>
        <time>2014-05-25T15:10:08Z</time>
      </trkpt>
      <trkpt lat="44.46577" lon="-0.67317">
        <ele>72</ele>
        <time>2014-05-25T15:10:13Z</time>
      </trkpt>
      <trkpt lat="44.46591" lon="-0.67304">
        <ele>72</ele>
        <time>2014-05-25T15:10:18Z</time>
      </trkpt>
      <trkpt lat="44.46614" lon="-0.67283">
        <ele>73</ele>
        <time>2014-05-25T15:10:25Z</time>
      </trkpt>
      <trkpt lat="44.4663" lon="-0.67265">
        <ele>73</ele>
        <time>2014-05-25T15:10:31Z</time>
      </trkpt>
      <trkpt lat="44.46645" lon="-0.67248">
        <ele>72</ele>
        <time>2014-05-25T15:10:37Z</time>
      </trkpt>
      <trkpt lat="44.46661" lon="-0.67229">
        <ele>72</ele>
        <time>2014-05-25T15:10:43Z</time>
      </trkpt>
      <trkpt lat="44.46676" lon="-0.67208">
        <ele>72</ele>
        <time>2014-05-25T15:10:49Z</time>
      </trkpt>
      <trkpt lat="44.46681" lon="-0.67196">
        <ele>72</ele>
        <time>2014-05-25T15:10:51Z</time>
      </trkpt>
      <trkpt lat="44.46699" lon="-0.67173">
        <ele>72</ele>
        <time>2014-05-25T15:10:57Z</time>
      </trkpt>
      <trkpt lat="44.46716" lon="-0.67152">
        <ele>73</ele>
        <time>2014-05-25T15:11:03Z</time>
      </trkpt>
      <trkpt lat="44.4672" lon="-0.67147">
        <ele>73</ele>
        <time>2014-05-25T15:11:04Z</time>
      </trkpt>
      <trkpt lat="44.46723" lon="-0.67144">
        <ele>73</ele>
        <time>2014-05-25T15:11:05Z</time>
      </trkpt>
      <trkpt lat="44.46727" lon="-0.6714">
        <ele>73</ele>
        <time>2014-05-25T15:11:06Z</time>
      </trkpt>
      <trkpt lat="44.46731" lon="-0.67137">
        <ele>73</ele>
        <time>2014-05-25T15:11:07Z</time>
      </trkpt>
      <trkpt lat="44.46735" lon="-0.67134">
        <ele>73</ele>
        <time>2014-05-25T15:11:08Z</time>
      </trkpt>
      <trkpt lat="44.46743" lon="-0.67128">
        <ele>73</ele>
        <time>2014-05-25T15:11:10Z</time>
      </trkpt>
      <trkpt lat="44.46748" lon="-0.67126">
        <ele>73</ele>
        <time>2014-05-25T15:11:11Z</time>
      </trkpt>
      <trkpt lat="44.4677" lon="-0.67115">
        <ele>73</ele>
        <time>2014-05-25T15:11:16Z</time>
      </trkpt>
      <trkpt lat="44.46775" lon="-0.67113">
        <ele>73</ele>
        <time>2014-05-25T15:11:17Z</time>
      </trkpt>
      <trkpt lat="44.46784" lon="-0.67108">
        <ele>72</ele>
        <time>2014-05-25T15:11:19Z</time>
      </trkpt>
      <trkpt lat="44.46802" lon="-0.67103">
        <ele>73</ele>
        <time>2014-05-25T15:11:23Z</time>
      </trkpt>
      <trkpt lat="44.46818" lon="-0.67097">
        <ele>73</ele>
        <time>2014-05-25T15:11:27Z</time>
      </trkpt>
      <trkpt lat="44.46841" lon="-0.67084">
        <ele>73</ele>
        <time>2014-05-25T15:11:33Z</time>
      </trkpt>
      <trkpt lat="44.46846" lon="-0.67082">
        <ele>73</ele>
        <time>2014-05-25T15:11:34Z</time>
      </trkpt>
      <trkpt lat="44.46849" lon="-0.67079">
        <ele>73</ele>
        <time>2014-05-25T15:11:35Z</time>
      </trkpt>
      <trkpt lat="44.46869" lon="-0.67068">
        <ele>74</ele>
        <time>2014-05-25T15:11:40Z</time>
      </trkpt>
      <trkpt lat="44.46873" lon="-0.67067">
        <ele>74</ele>
        <time>2014-05-25T15:11:41Z</time>
      </trkpt>
      <trkpt lat="44.46878" lon="-0.67066">
        <ele>74</ele>
        <time>2014-05-25T15:11:42Z</time>
      </trkpt>
      <trkpt lat="44.46887" lon="-0.67064">
        <ele>74</ele>
        <time>2014-05-25T15:11:44Z</time>
      </trkpt>
      <trkpt lat="44.46916" lon="-0.67061">
        <ele>75</ele>
        <time>2014-05-25T15:11:51Z</time>
      </trkpt>
      <trkpt lat="44.46939" lon="-0.67058">
        <ele>75</ele>
        <time>2014-05-25T15:11:57Z</time>
      </trkpt>
      <trkpt lat="44.46966" lon="-0.67057">
        <ele>75</ele>
        <time>2014-05-25T15:12:04Z</time>
      </trkpt>
      <trkpt lat="44.46997" lon="-0.67052">
        <ele>74</ele>
        <time>2014-05-25T15:12:11Z</time>
      </trkpt>
      <trkpt lat="44.47005" lon="-0.67048">
        <ele>74</ele>
        <time>2014-05-25T15:12:13Z</time>
      </trkpt>
      <trkpt lat="44.47034" lon="-0.67037">
        <ele>74</ele>
        <time>2014-05-25T15:12:20Z</time>
      </trkpt>
      <trkpt lat="44.4706" lon="-0.67026">
        <ele>74</ele>
        <time>2014-05-25T15:12:28Z</time>
      </trkpt>
      <trkpt lat="44.47074" lon="-0.6702">
        <ele>74</ele>
        <time>2014-05-25T15:12:33Z</time>
      </trkpt>
      <trkpt lat="44.47083" lon="-0.67017">
        <ele>74</ele>
        <time>2014-05-25T15:12:38Z</time>
      </trkpt>
      <trkpt lat="44.47084" lon="-0.67014">
        <ele>74</ele>
        <time>2014-05-25T15:12:39Z</time>
      </trkpt>
      <trkpt lat="44.47086" lon="-0.67012">
        <ele>74</ele>
        <time>2014-05-25T15:12:40Z</time>
      </trkpt>
      <trkpt lat="44.47087" lon="-0.6701">
        <ele>74</ele>
        <time>2014-05-25T15:12:41Z</time>
      </trkpt>
      <trkpt lat="44.47089" lon="-0.67009">
        <ele>74</ele>
        <time>2014-05-25T15:12:42Z</time>
      </trkpt>
      <trkpt lat="44.471" lon="-0.66994">
        <ele>74</ele>
        <time>2014-05-25T15:12:49Z</time>
      </trkpt>
      <trkpt lat="44.4711" lon="-0.6698">
        <ele>74</ele>
        <time>2014-05-25T15:12:55Z</time>
      </trkpt>
      <trkpt lat="44.47119" lon="-0.66967">
        <ele>74</ele>
        <time>2014-05-25T15:13:01Z</time>
      </trkpt>
      <trkpt lat="44.47129" lon="-0.66953">
        <ele>74</ele>
        <time>2014-05-25T15:13:08Z</time>
      </trkpt>
      <trkpt lat="44.47141" lon="-0.66938">
        <ele>74</ele>
        <time>2014-05-25T15:13:16Z</time>
      </trkpt>
      <trkpt lat="44.47156" lon="-0.66918">
        <ele>74</ele>
        <time>2014-05-25T15:13:24Z</time>
      </trkpt>
      <trkpt lat="44.47174" lon="-0.66892">
        <ele>74</ele>
        <time>2014-05-25T15:13:32Z</time>
      </trkpt>
      <trkpt lat="44.47193" lon="-0.66866">
        <ele>74</ele>
        <time>2014-05-25T15:13:39Z</time>
      </trkpt>
      <trkpt lat="44.47202" lon="-0.66853">
        <ele>74</ele>
        <time>2014-05-25T15:13:42Z</time>
      </trkpt>
      <trkpt lat="44.47206" lon="-0.66848">
        <ele>74</ele>
        <time>2014-05-25T15:13:43Z</time>
      </trkpt>
      <trkpt lat="44.47209" lon="-0.66843">
        <ele>74</ele>
        <time>2014-05-25T15:13:44Z</time>
      </trkpt>
      <trkpt lat="44.47212" lon="-0.66838">
        <ele>74</ele>
        <time>2014-05-25T15:13:45Z</time>
      </trkpt>
      <trkpt lat="44.47216" lon="-0.66834">
        <ele>74</ele>
        <time>2014-05-25T15:13:46Z</time>
      </trkpt>
      <trkpt lat="44.47219" lon="-0.6683">
        <ele>74</ele>
        <time>2014-05-25T15:13:47Z</time>
      </trkpt>
      <trkpt lat="44.47223" lon="-0.66826">
        <ele>74</ele>
        <time>2014-05-25T15:13:48Z</time>
      </trkpt>
      <trkpt lat="44.47251" lon="-0.66785">
        <ele>74</ele>
        <time>2014-05-25T15:13:56Z</time>
      </trkpt>
      <trkpt lat="44.47283" lon="-0.6674">
        <ele>74</ele>
        <time>2014-05-25T15:14:05Z</time>
      </trkpt>
      <trkpt lat="44.47298" lon="-0.66719">
        <ele>74</ele>
        <time>2014-05-25T15:14:11Z</time>
      </trkpt>
      <trkpt lat="44.47306" lon="-0.66705">
        <ele>74</ele>
        <time>2014-05-25T15:14:18Z</time>
      </trkpt>
      <trkpt lat="44.47316" lon="-0.66686">
        <ele>74</ele>
        <time>2014-05-25T15:14:25Z</time>
      </trkpt>
      <trkpt lat="44.4731" lon="-0.66678">
        <ele>74</ele>
        <time>2014-05-25T15:14:30Z</time>
      </trkpt>
      <trkpt lat="44.47302" lon="-0.6666">
        <ele>74</ele>
        <time>2014-05-25T15:14:36Z</time>
      </trkpt>
      <trkpt lat="44.47297" lon="-0.66638">
        <ele>74</ele>
        <time>2014-05-25T15:14:42Z</time>
      </trkpt>
      <trkpt lat="44.47287" lon="-0.66611">
        <ele>74</ele>
        <time>2014-05-25T15:14:49Z</time>
      </trkpt>
      <trkpt lat="44.47278" lon="-0.6659">
        <ele>74</ele>
        <time>2014-05-25T15:14:55Z</time>
      </trkpt>
      <trkpt lat="44.47268" lon="-0.66567">
        <ele>73</ele>
        <time>2014-05-25T15:15:01Z</time>
      </trkpt>
      <trkpt lat="44.47249" lon="-0.66538">
        <ele>73</ele>
        <time>2014-05-25T15:15:09Z</time>
      </trkpt>
      <trkpt lat="44.47229" lon="-0.66512">
        <ele>74</ele>
        <time>2014-05-25T15:15:16Z</time>
      </trkpt>
      <trkpt lat="44.47205" lon="-0.66485">
        <ele>74</ele>
        <time>2014-05-25T15:15:24Z</time>
      </trkpt>
      <trkpt lat="44.47194" lon="-0.66478">
        <ele>74</ele>
        <time>2014-05-25T15:15:27Z</time>
      </trkpt>
      <trkpt lat="44.47168" lon="-0.66462">
        <ele>75</ele>
        <time>2014-05-25T15:15:34Z</time>
      </trkpt>
      <trkpt lat="44.47143" lon="-0.66436">
        <ele>75</ele>
        <time>2014-05-25T15:15:42Z</time>
      </trkpt>
      <trkpt lat="44.47123" lon="-0.66408">
        <ele>74</ele>
        <time>2014-05-25T15:15:49Z</time>
      </trkpt>
      <trkpt lat="44.47101" lon="-0.66376">
        <ele>73</ele>
        <time>2014-05-25T15:15:57Z</time>
      </trkpt>
      <trkpt lat="44.47081" lon="-0.66345">
        <ele>72</ele>
        <time>2014-05-25T15:16:04Z</time>
      </trkpt>
      <trkpt lat="44.47071" lon="-0.66327">
        <ele>72</ele>
        <time>2014-05-25T15:16:08Z</time>
      </trkpt>
      <trkpt lat="44.47056" lon="-0.66301">
        <ele>71</ele>
        <time>2014-05-25T15:16:15Z</time>
      </trkpt>
      <trkpt lat="44.47041" lon="-0.66275">
        <ele>71</ele>
        <time>2014-05-25T15:16:22Z</time>
      </trkpt>
      <trkpt lat="44.47026" lon="-0.66251">
        <ele>71</ele>
        <time>2014-05-25T15:16:30Z</time>
      </trkpt>
      <trkpt lat="44.4702" lon="-0.66238">
        <ele>71</ele>
        <time>2014-05-25T15:16:36Z</time>
      </trkpt>
      <trkpt lat="44.47019" lon="-0.66234">
        <ele>71</ele>
        <time>2014-05-25T15:16:38Z</time>
      </trkpt>
      <trkpt lat="44.47019" lon="-0.66231">
        <ele>71</ele>
        <time>2014-05-25T15:16:39Z</time>
      </trkpt>
      <trkpt lat="44.4702" lon="-0.66228">
        <ele>71</ele>
        <time>2014-05-25T15:16:40Z</time>
      </trkpt>
      <trkpt lat="44.47028" lon="-0.6621">
        <ele>71</ele>
        <time>2014-05-25T15:16:47Z</time>
      </trkpt>
      <trkpt lat="44.47039" lon="-0.6619">
        <ele>71</ele>
        <time>2014-05-25T15:16:54Z</time>
      </trkpt>
      <trkpt lat="44.4704" lon="-0.66188">
        <ele>71</ele>
        <time>2014-05-25T15:16:55Z</time>
      </trkpt>
      <trkpt lat="44.47042" lon="-0.66186">
        <ele>71</ele>
        <time>2014-05-25T15:16:56Z</time>
      </trkpt>
      <trkpt lat="44.47044" lon="-0.66185">
        <ele>71</ele>
        <time>2014-05-25T15:16:57Z</time>
      </trkpt>
      <trkpt lat="44.47047" lon="-0.66184">
        <ele>71</ele>
        <time>2014-05-25T15:16:58Z</time>
      </trkpt>
      <trkpt lat="44.47063" lon="-0.66171">
        <ele>71</ele>
        <time>2014-05-25T15:17:05Z</time>
      </trkpt>
      <trkpt lat="44.47074" lon="-0.66149">
        <ele>72</ele>
        <time>2014-05-25T15:17:12Z</time>
      </trkpt>
      <trkpt lat="44.47087" lon="-0.66133">
        <ele>72</ele>
        <time>2014-05-25T15:17:18Z</time>
      </trkpt>
      <trkpt lat="44.4711" lon="-0.66117">
        <ele>72</ele>
        <time>2014-05-25T15:17:26Z</time>
      </trkpt>
      <trkpt lat="44.47125" lon="-0.66112">
        <ele>72</ele>
        <time>2014-05-25T15:17:32Z</time>
      </trkpt>
      <trkpt lat="44.47141" lon="-0.66108">
        <ele>71</ele>
        <time>2014-05-25T15:17:38Z</time>
      </trkpt>
      <trkpt lat="44.47156" lon="-0.66103">
        <ele>71</ele>
        <time>2014-05-25T15:17:45Z</time>
      </trkpt>
      <trkpt lat="44.47169" lon="-0.66094">
        <ele>71</ele>
        <time>2014-05-25T15:17:52Z</time>
      </trkpt>
      <trkpt lat="44.47181" lon="-0.66082">
        <ele>71</ele>
        <time>2014-05-25T15:17:58Z</time>
      </trkpt>
      <trkpt lat="44.47194" lon="-0.66067">
        <ele>71</ele>
        <time>2014-05-25T15:18:05Z</time>
      </trkpt>
      <trkpt lat="44.47207" lon="-0.66043">
        <ele>71</ele>
        <time>2014-05-25T15:18:14Z</time>
      </trkpt>
      <trkpt lat="44.47216" lon="-0.66021">
        <ele>71</ele>
        <time>2014-05-25T15:18:21Z</time>
      </trkpt>
      <trkpt lat="44.47228" lon="-0.65999">
        <ele>71</ele>
        <time>2014-05-25T15:18:29Z</time>
      </trkpt>
      <trkpt lat="44.47234" lon="-0.65975">
        <ele>71</ele>
        <time>2014-05-25T15:18:36Z</time>
      </trkpt>
      <trkpt lat="44.47242" lon="-0.65955">
        <ele>71</ele>
        <time>2014-05-25T15:18:42Z</time>
      </trkpt>
      <trkpt lat="44.47252" lon="-0.65928">
        <ele>71</ele>
        <time>2014-05-25T15:18:50Z</time>
      </trkpt>
      <trkpt lat="44.47257" lon="-0.659">
        <ele>71</ele>
        <time>2014-05-25T15:18:57Z</time>
      </trkpt>
      <trkpt lat="44.47257" lon="-0.6587">
        <ele>71</ele>
        <time>2014-05-25T15:19:05Z</time>
      </trkpt>
      <trkpt lat="44.47254" lon="-0.65844">
        <ele>71</ele>
        <time>2014-05-25T15:19:12Z</time>
      </trkpt>
      <trkpt lat="44.47254" lon="-0.65815">
        <ele>72</ele>
        <time>2014-05-25T15:19:20Z</time>
      </trkpt>
      <trkpt lat="44.47253" lon="-0.65798">
        <ele>72</ele>
        <time>2014-05-25T15:19:25Z</time>
      </trkpt>
      <trkpt lat="44.47252" lon="-0.65796">
        <ele>72</ele>
        <time>2014-05-25T15:19:26Z</time>
      </trkpt>
      <trkpt lat="44.47246" lon="-0.65772">
        <ele>72</ele>
        <time>2014-05-25T15:19:33Z</time>
      </trkpt>
      <trkpt lat="44.47239" lon="-0.65741">
        <ele>72</ele>
        <time>2014-05-25T15:19:41Z</time>
      </trkpt>
      <trkpt lat="44.47233" lon="-0.65717">
        <ele>72</ele>
        <time>2014-05-25T15:19:48Z</time>
      </trkpt>
      <trkpt lat="44.4723" lon="-0.65694">
        <ele>72</ele>
        <time>2014-05-25T15:19:54Z</time>
      </trkpt>
      <trkpt lat="44.47222" lon="-0.65666">
        <ele>71</ele>
        <time>2014-05-25T15:20:01Z</time>
      </trkpt>
      <trkpt lat="44.4721" lon="-0.65638">
        <ele>71</ele>
        <time>2014-05-25T15:20:09Z</time>
      </trkpt>
      <trkpt lat="44.47207" lon="-0.6563">
        <ele>71</ele>
        <time>2014-05-25T15:20:12Z</time>
      </trkpt>
      <trkpt lat="44.47206" lon="-0.65628">
        <ele>71</ele>
        <time>2014-05-25T15:20:13Z</time>
      </trkpt>
      <trkpt lat="44.47207" lon="-0.65625">
        <ele>71</ele>
        <time>2014-05-25T15:20:14Z</time>
      </trkpt>
      <trkpt lat="44.47207" lon="-0.65623">
        <ele>71</ele>
        <time>2014-05-25T15:20:15Z</time>
      </trkpt>
      <trkpt lat="44.47208" lon="-0.6562">
        <ele>71</ele>
        <time>2014-05-25T15:20:16Z</time>
      </trkpt>
      <trkpt lat="44.4721" lon="-0.65617">
        <ele>71</ele>
        <time>2014-05-25T15:20:17Z</time>
      </trkpt>
      <trkpt lat="44.47211" lon="-0.65615">
        <ele>71</ele>
        <time>2014-05-25T15:20:18Z</time>
      </trkpt>
      <trkpt lat="44.47212" lon="-0.65614">
        <ele>71</ele>
        <time>2014-05-25T15:20:19Z</time>
      </trkpt>
      <trkpt lat="44.47221" lon="-0.65611">
        <ele>71</ele>
        <time>2014-05-25T15:20:25Z</time>
      </trkpt>
      <trkpt lat="44.47224" lon="-0.65611">
        <ele>71</ele>
        <time>2014-05-25T15:20:27Z</time>
      </trkpt>
      <trkpt lat="44.47237" lon="-0.65608">
        <ele>70</ele>
        <time>2014-05-25T15:20:35Z</time>
      </trkpt>
      <trkpt lat="44.47249" lon="-0.65606">
        <ele>71</ele>
        <time>2014-05-25T15:20:43Z</time>
      </trkpt>
      <trkpt lat="44.47251" lon="-0.65606">
        <ele>71</ele>
        <time>2014-05-25T15:20:44Z</time>
      </trkpt>
      <trkpt lat="44.47262" lon="-0.65604">
        <ele>71</ele>
        <time>2014-05-25T15:20:51Z</time>
      </trkpt>
      <trkpt lat="44.47266" lon="-0.65603">
        <ele>71</ele>
        <time>2014-05-25T15:20:53Z</time>
      </trkpt>
      <trkpt lat="44.47277" lon="-0.65603">
        <ele>71</ele>
        <time>2014-05-25T15:20:58Z</time>
      </trkpt>
      <trkpt lat="44.47294" lon="-0.65604">
        <ele>71</ele>
        <time>2014-05-25T15:21:05Z</time>
      </trkpt>
      <trkpt lat="44.4731" lon="-0.65605">
        <ele>71</ele>
        <time>2014-05-25T15:21:11Z</time>
      </trkpt>
      <trkpt lat="44.47331" lon="-0.65609">
        <ele>71</ele>
        <time>2014-05-25T15:21:18Z</time>
      </trkpt>
      <trkpt lat="44.47354" lon="-0.65612">
        <ele>71</ele>
        <time>2014-05-25T15:21:25Z</time>
      </trkpt>
      <trkpt lat="44.47379" lon="-0.65617">
        <ele>71</ele>
        <time>2014-05-25T15:21:32Z</time>
      </trkpt>
      <trkpt lat="44.47407" lon="-0.65622">
        <ele>71</ele>
        <time>2014-05-25T15:21:39Z</time>
      </trkpt>
      <trkpt lat="44.47411" lon="-0.65622">
        <ele>71</ele>
        <time>2014-05-25T15:21:40Z</time>
      </trkpt>
      <trkpt lat="44.47433" lon="-0.65626">
        <ele>71</ele>
        <time>2014-05-25T15:21:46Z</time>
      </trkpt>
      <trkpt lat="44.47471" lon="-0.65631">
        <ele>71</ele>
        <time>2014-05-25T15:21:55Z</time>
      </trkpt>
      <trkpt lat="44.47499" lon="-0.65636">
        <ele>71</ele>
        <time>2014-05-25T15:22:01Z</time>
      </trkpt>
      <trkpt lat="44.47531" lon="-0.65641">
        <ele>71</ele>
        <time>2014-05-25T15:22:08Z</time>
      </trkpt>
      <trkpt lat="44.47568" lon="-0.6565">
        <ele>71</ele>
        <time>2014-05-25T15:22:16Z</time>
      </trkpt>
      <trkpt lat="44.47603" lon="-0.65662">
        <ele>71</ele>
        <time>2014-05-25T15:22:23Z</time>
      </trkpt>
      <trkpt lat="44.4762" lon="-0.65672">
        <ele>71</ele>
        <time>2014-05-25T15:22:27Z</time>
      </trkpt>
      <trkpt lat="44.47658" lon="-0.65694">
        <ele>71</ele>
        <time>2014-05-25T15:22:36Z</time>
      </trkpt>
      <trkpt lat="44.4768" lon="-0.65707">
        <ele>72</ele>
        <time>2014-05-25T15:22:42Z</time>
      </trkpt>
      <trkpt lat="44.47711" lon="-0.65725">
        <ele>72</ele>
        <time>2014-05-25T15:22:50Z</time>
      </trkpt>
      <trkpt lat="44.47717" lon="-0.65729">
        <ele>72</ele>
        <time>2014-05-25T15:22:52Z</time>
      </trkpt>
      <trkpt lat="44.47721" lon="-0.65731">
        <ele>72</ele>
        <time>2014-05-25T15:22:53Z</time>
      </trkpt>
      <trkpt lat="44.47725" lon="-0.65733">
        <ele>72</ele>
        <time>2014-05-25T15:22:54Z</time>
      </trkpt>
      <trkpt lat="44.47744" lon="-0.65744">
        <ele>72</ele>
        <time>2014-05-25T15:23:01Z</time>
      </trkpt>
      <trkpt lat="44.47749" lon="-0.65741">
        <ele>72</ele>
        <time>2014-05-25T15:23:03Z</time>
      </trkpt>
      <trkpt lat="44.4775" lon="-0.65739">
        <ele>72</ele>
        <time>2014-05-25T15:23:04Z</time>
      </trkpt>
      <trkpt lat="44.47752" lon="-0.65736">
        <ele>72</ele>
        <time>2014-05-25T15:23:05Z</time>
      </trkpt>
      <trkpt lat="44.47752" lon="-0.65734">
        <ele>72</ele>
        <time>2014-05-25T15:23:06Z</time>
      </trkpt>
      <trkpt lat="44.47753" lon="-0.65731">
        <ele>72</ele>
        <time>2014-05-25T15:23:07Z</time>
      </trkpt>
      <trkpt lat="44.47753" lon="-0.65728">
        <ele>72</ele>
        <time>2014-05-25T15:23:08Z</time>
      </trkpt>
      <trkpt lat="44.47753" lon="-0.65724">
        <ele>72</ele>
        <time>2014-05-25T15:23:09Z</time>
      </trkpt>
      <trkpt lat="44.47748" lon="-0.65702">
        <ele>72</ele>
        <time>2014-05-25T15:23:14Z</time>
      </trkpt>
      <trkpt lat="44.47744" lon="-0.65686">
        <ele>72</ele>
        <time>2014-05-25T15:23:17Z</time>
      </trkpt>
      <trkpt lat="44.47742" lon="-0.6568">
        <ele>72</ele>
        <time>2014-05-25T15:23:18Z</time>
      </trkpt>
      <trkpt lat="44.4774" lon="-0.65676">
        <ele>72</ele>
        <time>2014-05-25T15:23:19Z</time>
      </trkpt>
      <trkpt lat="44.47733" lon="-0.65651">
        <ele>72</ele>
        <time>2014-05-25T15:23:24Z</time>
      </trkpt>
      <trkpt lat="44.47731" lon="-0.65646">
        <ele>72</ele>
        <time>2014-05-25T15:23:25Z</time>
      </trkpt>
      <trkpt lat="44.47729" lon="-0.65633">
        <ele>72</ele>
        <time>2014-05-25T15:23:27Z</time>
      </trkpt>
      <trkpt lat="44.47726" lon="-0.65607">
        <ele>72</ele>
        <time>2014-05-25T15:23:32Z</time>
      </trkpt>
      <trkpt lat="44.47718" lon="-0.65563">
        <ele>72</ele>
        <time>2014-05-25T15:23:39Z</time>
      </trkpt>
      <trkpt lat="44.47706" lon="-0.65537">
        <ele>71</ele>
        <time>2014-05-25T15:23:45Z</time>
      </trkpt>
      <trkpt lat="44.47705" lon="-0.65526">
        <ele>71</ele>
        <time>2014-05-25T15:23:47Z</time>
      </trkpt>
      <trkpt lat="44.47706" lon="-0.6552">
        <ele>71</ele>
        <time>2014-05-25T15:23:48Z</time>
      </trkpt>
      <trkpt lat="44.47713" lon="-0.65499">
        <ele>72</ele>
        <time>2014-05-25T15:23:52Z</time>
      </trkpt>
      <trkpt lat="44.47715" lon="-0.65495">
        <ele>72</ele>
        <time>2014-05-25T15:23:53Z</time>
      </trkpt>
      <trkpt lat="44.47731" lon="-0.65455">
        <ele>72</ele>
        <time>2014-05-25T15:24:01Z</time>
      </trkpt>
      <trkpt lat="44.47747" lon="-0.65414">
        <ele>71</ele>
        <time>2014-05-25T15:24:09Z</time>
      </trkpt>
      <trkpt lat="44.47768" lon="-0.65353">
        <ele>72</ele>
        <time>2014-05-25T15:24:20Z</time>
      </trkpt>
      <trkpt lat="44.47776" lon="-0.65324">
        <ele>72</ele>
        <time>2014-05-25T15:24:25Z</time>
      </trkpt>
      <trkpt lat="44.47791" lon="-0.65271">
        <ele>72</ele>
        <time>2014-05-25T15:24:34Z</time>
      </trkpt>
      <trkpt lat="44.47807" lon="-0.65206">
        <ele>71</ele>
        <time>2014-05-25T15:24:45Z</time>
      </trkpt>
      <trkpt lat="44.47811" lon="-0.6519">
        <ele>71</ele>
        <time>2014-05-25T15:24:48Z</time>
      </trkpt>
      <trkpt lat="44.47825" lon="-0.65125">
        <ele>71</ele>
        <time>2014-05-25T15:24:59Z</time>
      </trkpt>
      <trkpt lat="44.47838" lon="-0.65072">
        <ele>72</ele>
        <time>2014-05-25T15:25:08Z</time>
      </trkpt>
      <trkpt lat="44.47847" lon="-0.65031">
        <ele>72</ele>
        <time>2014-05-25T15:25:15Z</time>
      </trkpt>
      <trkpt lat="44.47848" lon="-0.65025">
        <ele>72</ele>
        <time>2014-05-25T15:25:16Z</time>
      </trkpt>
      <trkpt lat="44.47853" lon="-0.65001">
        <ele>72</ele>
        <time>2014-05-25T15:25:20Z</time>
      </trkpt>
      <trkpt lat="44.47874" lon="-0.6496">
        <ele>72</ele>
        <time>2014-05-25T15:25:28Z</time>
      </trkpt>
      <trkpt lat="44.47881" lon="-0.6493">
        <ele>72</ele>
        <time>2014-05-25T15:25:33Z</time>
      </trkpt>
      <trkpt lat="44.47868" lon="-0.6487">
        <ele>72</ele>
        <time>2014-05-25T15:25:43Z</time>
      </trkpt>
      <trkpt lat="44.47859" lon="-0.64832">
        <ele>72</ele>
        <time>2014-05-25T15:25:50Z</time>
      </trkpt>
      <trkpt lat="44.47846" lon="-0.64776">
        <ele>72</ele>
        <time>2014-05-25T15:26:00Z</time>
      </trkpt>
      <trkpt lat="44.4784" lon="-0.64747">
        <ele>73</ele>
        <time>2014-05-25T15:26:05Z</time>
      </trkpt>
      <trkpt lat="44.47834" lon="-0.64708">
        <ele>73</ele>
        <time>2014-05-25T15:26:12Z</time>
      </trkpt>
      <trkpt lat="44.47829" lon="-0.6468">
        <ele>73</ele>
        <time>2014-05-25T15:26:17Z</time>
      </trkpt>
      <trkpt lat="44.47823" lon="-0.64639">
        <ele>72</ele>
        <time>2014-05-25T15:26:24Z</time>
      </trkpt>
      <trkpt lat="44.47816" lon="-0.64606">
        <ele>72</ele>
        <time>2014-05-25T15:26:30Z</time>
      </trkpt>
      <trkpt lat="44.47813" lon="-0.64595">
        <ele>72</ele>
        <time>2014-05-25T15:26:32Z</time>
      </trkpt>
      <trkpt lat="44.4781" lon="-0.64581">
        <ele>72</ele>
        <time>2014-05-25T15:26:34Z</time>
      </trkpt>
      <trkpt lat="44.47808" lon="-0.64542">
        <ele>72</ele>
        <time>2014-05-25T15:26:40Z</time>
      </trkpt>
      <trkpt lat="44.47806" lon="-0.64529">
        <ele>72</ele>
        <time>2014-05-25T15:26:42Z</time>
      </trkpt>
      <trkpt lat="44.47804" lon="-0.64516">
        <ele>72</ele>
        <time>2014-05-25T15:26:44Z</time>
      </trkpt>
      <trkpt lat="44.47785" lon="-0.64486">
        <ele>72</ele>
        <time>2014-05-25T15:26:50Z</time>
      </trkpt>
      <trkpt lat="44.47776" lon="-0.64481">
        <ele>71</ele>
        <time>2014-05-25T15:26:52Z</time>
      </trkpt>
      <trkpt lat="44.47754" lon="-0.64462">
        <ele>71</ele>
        <time>2014-05-25T15:26:58Z</time>
      </trkpt>
      <trkpt lat="44.47745" lon="-0.6445">
        <ele>71</ele>
        <time>2014-05-25T15:27:01Z</time>
      </trkpt>
      <trkpt lat="44.47728" lon="-0.64431">
        <ele>71</ele>
        <time>2014-05-25T15:27:06Z</time>
      </trkpt>
      <trkpt lat="44.47723" lon="-0.64411">
        <ele>71</ele>
        <time>2014-05-25T15:27:10Z</time>
      </trkpt>
      <trkpt lat="44.47727" lon="-0.64405">
        <ele>71</ele>
        <time>2014-05-25T15:27:12Z</time>
      </trkpt>
      <trkpt lat="44.47742" lon="-0.64384">
        <ele>72</ele>
        <time>2014-05-25T15:27:18Z</time>
      </trkpt>
      <trkpt lat="44.47747" lon="-0.64376">
        <ele>72</ele>
        <time>2014-05-25T15:27:20Z</time>
      </trkpt>
      <trkpt lat="44.4776" lon="-0.64353">
        <ele>72</ele>
        <time>2014-05-25T15:27:25Z</time>
      </trkpt>
      <trkpt lat="44.47776" lon="-0.64319">
        <ele>72</ele>
        <time>2014-05-25T15:27:32Z</time>
      </trkpt>
      <trkpt lat="44.47783" lon="-0.64305">
        <ele>72</ele>
        <time>2014-05-25T15:27:35Z</time>
      </trkpt>
      <trkpt lat="44.4781" lon="-0.64269">
        <ele>72</ele>
        <time>2014-05-25T15:27:44Z</time>
      </trkpt>
      <trkpt lat="44.47829" lon="-0.64255">
        <ele>72</ele>
        <time>2014-05-25T15:27:50Z</time>
      </trkpt>
      <trkpt lat="44.47837" lon="-0.64249">
        <ele>72</ele>
        <time>2014-05-25T15:27:54Z</time>
      </trkpt>
      <trkpt lat="44.47839" lon="-0.64249">
        <ele>72</ele>
        <time>2014-05-25T15:27:55Z</time>
      </trkpt>
      <trkpt lat="44.47848" lon="-0.64247">
        <ele>72</ele>
        <time>2014-05-25T15:28:01Z</time>
      </trkpt>
      <trkpt lat="44.47859" lon="-0.64243">
        <ele>72</ele>
        <time>2014-05-25T15:28:08Z</time>
      </trkpt>
      <trkpt lat="44.47863" lon="-0.64242">
        <ele>72</ele>
        <time>2014-05-25T15:28:10Z</time>
      </trkpt>
      <trkpt lat="44.47865" lon="-0.64242">
        <ele>72</ele>
        <time>2014-05-25T15:28:11Z</time>
      </trkpt>
      <trkpt lat="44.47867" lon="-0.64241">
        <ele>72</ele>
        <time>2014-05-25T15:28:12Z</time>
      </trkpt>
      <trkpt lat="44.4787" lon="-0.6424">
        <ele>72</ele>
        <time>2014-05-25T15:28:13Z</time>
      </trkpt>
      <trkpt lat="44.47873" lon="-0.6424">
        <ele>72</ele>
        <time>2014-05-25T15:28:14Z</time>
      </trkpt>
      <trkpt lat="44.47875" lon="-0.64239">
        <ele>72</ele>
        <time>2014-05-25T15:28:15Z</time>
      </trkpt>
      <trkpt lat="44.47878" lon="-0.64238">
        <ele>72</ele>
        <time>2014-05-25T15:28:16Z</time>
      </trkpt>
      <trkpt lat="44.47881" lon="-0.64236">
        <ele>72</ele>
        <time>2014-05-25T15:28:17Z</time>
      </trkpt>
      <trkpt lat="44.47884" lon="-0.64235">
        <ele>72</ele>
        <time>2014-05-25T15:28:18Z</time>
      </trkpt>
      <trkpt lat="44.47887" lon="-0.64235">
        <ele>72</ele>
        <time>2014-05-25T15:28:19Z</time>
      </trkpt>
      <trkpt lat="44.47891" lon="-0.64235">
        <ele>72</ele>
        <time>2014-05-25T15:28:20Z</time>
      </trkpt>
      <trkpt lat="44.47894" lon="-0.64235">
        <ele>72</ele>
        <time>2014-05-25T15:28:21Z</time>
      </trkpt>
      <trkpt lat="44.47898" lon="-0.64234">
        <ele>72</ele>
        <time>2014-05-25T15:28:22Z</time>
      </trkpt>
      <trkpt lat="44.479" lon="-0.64233">
        <ele>72</ele>
        <time>2014-05-25T15:28:23Z</time>
      </trkpt>
      <trkpt lat="44.47903" lon="-0.64232">
        <ele>72</ele>
        <time>2014-05-25T15:28:24Z</time>
      </trkpt>
      <trkpt lat="44.47906" lon="-0.64232">
        <ele>72</ele>
        <time>2014-05-25T15:28:25Z</time>
      </trkpt>
      <trkpt lat="44.47908" lon="-0.64232">
        <ele>72</ele>
        <time>2014-05-25T15:28:26Z</time>
      </trkpt>
      <trkpt lat="44.47925" lon="-0.64225">
        <ele>72</ele>
        <time>2014-05-25T15:28:32Z</time>
      </trkpt>
      <trkpt lat="44.47932" lon="-0.64217">
        <ele>72</ele>
        <time>2014-05-25T15:28:36Z</time>
      </trkpt>
      <trkpt lat="44.47935" lon="-0.64216">
        <ele>72</ele>
        <time>2014-05-25T15:28:37Z</time>
      </trkpt>
      <trkpt lat="44.47937" lon="-0.64216">
        <ele>72</ele>
        <time>2014-05-25T15:28:38Z</time>
      </trkpt>
      <trkpt lat="44.47939" lon="-0.64215">
        <ele>72</ele>
        <time>2014-05-25T15:28:39Z</time>
      </trkpt>
      <trkpt lat="44.47941" lon="-0.64214">
        <ele>72</ele>
        <time>2014-05-25T15:28:40Z</time>
      </trkpt>
      <trkpt lat="44.47943" lon="-0.64214">
        <ele>72</ele>
        <time>2014-05-25T15:28:41Z</time>
      </trkpt>
      <trkpt lat="44.4796" lon="-0.64212">
        <ele>72</ele>
        <time>2014-05-25T15:28:47Z</time>
      </trkpt>
      <trkpt lat="44.47962" lon="-0.6421">
        <ele>72</ele>
        <time>2014-05-25T15:28:48Z</time>
      </trkpt>
      <trkpt lat="44.47964" lon="-0.64208">
        <ele>72</ele>
        <time>2014-05-25T15:28:49Z</time>
      </trkpt>
      <trkpt lat="44.47966" lon="-0.64206">
        <ele>72</ele>
        <time>2014-05-25T15:28:50Z</time>
      </trkpt>
      <trkpt lat="44.47969" lon="-0.64205">
        <ele>72</ele>
        <time>2014-05-25T15:28:51Z</time>
      </trkpt>
      <trkpt lat="44.47971" lon="-0.64205">
        <ele>72</ele>
        <time>2014-05-25T15:28:52Z</time>
      </trkpt>
      <trkpt lat="44.47985" lon="-0.64203">
        <ele>72</ele>
        <time>2014-05-25T15:28:57Z</time>
      </trkpt>
      <trkpt lat="44.47987" lon="-0.64201">
        <ele>72</ele>
        <time>2014-05-25T15:28:58Z</time>
      </trkpt>
      <trkpt lat="44.47989" lon="-0.64201">
        <ele>72</ele>
        <time>2014-05-25T15:28:59Z</time>
      </trkpt>
      <trkpt lat="44.47991" lon="-0.642">
        <ele>72</ele>
        <time>2014-05-25T15:29:00Z</time>
      </trkpt>
      <trkpt lat="44.47993" lon="-0.642">
        <ele>72</ele>
        <time>2014-05-25T15:29:01Z</time>
      </trkpt>
      <trkpt lat="44.47996" lon="-0.642">
        <ele>72</ele>
        <time>2014-05-25T15:29:02Z</time>
      </trkpt>
      <trkpt lat="44.47998" lon="-0.642">
        <ele>72</ele>
        <time>2014-05-25T15:29:03Z</time>
      </trkpt>
      <trkpt lat="44.48" lon="-0.64198">
        <ele>72</ele>
        <time>2014-05-25T15:29:04Z</time>
      </trkpt>
      <trkpt lat="44.48003" lon="-0.64198">
        <ele>72</ele>
        <time>2014-05-25T15:29:05Z</time>
      </trkpt>
      <trkpt lat="44.48005" lon="-0.64198">
        <ele>72</ele>
        <time>2014-05-25T15:29:06Z</time>
      </trkpt>
      <trkpt lat="44.48008" lon="-0.64198">
        <ele>72</ele>
        <time>2014-05-25T15:29:07Z</time>
      </trkpt>
      <trkpt lat="44.4801" lon="-0.64199">
        <ele>72</ele>
        <time>2014-05-25T15:29:08Z</time>
      </trkpt>
      <trkpt lat="44.48027" lon="-0.64195">
        <ele>72</ele>
        <time>2014-05-25T15:29:15Z</time>
      </trkpt>
      <trkpt lat="44.4804" lon="-0.64193">
        <ele>73</ele>
        <time>2014-05-25T15:29:21Z</time>
      </trkpt>
      <trkpt lat="44.48052" lon="-0.6419">
        <ele>73</ele>
        <time>2014-05-25T15:29:27Z</time>
      </trkpt>
      <trkpt lat="44.48059" lon="-0.64188">
        <ele>73</ele>
        <time>2014-05-25T15:29:30Z</time>
      </trkpt>
      <trkpt lat="44.48061" lon="-0.64188">
        <ele>73</ele>
        <time>2014-05-25T15:29:31Z</time>
      </trkpt>
      <trkpt lat="44.48064" lon="-0.64187">
        <ele>73</ele>
        <time>2014-05-25T15:29:32Z</time>
      </trkpt>
      <trkpt lat="44.48067" lon="-0.64186">
        <ele>73</ele>
        <time>2014-05-25T15:29:33Z</time>
      </trkpt>
      <trkpt lat="44.48069" lon="-0.64186">
        <ele>73</ele>
        <time>2014-05-25T15:29:34Z</time>
      </trkpt>
      <trkpt lat="44.48086" lon="-0.64179">
        <ele>73</ele>
        <time>2014-05-25T15:29:41Z</time>
      </trkpt>
      <trkpt lat="44.48104" lon="-0.64169">
        <ele>73</ele>
        <time>2014-05-25T15:29:48Z</time>
      </trkpt>
      <trkpt lat="44.48126" lon="-0.64159">
        <ele>73</ele>
        <time>2014-05-25T15:29:55Z</time>
      </trkpt>
      <trkpt lat="44.48149" lon="-0.64149">
        <ele>73</ele>
        <time>2014-05-25T15:30:02Z</time>
      </trkpt>
      <trkpt lat="44.48177" lon="-0.64138">
        <ele>73</ele>
        <time>2014-05-25T15:30:10Z</time>
      </trkpt>
      <trkpt lat="44.48199" lon="-0.64124">
        <ele>73</ele>
        <time>2014-05-25T15:30:17Z</time>
      </trkpt>
      <trkpt lat="44.48218" lon="-0.64113">
        <ele>73</ele>
        <time>2014-05-25T15:30:23Z</time>
      </trkpt>
      <trkpt lat="44.48236" lon="-0.64098">
        <ele>73</ele>
        <time>2014-05-25T15:30:29Z</time>
      </trkpt>
      <trkpt lat="44.48257" lon="-0.64082">
        <ele>73</ele>
        <time>2014-05-25T15:30:35Z</time>
      </trkpt>
      <trkpt lat="44.48284" lon="-0.64064">
        <ele>73</ele>
        <time>2014-05-25T15:30:42Z</time>
      </trkpt>
      <trkpt lat="44.483" lon="-0.64051">
        <ele>73</ele>
        <time>2014-05-25T15:30:47Z</time>
      </trkpt>
      <trkpt lat="44.48304" lon="-0.64048">
        <ele>73</ele>
        <time>2014-05-25T15:30:48Z</time>
      </trkpt>
      <trkpt lat="44.48308" lon="-0.64046">
        <ele>73</ele>
        <time>2014-05-25T15:30:49Z</time>
      </trkpt>
      <trkpt lat="44.48311" lon="-0.64043">
        <ele>73</ele>
        <time>2014-05-25T15:30:50Z</time>
      </trkpt>
      <trkpt lat="44.48313" lon="-0.6404">
        <ele>73</ele>
        <time>2014-05-25T15:30:51Z</time>
      </trkpt>
      <trkpt lat="44.48317" lon="-0.64037">
        <ele>73</ele>
        <time>2014-05-25T15:30:52Z</time>
      </trkpt>
      <trkpt lat="44.48325" lon="-0.64026">
        <ele>73</ele>
        <time>2014-05-25T15:30:55Z</time>
      </trkpt>
      <trkpt lat="44.48328" lon="-0.64024">
        <ele>73</ele>
        <time>2014-05-25T15:30:56Z</time>
      </trkpt>
      <trkpt lat="44.4835" lon="-0.63998">
        <ele>73</ele>
        <time>2014-05-25T15:31:03Z</time>
      </trkpt>
      <trkpt lat="44.48354" lon="-0.63995">
        <ele>73</ele>
        <time>2014-05-25T15:31:04Z</time>
      </trkpt>
      <trkpt lat="44.48356" lon="-0.63991">
        <ele>73</ele>
        <time>2014-05-25T15:31:05Z</time>
      </trkpt>
      <trkpt lat="44.48359" lon="-0.63988">
        <ele>73</ele>
        <time>2014-05-25T15:31:06Z</time>
      </trkpt>
      <trkpt lat="44.48362" lon="-0.63984">
        <ele>73</ele>
        <time>2014-05-25T15:31:07Z</time>
      </trkpt>
      <trkpt lat="44.48384" lon="-0.63961">
        <ele>73</ele>
        <time>2014-05-25T15:31:14Z</time>
      </trkpt>
      <trkpt lat="44.484" lon="-0.63942">
        <ele>73</ele>
        <time>2014-05-25T15:31:20Z</time>
      </trkpt>
      <trkpt lat="44.48423" lon="-0.63918">
        <ele>73</ele>
        <time>2014-05-25T15:31:27Z</time>
      </trkpt>
      <trkpt lat="44.48445" lon="-0.63906">
        <ele>73</ele>
        <time>2014-05-25T15:31:34Z</time>
      </trkpt>
      <trkpt lat="44.48463" lon="-0.63898">
        <ele>73</ele>
        <time>2014-05-25T15:31:40Z</time>
      </trkpt>
      <trkpt lat="44.48469" lon="-0.6389">
        <ele>73</ele>
        <time>2014-05-25T15:31:43Z</time>
      </trkpt>
      <trkpt lat="44.48471" lon="-0.63886">
        <ele>73</ele>
        <time>2014-05-25T15:31:44Z</time>
      </trkpt>
      <trkpt lat="44.48474" lon="-0.63883">
        <ele>73</ele>
        <time>2014-05-25T15:31:45Z</time>
      </trkpt>
      <trkpt lat="44.48492" lon="-0.63862">
        <ele>73</ele>
        <time>2014-05-25T15:31:52Z</time>
      </trkpt>
      <trkpt lat="44.48497" lon="-0.63864">
        <ele>73</ele>
        <time>2014-05-25T15:31:57Z</time>
      </trkpt>
      <trkpt lat="44.48496" lon="-0.6387">
        <ele>73</ele>
        <time>2014-05-25T15:32:02Z</time>
      </trkpt>
      <trkpt lat="44.48495" lon="-0.63877">
        <ele>73</ele>
        <time>2014-05-25T15:32:10Z</time>
      </trkpt>
      <trkpt lat="44.48495" lon="-0.63887">
        <ele>73</ele>
        <time>2014-05-25T15:32:16Z</time>
      </trkpt>
      <trkpt lat="44.48495" lon="-0.6389">
        <ele>73</ele>
        <time>2014-05-25T15:32:17Z</time>
      </trkpt>
      <trkpt lat="44.48494" lon="-0.63893">
        <ele>73</ele>
        <time>2014-05-25T15:32:18Z</time>
      </trkpt>
      <trkpt lat="44.48494" lon="-0.63896">
        <ele>73</ele>
        <time>2014-05-25T15:32:19Z</time>
      </trkpt>
      <trkpt lat="44.48494" lon="-0.63898">
        <ele>73</ele>
        <time>2014-05-25T15:32:20Z</time>
      </trkpt>
      <trkpt lat="44.48494" lon="-0.639">
        <ele>73</ele>
        <time>2014-05-25T15:32:21Z</time>
      </trkpt>
      <trkpt lat="44.48494" lon="-0.63904">
        <ele>73</ele>
        <time>2014-05-25T15:32:22Z</time>
      </trkpt>
      <trkpt lat="44.48493" lon="-0.63907">
        <ele>73</ele>
        <time>2014-05-25T15:32:23Z</time>
      </trkpt>
      <trkpt lat="44.48492" lon="-0.63911">
        <ele>73</ele>
        <time>2014-05-25T15:32:24Z</time>
      </trkpt>
      <trkpt lat="44.48492" lon="-0.63916">
        <ele>73</ele>
        <time>2014-05-25T15:32:25Z</time>
      </trkpt>
      <trkpt lat="44.48492" lon="-0.63921">
        <ele>73</ele>
        <time>2014-05-25T15:32:26Z</time>
      </trkpt>
      <trkpt lat="44.48492" lon="-0.63925">
        <ele>73</ele>
        <time>2014-05-25T15:32:27Z</time>
      </trkpt>
      <trkpt lat="44.48492" lon="-0.6393">
        <ele>73</ele>
        <time>2014-05-25T15:32:28Z</time>
      </trkpt>
      <trkpt lat="44.48492" lon="-0.63934">
        <ele>73</ele>
        <time>2014-05-25T15:32:29Z</time>
      </trkpt>
      <trkpt lat="44.48492" lon="-0.63938">
        <ele>73</ele>
        <time>2014-05-25T15:32:30Z</time>
      </trkpt>
      <trkpt lat="44.48492" lon="-0.63943">
        <ele>73</ele>
        <time>2014-05-25T15:32:31Z</time>
      </trkpt>
      <trkpt lat="44.48491" lon="-0.63948">
        <ele>73</ele>
        <time>2014-05-25T15:32:32Z</time>
      </trkpt>
      <trkpt lat="44.48491" lon="-0.63954">
        <ele>73</ele>
        <time>2014-05-25T15:32:33Z</time>
      </trkpt>
      <trkpt lat="44.48492" lon="-0.63986">
        <ele>73</ele>
        <time>2014-05-25T15:32:38Z</time>
      </trkpt>
      <trkpt lat="44.48501" lon="-0.6401">
        <ele>73</ele>
        <time>2014-05-25T15:32:43Z</time>
      </trkpt>
      <trkpt lat="44.48516" lon="-0.64036">
        <ele>73</ele>
        <time>2014-05-25T15:32:49Z</time>
      </trkpt>
      <trkpt lat="44.48527" lon="-0.64055">
        <ele>73</ele>
        <time>2014-05-25T15:32:54Z</time>
      </trkpt>
      <trkpt lat="44.4854" lon="-0.64079">
        <ele>73</ele>
        <time>2014-05-25T15:33:00Z</time>
      </trkpt>
      <trkpt lat="44.48551" lon="-0.64109">
        <ele>73</ele>
        <time>2014-05-25T15:33:07Z</time>
      </trkpt>
      <trkpt lat="44.48562" lon="-0.64142">
        <ele>73</ele>
        <time>2014-05-25T15:33:14Z</time>
      </trkpt>
      <trkpt lat="44.48566" lon="-0.64173">
        <ele>73</ele>
        <time>2014-05-25T15:33:20Z</time>
      </trkpt>
      <trkpt lat="44.48569" lon="-0.64207">
        <ele>73</ele>
        <time>2014-05-25T15:33:28Z</time>
      </trkpt>
      <trkpt lat="44.48575" lon="-0.64231">
        <ele>73</ele>
        <time>2014-05-25T15:33:34Z</time>
      </trkpt>
      <trkpt lat="44.48578" lon="-0.6425">
        <ele>73</ele>
        <time>2014-05-25T15:33:39Z</time>
      </trkpt>
      <trkpt lat="44.48578" lon="-0.64272">
        <ele>73</ele>
        <time>2014-05-25T15:33:44Z</time>
      </trkpt>
      <trkpt lat="44.48579" lon="-0.64293">
        <ele>73</ele>
        <time>2014-05-25T15:33:49Z</time>
      </trkpt>
      <trkpt lat="44.48585" lon="-0.64317">
        <ele>73</ele>
        <time>2014-05-25T15:33:55Z</time>
      </trkpt>
      <trkpt lat="44.48595" lon="-0.6434">
        <ele>73</ele>
        <time>2014-05-25T15:34:01Z</time>
      </trkpt>
      <trkpt lat="44.48596" lon="-0.64343">
        <ele>73</ele>
        <time>2014-05-25T15:34:02Z</time>
      </trkpt>
      <trkpt lat="44.48599" lon="-0.64347">
        <ele>73</ele>
        <time>2014-05-25T15:34:03Z</time>
      </trkpt>
      <trkpt lat="44.48601" lon="-0.6435">
        <ele>73</ele>
        <time>2014-05-25T15:34:04Z</time>
      </trkpt>
      <trkpt lat="44.48603" lon="-0.64352">
        <ele>73</ele>
        <time>2014-05-25T15:34:05Z</time>
      </trkpt>
      <trkpt lat="44.48608" lon="-0.64375">
        <ele>73</ele>
        <time>2014-05-25T15:34:11Z</time>
      </trkpt>
      <trkpt lat="44.48611" lon="-0.64395">
        <ele>73</ele>
        <time>2014-05-25T15:34:17Z</time>
      </trkpt>
      <trkpt lat="44.48618" lon="-0.64408">
        <ele>73</ele>
        <time>2014-05-25T15:34:23Z</time>
      </trkpt>
      <trkpt lat="44.48618" lon="-0.64413">
        <ele>73</ele>
        <time>2014-05-25T15:34:25Z</time>
      </trkpt>
      <trkpt lat="44.48618" lon="-0.64417">
        <ele>73</ele>
        <time>2014-05-25T15:34:26Z</time>
      </trkpt>
      <trkpt lat="44.4862" lon="-0.64439">
        <ele>73</ele>
        <time>2014-05-25T15:34:31Z</time>
      </trkpt>
      <trkpt lat="44.48626" lon="-0.64471">
        <ele>73</ele>
        <time>2014-05-25T15:34:38Z</time>
      </trkpt>
      <trkpt lat="44.48627" lon="-0.64475">
        <ele>73</ele>
        <time>2014-05-25T15:34:39Z</time>
      </trkpt>
      <trkpt lat="44.48637" lon="-0.64503">
        <ele>74</ele>
        <time>2014-05-25T15:34:46Z</time>
      </trkpt>
      <trkpt lat="44.48648" lon="-0.64524">
        <ele>74</ele>
        <time>2014-05-25T15:34:52Z</time>
      </trkpt>
      <trkpt lat="44.48654" lon="-0.64535">
        <ele>74</ele>
        <time>2014-05-25T15:34:55Z</time>
      </trkpt>
      <trkpt lat="44.48664" lon="-0.64554">
        <ele>74</ele>
        <time>2014-05-25T15:35:01Z</time>
      </trkpt>
      <trkpt lat="44.48677" lon="-0.64575">
        <ele>75</ele>
        <time>2014-05-25T15:35:07Z</time>
      </trkpt>
      <trkpt lat="44.48691" lon="-0.64601">
        <ele>74</ele>
        <time>2014-05-25T15:35:14Z</time>
      </trkpt>
      <trkpt lat="44.48702" lon="-0.64625">
        <ele>74</ele>
        <time>2014-05-25T15:35:20Z</time>
      </trkpt>
      <trkpt lat="44.48702" lon="-0.64628">
        <ele>74</ele>
        <time>2014-05-25T15:35:21Z</time>
      </trkpt>
      <trkpt lat="44.48704" lon="-0.64652">
        <ele>74</ele>
        <time>2014-05-25T15:35:27Z</time>
      </trkpt>
      <trkpt lat="44.4871" lon="-0.64673">
        <ele>74</ele>
        <time>2014-05-25T15:35:32Z</time>
      </trkpt>
      <trkpt lat="44.48721" lon="-0.64696">
        <ele>74</ele>
        <time>2014-05-25T15:35:38Z</time>
      </trkpt>
      <trkpt lat="44.48724" lon="-0.64699">
        <ele>74</ele>
        <time>2014-05-25T15:35:39Z</time>
      </trkpt>
      <trkpt lat="44.48743" lon="-0.64717">
        <ele>74</ele>
        <time>2014-05-25T15:35:46Z</time>
      </trkpt>
      <trkpt lat="44.48763" lon="-0.64728">
        <ele>74</ele>
        <time>2014-05-25T15:35:53Z</time>
      </trkpt>
      <trkpt lat="44.48786" lon="-0.64728">
        <ele>74</ele>
        <time>2014-05-25T15:35:59Z</time>
      </trkpt>
      <trkpt lat="44.48797" lon="-0.64729">
        <ele>74</ele>
        <time>2014-05-25T15:36:03Z</time>
      </trkpt>
      <trkpt lat="44.48808" lon="-0.64732">
        <ele>74</ele>
        <time>2014-05-25T15:36:09Z</time>
      </trkpt>
      <trkpt lat="44.48819" lon="-0.64732">
        <ele>74</ele>
        <time>2014-05-25T15:36:14Z</time>
      </trkpt>
      <trkpt lat="44.48829" lon="-0.64734">
        <ele>74</ele>
        <time>2014-05-25T15:36:18Z</time>
      </trkpt>
      <trkpt lat="44.48831" lon="-0.64733">
        <ele>74</ele>
        <time>2014-05-25T15:36:19Z</time>
      </trkpt>
      <trkpt lat="44.48855" lon="-0.64724">
        <ele>74</ele>
        <time>2014-05-25T15:36:27Z</time>
      </trkpt>
      <trkpt lat="44.48882" lon="-0.64721">
        <ele>75</ele>
        <time>2014-05-25T15:36:35Z</time>
      </trkpt>
      <trkpt lat="44.48907" lon="-0.64725">
        <ele>76</ele>
        <time>2014-05-25T15:36:42Z</time>
      </trkpt>
      <trkpt lat="44.48928" lon="-0.64733">
        <ele>77</ele>
        <time>2014-05-25T15:36:49Z</time>
      </trkpt>
      <trkpt lat="44.48949" lon="-0.64732">
        <ele>76</ele>
        <time>2014-05-25T15:36:56Z</time>
      </trkpt>
      <trkpt lat="44.4897" lon="-0.64717">
        <ele>76</ele>
        <time>2014-05-25T15:37:04Z</time>
      </trkpt>
      <trkpt lat="44.4898" lon="-0.64712">
        <ele>75</ele>
        <time>2014-05-25T15:37:09Z</time>
      </trkpt>
      <trkpt lat="44.48996" lon="-0.64703">
        <ele>75</ele>
        <time>2014-05-25T15:37:16Z</time>
      </trkpt>
      <trkpt lat="44.4901" lon="-0.64689">
        <ele>75</ele>
        <time>2014-05-25T15:37:22Z</time>
      </trkpt>
      <trkpt lat="44.49034" lon="-0.64662">
        <ele>75</ele>
        <time>2014-05-25T15:37:31Z</time>
      </trkpt>
      <trkpt lat="44.49047" lon="-0.64649">
        <ele>74</ele>
        <time>2014-05-25T15:37:37Z</time>
      </trkpt>
      <trkpt lat="44.49061" lon="-0.64634">
        <ele>74</ele>
        <time>2014-05-25T15:37:43Z</time>
      </trkpt>
      <trkpt lat="44.49087" lon="-0.64606">
        <ele>74</ele>
        <time>2014-05-25T15:37:52Z</time>
      </trkpt>
      <trkpt lat="44.49121" lon="-0.6457">
        <ele>74</ele>
        <time>2014-05-25T15:38:02Z</time>
      </trkpt>
      <trkpt lat="44.49124" lon="-0.64566">
        <ele>74</ele>
        <time>2014-05-25T15:38:03Z</time>
      </trkpt>
      <trkpt lat="44.49128" lon="-0.64562">
        <ele>74</ele>
        <time>2014-05-25T15:38:04Z</time>
      </trkpt>
      <trkpt lat="44.49131" lon="-0.64558">
        <ele>74</ele>
        <time>2014-05-25T15:38:05Z</time>
      </trkpt>
      <trkpt lat="44.49163" lon="-0.64524">
        <ele>74</ele>
        <time>2014-05-25T15:38:14Z</time>
      </trkpt>
      <trkpt lat="44.49197" lon="-0.64489">
        <ele>74</ele>
        <time>2014-05-25T15:38:23Z</time>
      </trkpt>
      <trkpt lat="44.4922" lon="-0.64463">
        <ele>74</ele>
        <time>2014-05-25T15:38:31Z</time>
      </trkpt>
      <trkpt lat="44.4924" lon="-0.64442">
        <ele>74</ele>
        <time>2014-05-25T15:38:38Z</time>
      </trkpt>
      <trkpt lat="44.49256" lon="-0.64425">
        <ele>74</ele>
        <time>2014-05-25T15:38:45Z</time>
      </trkpt>
      <trkpt lat="44.4927" lon="-0.64402">
        <ele>74</ele>
        <time>2014-05-25T15:38:52Z</time>
      </trkpt>
      <trkpt lat="44.49269" lon="-0.64382">
        <ele>74</ele>
        <time>2014-05-25T15:38:56Z</time>
      </trkpt>
      <trkpt lat="44.49255" lon="-0.64335">
        <ele>74</ele>
        <time>2014-05-25T15:39:06Z</time>
      </trkpt>
      <trkpt lat="44.49243" lon="-0.64294">
        <ele>74</ele>
        <time>2014-05-25T15:39:15Z</time>
      </trkpt>
      <trkpt lat="44.49236" lon="-0.64266">
        <ele>74</ele>
        <time>2014-05-25T15:39:21Z</time>
      </trkpt>
      <trkpt lat="44.49226" lon="-0.64233">
        <ele>74</ele>
        <time>2014-05-25T15:39:28Z</time>
      </trkpt>
      <trkpt lat="44.49213" lon="-0.64195">
        <ele>74</ele>
        <time>2014-05-25T15:39:36Z</time>
      </trkpt>
      <trkpt lat="44.49203" lon="-0.64159">
        <ele>74</ele>
        <time>2014-05-25T15:39:43Z</time>
      </trkpt>
      <trkpt lat="44.49195" lon="-0.64128">
        <ele>73</ele>
        <time>2014-05-25T15:39:50Z</time>
      </trkpt>
      <trkpt lat="44.49193" lon="-0.64104">
        <ele>73</ele>
        <time>2014-05-25T15:39:58Z</time>
      </trkpt>
      <trkpt lat="44.49196" lon="-0.64096">
        <ele>73</ele>
        <time>2014-05-25T15:40:01Z</time>
      </trkpt>
      <trkpt lat="44.49198" lon="-0.64094">
        <ele>73</ele>
        <time>2014-05-25T15:40:02Z</time>
      </trkpt>
      <trkpt lat="44.49217" lon="-0.64086">
        <ele>73</ele>
        <time>2014-05-25T15:40:09Z</time>
      </trkpt>
      <trkpt lat="44.49232" lon="-0.64078">
        <ele>73</ele>
        <time>2014-05-25T15:40:15Z</time>
      </trkpt>
      <trkpt lat="44.49246" lon="-0.64073">
        <ele>74</ele>
        <time>2014-05-25T15:40:21Z</time>
      </trkpt>
      <trkpt lat="44.49256" lon="-0.64069">
        <ele>74</ele>
        <time>2014-05-25T15:40:26Z</time>
      </trkpt>
      <trkpt lat="44.49267" lon="-0.64063">
        <ele>74</ele>
        <time>2014-05-25T15:40:31Z</time>
      </trkpt>
      <trkpt lat="44.49275" lon="-0.64058">
        <ele>74</ele>
        <time>2014-05-25T15:40:36Z</time>
      </trkpt>
      <trkpt lat="44.49277" lon="-0.64057">
        <ele>74</ele>
        <time>2014-05-25T15:40:37Z</time>
      </trkpt>
      <trkpt lat="44.49279" lon="-0.64055">
        <ele>74</ele>
        <time>2014-05-25T15:40:38Z</time>
      </trkpt>
      <trkpt lat="44.4928" lon="-0.64054">
        <ele>74</ele>
        <time>2014-05-25T15:40:39Z</time>
      </trkpt>
      <trkpt lat="44.49282" lon="-0.64053">
        <ele>75</ele>
        <time>2014-05-25T15:40:40Z</time>
      </trkpt>
      <trkpt lat="44.49284" lon="-0.64052">
        <ele>75</ele>
        <time>2014-05-25T15:40:41Z</time>
      </trkpt>
      <trkpt lat="44.49285" lon="-0.64051">
        <ele>75</ele>
        <time>2014-05-25T15:40:42Z</time>
      </trkpt>
      <trkpt lat="44.49287" lon="-0.6405">
        <ele>75</ele>
        <time>2014-05-25T15:40:43Z</time>
      </trkpt>
      <trkpt lat="44.49289" lon="-0.64048">
        <ele>75</ele>
        <time>2014-05-25T15:40:45Z</time>
      </trkpt>
      <trkpt lat="44.49291" lon="-0.64046">
        <ele>75</ele>
        <time>2014-05-25T15:40:46Z</time>
      </trkpt>
      <trkpt lat="44.49293" lon="-0.64045">
        <ele>75</ele>
        <time>2014-05-25T15:40:47Z</time>
      </trkpt>
      <trkpt lat="44.49296" lon="-0.64044">
        <ele>75</ele>
        <time>2014-05-25T15:40:48Z</time>
      </trkpt>
      <trkpt lat="44.49299" lon="-0.64042">
        <ele>75</ele>
        <time>2014-05-25T15:40:49Z</time>
      </trkpt>
      <trkpt lat="44.49302" lon="-0.6404">
        <ele>75</ele>
        <time>2014-05-25T15:40:50Z</time>
      </trkpt>
      <trkpt lat="44.49305" lon="-0.64038">
        <ele>75</ele>
        <time>2014-05-25T15:40:51Z</time>
      </trkpt>
      <trkpt lat="44.49329" lon="-0.64024">
        <ele>74</ele>
        <time>2014-05-25T15:40:58Z</time>
      </trkpt>
      <trkpt lat="44.49353" lon="-0.64013">
        <ele>74</ele>
        <time>2014-05-25T15:41:06Z</time>
      </trkpt>
      <trkpt lat="44.49356" lon="-0.64016">
        <ele>74</ele>
        <time>2014-05-25T15:41:07Z</time>
      </trkpt>
      <trkpt lat="44.49358" lon="-0.64019">
        <ele>74</ele>
        <time>2014-05-25T15:41:08Z</time>
      </trkpt>
      <trkpt lat="44.4936" lon="-0.64022">
        <ele>74</ele>
        <time>2014-05-25T15:41:09Z</time>
      </trkpt>
      <trkpt lat="44.49361" lon="-0.64027">
        <ele>74</ele>
        <time>2014-05-25T15:41:10Z</time>
      </trkpt>
      <trkpt lat="44.49362" lon="-0.6403">
        <ele>74</ele>
        <time>2014-05-25T15:41:11Z</time>
      </trkpt>
      <trkpt lat="44.49367" lon="-0.64048">
        <ele>74</ele>
        <time>2014-05-25T15:41:14Z</time>
      </trkpt>
      <trkpt lat="44.49386" lon="-0.64103">
        <ele>73</ele>
        <time>2014-05-25T15:41:23Z</time>
      </trkpt>
      <trkpt lat="44.49407" lon="-0.64169">
        <ele>73</ele>
        <time>2014-05-25T15:41:32Z</time>
      </trkpt>
      <trkpt lat="44.49425" lon="-0.64221">
        <ele>73</ele>
        <time>2014-05-25T15:41:40Z</time>
      </trkpt>
      <trkpt lat="44.49426" lon="-0.64228">
        <ele>73</ele>
        <time>2014-05-25T15:41:41Z</time>
      </trkpt>
      <trkpt lat="44.49427" lon="-0.64235">
        <ele>73</ele>
        <time>2014-05-25T15:41:42Z</time>
      </trkpt>
      <trkpt lat="44.49428" lon="-0.64261">
        <ele>73</ele>
        <time>2014-05-25T15:41:46Z</time>
      </trkpt>
      <trkpt lat="44.49428" lon="-0.64267">
        <ele>73</ele>
        <time>2014-05-25T15:41:47Z</time>
      </trkpt>
      <trkpt lat="44.49429" lon="-0.6428">
        <ele>73</ele>
        <time>2014-05-25T15:41:49Z</time>
      </trkpt>
      <trkpt lat="44.49431" lon="-0.64293">
        <ele>73</ele>
        <time>2014-05-25T15:41:51Z</time>
      </trkpt>
      <trkpt lat="44.49437" lon="-0.64326">
        <ele>73</ele>
        <time>2014-05-25T15:41:57Z</time>
      </trkpt>
      <trkpt lat="44.4944" lon="-0.64329">
        <ele>73</ele>
        <time>2014-05-25T15:41:58Z</time>
      </trkpt>
      <trkpt lat="44.49444" lon="-0.64332">
        <ele>72</ele>
        <time>2014-05-25T15:41:59Z</time>
      </trkpt>
      <trkpt lat="44.49475" lon="-0.64347">
        <ele>72</ele>
        <time>2014-05-25T15:42:06Z</time>
      </trkpt>
      <trkpt lat="44.49507" lon="-0.64363">
        <ele>71</ele>
        <time>2014-05-25T15:42:13Z</time>
      </trkpt>
      <trkpt lat="44.49511" lon="-0.64365">
        <ele>71</ele>
        <time>2014-05-25T15:42:14Z</time>
      </trkpt>
      <trkpt lat="44.49535" lon="-0.64376">
        <ele>71</ele>
        <time>2014-05-25T15:42:20Z</time>
      </trkpt>
      <trkpt lat="44.49555" lon="-0.64391">
        <ele>70</ele>
        <time>2014-05-25T15:42:26Z</time>
      </trkpt>
      <trkpt lat="44.49569" lon="-0.64403">
        <ele>70</ele>
        <time>2014-05-25T15:42:31Z</time>
      </trkpt>
      <trkpt lat="44.49571" lon="-0.64406">
        <ele>70</ele>
        <time>2014-05-25T15:42:32Z</time>
      </trkpt>
      <trkpt lat="44.49572" lon="-0.64411">
        <ele>70</ele>
        <time>2014-05-25T15:42:33Z</time>
      </trkpt>
      <trkpt lat="44.49573" lon="-0.64417">
        <ele>70</ele>
        <time>2014-05-25T15:42:34Z</time>
      </trkpt>
      <trkpt lat="44.49573" lon="-0.64421">
        <ele>70</ele>
        <time>2014-05-25T15:42:35Z</time>
      </trkpt>
      <trkpt lat="44.49574" lon="-0.64426">
        <ele>70</ele>
        <time>2014-05-25T15:42:36Z</time>
      </trkpt>
      <trkpt lat="44.4958" lon="-0.64456">
        <ele>70</ele>
        <time>2014-05-25T15:42:42Z</time>
      </trkpt>
      <trkpt lat="44.49588" lon="-0.64487">
        <ele>70</ele>
        <time>2014-05-25T15:42:48Z</time>
      </trkpt>
      <trkpt lat="44.49595" lon="-0.64517">
        <ele>70</ele>
        <time>2014-05-25T15:42:54Z</time>
      </trkpt>
      <trkpt lat="44.49603" lon="-0.64545">
        <ele>70</ele>
        <time>2014-05-25T15:43:00Z</time>
      </trkpt>
      <trkpt lat="44.49608" lon="-0.64566">
        <ele>71</ele>
        <time>2014-05-25T15:43:04Z</time>
      </trkpt>
      <trkpt lat="44.49624" lon="-0.64623">
        <ele>70</ele>
        <time>2014-05-25T15:43:12Z</time>
      </trkpt>
      <trkpt lat="44.49629" lon="-0.64637">
        <ele>70</ele>
        <time>2014-05-25T15:43:14Z</time>
      </trkpt>
      <trkpt lat="44.49645" lon="-0.64695">
        <ele>70</ele>
        <time>2014-05-25T15:43:22Z</time>
      </trkpt>
      <trkpt lat="44.49653" lon="-0.64721">
        <ele>70</ele>
        <time>2014-05-25T15:43:26Z</time>
      </trkpt>
      <trkpt lat="44.49667" lon="-0.64761">
        <ele>70</ele>
        <time>2014-05-25T15:43:33Z</time>
      </trkpt>
      <trkpt lat="44.49675" lon="-0.64781">
        <ele>70</ele>
        <time>2014-05-25T15:43:38Z</time>
      </trkpt>
      <trkpt lat="44.49671" lon="-0.64804">
        <ele>71</ele>
        <time>2014-05-25T15:43:44Z</time>
      </trkpt>
      <trkpt lat="44.49669" lon="-0.64809">
        <ele>71</ele>
        <time>2014-05-25T15:43:45Z</time>
      </trkpt>
      <trkpt lat="44.49669" lon="-0.64815">
        <ele>71</ele>
        <time>2014-05-25T15:43:46Z</time>
      </trkpt>
      <trkpt lat="44.4967" lon="-0.6482">
        <ele>71</ele>
        <time>2014-05-25T15:43:47Z</time>
      </trkpt>
      <trkpt lat="44.49671" lon="-0.64825">
        <ele>71</ele>
        <time>2014-05-25T15:43:48Z</time>
      </trkpt>
      <trkpt lat="44.49675" lon="-0.64844">
        <ele>71</ele>
        <time>2014-05-25T15:43:53Z</time>
      </trkpt>
      <trkpt lat="44.49674" lon="-0.64846">
        <ele>71</ele>
        <time>2014-05-25T15:43:54Z</time>
      </trkpt>
      <trkpt lat="44.49674" lon="-0.64849">
        <ele>71</ele>
        <time>2014-05-25T15:43:55Z</time>
      </trkpt>
      <trkpt lat="44.49675" lon="-0.64851">
        <ele>71</ele>
        <time>2014-05-25T15:43:56Z</time>
      </trkpt>
      <trkpt lat="44.49675" lon="-0.64853">
        <ele>71</ele>
        <time>2014-05-25T15:43:57Z</time>
      </trkpt>
      <trkpt lat="44.49675" lon="-0.64856">
        <ele>71</ele>
        <time>2014-05-25T15:43:58Z</time>
      </trkpt>
      <trkpt lat="44.49674" lon="-0.64857">
        <ele>71</ele>
        <time>2014-05-25T15:43:59Z</time>
      </trkpt>
      <trkpt lat="44.49673" lon="-0.64859">
        <ele>71</ele>
        <time>2014-05-25T15:44:00Z</time>
      </trkpt>
      <trkpt lat="44.49671" lon="-0.64861">
        <ele>71</ele>
        <time>2014-05-25T15:44:01Z</time>
      </trkpt>
      <trkpt lat="44.49671" lon="-0.64863">
        <ele>71</ele>
        <time>2014-05-25T15:44:02Z</time>
      </trkpt>
      <trkpt lat="44.4967" lon="-0.64866">
        <ele>71</ele>
        <time>2014-05-25T15:44:03Z</time>
      </trkpt>
      <trkpt lat="44.4967" lon="-0.64871">
        <ele>71</ele>
        <time>2014-05-25T15:44:04Z</time>
      </trkpt>
      <trkpt lat="44.4967" lon="-0.64875">
        <ele>71</ele>
        <time>2014-05-25T15:44:05Z</time>
      </trkpt>
      <trkpt lat="44.4967" lon="-0.6488">
        <ele>72</ele>
        <time>2014-05-25T15:44:06Z</time>
      </trkpt>
      <trkpt lat="44.49671" lon="-0.64884">
        <ele>72</ele>
        <time>2014-05-25T15:44:07Z</time>
      </trkpt>
      <trkpt lat="44.49672" lon="-0.64889">
        <ele>72</ele>
        <time>2014-05-25T15:44:08Z</time>
      </trkpt>
      <trkpt lat="44.49674" lon="-0.64893">
        <ele>72</ele>
        <time>2014-05-25T15:44:09Z</time>
      </trkpt>
      <trkpt lat="44.4968" lon="-0.6491">
        <ele>72</ele>
        <time>2014-05-25T15:44:14Z</time>
      </trkpt>
      <trkpt lat="44.4968" lon="-0.64912">
        <ele>72</ele>
        <time>2014-05-25T15:44:15Z</time>
      </trkpt>
      <trkpt lat="44.49679" lon="-0.6493">
        <ele>72</ele>
        <time>2014-05-25T15:44:20Z</time>
      </trkpt>
    </trkseg>
  </trk>
</gpx>